<?xml version="1.0" encoding="UTF-8" standalone="no" ?>
<gpx xmlns="http://www.topografix.com/GPX/1/1" xmlns:xsi="http://www.w3.org/2001/XMLSchema-instance" xsi:schemaLocation="http://www.topografix.com/GPX/1/1 http://www.topografix.com/GPX/1/1/gpx.xsd" version="1.1" creator="VisuGPX - https://www.visugpx.com">
  <metadata>
    <name>Razorbike, Grundig, Ushuaïa</name>
    <desc><![CDATA[Avec Gaso, Léo et Nicolas.]]></desc>
  </metadata>
  <trk>
    <name><![CDATA[Razorbike, Grundig, Ushuaïa]]></name>
    <desc><![CDATA[Avec Gaso, Léo, Nicolas.]]></desc>
    <trkseg>
      <trkpt lat="43.54916" lon="7.01246">
        <ele>3.5999999046326</ele>
        <time>2013-12-27T07:11:41.000Z</time>
      </trkpt>
      <trkpt lat="43.54859" lon="7.01259">
        <ele>3.4000000953674</ele>
        <time>2013-12-27T07:11:52.000Z</time>
      </trkpt>
      <trkpt lat="43.54854" lon="7.0126">
        <ele>3.4000000953674</ele>
        <time>2013-12-27T07:11:53.000Z</time>
      </trkpt>
      <trkpt lat="43.54833" lon="7.01264">
        <ele>3.4000000953674</ele>
        <time>2013-12-27T07:11:57.000Z</time>
      </trkpt>
      <trkpt lat="43.54829" lon="7.01256">
        <ele>3.7999999523163</ele>
        <time>2013-12-27T07:11:59.000Z</time>
      </trkpt>
      <trkpt lat="43.54829" lon="7.01236">
        <ele>5</ele>
        <time>2013-12-27T07:12:02.000Z</time>
      </trkpt>
      <trkpt lat="43.5483" lon="7.01221">
        <ele>6</ele>
        <time>2013-12-27T07:12:04.000Z</time>
      </trkpt>
      <trkpt lat="43.54828" lon="7.01192">
        <ele>8</ele>
        <time>2013-12-27T07:12:08.000Z</time>
      </trkpt>
      <trkpt lat="43.54821" lon="7.01139">
        <ele>10</ele>
        <time>2013-12-27T07:12:15.000Z</time>
      </trkpt>
      <trkpt lat="43.54814" lon="7.01065">
        <ele>10.199999809265</ele>
        <time>2013-12-27T07:12:25.000Z</time>
      </trkpt>
      <trkpt lat="43.54815" lon="7.01058">
        <ele>10.199999809265</ele>
        <time>2013-12-27T07:12:26.000Z</time>
      </trkpt>
      <trkpt lat="43.54821" lon="7.01022">
        <ele>10.60000038147</ele>
        <time>2013-12-27T07:12:31.000Z</time>
      </trkpt>
      <trkpt lat="43.54838" lon="7.00952">
        <ele>10.800000190735</ele>
        <time>2013-12-27T07:12:41.000Z</time>
      </trkpt>
      <trkpt lat="43.54849" lon="7.00895">
        <ele>10.60000038147</ele>
        <time>2013-12-27T07:12:49.000Z</time>
      </trkpt>
      <trkpt lat="43.54862" lon="7.00831">
        <ele>10.800000190735</ele>
        <time>2013-12-27T07:12:58.000Z</time>
      </trkpt>
      <trkpt lat="43.54869" lon="7.00799">
        <ele>10.199999809265</ele>
        <time>2013-12-27T07:13:04.000Z</time>
      </trkpt>
      <trkpt lat="43.5487" lon="7.00794">
        <ele>10.199999809265</ele>
        <time>2013-12-27T07:13:09.000Z</time>
      </trkpt>
      <trkpt lat="43.54871" lon="7.00789">
        <ele>10</ele>
        <time>2013-12-27T07:13:39.000Z</time>
      </trkpt>
      <trkpt lat="43.54876" lon="7.00767">
        <ele>9.3999996185303</ele>
        <time>2013-12-27T07:13:43.000Z</time>
      </trkpt>
      <trkpt lat="43.54879" lon="7.00728">
        <ele>8</ele>
        <time>2013-12-27T07:13:48.000Z</time>
      </trkpt>
      <trkpt lat="43.54884" lon="7.00654">
        <ele>6.8000001907349</ele>
        <time>2013-12-27T07:13:57.000Z</time>
      </trkpt>
      <trkpt lat="43.54887" lon="7.00605">
        <ele>9</ele>
        <time>2013-12-27T07:14:03.000Z</time>
      </trkpt>
      <trkpt lat="43.54893" lon="7.00531">
        <ele>7.8000001907349</ele>
        <time>2013-12-27T07:14:12.000Z</time>
      </trkpt>
      <trkpt lat="43.54894" lon="7.00514">
        <ele>7.1999998092651</ele>
        <time>2013-12-27T07:14:14.000Z</time>
      </trkpt>
      <trkpt lat="43.549" lon="7.00439">
        <ele>4</ele>
        <time>2013-12-27T07:14:23.000Z</time>
      </trkpt>
      <trkpt lat="43.549" lon="7.00431">
        <ele>3.5999999046326</ele>
        <time>2013-12-27T07:14:24.000Z</time>
      </trkpt>
      <trkpt lat="43.54904" lon="7.0035">
        <ele>3.2000000476837</ele>
        <time>2013-12-27T07:14:34.000Z</time>
      </trkpt>
      <trkpt lat="43.54901" lon="7.00284">
        <ele>2.7999999523163</ele>
        <time>2013-12-27T07:14:42.000Z</time>
      </trkpt>
      <trkpt lat="43.54901" lon="7.00204">
        <ele>2.4000000953674</ele>
        <time>2013-12-27T07:14:52.000Z</time>
      </trkpt>
      <trkpt lat="43.54902" lon="7.00187">
        <ele>2.4000000953674</ele>
        <time>2013-12-27T07:14:54.000Z</time>
      </trkpt>
      <trkpt lat="43.54905" lon="7.00106">
        <ele>4.4000000953674</ele>
        <time>2013-12-27T07:15:04.000Z</time>
      </trkpt>
      <trkpt lat="43.54905" lon="7.00097">
        <ele>4.5999999046326</ele>
        <time>2013-12-27T07:15:05.000Z</time>
      </trkpt>
      <trkpt lat="43.54909" lon="7.00017">
        <ele>8.6000003814697</ele>
        <time>2013-12-27T07:15:15.000Z</time>
      </trkpt>
      <trkpt lat="43.54911" lon="6.99953">
        <ele>8.6000003814697</ele>
        <time>2013-12-27T07:15:23.000Z</time>
      </trkpt>
      <trkpt lat="43.54914" lon="6.99881">
        <ele>6.4000000953674</ele>
        <time>2013-12-27T07:15:32.000Z</time>
      </trkpt>
      <trkpt lat="43.54919" lon="6.99802">
        <ele>5.1999998092651</ele>
        <time>2013-12-27T07:15:42.000Z</time>
      </trkpt>
      <trkpt lat="43.5492" lon="6.99779">
        <ele>5.1999998092651</ele>
        <time>2013-12-27T07:15:45.000Z</time>
      </trkpt>
      <trkpt lat="43.54923" lon="6.99699">
        <ele>6.1999998092651</ele>
        <time>2013-12-27T07:15:55.000Z</time>
      </trkpt>
      <trkpt lat="43.54924" lon="6.99683">
        <ele>6.4000000953674</ele>
        <time>2013-12-27T07:15:57.000Z</time>
      </trkpt>
      <trkpt lat="43.54926" lon="6.99602">
        <ele>5.4000000953674</ele>
        <time>2013-12-27T07:16:07.000Z</time>
      </trkpt>
      <trkpt lat="43.54926" lon="6.99586">
        <ele>5</ele>
        <time>2013-12-27T07:16:09.000Z</time>
      </trkpt>
      <trkpt lat="43.54926" lon="6.99505">
        <ele>5.5999999046326</ele>
        <time>2013-12-27T07:16:19.000Z</time>
      </trkpt>
      <trkpt lat="43.54926" lon="6.99488">
        <ele>6</ele>
        <time>2013-12-27T07:16:21.000Z</time>
      </trkpt>
      <trkpt lat="43.54924" lon="6.99417">
        <ele>8.3999996185303</ele>
        <time>2013-12-27T07:16:30.000Z</time>
      </trkpt>
      <trkpt lat="43.54923" lon="6.99409">
        <ele>8.1999998092651</ele>
        <time>2013-12-27T07:16:33.000Z</time>
      </trkpt>
      <trkpt lat="43.54923" lon="6.99409">
        <ele>8.1999998092651</ele>
        <time>2013-12-27T07:16:38.000Z</time>
      </trkpt>
      <trkpt lat="43.54924" lon="6.99399">
        <ele>7.8000001907349</ele>
        <time>2013-12-27T07:16:52.000Z</time>
      </trkpt>
      <trkpt lat="43.54921" lon="6.99368">
        <ele>6.5999999046326</ele>
        <time>2013-12-27T07:16:57.000Z</time>
      </trkpt>
      <trkpt lat="43.54916" lon="6.9929">
        <ele>7</ele>
        <time>2013-12-27T07:17:07.000Z</time>
      </trkpt>
      <trkpt lat="43.54912" lon="6.99217">
        <ele>7.5999999046326</ele>
        <time>2013-12-27T07:17:16.000Z</time>
      </trkpt>
      <trkpt lat="43.54908" lon="6.99135">
        <ele>5.1999998092651</ele>
        <time>2013-12-27T07:17:26.000Z</time>
      </trkpt>
      <trkpt lat="43.54907" lon="6.99127">
        <ele>5</ele>
        <time>2013-12-27T07:17:27.000Z</time>
      </trkpt>
      <trkpt lat="43.54903" lon="6.99046">
        <ele>3.2000000476837</ele>
        <time>2013-12-27T07:17:37.000Z</time>
      </trkpt>
      <trkpt lat="43.54903" lon="6.99038">
        <ele>3.2000000476837</ele>
        <time>2013-12-27T07:17:38.000Z</time>
      </trkpt>
      <trkpt lat="43.54899" lon="6.9897">
        <ele>2.7999999523163</ele>
        <time>2013-12-27T07:17:46.000Z</time>
      </trkpt>
      <trkpt lat="43.54894" lon="6.98895">
        <ele>4</ele>
        <time>2013-12-27T07:17:55.000Z</time>
      </trkpt>
      <trkpt lat="43.54893" lon="6.98879">
        <ele>4</ele>
        <time>2013-12-27T07:17:57.000Z</time>
      </trkpt>
      <trkpt lat="43.54885" lon="6.98813">
        <ele>4.8000001907349</ele>
        <time>2013-12-27T07:18:05.000Z</time>
      </trkpt>
      <trkpt lat="43.54874" lon="6.98738">
        <ele>6.1999998092651</ele>
        <time>2013-12-27T07:18:14.000Z</time>
      </trkpt>
      <trkpt lat="43.54871" lon="6.98722">
        <ele>5.8000001907349</ele>
        <time>2013-12-27T07:18:16.000Z</time>
      </trkpt>
      <trkpt lat="43.54857" lon="6.98647">
        <ele>4.4000000953674</ele>
        <time>2013-12-27T07:18:25.000Z</time>
      </trkpt>
      <trkpt lat="43.54856" lon="6.98639">
        <ele>4.8000001907349</ele>
        <time>2013-12-27T07:18:26.000Z</time>
      </trkpt>
      <trkpt lat="43.54842" lon="6.98565">
        <ele>8.3999996185303</ele>
        <time>2013-12-27T07:18:35.000Z</time>
      </trkpt>
      <trkpt lat="43.54838" lon="6.98548">
        <ele>9</ele>
        <time>2013-12-27T07:18:37.000Z</time>
      </trkpt>
      <trkpt lat="43.54825" lon="6.98474">
        <ele>9.3999996185303</ele>
        <time>2013-12-27T07:18:46.000Z</time>
      </trkpt>
      <trkpt lat="43.54822" lon="6.98458">
        <ele>8.8000001907349</ele>
        <time>2013-12-27T07:18:48.000Z</time>
      </trkpt>
      <trkpt lat="43.54807" lon="6.9838">
        <ele>6.5999999046326</ele>
        <time>2013-12-27T07:18:58.000Z</time>
      </trkpt>
      <trkpt lat="43.54806" lon="6.98372">
        <ele>6.4000000953674</ele>
        <time>2013-12-27T07:18:59.000Z</time>
      </trkpt>
      <trkpt lat="43.54794" lon="6.98299">
        <ele>6.8000001907349</ele>
        <time>2013-12-27T07:19:08.000Z</time>
      </trkpt>
      <trkpt lat="43.54792" lon="6.98291">
        <ele>7</ele>
        <time>2013-12-27T07:19:09.000Z</time>
      </trkpt>
      <trkpt lat="43.54782" lon="6.98218">
        <ele>7.5999999046326</ele>
        <time>2013-12-27T07:19:18.000Z</time>
      </trkpt>
      <trkpt lat="43.54779" lon="6.98193">
        <ele>7.4000000953674</ele>
        <time>2013-12-27T07:19:21.000Z</time>
      </trkpt>
      <trkpt lat="43.5477" lon="6.98126">
        <ele>6.1999998092651</ele>
        <time>2013-12-27T07:19:29.000Z</time>
      </trkpt>
      <trkpt lat="43.54765" lon="6.98086">
        <ele>5.8000001907349</ele>
        <time>2013-12-27T07:19:35.000Z</time>
      </trkpt>
      <trkpt lat="43.54758" lon="6.98029">
        <ele>5.5999999046326</ele>
        <time>2013-12-27T07:19:44.000Z</time>
      </trkpt>
      <trkpt lat="43.5475" lon="6.97967">
        <ele>5.4000000953674</ele>
        <time>2013-12-27T07:19:53.000Z</time>
      </trkpt>
      <trkpt lat="43.54739" lon="6.97904">
        <ele>5.1999998092651</ele>
        <time>2013-12-27T07:20:02.000Z</time>
      </trkpt>
      <trkpt lat="43.54727" lon="6.97831">
        <ele>3.7999999523163</ele>
        <time>2013-12-27T07:20:12.000Z</time>
      </trkpt>
      <trkpt lat="43.54715" lon="6.97758">
        <ele>2.7999999523163</ele>
        <time>2013-12-27T07:20:22.000Z</time>
      </trkpt>
      <trkpt lat="43.54699" lon="6.97682">
        <ele>0.80000001192093</ele>
        <time>2013-12-27T07:20:32.000Z</time>
      </trkpt>
      <trkpt lat="43.54698" lon="6.97674">
        <ele>0.60000002384186</ele>
        <time>2013-12-27T07:20:33.000Z</time>
      </trkpt>
      <trkpt lat="43.5468" lon="6.97599">
        <ele>-0.40000000596046</ele>
        <time>2013-12-27T07:20:43.000Z</time>
      </trkpt>
      <trkpt lat="43.54677" lon="6.97584">
        <ele>-0.60000002384186</ele>
        <time>2013-12-27T07:20:45.000Z</time>
      </trkpt>
      <trkpt lat="43.54659" lon="6.9751">
        <ele>-0.20000000298023</ele>
        <time>2013-12-27T07:20:55.000Z</time>
      </trkpt>
      <trkpt lat="43.54657" lon="6.97502">
        <ele>-0.20000000298023</ele>
        <time>2013-12-27T07:20:56.000Z</time>
      </trkpt>
      <trkpt lat="43.54637" lon="6.97428">
        <ele>3</ele>
        <time>2013-12-27T07:21:06.000Z</time>
      </trkpt>
      <trkpt lat="43.54635" lon="6.97421">
        <ele>3</ele>
        <time>2013-12-27T07:21:07.000Z</time>
      </trkpt>
      <trkpt lat="43.54614" lon="6.97348">
        <ele>-0.80000001192093</ele>
        <time>2013-12-27T07:21:17.000Z</time>
      </trkpt>
      <trkpt lat="43.54612" lon="6.9734">
        <ele>-1</ele>
        <time>2013-12-27T07:21:18.000Z</time>
      </trkpt>
      <trkpt lat="43.54594" lon="6.97273">
        <ele>-1.2000000476837</ele>
        <time>2013-12-27T07:21:27.000Z</time>
      </trkpt>
      <trkpt lat="43.54576" lon="6.97203">
        <ele>3</ele>
        <time>2013-12-27T07:21:36.000Z</time>
      </trkpt>
      <trkpt lat="43.54571" lon="6.97187">
        <ele>2.9</ele>
        <time>2013-12-27T07:21:38.000Z</time>
      </trkpt>
      <trkpt lat="43.54552" lon="6.97117">
        <ele>0.20000000298023</ele>
        <time>2013-12-27T07:21:47.000Z</time>
      </trkpt>
      <trkpt lat="43.54548" lon="6.97102">
        <ele>0.20000000298023</ele>
        <time>2013-12-27T07:21:49.000Z</time>
      </trkpt>
      <trkpt lat="43.54526" lon="6.97029">
        <ele>0.20000000298023</ele>
        <time>2013-12-27T07:21:59.000Z</time>
      </trkpt>
      <trkpt lat="43.54521" lon="6.97015">
        <ele>0.20000000298023</ele>
        <time>2013-12-27T07:22:01.000Z</time>
      </trkpt>
      <trkpt lat="43.54496" lon="6.96943">
        <ele>0.80000001192093</ele>
        <time>2013-12-27T07:22:11.000Z</time>
      </trkpt>
      <trkpt lat="43.5449" lon="6.96929">
        <ele>1</ele>
        <time>2013-12-27T07:22:13.000Z</time>
      </trkpt>
      <trkpt lat="43.54465" lon="6.96863">
        <ele>1.6000000238419</ele>
        <time>2013-12-27T07:22:22.000Z</time>
      </trkpt>
      <trkpt lat="43.54453" lon="6.96833">
        <ele>2.4000000953674</ele>
        <time>2013-12-27T07:22:26.000Z</time>
      </trkpt>
      <trkpt lat="43.54435" lon="6.96787">
        <ele>3</ele>
        <time>2013-12-27T07:22:32.000Z</time>
      </trkpt>
      <trkpt lat="43.54429" lon="6.96772">
        <ele>3.4000000953674</ele>
        <time>2013-12-27T07:22:34.000Z</time>
      </trkpt>
      <trkpt lat="43.54405" lon="6.96705">
        <ele>3.2000000476837</ele>
        <time>2013-12-27T07:22:43.000Z</time>
      </trkpt>
      <trkpt lat="43.54403" lon="6.96698">
        <ele>3</ele>
        <time>2013-12-27T07:22:44.000Z</time>
      </trkpt>
      <trkpt lat="43.54383" lon="6.96628">
        <ele>2.2000000476837</ele>
        <time>2013-12-27T07:22:53.000Z</time>
      </trkpt>
      <trkpt lat="43.5438" lon="6.96621">
        <ele>2.2000000476837</ele>
        <time>2013-12-27T07:22:54.000Z</time>
      </trkpt>
      <trkpt lat="43.54358" lon="6.96552">
        <ele>3.7999999523163</ele>
        <time>2013-12-27T07:23:03.000Z</time>
      </trkpt>
      <trkpt lat="43.5433" lon="6.9648">
        <ele>8.6000003814697</ele>
        <time>2013-12-27T07:23:13.000Z</time>
      </trkpt>
      <trkpt lat="43.54301" lon="6.96414">
        <ele>6.5999999046326</ele>
        <time>2013-12-27T07:23:22.000Z</time>
      </trkpt>
      <trkpt lat="43.54298" lon="6.96407">
        <ele>6.5999999046326</ele>
        <time>2013-12-27T07:23:23.000Z</time>
      </trkpt>
      <trkpt lat="43.54271" lon="6.96344">
        <ele>7.4000000953674</ele>
        <time>2013-12-27T07:23:32.000Z</time>
      </trkpt>
      <trkpt lat="43.54239" lon="6.96274">
        <ele>9</ele>
        <time>2013-12-27T07:23:42.000Z</time>
      </trkpt>
      <trkpt lat="43.54236" lon="6.96267">
        <ele>9</ele>
        <time>2013-12-27T07:23:43.000Z</time>
      </trkpt>
      <trkpt lat="43.54214" lon="6.9622">
        <ele>8.1999998092651</ele>
        <time>2013-12-27T07:23:50.000Z</time>
      </trkpt>
      <trkpt lat="43.54184" lon="6.96151">
        <ele>7.4000000953674</ele>
        <time>2013-12-27T07:24:00.000Z</time>
      </trkpt>
      <trkpt lat="43.5418" lon="6.96136">
        <ele>6.8000001907349</ele>
        <time>2013-12-27T07:24:02.000Z</time>
      </trkpt>
      <trkpt lat="43.54178" lon="6.9612">
        <ele>6.1999998092651</ele>
        <time>2013-12-27T07:24:04.000Z</time>
      </trkpt>
      <trkpt lat="43.54165" lon="6.96103">
        <ele>5.4000000953674</ele>
        <time>2013-12-27T07:24:07.000Z</time>
      </trkpt>
      <trkpt lat="43.5416" lon="6.961">
        <ele>5.4000000953674</ele>
        <time>2013-12-27T07:24:08.000Z</time>
      </trkpt>
      <trkpt lat="43.54155" lon="6.96095">
        <ele>5.1999998092651</ele>
        <time>2013-12-27T07:24:09.000Z</time>
      </trkpt>
      <trkpt lat="43.54147" lon="6.96083">
        <ele>5.1999998092651</ele>
        <time>2013-12-27T07:24:11.000Z</time>
      </trkpt>
      <trkpt lat="43.54111" lon="6.96026">
        <ele>8</ele>
        <time>2013-12-27T07:24:20.000Z</time>
      </trkpt>
      <trkpt lat="43.54082" lon="6.95979">
        <ele>9.8000001907349</ele>
        <time>2013-12-27T07:24:28.000Z</time>
      </trkpt>
      <trkpt lat="43.54046" lon="6.9592">
        <ele>11.60000038147</ele>
        <time>2013-12-27T07:24:38.000Z</time>
      </trkpt>
      <trkpt lat="43.54019" lon="6.95876">
        <ele>9</ele>
        <time>2013-12-27T07:24:46.000Z</time>
      </trkpt>
      <trkpt lat="43.53981" lon="6.95816">
        <ele>6.8000001907349</ele>
        <time>2013-12-27T07:24:56.000Z</time>
      </trkpt>
      <trkpt lat="43.53948" lon="6.95762">
        <ele>7.8000001907349</ele>
        <time>2013-12-27T07:25:05.000Z</time>
      </trkpt>
      <trkpt lat="43.53921" lon="6.9572">
        <ele>9</ele>
        <time>2013-12-27T07:25:13.000Z</time>
      </trkpt>
      <trkpt lat="43.53897" lon="6.95684">
        <ele>9.6000003814697</ele>
        <time>2013-12-27T07:25:21.000Z</time>
      </trkpt>
      <trkpt lat="43.53874" lon="6.95647">
        <ele>11</ele>
        <time>2013-12-27T07:25:29.000Z</time>
      </trkpt>
      <trkpt lat="43.53871" lon="6.95641">
        <ele>11.199999809265</ele>
        <time>2013-12-27T07:25:31.000Z</time>
      </trkpt>
      <trkpt lat="43.5387" lon="6.95638">
        <ele>11.39999961853</ele>
        <time>2013-12-27T07:25:33.000Z</time>
      </trkpt>
      <trkpt lat="43.53868" lon="6.95635">
        <ele>11.39999961853</ele>
        <time>2013-12-27T07:25:36.000Z</time>
      </trkpt>
      <trkpt lat="43.53867" lon="6.95634">
        <ele>11.39999961853</ele>
        <time>2013-12-27T07:25:38.000Z</time>
      </trkpt>
      <trkpt lat="43.53868" lon="6.95637">
        <ele>11.39999961853</ele>
        <time>2013-12-27T07:25:45.000Z</time>
      </trkpt>
      <trkpt lat="43.53868" lon="6.95633">
        <ele>11.39999961853</ele>
        <time>2013-12-27T07:31:57.000Z</time>
      </trkpt>
      <trkpt lat="43.53863" lon="6.95628">
        <ele>11.800000190735</ele>
        <time>2013-12-27T07:32:00.000Z</time>
      </trkpt>
      <trkpt lat="43.53861" lon="6.95626">
        <ele>11.800000190735</ele>
        <time>2013-12-27T07:32:01.000Z</time>
      </trkpt>
      <trkpt lat="43.53849" lon="6.9561">
        <ele>12.39999961853</ele>
        <time>2013-12-27T07:32:06.000Z</time>
      </trkpt>
      <trkpt lat="43.53831" lon="6.95584">
        <ele>13.199999809265</ele>
        <time>2013-12-27T07:32:13.000Z</time>
      </trkpt>
      <trkpt lat="43.5381" lon="6.95557">
        <ele>13</ele>
        <time>2013-12-27T07:32:20.000Z</time>
      </trkpt>
      <trkpt lat="43.53796" lon="6.95538">
        <ele>12.39999961853</ele>
        <time>2013-12-27T07:32:24.000Z</time>
      </trkpt>
      <trkpt lat="43.53784" lon="6.95521">
        <ele>11.39999961853</ele>
        <time>2013-12-27T07:32:28.000Z</time>
      </trkpt>
      <trkpt lat="43.53766" lon="6.95493">
        <ele>9.3999996185303</ele>
        <time>2013-12-27T07:32:35.000Z</time>
      </trkpt>
      <trkpt lat="43.53747" lon="6.95468">
        <ele>8</ele>
        <time>2013-12-27T07:32:41.000Z</time>
      </trkpt>
      <trkpt lat="43.53721" lon="6.95437">
        <ele>6.4000000953674</ele>
        <time>2013-12-27T07:32:49.000Z</time>
      </trkpt>
      <trkpt lat="43.53699" lon="6.95409">
        <ele>5</ele>
        <time>2013-12-27T07:32:56.000Z</time>
      </trkpt>
      <trkpt lat="43.53679" lon="6.95385">
        <ele>3.7999999523163</ele>
        <time>2013-12-27T07:33:03.000Z</time>
      </trkpt>
      <trkpt lat="43.53649" lon="6.95356">
        <ele>3.2000000476837</ele>
        <time>2013-12-27T07:33:12.000Z</time>
      </trkpt>
      <trkpt lat="43.53624" lon="6.95329">
        <ele>2.5999999046326</ele>
        <time>2013-12-27T07:33:20.000Z</time>
      </trkpt>
      <trkpt lat="43.53605" lon="6.95307">
        <ele>2.5999999046326</ele>
        <time>2013-12-27T07:33:26.000Z</time>
      </trkpt>
      <trkpt lat="43.53581" lon="6.95277">
        <ele>3.4000000953674</ele>
        <time>2013-12-27T07:33:34.000Z</time>
      </trkpt>
      <trkpt lat="43.53558" lon="6.95251">
        <ele>4.1999998092651</ele>
        <time>2013-12-27T07:33:41.000Z</time>
      </trkpt>
      <trkpt lat="43.53534" lon="6.95223">
        <ele>4.4000000953674</ele>
        <time>2013-12-27T07:33:48.000Z</time>
      </trkpt>
      <trkpt lat="43.5351" lon="6.95195">
        <ele>3.7999999523163</ele>
        <time>2013-12-27T07:33:55.000Z</time>
      </trkpt>
      <trkpt lat="43.53484" lon="6.95166">
        <ele>2.4000000953674</ele>
        <time>2013-12-27T07:34:02.000Z</time>
      </trkpt>
      <trkpt lat="43.53455" lon="6.95134">
        <ele>2.2000000476837</ele>
        <time>2013-12-27T07:34:10.000Z</time>
      </trkpt>
      <trkpt lat="43.53432" lon="6.9511">
        <ele>2.4000000953674</ele>
        <time>2013-12-27T07:34:16.000Z</time>
      </trkpt>
      <trkpt lat="43.53407" lon="6.95083">
        <ele>2.7999999523163</ele>
        <time>2013-12-27T07:34:23.000Z</time>
      </trkpt>
      <trkpt lat="43.53379" lon="6.95056">
        <ele>3.4000000953674</ele>
        <time>2013-12-27T07:34:31.000Z</time>
      </trkpt>
      <trkpt lat="43.5335" lon="6.95028">
        <ele>3.2000000476837</ele>
        <time>2013-12-27T07:34:39.000Z</time>
      </trkpt>
      <trkpt lat="43.5332" lon="6.94999">
        <ele>3</ele>
        <time>2013-12-27T07:34:48.000Z</time>
      </trkpt>
      <trkpt lat="43.53295" lon="6.94975">
        <ele>3.7999999523163</ele>
        <time>2013-12-27T07:34:55.000Z</time>
      </trkpt>
      <trkpt lat="43.53274" lon="6.94958">
        <ele>4.1999998092651</ele>
        <time>2013-12-27T07:35:02.000Z</time>
      </trkpt>
      <trkpt lat="43.53243" lon="6.94927">
        <ele>4.5999999046326</ele>
        <time>2013-12-27T07:35:10.000Z</time>
      </trkpt>
      <trkpt lat="43.53214" lon="6.94903">
        <ele>4.5999999046326</ele>
        <time>2013-12-27T07:35:17.000Z</time>
      </trkpt>
      <trkpt lat="43.53193" lon="6.94875">
        <ele>4.8000001907349</ele>
        <time>2013-12-27T07:35:24.000Z</time>
      </trkpt>
      <trkpt lat="43.53175" lon="6.9484">
        <ele>5.1999998092651</ele>
        <time>2013-12-27T07:35:31.000Z</time>
      </trkpt>
      <trkpt lat="43.5317" lon="6.9483">
        <ele>5</ele>
        <time>2013-12-27T07:35:33.000Z</time>
      </trkpt>
      <trkpt lat="43.53156" lon="6.94814">
        <ele>4.4000000953674</ele>
        <time>2013-12-27T07:35:37.000Z</time>
      </trkpt>
      <trkpt lat="43.5313" lon="6.94799">
        <ele>4</ele>
        <time>2013-12-27T07:35:43.000Z</time>
      </trkpt>
      <trkpt lat="43.5309" lon="6.94781">
        <ele>3.4000000953674</ele>
        <time>2013-12-27T07:35:52.000Z</time>
      </trkpt>
      <trkpt lat="43.53056" lon="6.94766">
        <ele>4.4000000953674</ele>
        <time>2013-12-27T07:35:59.000Z</time>
      </trkpt>
      <trkpt lat="43.53026" lon="6.94752">
        <ele>5.8000001907349</ele>
        <time>2013-12-27T07:36:05.000Z</time>
      </trkpt>
      <trkpt lat="43.5299" lon="6.94741">
        <ele>6.8000001907349</ele>
        <time>2013-12-27T07:36:11.000Z</time>
      </trkpt>
      <trkpt lat="43.52963" lon="6.94733">
        <ele>6.5999999046326</ele>
        <time>2013-12-27T07:36:16.000Z</time>
      </trkpt>
      <trkpt lat="43.52927" lon="6.94717">
        <ele>6.5999999046326</ele>
        <time>2013-12-27T07:36:23.000Z</time>
      </trkpt>
      <trkpt lat="43.52902" lon="6.94702">
        <ele>6.5999999046326</ele>
        <time>2013-12-27T07:36:29.000Z</time>
      </trkpt>
      <trkpt lat="43.52884" lon="6.94689">
        <ele>6.4000000953674</ele>
        <time>2013-12-27T07:36:34.000Z</time>
      </trkpt>
      <trkpt lat="43.52881" lon="6.94686">
        <ele>6.4000000953674</ele>
        <time>2013-12-27T07:36:35.000Z</time>
      </trkpt>
      <trkpt lat="43.52866" lon="6.94676">
        <ele>6.1999998092651</ele>
        <time>2013-12-27T07:36:39.000Z</time>
      </trkpt>
      <trkpt lat="43.52829" lon="6.94651">
        <ele>5.5999999046326</ele>
        <time>2013-12-27T07:36:47.000Z</time>
      </trkpt>
      <trkpt lat="43.52806" lon="6.94636">
        <ele>4.5999999046326</ele>
        <time>2013-12-27T07:36:53.000Z</time>
      </trkpt>
      <trkpt lat="43.5278" lon="6.94617">
        <ele>3.5999999046326</ele>
        <time>2013-12-27T07:36:59.000Z</time>
      </trkpt>
      <trkpt lat="43.52762" lon="6.94603">
        <ele>3.2000000476837</ele>
        <time>2013-12-27T07:37:03.000Z</time>
      </trkpt>
      <trkpt lat="43.52755" lon="6.94597">
        <ele>3</ele>
        <time>2013-12-27T07:37:05.000Z</time>
      </trkpt>
      <trkpt lat="43.52725" lon="6.94574">
        <ele>3.2000000476837</ele>
        <time>2013-12-27T07:37:12.000Z</time>
      </trkpt>
      <trkpt lat="43.52692" lon="6.94549">
        <ele>3.4000000953674</ele>
        <time>2013-12-27T07:37:20.000Z</time>
      </trkpt>
      <trkpt lat="43.52688" lon="6.94546">
        <ele>3.4000000953674</ele>
        <time>2013-12-27T07:37:21.000Z</time>
      </trkpt>
      <trkpt lat="43.52666" lon="6.94527">
        <ele>3.5999999046326</ele>
        <time>2013-12-27T07:37:26.000Z</time>
      </trkpt>
      <trkpt lat="43.52639" lon="6.94505">
        <ele>3.5999999046326</ele>
        <time>2013-12-27T07:37:32.000Z</time>
      </trkpt>
      <trkpt lat="43.52605" lon="6.94473">
        <ele>4</ele>
        <time>2013-12-27T07:37:40.000Z</time>
      </trkpt>
      <trkpt lat="43.52563" lon="6.94434">
        <ele>5</ele>
        <time>2013-12-27T07:37:50.000Z</time>
      </trkpt>
      <trkpt lat="43.52541" lon="6.94413">
        <ele>5.5999999046326</ele>
        <time>2013-12-27T07:37:56.000Z</time>
      </trkpt>
      <trkpt lat="43.5253" lon="6.94401">
        <ele>5.5999999046326</ele>
        <time>2013-12-27T07:37:59.000Z</time>
      </trkpt>
      <trkpt lat="43.52517" lon="6.94389">
        <ele>5.5999999046326</ele>
        <time>2013-12-27T07:38:02.000Z</time>
      </trkpt>
      <trkpt lat="43.52491" lon="6.94368">
        <ele>5.8000001907349</ele>
        <time>2013-12-27T07:38:07.000Z</time>
      </trkpt>
      <trkpt lat="43.52465" lon="6.9434">
        <ele>6</ele>
        <time>2013-12-27T07:38:13.000Z</time>
      </trkpt>
      <trkpt lat="43.52461" lon="6.94336">
        <ele>6</ele>
        <time>2013-12-27T07:38:14.000Z</time>
      </trkpt>
      <trkpt lat="43.52443" lon="6.94313">
        <ele>6.1999998092651</ele>
        <time>2013-12-27T07:38:19.000Z</time>
      </trkpt>
      <trkpt lat="43.52424" lon="6.94277">
        <ele>7.5999999046326</ele>
        <time>2013-12-27T07:38:26.000Z</time>
      </trkpt>
      <trkpt lat="43.52407" lon="6.94247">
        <ele>9.1999998092651</ele>
        <time>2013-12-27T07:38:33.000Z</time>
      </trkpt>
      <trkpt lat="43.52391" lon="6.94215">
        <ele>10.39999961853</ele>
        <time>2013-12-27T07:38:41.000Z</time>
      </trkpt>
      <trkpt lat="43.52376" lon="6.94184">
        <ele>11.800000190735</ele>
        <time>2013-12-27T07:38:49.000Z</time>
      </trkpt>
      <trkpt lat="43.52359" lon="6.94164">
        <ele>12.800000190735</ele>
        <time>2013-12-27T07:38:55.000Z</time>
      </trkpt>
      <trkpt lat="43.52334" lon="6.94154">
        <ele>13.60000038147</ele>
        <time>2013-12-27T07:39:03.000Z</time>
      </trkpt>
      <trkpt lat="43.52309" lon="6.94146">
        <ele>13.199999809265</ele>
        <time>2013-12-27T07:39:12.000Z</time>
      </trkpt>
      <trkpt lat="43.52299" lon="6.94127">
        <ele>14</ele>
        <time>2013-12-27T07:39:18.000Z</time>
      </trkpt>
      <trkpt lat="43.52293" lon="6.94099">
        <ele>16</ele>
        <time>2013-12-27T07:39:24.000Z</time>
      </trkpt>
      <trkpt lat="43.5228" lon="6.94078">
        <ele>17.60000038147</ele>
        <time>2013-12-27T07:39:29.000Z</time>
      </trkpt>
      <trkpt lat="43.52257" lon="6.94066">
        <ele>18.799999237061</ele>
        <time>2013-12-27T07:39:35.000Z</time>
      </trkpt>
      <trkpt lat="43.52227" lon="6.94051">
        <ele>18.799999237061</ele>
        <time>2013-12-27T07:39:42.000Z</time>
      </trkpt>
      <trkpt lat="43.52202" lon="6.94034">
        <ele>19</ele>
        <time>2013-12-27T07:39:49.000Z</time>
      </trkpt>
      <trkpt lat="43.52182" lon="6.94015">
        <ele>19.39999961853</ele>
        <time>2013-12-27T07:39:56.000Z</time>
      </trkpt>
      <trkpt lat="43.52164" lon="6.93992">
        <ele>21.39999961853</ele>
        <time>2013-12-27T07:40:04.000Z</time>
      </trkpt>
      <trkpt lat="43.52151" lon="6.93973">
        <ele>26.39999961853</ele>
        <time>2013-12-27T07:40:11.000Z</time>
      </trkpt>
      <trkpt lat="43.52137" lon="6.93975">
        <ele>29.200000762939</ele>
        <time>2013-12-27T07:40:16.000Z</time>
      </trkpt>
      <trkpt lat="43.52128" lon="6.93987">
        <ele>29.39999961853</ele>
        <time>2013-12-27T07:40:21.000Z</time>
      </trkpt>
      <trkpt lat="43.52121" lon="6.94007">
        <ele>28</ele>
        <time>2013-12-27T07:40:28.000Z</time>
      </trkpt>
      <trkpt lat="43.52105" lon="6.94027">
        <ele>26.60000038147</ele>
        <time>2013-12-27T07:40:35.000Z</time>
      </trkpt>
      <trkpt lat="43.52089" lon="6.94045">
        <ele>25</ele>
        <time>2013-12-27T07:40:42.000Z</time>
      </trkpt>
      <trkpt lat="43.52071" lon="6.94054">
        <ele>23.60000038147</ele>
        <time>2013-12-27T07:40:48.000Z</time>
      </trkpt>
      <trkpt lat="43.52048" lon="6.94058">
        <ele>23.39999961853</ele>
        <time>2013-12-27T07:40:56.000Z</time>
      </trkpt>
      <trkpt lat="43.52025" lon="6.94047">
        <ele>26.60000038147</ele>
        <time>2013-12-27T07:41:05.000Z</time>
      </trkpt>
      <trkpt lat="43.52007" lon="6.94041">
        <ele>28.60000038147</ele>
        <time>2013-12-27T07:41:12.000Z</time>
      </trkpt>
      <trkpt lat="43.51986" lon="6.94033">
        <ele>29.799999237061</ele>
        <time>2013-12-27T07:41:20.000Z</time>
      </trkpt>
      <trkpt lat="43.51966" lon="6.94021">
        <ele>31.200000762939</ele>
        <time>2013-12-27T07:41:28.000Z</time>
      </trkpt>
      <trkpt lat="43.51941" lon="6.94007">
        <ele>33.400001525879</ele>
        <time>2013-12-27T07:41:36.000Z</time>
      </trkpt>
      <trkpt lat="43.51908" lon="6.9399">
        <ele>34.200000762939</ele>
        <time>2013-12-27T07:41:45.000Z</time>
      </trkpt>
      <trkpt lat="43.5188" lon="6.93975">
        <ele>30</ele>
        <time>2013-12-27T07:41:51.000Z</time>
      </trkpt>
      <trkpt lat="43.51871" lon="6.93967">
        <ele>29.39999961853</ele>
        <time>2013-12-27T07:41:53.000Z</time>
      </trkpt>
      <trkpt lat="43.51861" lon="6.93955">
        <ele>29.60000038147</ele>
        <time>2013-12-27T07:41:55.000Z</time>
      </trkpt>
      <trkpt lat="43.51858" lon="6.93947">
        <ele>30.39999961853</ele>
        <time>2013-12-27T07:41:56.000Z</time>
      </trkpt>
      <trkpt lat="43.51835" lon="6.93906">
        <ele>31.799999237061</ele>
        <time>2013-12-27T07:42:01.000Z</time>
      </trkpt>
      <trkpt lat="43.51808" lon="6.93865">
        <ele>27.200000762939</ele>
        <time>2013-12-27T07:42:06.000Z</time>
      </trkpt>
      <trkpt lat="43.51804" lon="6.93855">
        <ele>26.60000038147</ele>
        <time>2013-12-27T07:42:07.000Z</time>
      </trkpt>
      <trkpt lat="43.51794" lon="6.93807">
        <ele>25.39999961853</ele>
        <time>2013-12-27T07:42:11.000Z</time>
      </trkpt>
      <trkpt lat="43.51788" lon="6.93742">
        <ele>25.39999961853</ele>
        <time>2013-12-27T07:42:16.000Z</time>
      </trkpt>
      <trkpt lat="43.51779" lon="6.93702">
        <ele>22.60000038147</ele>
        <time>2013-12-27T07:42:19.000Z</time>
      </trkpt>
      <trkpt lat="43.51778" lon="6.93688">
        <ele>22.39999961853</ele>
        <time>2013-12-27T07:42:20.000Z</time>
      </trkpt>
      <trkpt lat="43.51782" lon="6.93647">
        <ele>24.60000038147</ele>
        <time>2013-12-27T07:42:23.000Z</time>
      </trkpt>
      <trkpt lat="43.51783" lon="6.93633">
        <ele>25.200000762939</ele>
        <time>2013-12-27T07:42:24.000Z</time>
      </trkpt>
      <trkpt lat="43.51786" lon="6.93582">
        <ele>26.799999237061</ele>
        <time>2013-12-27T07:42:28.000Z</time>
      </trkpt>
      <trkpt lat="43.51785" lon="6.9357">
        <ele>26.60000038147</ele>
        <time>2013-12-27T07:42:29.000Z</time>
      </trkpt>
      <trkpt lat="43.51773" lon="6.93543">
        <ele>23.39999961853</ele>
        <time>2013-12-27T07:42:32.000Z</time>
      </trkpt>
      <trkpt lat="43.51754" lon="6.9353">
        <ele>16.60000038147</ele>
        <time>2013-12-27T07:42:35.000Z</time>
      </trkpt>
      <trkpt lat="43.51734" lon="6.93533">
        <ele>20.799999237061</ele>
        <time>2013-12-27T07:42:38.000Z</time>
      </trkpt>
      <trkpt lat="43.51717" lon="6.93552">
        <ele>25.39999961853</ele>
        <time>2013-12-27T07:42:42.000Z</time>
      </trkpt>
      <trkpt lat="43.51714" lon="6.93557">
        <ele>25.799999237061</ele>
        <time>2013-12-27T07:42:43.000Z</time>
      </trkpt>
      <trkpt lat="43.51702" lon="6.93582">
        <ele>26.39999961853</ele>
        <time>2013-12-27T07:42:48.000Z</time>
      </trkpt>
      <trkpt lat="43.51695" lon="6.93596">
        <ele>27.200000762939</ele>
        <time>2013-12-27T07:42:52.000Z</time>
      </trkpt>
      <trkpt lat="43.51691" lon="6.93602">
        <ele>27.60000038147</ele>
        <time>2013-12-27T07:42:54.000Z</time>
      </trkpt>
      <trkpt lat="43.51679" lon="6.93625">
        <ele>27.60000038147</ele>
        <time>2013-12-27T07:43:02.000Z</time>
      </trkpt>
      <trkpt lat="43.51665" lon="6.93655">
        <ele>26.200000762939</ele>
        <time>2013-12-27T07:43:11.000Z</time>
      </trkpt>
      <trkpt lat="43.51653" lon="6.93676">
        <ele>26.60000038147</ele>
        <time>2013-12-27T07:43:18.000Z</time>
      </trkpt>
      <trkpt lat="43.51634" lon="6.93708">
        <ele>26</ele>
        <time>2013-12-27T07:43:29.000Z</time>
      </trkpt>
      <trkpt lat="43.51631" lon="6.93733">
        <ele>22</ele>
        <time>2013-12-27T07:43:36.000Z</time>
      </trkpt>
      <trkpt lat="43.51616" lon="6.93758">
        <ele>19.39999961853</ele>
        <time>2013-12-27T07:43:43.000Z</time>
      </trkpt>
      <trkpt lat="43.516" lon="6.93776">
        <ele>18.39999961853</ele>
        <time>2013-12-27T07:43:48.000Z</time>
      </trkpt>
      <trkpt lat="43.51586" lon="6.93777">
        <ele>19.799999237061</ele>
        <time>2013-12-27T07:43:51.000Z</time>
      </trkpt>
      <trkpt lat="43.51582" lon="6.93776">
        <ele>20.200000762939</ele>
        <time>2013-12-27T07:43:52.000Z</time>
      </trkpt>
      <trkpt lat="43.51552" lon="6.93758">
        <ele>20</ele>
        <time>2013-12-27T07:43:58.000Z</time>
      </trkpt>
      <trkpt lat="43.51515" lon="6.93731">
        <ele>20.39999961853</ele>
        <time>2013-12-27T07:44:05.000Z</time>
      </trkpt>
      <trkpt lat="43.5151" lon="6.93725">
        <ele>20.799999237061</ele>
        <time>2013-12-27T07:44:06.000Z</time>
      </trkpt>
      <trkpt lat="43.51496" lon="6.93707">
        <ele>22</ele>
        <time>2013-12-27T07:44:09.000Z</time>
      </trkpt>
      <trkpt lat="43.51485" lon="6.937">
        <ele>22.799999237061</ele>
        <time>2013-12-27T07:44:11.000Z</time>
      </trkpt>
      <trkpt lat="43.51473" lon="6.93698">
        <ele>22.60000038147</ele>
        <time>2013-12-27T07:44:13.000Z</time>
      </trkpt>
      <trkpt lat="43.51456" lon="6.93695">
        <ele>22.200000762939</ele>
        <time>2013-12-27T07:44:16.000Z</time>
      </trkpt>
      <trkpt lat="43.51412" lon="6.93693">
        <ele>21.200000762939</ele>
        <time>2013-12-27T07:44:24.000Z</time>
      </trkpt>
      <trkpt lat="43.5137" lon="6.93701">
        <ele>22.60000038147</ele>
        <time>2013-12-27T07:44:33.000Z</time>
      </trkpt>
      <trkpt lat="43.51348" lon="6.93711">
        <ele>21.39999961853</ele>
        <time>2013-12-27T07:44:38.000Z</time>
      </trkpt>
      <trkpt lat="43.51338" lon="6.93713">
        <ele>21.60000038147</ele>
        <time>2013-12-27T07:44:40.000Z</time>
      </trkpt>
      <trkpt lat="43.51301" lon="6.93709">
        <ele>23</ele>
        <time>2013-12-27T07:44:48.000Z</time>
      </trkpt>
      <trkpt lat="43.51252" lon="6.93701">
        <ele>25.39999961853</ele>
        <time>2013-12-27T07:44:59.000Z</time>
      </trkpt>
      <trkpt lat="43.51248" lon="6.93701">
        <ele>25.39999961853</ele>
        <time>2013-12-27T07:45:00.000Z</time>
      </trkpt>
      <trkpt lat="43.51236" lon="6.93707">
        <ele>24.39999961853</ele>
        <time>2013-12-27T07:45:03.000Z</time>
      </trkpt>
      <trkpt lat="43.51223" lon="6.93724">
        <ele>20.60000038147</ele>
        <time>2013-12-27T07:45:07.000Z</time>
      </trkpt>
      <trkpt lat="43.51211" lon="6.9374">
        <ele>17</ele>
        <time>2013-12-27T07:45:10.000Z</time>
      </trkpt>
      <trkpt lat="43.51199" lon="6.93746">
        <ele>16</ele>
        <time>2013-12-27T07:45:12.000Z</time>
      </trkpt>
      <trkpt lat="43.51173" lon="6.93746">
        <ele>16.799999237061</ele>
        <time>2013-12-27T07:45:16.000Z</time>
      </trkpt>
      <trkpt lat="43.51135" lon="6.93744">
        <ele>15</ele>
        <time>2013-12-27T07:45:22.000Z</time>
      </trkpt>
      <trkpt lat="43.51128" lon="6.93742">
        <ele>15</ele>
        <time>2013-12-27T07:45:23.000Z</time>
      </trkpt>
      <trkpt lat="43.51092" lon="6.9372">
        <ele>16</ele>
        <time>2013-12-27T07:45:29.000Z</time>
      </trkpt>
      <trkpt lat="43.51067" lon="6.9369">
        <ele>19.60000038147</ele>
        <time>2013-12-27T07:45:34.000Z</time>
      </trkpt>
      <trkpt lat="43.51062" lon="6.93686">
        <ele>20.200000762939</ele>
        <time>2013-12-27T07:45:35.000Z</time>
      </trkpt>
      <trkpt lat="43.5105" lon="6.93684">
        <ele>20.39999961853</ele>
        <time>2013-12-27T07:45:37.000Z</time>
      </trkpt>
      <trkpt lat="43.51027" lon="6.93692">
        <ele>18.200000762939</ele>
        <time>2013-12-27T07:45:41.000Z</time>
      </trkpt>
      <trkpt lat="43.50981" lon="6.93717">
        <ele>13</ele>
        <time>2013-12-27T07:45:49.000Z</time>
      </trkpt>
      <trkpt lat="43.50956" lon="6.93731">
        <ele>12</ele>
        <time>2013-12-27T07:45:53.000Z</time>
      </trkpt>
      <trkpt lat="43.50944" lon="6.93732">
        <ele>12.800000190735</ele>
        <time>2013-12-27T07:45:55.000Z</time>
      </trkpt>
      <trkpt lat="43.50932" lon="6.93732">
        <ele>13.800000190735</ele>
        <time>2013-12-27T07:45:57.000Z</time>
      </trkpt>
      <trkpt lat="43.50913" lon="6.93735">
        <ele>14.39999961853</ele>
        <time>2013-12-27T07:46:00.000Z</time>
      </trkpt>
      <trkpt lat="43.50908" lon="6.93735">
        <ele>14.60000038147</ele>
        <time>2013-12-27T07:46:01.000Z</time>
      </trkpt>
      <trkpt lat="43.50892" lon="6.93747">
        <ele>12.800000190735</ele>
        <time>2013-12-27T07:46:04.000Z</time>
      </trkpt>
      <trkpt lat="43.50845" lon="6.9378">
        <ele>12.39999961853</ele>
        <time>2013-12-27T07:46:13.000Z</time>
      </trkpt>
      <trkpt lat="43.50826" lon="6.93794">
        <ele>13.39999961853</ele>
        <time>2013-12-27T07:46:17.000Z</time>
      </trkpt>
      <trkpt lat="43.50819" lon="6.93804">
        <ele>14.60000038147</ele>
        <time>2013-12-27T07:46:19.000Z</time>
      </trkpt>
      <trkpt lat="43.50815" lon="6.93809">
        <ele>15</ele>
        <time>2013-12-27T07:46:20.000Z</time>
      </trkpt>
      <trkpt lat="43.50809" lon="6.93827">
        <ele>15.60000038147</ele>
        <time>2013-12-27T07:46:23.000Z</time>
      </trkpt>
      <trkpt lat="43.50804" lon="6.93868">
        <ele>15.800000190735</ele>
        <time>2013-12-27T07:46:30.000Z</time>
      </trkpt>
      <trkpt lat="43.50796" lon="6.93887">
        <ele>16.799999237061</ele>
        <time>2013-12-27T07:46:34.000Z</time>
      </trkpt>
      <trkpt lat="43.50793" lon="6.93898">
        <ele>17.39999961853</ele>
        <time>2013-12-27T07:46:36.000Z</time>
      </trkpt>
      <trkpt lat="43.50785" lon="6.93924">
        <ele>17.799999237061</ele>
        <time>2013-12-27T07:46:41.000Z</time>
      </trkpt>
      <trkpt lat="43.50785" lon="6.9393">
        <ele>17.60000038147</ele>
        <time>2013-12-27T07:46:42.000Z</time>
      </trkpt>
      <trkpt lat="43.50783" lon="6.93942">
        <ele>16.799999237061</ele>
        <time>2013-12-27T07:46:44.000Z</time>
      </trkpt>
      <trkpt lat="43.50781" lon="6.93962">
        <ele>15.199999809265</ele>
        <time>2013-12-27T07:46:47.000Z</time>
      </trkpt>
      <trkpt lat="43.50774" lon="6.94028">
        <ele>11.800000190735</ele>
        <time>2013-12-27T07:46:56.000Z</time>
      </trkpt>
      <trkpt lat="43.50769" lon="6.94087">
        <ele>10.60000038147</ele>
        <time>2013-12-27T07:47:03.000Z</time>
      </trkpt>
      <trkpt lat="43.50766" lon="6.94104">
        <ele>9.3999996185303</ele>
        <time>2013-12-27T07:47:05.000Z</time>
      </trkpt>
      <trkpt lat="43.5076" lon="6.94128">
        <ele>7.8000001907349</ele>
        <time>2013-12-27T07:47:08.000Z</time>
      </trkpt>
      <trkpt lat="43.50744" lon="6.94164">
        <ele>5.5999999046326</ele>
        <time>2013-12-27T07:47:13.000Z</time>
      </trkpt>
      <trkpt lat="43.50741" lon="6.94169">
        <ele>5.4000000953674</ele>
        <time>2013-12-27T07:47:14.000Z</time>
      </trkpt>
      <trkpt lat="43.50732" lon="6.94171">
        <ele>6</ele>
        <time>2013-12-27T07:47:16.000Z</time>
      </trkpt>
      <trkpt lat="43.50726" lon="6.94162">
        <ele>6.5999999046326</ele>
        <time>2013-12-27T07:47:18.000Z</time>
      </trkpt>
      <trkpt lat="43.50723" lon="6.94157">
        <ele>7</ele>
        <time>2013-12-27T07:47:19.000Z</time>
      </trkpt>
      <trkpt lat="43.50702" lon="6.94126">
        <ele>8.6000003814697</ele>
        <time>2013-12-27T07:47:25.000Z</time>
      </trkpt>
      <trkpt lat="43.50679" lon="6.94098">
        <ele>8.6000003814697</ele>
        <time>2013-12-27T07:47:31.000Z</time>
      </trkpt>
      <trkpt lat="43.50674" lon="6.94093">
        <ele>8.3999996185303</ele>
        <time>2013-12-27T07:47:32.000Z</time>
      </trkpt>
      <trkpt lat="43.50669" lon="6.94085">
        <ele>8.1999998092651</ele>
        <time>2013-12-27T07:47:34.000Z</time>
      </trkpt>
      <trkpt lat="43.50663" lon="6.94073">
        <ele>9</ele>
        <time>2013-12-27T07:47:37.000Z</time>
      </trkpt>
      <trkpt lat="43.50637" lon="6.94034">
        <ele>12.199999809265</ele>
        <time>2013-12-27T07:47:44.000Z</time>
      </trkpt>
      <trkpt lat="43.50618" lon="6.94008">
        <ele>11.39999961853</ele>
        <time>2013-12-27T07:47:51.000Z</time>
      </trkpt>
      <trkpt lat="43.50617" lon="6.94004">
        <ele>11</ele>
        <time>2013-12-27T07:47:52.000Z</time>
      </trkpt>
      <trkpt lat="43.50613" lon="6.93986">
        <ele>11.199999809265</ele>
        <time>2013-12-27T07:47:56.000Z</time>
      </trkpt>
      <trkpt lat="43.50599" lon="6.93977">
        <ele>11.39999961853</ele>
        <time>2013-12-27T07:48:00.000Z</time>
      </trkpt>
      <trkpt lat="43.50592" lon="6.9397">
        <ele>11.199999809265</ele>
        <time>2013-12-27T07:48:02.000Z</time>
      </trkpt>
      <trkpt lat="43.50578" lon="6.93952">
        <ele>12</ele>
        <time>2013-12-27T07:48:06.000Z</time>
      </trkpt>
      <trkpt lat="43.50557" lon="6.93922">
        <ele>13.199999809265</ele>
        <time>2013-12-27T07:48:13.000Z</time>
      </trkpt>
      <trkpt lat="43.50548" lon="6.93913">
        <ele>14</ele>
        <time>2013-12-27T07:48:16.000Z</time>
      </trkpt>
      <trkpt lat="43.50538" lon="6.93906">
        <ele>15.39999961853</ele>
        <time>2013-12-27T07:48:19.000Z</time>
      </trkpt>
      <trkpt lat="43.5051" lon="6.93886">
        <ele>17.60000038147</ele>
        <time>2013-12-27T07:48:27.000Z</time>
      </trkpt>
      <trkpt lat="43.50495" lon="6.93877">
        <ele>19</ele>
        <time>2013-12-27T07:48:32.000Z</time>
      </trkpt>
      <trkpt lat="43.50477" lon="6.93866">
        <ele>22</ele>
        <time>2013-12-27T07:48:37.000Z</time>
      </trkpt>
      <trkpt lat="43.50448" lon="6.93846">
        <ele>25.200000762939</ele>
        <time>2013-12-27T07:48:45.000Z</time>
      </trkpt>
      <trkpt lat="43.50435" lon="6.93829">
        <ele>25.60000038147</ele>
        <time>2013-12-27T07:48:50.000Z</time>
      </trkpt>
      <trkpt lat="43.50423" lon="6.93811">
        <ele>27.39999961853</ele>
        <time>2013-12-27T07:48:55.000Z</time>
      </trkpt>
      <trkpt lat="43.50418" lon="6.93801">
        <ele>27.799999237061</ele>
        <time>2013-12-27T07:49:00.000Z</time>
      </trkpt>
      <trkpt lat="43.50412" lon="6.9379">
        <ele>29.200000762939</ele>
        <time>2013-12-27T07:49:04.000Z</time>
      </trkpt>
      <trkpt lat="43.50412" lon="6.93779">
        <ele>29.200000762939</ele>
        <time>2013-12-27T07:49:08.000Z</time>
      </trkpt>
      <trkpt lat="43.50407" lon="6.93769">
        <ele>30.200000762939</ele>
        <time>2013-12-27T07:49:12.000Z</time>
      </trkpt>
      <trkpt lat="43.50402" lon="6.93764">
        <ele>31</ele>
        <time>2013-12-27T07:49:15.000Z</time>
      </trkpt>
      <trkpt lat="43.50396" lon="6.93757">
        <ele>31.60000038147</ele>
        <time>2013-12-27T07:49:20.000Z</time>
      </trkpt>
      <trkpt lat="43.50389" lon="6.93753">
        <ele>32.200000762939</ele>
        <time>2013-12-27T07:49:28.000Z</time>
      </trkpt>
      <trkpt lat="43.50386" lon="6.9375">
        <ele>32.200000762939</ele>
        <time>2013-12-27T07:49:34.000Z</time>
      </trkpt>
      <trkpt lat="43.50382" lon="6.93749">
        <ele>32.799999237061</ele>
        <time>2013-12-27T07:49:40.000Z</time>
      </trkpt>
      <trkpt lat="43.5038" lon="6.93746">
        <ele>33.599998474121</ele>
        <time>2013-12-27T07:49:44.000Z</time>
      </trkpt>
      <trkpt lat="43.50377" lon="6.93743">
        <ele>34.400001525879</ele>
        <time>2013-12-27T07:49:47.000Z</time>
      </trkpt>
      <trkpt lat="43.50369" lon="6.93738">
        <ele>35.400001525879</ele>
        <time>2013-12-27T07:49:54.000Z</time>
      </trkpt>
      <trkpt lat="43.50358" lon="6.93734">
        <ele>36.400001525879</ele>
        <time>2013-12-27T07:50:02.000Z</time>
      </trkpt>
      <trkpt lat="43.50358" lon="6.93734">
        <ele>36.599998474121</ele>
        <time>2013-12-27T07:50:07.000Z</time>
      </trkpt>
      <trkpt lat="43.50356" lon="6.93737">
        <ele>36.400001525879</ele>
        <time>2013-12-27T07:50:15.000Z</time>
      </trkpt>
      <trkpt lat="43.50354" lon="6.93736">
        <ele>36.599998474121</ele>
        <time>2013-12-27T08:03:17.000Z</time>
      </trkpt>
      <trkpt lat="43.50345" lon="6.93727">
        <ele>37.599998474121</ele>
        <time>2013-12-27T08:04:41.000Z</time>
      </trkpt>
      <trkpt lat="43.50347" lon="6.93729">
        <ele>37.400001525879</ele>
        <time>2013-12-27T08:04:44.000Z</time>
      </trkpt>
      <trkpt lat="43.50353" lon="6.93731">
        <ele>37</ele>
        <time>2013-12-27T08:06:17.000Z</time>
      </trkpt>
      <trkpt lat="43.50352" lon="6.9373">
        <ele>37.200000762939</ele>
        <time>2013-12-27T08:06:18.000Z</time>
      </trkpt>
      <trkpt lat="43.50341" lon="6.93736">
        <ele>37.599998474121</ele>
        <time>2013-12-27T08:06:23.000Z</time>
      </trkpt>
      <trkpt lat="43.50331" lon="6.93731">
        <ele>38.200000762939</ele>
        <time>2013-12-27T08:06:27.000Z</time>
      </trkpt>
      <trkpt lat="43.50329" lon="6.93729">
        <ele>38.599998474121</ele>
        <time>2013-12-27T08:06:28.000Z</time>
      </trkpt>
      <trkpt lat="43.50321" lon="6.93722">
        <ele>39.400001525879</ele>
        <time>2013-12-27T08:06:32.000Z</time>
      </trkpt>
      <trkpt lat="43.50318" lon="6.9372">
        <ele>39.799999237061</ele>
        <time>2013-12-27T08:06:35.000Z</time>
      </trkpt>
      <trkpt lat="43.50316" lon="6.93714">
        <ele>40</ele>
        <time>2013-12-27T08:06:37.000Z</time>
      </trkpt>
      <trkpt lat="43.50306" lon="6.93705">
        <ele>41.400001525879</ele>
        <time>2013-12-27T08:06:43.000Z</time>
      </trkpt>
      <trkpt lat="43.50288" lon="6.93697">
        <ele>43.599998474121</ele>
        <time>2013-12-27T08:06:53.000Z</time>
      </trkpt>
      <trkpt lat="43.5027" lon="6.937">
        <ele>45.799999237061</ele>
        <time>2013-12-27T08:06:59.000Z</time>
      </trkpt>
      <trkpt lat="43.5025" lon="6.93713">
        <ele>47.799999237061</ele>
        <time>2013-12-27T08:07:03.000Z</time>
      </trkpt>
      <trkpt lat="43.50226" lon="6.9372">
        <ele>48.400001525879</ele>
        <time>2013-12-27T08:07:08.000Z</time>
      </trkpt>
      <trkpt lat="43.50213" lon="6.93721">
        <ele>48.799999237061</ele>
        <time>2013-12-27T08:07:12.000Z</time>
      </trkpt>
      <trkpt lat="43.5021" lon="6.93721">
        <ele>48.799999237061</ele>
        <time>2013-12-27T08:07:13.000Z</time>
      </trkpt>
      <trkpt lat="43.50207" lon="6.9372">
        <ele>49</ele>
        <time>2013-12-27T08:07:14.000Z</time>
      </trkpt>
      <trkpt lat="43.50198" lon="6.93719">
        <ele>49.200000762939</ele>
        <time>2013-12-27T08:07:17.000Z</time>
      </trkpt>
      <trkpt lat="43.5019" lon="6.93716">
        <ele>49.599998474121</ele>
        <time>2013-12-27T08:07:20.000Z</time>
      </trkpt>
      <trkpt lat="43.50186" lon="6.93716">
        <ele>49.799999237061</ele>
        <time>2013-12-27T08:07:22.000Z</time>
      </trkpt>
      <trkpt lat="43.50171" lon="6.93721">
        <ele>50</ele>
        <time>2013-12-27T08:07:28.000Z</time>
      </trkpt>
      <trkpt lat="43.50158" lon="6.93727">
        <ele>49.400001525879</ele>
        <time>2013-12-27T08:07:33.000Z</time>
      </trkpt>
      <trkpt lat="43.50142" lon="6.93727">
        <ele>49</ele>
        <time>2013-12-27T08:07:38.000Z</time>
      </trkpt>
      <trkpt lat="43.5012" lon="6.93723">
        <ele>48.400001525879</ele>
        <time>2013-12-27T08:07:45.000Z</time>
      </trkpt>
      <trkpt lat="43.50103" lon="6.9372">
        <ele>47.599998474121</ele>
        <time>2013-12-27T08:07:51.000Z</time>
      </trkpt>
      <trkpt lat="43.50084" lon="6.93709">
        <ele>46.599998474121</ele>
        <time>2013-12-27T08:07:58.000Z</time>
      </trkpt>
      <trkpt lat="43.50068" lon="6.93704">
        <ele>46.400001525879</ele>
        <time>2013-12-27T08:08:03.000Z</time>
      </trkpt>
      <trkpt lat="43.50053" lon="6.93704">
        <ele>46.200000762939</ele>
        <time>2013-12-27T08:08:08.000Z</time>
      </trkpt>
      <trkpt lat="43.50041" lon="6.93709">
        <ele>46.799999237061</ele>
        <time>2013-12-27T08:08:13.000Z</time>
      </trkpt>
      <trkpt lat="43.50027" lon="6.93714">
        <ele>47.599998474121</ele>
        <time>2013-12-27T08:08:20.000Z</time>
      </trkpt>
      <trkpt lat="43.50014" lon="6.93711">
        <ele>47.400001525879</ele>
        <time>2013-12-27T08:08:27.000Z</time>
      </trkpt>
      <trkpt lat="43.49997" lon="6.93703">
        <ele>46.400001525879</ele>
        <time>2013-12-27T08:08:35.000Z</time>
      </trkpt>
      <trkpt lat="43.49985" lon="6.93695">
        <ele>46</ele>
        <time>2013-12-27T08:08:42.000Z</time>
      </trkpt>
      <trkpt lat="43.49972" lon="6.93687">
        <ele>45.599998474121</ele>
        <time>2013-12-27T08:08:50.000Z</time>
      </trkpt>
      <trkpt lat="43.49957" lon="6.93681">
        <ele>45.799999237061</ele>
        <time>2013-12-27T08:09:00.000Z</time>
      </trkpt>
      <trkpt lat="43.49943" lon="6.93675">
        <ele>45.799999237061</ele>
        <time>2013-12-27T08:09:08.000Z</time>
      </trkpt>
      <trkpt lat="43.49933" lon="6.93669">
        <ele>45.200000762939</ele>
        <time>2013-12-27T08:09:14.000Z</time>
      </trkpt>
      <trkpt lat="43.49919" lon="6.93663">
        <ele>46</ele>
        <time>2013-12-27T08:09:21.000Z</time>
      </trkpt>
      <trkpt lat="43.4991" lon="6.93665">
        <ele>47</ele>
        <time>2013-12-27T08:09:27.000Z</time>
      </trkpt>
      <trkpt lat="43.49897" lon="6.93672">
        <ele>49.799999237061</ele>
        <time>2013-12-27T08:09:35.000Z</time>
      </trkpt>
      <trkpt lat="43.49885" lon="6.93678">
        <ele>52.599998474121</ele>
        <time>2013-12-27T08:09:42.000Z</time>
      </trkpt>
      <trkpt lat="43.49881" lon="6.93676">
        <ele>52.599998474121</ele>
        <time>2013-12-27T08:09:44.000Z</time>
      </trkpt>
      <trkpt lat="43.49876" lon="6.93669">
        <ele>51.400001525879</ele>
        <time>2013-12-27T08:09:47.000Z</time>
      </trkpt>
      <trkpt lat="43.49868" lon="6.93663">
        <ele>51.599998474121</ele>
        <time>2013-12-27T08:09:53.000Z</time>
      </trkpt>
      <trkpt lat="43.49864" lon="6.93663">
        <ele>52.200000762939</ele>
        <time>2013-12-27T08:09:56.000Z</time>
      </trkpt>
      <trkpt lat="43.49857" lon="6.93664">
        <ele>53</ele>
        <time>2013-12-27T08:10:00.000Z</time>
      </trkpt>
      <trkpt lat="43.49837" lon="6.93656">
        <ele>54.599998474121</ele>
        <time>2013-12-27T08:10:11.000Z</time>
      </trkpt>
      <trkpt lat="43.49818" lon="6.93643">
        <ele>57.200000762939</ele>
        <time>2013-12-27T08:10:21.000Z</time>
      </trkpt>
      <trkpt lat="43.49803" lon="6.93632">
        <ele>59</ele>
        <time>2013-12-27T08:10:30.000Z</time>
      </trkpt>
      <trkpt lat="43.49791" lon="6.93631">
        <ele>61.400001525879</ele>
        <time>2013-12-27T08:10:37.000Z</time>
      </trkpt>
      <trkpt lat="43.4978" lon="6.93628">
        <ele>63.200000762939</ele>
        <time>2013-12-27T08:10:43.000Z</time>
      </trkpt>
      <trkpt lat="43.49769" lon="6.93613">
        <ele>62.400001525879</ele>
        <time>2013-12-27T08:10:51.000Z</time>
      </trkpt>
      <trkpt lat="43.49759" lon="6.93598">
        <ele>61</ele>
        <time>2013-12-27T08:10:58.000Z</time>
      </trkpt>
      <trkpt lat="43.49747" lon="6.9358">
        <ele>59.200000762939</ele>
        <time>2013-12-27T08:11:06.000Z</time>
      </trkpt>
      <trkpt lat="43.49734" lon="6.93572">
        <ele>60.599998474121</ele>
        <time>2013-12-27T08:11:12.000Z</time>
      </trkpt>
      <trkpt lat="43.49716" lon="6.93569">
        <ele>62.200000762939</ele>
        <time>2013-12-27T08:11:19.000Z</time>
      </trkpt>
      <trkpt lat="43.497" lon="6.93574">
        <ele>63.400001525879</ele>
        <time>2013-12-27T08:11:25.000Z</time>
      </trkpt>
      <trkpt lat="43.49684" lon="6.9359">
        <ele>65.599998474121</ele>
        <time>2013-12-27T08:11:32.000Z</time>
      </trkpt>
      <trkpt lat="43.49669" lon="6.93618">
        <ele>70.400001525879</ele>
        <time>2013-12-27T08:11:40.000Z</time>
      </trkpt>
      <trkpt lat="43.4965" lon="6.93649">
        <ele>75.599998474121</ele>
        <time>2013-12-27T08:11:49.000Z</time>
      </trkpt>
      <trkpt lat="43.49632" lon="6.9367">
        <ele>77.599998474121</ele>
        <time>2013-12-27T08:11:57.000Z</time>
      </trkpt>
      <trkpt lat="43.49621" lon="6.93677">
        <ele>78.599998474121</ele>
        <time>2013-12-27T08:12:03.000Z</time>
      </trkpt>
      <trkpt lat="43.49617" lon="6.93674">
        <ele>78.199996948242</ele>
        <time>2013-12-27T08:12:05.000Z</time>
      </trkpt>
      <trkpt lat="43.49616" lon="6.9367">
        <ele>77.400001525879</ele>
        <time>2013-12-27T08:12:07.000Z</time>
      </trkpt>
      <trkpt lat="43.49618" lon="6.93656">
        <ele>77.400001525879</ele>
        <time>2013-12-27T08:12:11.000Z</time>
      </trkpt>
      <trkpt lat="43.49623" lon="6.93638">
        <ele>77.599998474121</ele>
        <time>2013-12-27T08:12:18.000Z</time>
      </trkpt>
      <trkpt lat="43.49627" lon="6.93627">
        <ele>77.199996948242</ele>
        <time>2013-12-27T08:12:24.000Z</time>
      </trkpt>
      <trkpt lat="43.49631" lon="6.93613">
        <ele>76.400001525879</ele>
        <time>2013-12-27T08:12:30.000Z</time>
      </trkpt>
      <trkpt lat="43.49637" lon="6.93597">
        <ele>75</ele>
        <time>2013-12-27T08:12:37.000Z</time>
      </trkpt>
      <trkpt lat="43.49644" lon="6.93577">
        <ele>73</ele>
        <time>2013-12-27T08:12:45.000Z</time>
      </trkpt>
      <trkpt lat="43.49647" lon="6.93561">
        <ele>73.400001525879</ele>
        <time>2013-12-27T08:12:51.000Z</time>
      </trkpt>
      <trkpt lat="43.49655" lon="6.93543">
        <ele>72</ele>
        <time>2013-12-27T08:12:58.000Z</time>
      </trkpt>
      <trkpt lat="43.49666" lon="6.93521">
        <ele>68.400001525879</ele>
        <time>2013-12-27T08:13:07.000Z</time>
      </trkpt>
      <trkpt lat="43.49674" lon="6.93505">
        <ele>68</ele>
        <time>2013-12-27T08:13:14.000Z</time>
      </trkpt>
      <trkpt lat="43.49675" lon="6.93487">
        <ele>68.199996948242</ele>
        <time>2013-12-27T08:13:20.000Z</time>
      </trkpt>
      <trkpt lat="43.4967" lon="6.93468">
        <ele>68.400001525879</ele>
        <time>2013-12-27T08:13:27.000Z</time>
      </trkpt>
      <trkpt lat="43.49665" lon="6.93447">
        <ele>69.199996948242</ele>
        <time>2013-12-27T08:13:35.000Z</time>
      </trkpt>
      <trkpt lat="43.49655" lon="6.93427">
        <ele>73</ele>
        <time>2013-12-27T08:13:43.000Z</time>
      </trkpt>
      <trkpt lat="43.49643" lon="6.9341">
        <ele>77.800003051758</ele>
        <time>2013-12-27T08:13:51.000Z</time>
      </trkpt>
      <trkpt lat="43.49627" lon="6.93394">
        <ele>83.800003051758</ele>
        <time>2013-12-27T08:14:00.000Z</time>
      </trkpt>
      <trkpt lat="43.49611" lon="6.93384">
        <ele>89.800003051758</ele>
        <time>2013-12-27T08:14:08.000Z</time>
      </trkpt>
      <trkpt lat="43.49592" lon="6.93376">
        <ele>96.400001525879</ele>
        <time>2013-12-27T08:14:17.000Z</time>
      </trkpt>
      <trkpt lat="43.49577" lon="6.93368">
        <ele>101.19999694824</ele>
        <time>2013-12-27T08:14:24.000Z</time>
      </trkpt>
      <trkpt lat="43.49573" lon="6.93355">
        <ele>101.59999847412</ele>
        <time>2013-12-27T08:14:29.000Z</time>
      </trkpt>
      <trkpt lat="43.49574" lon="6.93352">
        <ele>101.19999694824</ele>
        <time>2013-12-27T08:14:30.000Z</time>
      </trkpt>
      <trkpt lat="43.49579" lon="6.93344">
        <ele>98.400001525879</ele>
        <time>2013-12-27T08:14:34.000Z</time>
      </trkpt>
      <trkpt lat="43.49581" lon="6.93342">
        <ele>97.599998474121</ele>
        <time>2013-12-27T08:14:35.000Z</time>
      </trkpt>
      <trkpt lat="43.49596" lon="6.93331">
        <ele>92</ele>
        <time>2013-12-27T08:14:42.000Z</time>
      </trkpt>
      <trkpt lat="43.49613" lon="6.93322">
        <ele>87.199996948242</ele>
        <time>2013-12-27T08:14:50.000Z</time>
      </trkpt>
      <trkpt lat="43.49622" lon="6.93311">
        <ele>85.199996948242</ele>
        <time>2013-12-27T08:14:56.000Z</time>
      </trkpt>
      <trkpt lat="43.49626" lon="6.93286">
        <ele>86.199996948242</ele>
        <time>2013-12-27T08:15:04.000Z</time>
      </trkpt>
      <trkpt lat="43.49625" lon="6.93268">
        <ele>88</ele>
        <time>2013-12-27T08:15:10.000Z</time>
      </trkpt>
      <trkpt lat="43.49616" lon="6.93248">
        <ele>92.599998474121</ele>
        <time>2013-12-27T08:15:19.000Z</time>
      </trkpt>
      <trkpt lat="43.496" lon="6.93236">
        <ele>98.199996948242</ele>
        <time>2013-12-27T08:15:25.000Z</time>
      </trkpt>
      <trkpt lat="43.4958" lon="6.93216">
        <ele>106.19999694824</ele>
        <time>2013-12-27T08:15:34.000Z</time>
      </trkpt>
      <trkpt lat="43.49577" lon="6.932">
        <ele>108.19999694824</ele>
        <time>2013-12-27T08:15:38.000Z</time>
      </trkpt>
      <trkpt lat="43.49584" lon="6.93186">
        <ele>105.80000305176</ele>
        <time>2013-12-27T08:15:43.000Z</time>
      </trkpt>
      <trkpt lat="43.49596" lon="6.93172">
        <ele>102.80000305176</ele>
        <time>2013-12-27T08:15:49.000Z</time>
      </trkpt>
      <trkpt lat="43.49611" lon="6.93156">
        <ele>99.599998474121</ele>
        <time>2013-12-27T08:15:57.000Z</time>
      </trkpt>
      <trkpt lat="43.4962" lon="6.9314">
        <ele>98.599998474121</ele>
        <time>2013-12-27T08:16:04.000Z</time>
      </trkpt>
      <trkpt lat="43.49625" lon="6.93122">
        <ele>99.400001525879</ele>
        <time>2013-12-27T08:16:11.000Z</time>
      </trkpt>
      <trkpt lat="43.49631" lon="6.93104">
        <ele>100</ele>
        <time>2013-12-27T08:16:18.000Z</time>
      </trkpt>
      <trkpt lat="43.49636" lon="6.93081">
        <ele>101</ele>
        <time>2013-12-27T08:16:26.000Z</time>
      </trkpt>
      <trkpt lat="43.49636" lon="6.93061">
        <ele>101</ele>
        <time>2013-12-27T08:16:33.000Z</time>
      </trkpt>
      <trkpt lat="43.49626" lon="6.9305">
        <ele>103.59999847412</ele>
        <time>2013-12-27T08:16:39.000Z</time>
      </trkpt>
      <trkpt lat="43.49611" lon="6.93041">
        <ele>107.80000305176</ele>
        <time>2013-12-27T08:16:47.000Z</time>
      </trkpt>
      <trkpt lat="43.49596" lon="6.93028">
        <ele>111.40000152588</ele>
        <time>2013-12-27T08:16:55.000Z</time>
      </trkpt>
      <trkpt lat="43.49593" lon="6.93012">
        <ele>111.19999694824</ele>
        <time>2013-12-27T08:17:00.000Z</time>
      </trkpt>
      <trkpt lat="43.49598" lon="6.92996">
        <ele>109.40000152588</ele>
        <time>2013-12-27T08:17:05.000Z</time>
      </trkpt>
      <trkpt lat="43.49599" lon="6.9299">
        <ele>108.80000305176</ele>
        <time>2013-12-27T08:17:07.000Z</time>
      </trkpt>
      <trkpt lat="43.49596" lon="6.92982">
        <ele>108.80000305176</ele>
        <time>2013-12-27T08:17:10.000Z</time>
      </trkpt>
      <trkpt lat="43.49595" lon="6.9298">
        <ele>109</ele>
        <time>2013-12-27T08:17:11.000Z</time>
      </trkpt>
      <trkpt lat="43.49587" lon="6.92964">
        <ele>109.59999847412</ele>
        <time>2013-12-27T08:17:18.000Z</time>
      </trkpt>
      <trkpt lat="43.49579" lon="6.92943">
        <ele>110.40000152588</ele>
        <time>2013-12-27T08:17:26.000Z</time>
      </trkpt>
      <trkpt lat="43.49568" lon="6.92918">
        <ele>112.40000152588</ele>
        <time>2013-12-27T08:17:36.000Z</time>
      </trkpt>
      <trkpt lat="43.49559" lon="6.92904">
        <ele>114.19999694824</ele>
        <time>2013-12-27T08:17:43.000Z</time>
      </trkpt>
      <trkpt lat="43.49547" lon="6.92889">
        <ele>116.80000305176</ele>
        <time>2013-12-27T08:17:50.000Z</time>
      </trkpt>
      <trkpt lat="43.49537" lon="6.92873">
        <ele>118.19999694824</ele>
        <time>2013-12-27T08:17:57.000Z</time>
      </trkpt>
      <trkpt lat="43.49527" lon="6.92861">
        <ele>119.59999847412</ele>
        <time>2013-12-27T08:18:03.000Z</time>
      </trkpt>
      <trkpt lat="43.49509" lon="6.92841">
        <ele>121.80000305176</ele>
        <time>2013-12-27T08:18:13.000Z</time>
      </trkpt>
      <trkpt lat="43.49506" lon="6.92824">
        <ele>121.19999694824</ele>
        <time>2013-12-27T08:18:19.000Z</time>
      </trkpt>
      <trkpt lat="43.495" lon="6.92799">
        <ele>121.80000305176</ele>
        <time>2013-12-27T08:18:28.000Z</time>
      </trkpt>
      <trkpt lat="43.49496" lon="6.92789">
        <ele>121</ele>
        <time>2013-12-27T08:18:33.000Z</time>
      </trkpt>
      <trkpt lat="43.49494" lon="6.92785">
        <ele>120.59999847412</ele>
        <time>2013-12-27T08:18:38.000Z</time>
      </trkpt>
      <trkpt lat="43.4949" lon="6.92785">
        <ele>120.19999694824</ele>
        <time>2013-12-27T08:18:56.000Z</time>
      </trkpt>
      <trkpt lat="43.49486" lon="6.92796">
        <ele>120.40000152588</ele>
        <time>2013-12-27T08:19:02.000Z</time>
      </trkpt>
      <trkpt lat="43.4948" lon="6.9281">
        <ele>120.80000305176</ele>
        <time>2013-12-27T08:19:08.000Z</time>
      </trkpt>
      <trkpt lat="43.49469" lon="6.92827">
        <ele>121.80000305176</ele>
        <time>2013-12-27T08:19:16.000Z</time>
      </trkpt>
      <trkpt lat="43.49458" lon="6.92844">
        <ele>123.59999847412</ele>
        <time>2013-12-27T08:19:24.000Z</time>
      </trkpt>
      <trkpt lat="43.49449" lon="6.92848">
        <ele>124</ele>
        <time>2013-12-27T08:19:28.000Z</time>
      </trkpt>
      <trkpt lat="43.49434" lon="6.92847">
        <ele>123.59999847412</ele>
        <time>2013-12-27T08:19:35.000Z</time>
      </trkpt>
      <trkpt lat="43.49417" lon="6.92855">
        <ele>124.40000152588</ele>
        <time>2013-12-27T08:19:43.000Z</time>
      </trkpt>
      <trkpt lat="43.49408" lon="6.92869">
        <ele>123.59999847412</ele>
        <time>2013-12-27T08:19:50.000Z</time>
      </trkpt>
      <trkpt lat="43.49404" lon="6.92889">
        <ele>125.40000152588</ele>
        <time>2013-12-27T08:19:57.000Z</time>
      </trkpt>
      <trkpt lat="43.49409" lon="6.92912">
        <ele>130.60000610352</ele>
        <time>2013-12-27T08:20:05.000Z</time>
      </trkpt>
      <trkpt lat="43.49414" lon="6.92938">
        <ele>135.80000305176</ele>
        <time>2013-12-27T08:20:13.000Z</time>
      </trkpt>
      <trkpt lat="43.49411" lon="6.92957">
        <ele>137.39999389648</ele>
        <time>2013-12-27T08:20:19.000Z</time>
      </trkpt>
      <trkpt lat="43.49406" lon="6.9298">
        <ele>138.80000305176</ele>
        <time>2013-12-27T08:20:27.000Z</time>
      </trkpt>
      <trkpt lat="43.49407" lon="6.92999">
        <ele>141.60000610352</ele>
        <time>2013-12-27T08:20:34.000Z</time>
      </trkpt>
      <trkpt lat="43.49408" lon="6.9302">
        <ele>145</ele>
        <time>2013-12-27T08:20:41.000Z</time>
      </trkpt>
      <trkpt lat="43.49405" lon="6.9304">
        <ele>147</ele>
        <time>2013-12-27T08:20:48.000Z</time>
      </trkpt>
      <trkpt lat="43.49398" lon="6.93058">
        <ele>147.60000610352</ele>
        <time>2013-12-27T08:20:56.000Z</time>
      </trkpt>
      <trkpt lat="43.4939" lon="6.93076">
        <ele>147.80000305176</ele>
        <time>2013-12-27T08:21:04.000Z</time>
      </trkpt>
      <trkpt lat="43.49384" lon="6.93088">
        <ele>147.80000305176</ele>
        <time>2013-12-27T08:21:09.000Z</time>
      </trkpt>
      <trkpt lat="43.49378" lon="6.93102">
        <ele>147.60000610352</ele>
        <time>2013-12-27T08:21:15.000Z</time>
      </trkpt>
      <trkpt lat="43.4937" lon="6.93115">
        <ele>147.39999389648</ele>
        <time>2013-12-27T08:21:22.000Z</time>
      </trkpt>
      <trkpt lat="43.49361" lon="6.9314">
        <ele>148.60000610352</ele>
        <time>2013-12-27T08:21:32.000Z</time>
      </trkpt>
      <trkpt lat="43.49359" lon="6.93155">
        <ele>150.60000610352</ele>
        <time>2013-12-27T08:21:37.000Z</time>
      </trkpt>
      <trkpt lat="43.4936" lon="6.93175">
        <ele>153.39999389648</ele>
        <time>2013-12-27T08:21:45.000Z</time>
      </trkpt>
      <trkpt lat="43.49366" lon="6.93191">
        <ele>156</ele>
        <time>2013-12-27T08:21:52.000Z</time>
      </trkpt>
      <trkpt lat="43.49374" lon="6.93199">
        <ele>158</ele>
        <time>2013-12-27T08:21:59.000Z</time>
      </trkpt>
      <trkpt lat="43.49374" lon="6.93193">
        <ele>157.60000610352</ele>
        <time>2013-12-27T08:22:03.000Z</time>
      </trkpt>
      <trkpt lat="43.49371" lon="6.93174">
        <ele>155.39999389648</ele>
        <time>2013-12-27T08:22:12.000Z</time>
      </trkpt>
      <trkpt lat="43.49376" lon="6.93157">
        <ele>154.39999389648</ele>
        <time>2013-12-27T08:22:20.000Z</time>
      </trkpt>
      <trkpt lat="43.49386" lon="6.93141">
        <ele>154.80000305176</ele>
        <time>2013-12-27T08:22:29.000Z</time>
      </trkpt>
      <trkpt lat="43.49399" lon="6.93131">
        <ele>156.60000610352</ele>
        <time>2013-12-27T08:22:37.000Z</time>
      </trkpt>
      <trkpt lat="43.4941" lon="6.93126">
        <ele>159</ele>
        <time>2013-12-27T08:22:44.000Z</time>
      </trkpt>
      <trkpt lat="43.49428" lon="6.93117">
        <ele>158</ele>
        <time>2013-12-27T08:22:55.000Z</time>
      </trkpt>
      <trkpt lat="43.49439" lon="6.93118">
        <ele>156.19999694824</ele>
        <time>2013-12-27T08:23:01.000Z</time>
      </trkpt>
      <trkpt lat="43.49444" lon="6.93126">
        <ele>155.60000610352</ele>
        <time>2013-12-27T08:23:07.000Z</time>
      </trkpt>
      <trkpt lat="43.49443" lon="6.93138">
        <ele>156.39999389648</ele>
        <time>2013-12-27T08:23:13.000Z</time>
      </trkpt>
      <trkpt lat="43.4944" lon="6.93165">
        <ele>158.19999694824</ele>
        <time>2013-12-27T08:23:21.000Z</time>
      </trkpt>
      <trkpt lat="43.49433" lon="6.93187">
        <ele>159.60000610352</ele>
        <time>2013-12-27T08:23:29.000Z</time>
      </trkpt>
      <trkpt lat="43.49426" lon="6.93203">
        <ele>161.39999389648</ele>
        <time>2013-12-27T08:23:35.000Z</time>
      </trkpt>
      <trkpt lat="43.49412" lon="6.93225">
        <ele>163.60000610352</ele>
        <time>2013-12-27T08:23:42.000Z</time>
      </trkpt>
      <trkpt lat="43.49406" lon="6.93246">
        <ele>163.60000610352</ele>
        <time>2013-12-27T08:23:48.000Z</time>
      </trkpt>
      <trkpt lat="43.49401" lon="6.9327">
        <ele>164</ele>
        <time>2013-12-27T08:23:57.000Z</time>
      </trkpt>
      <trkpt lat="43.494" lon="6.9329">
        <ele>164.60000610352</ele>
        <time>2013-12-27T08:24:04.000Z</time>
      </trkpt>
      <trkpt lat="43.494" lon="6.93314">
        <ele>165.39999389648</ele>
        <time>2013-12-27T08:24:12.000Z</time>
      </trkpt>
      <trkpt lat="43.49394" lon="6.93327">
        <ele>166.39999389648</ele>
        <time>2013-12-27T08:24:18.000Z</time>
      </trkpt>
      <trkpt lat="43.49389" lon="6.93322">
        <ele>166.80000305176</ele>
        <time>2013-12-27T08:24:22.000Z</time>
      </trkpt>
      <trkpt lat="43.49388" lon="6.93319">
        <ele>166.80000305176</ele>
        <time>2013-12-27T08:24:23.000Z</time>
      </trkpt>
      <trkpt lat="43.49377" lon="6.93309">
        <ele>167</ele>
        <time>2013-12-27T08:24:30.000Z</time>
      </trkpt>
      <trkpt lat="43.49365" lon="6.9331">
        <ele>167.80000305176</ele>
        <time>2013-12-27T08:24:36.000Z</time>
      </trkpt>
      <trkpt lat="43.49354" lon="6.93311">
        <ele>168.80000305176</ele>
        <time>2013-12-27T08:24:42.000Z</time>
      </trkpt>
      <trkpt lat="43.49345" lon="6.93321">
        <ele>170.80000305176</ele>
        <time>2013-12-27T08:24:48.000Z</time>
      </trkpt>
      <trkpt lat="43.49342" lon="6.93338">
        <ele>173.19999694824</ele>
        <time>2013-12-27T08:24:55.000Z</time>
      </trkpt>
      <trkpt lat="43.49347" lon="6.93352">
        <ele>173.60000610352</ele>
        <time>2013-12-27T08:25:01.000Z</time>
      </trkpt>
      <trkpt lat="43.49356" lon="6.93372">
        <ele>173.60000610352</ele>
        <time>2013-12-27T08:25:10.000Z</time>
      </trkpt>
      <trkpt lat="43.49353" lon="6.93383">
        <ele>174.60000610352</ele>
        <time>2013-12-27T08:25:16.000Z</time>
      </trkpt>
      <trkpt lat="43.49353" lon="6.93385">
        <ele>174.80000305176</ele>
        <time>2013-12-27T08:25:17.000Z</time>
      </trkpt>
      <trkpt lat="43.49352" lon="6.93391">
        <ele>175.39999389648</ele>
        <time>2013-12-27T08:25:22.000Z</time>
      </trkpt>
      <trkpt lat="43.49348" lon="6.93404">
        <ele>176.60000610352</ele>
        <time>2013-12-27T08:25:30.000Z</time>
      </trkpt>
      <trkpt lat="43.49346" lon="6.9343">
        <ele>177.60000610352</ele>
        <time>2013-12-27T08:25:36.000Z</time>
      </trkpt>
      <trkpt lat="43.49343" lon="6.93452">
        <ele>177.60000610352</ele>
        <time>2013-12-27T08:25:42.000Z</time>
      </trkpt>
      <trkpt lat="43.49338" lon="6.93473">
        <ele>178</ele>
        <time>2013-12-27T08:25:50.000Z</time>
      </trkpt>
      <trkpt lat="43.49338" lon="6.93503">
        <ele>177</ele>
        <time>2013-12-27T08:25:57.000Z</time>
      </trkpt>
      <trkpt lat="43.49344" lon="6.93525">
        <ele>174.80000305176</ele>
        <time>2013-12-27T08:26:01.000Z</time>
      </trkpt>
      <trkpt lat="43.49352" lon="6.93559">
        <ele>171</ele>
        <time>2013-12-27T08:26:05.000Z</time>
      </trkpt>
      <trkpt lat="43.49348" lon="6.93591">
        <ele>170.39999389648</ele>
        <time>2013-12-27T08:26:08.000Z</time>
      </trkpt>
      <trkpt lat="43.49342" lon="6.93608">
        <ele>172.19999694824</ele>
        <time>2013-12-27T08:26:10.000Z</time>
      </trkpt>
      <trkpt lat="43.49338" lon="6.93622">
        <ele>173.80000305176</ele>
        <time>2013-12-27T08:26:12.000Z</time>
      </trkpt>
      <trkpt lat="43.4933" lon="6.93648">
        <ele>174.80000305176</ele>
        <time>2013-12-27T08:26:17.000Z</time>
      </trkpt>
      <trkpt lat="43.49325" lon="6.93671">
        <ele>174.39999389648</ele>
        <time>2013-12-27T08:26:23.000Z</time>
      </trkpt>
      <trkpt lat="43.49323" lon="6.93689">
        <ele>173.80000305176</ele>
        <time>2013-12-27T08:26:29.000Z</time>
      </trkpt>
      <trkpt lat="43.49317" lon="6.93716">
        <ele>173</ele>
        <time>2013-12-27T08:26:37.000Z</time>
      </trkpt>
      <trkpt lat="43.49313" lon="6.93739">
        <ele>172.60000610352</ele>
        <time>2013-12-27T08:26:44.000Z</time>
      </trkpt>
      <trkpt lat="43.49313" lon="6.93762">
        <ele>172.80000305176</ele>
        <time>2013-12-27T08:26:51.000Z</time>
      </trkpt>
      <trkpt lat="43.49312" lon="6.93787">
        <ele>173.19999694824</ele>
        <time>2013-12-27T08:26:59.000Z</time>
      </trkpt>
      <trkpt lat="43.49308" lon="6.93816">
        <ele>173.39999389648</ele>
        <time>2013-12-27T08:27:07.000Z</time>
      </trkpt>
      <trkpt lat="43.49304" lon="6.93856">
        <ele>173.60000610352</ele>
        <time>2013-12-27T08:27:16.000Z</time>
      </trkpt>
      <trkpt lat="43.49308" lon="6.93875">
        <ele>174.19999694824</ele>
        <time>2013-12-27T08:27:22.000Z</time>
      </trkpt>
      <trkpt lat="43.49309" lon="6.9387">
        <ele>174.19999694824</ele>
        <time>2013-12-27T08:27:25.000Z</time>
      </trkpt>
      <trkpt lat="43.49301" lon="6.93871">
        <ele>173.60000610352</ele>
        <time>2013-12-27T08:27:28.000Z</time>
      </trkpt>
      <trkpt lat="43.49298" lon="6.93882">
        <ele>173.60000610352</ele>
        <time>2013-12-27T08:27:32.000Z</time>
      </trkpt>
      <trkpt lat="43.49298" lon="6.93885">
        <ele>173.60000610352</ele>
        <time>2013-12-27T08:27:33.000Z</time>
      </trkpt>
      <trkpt lat="43.49296" lon="6.93901">
        <ele>173.80000305176</ele>
        <time>2013-12-27T08:27:39.000Z</time>
      </trkpt>
      <trkpt lat="43.49294" lon="6.93918">
        <ele>174.19999694824</ele>
        <time>2013-12-27T08:27:45.000Z</time>
      </trkpt>
      <trkpt lat="43.49291" lon="6.93936">
        <ele>175</ele>
        <time>2013-12-27T08:27:51.000Z</time>
      </trkpt>
      <trkpt lat="43.49287" lon="6.93957">
        <ele>176.19999694824</ele>
        <time>2013-12-27T08:27:58.000Z</time>
      </trkpt>
      <trkpt lat="43.49284" lon="6.93977">
        <ele>177.60000610352</ele>
        <time>2013-12-27T08:28:04.000Z</time>
      </trkpt>
      <trkpt lat="43.49282" lon="6.94">
        <ele>179.19999694824</ele>
        <time>2013-12-27T08:28:11.000Z</time>
      </trkpt>
      <trkpt lat="43.49281" lon="6.94017">
        <ele>178.80000305176</ele>
        <time>2013-12-27T08:28:20.000Z</time>
      </trkpt>
      <trkpt lat="43.4928" lon="6.94018">
        <ele>179</ele>
        <time>2013-12-27T08:28:37.000Z</time>
      </trkpt>
      <trkpt lat="43.49278" lon="6.94024">
        <ele>178.80000305176</ele>
        <time>2013-12-27T08:31:47.000Z</time>
      </trkpt>
      <trkpt lat="43.49284" lon="6.94028">
        <ele>178.39999389648</ele>
        <time>2013-12-27T08:36:30.000Z</time>
      </trkpt>
      <trkpt lat="43.49282" lon="6.94028">
        <ele>178.39999389648</ele>
        <time>2013-12-27T08:36:31.000Z</time>
      </trkpt>
      <trkpt lat="43.49274" lon="6.94027">
        <ele>179</ele>
        <time>2013-12-27T08:36:36.000Z</time>
      </trkpt>
      <trkpt lat="43.49274" lon="6.94021">
        <ele>179.19999694824</ele>
        <time>2013-12-27T08:36:40.000Z</time>
      </trkpt>
      <trkpt lat="43.49274" lon="6.94018">
        <ele>179.39999389648</ele>
        <time>2013-12-27T08:36:42.000Z</time>
      </trkpt>
      <trkpt lat="43.49273" lon="6.94015">
        <ele>179.60000610352</ele>
        <time>2013-12-27T08:36:45.000Z</time>
      </trkpt>
      <trkpt lat="43.49276" lon="6.94011">
        <ele>179.39999389648</ele>
        <time>2013-12-27T08:36:53.000Z</time>
      </trkpt>
      <trkpt lat="43.4928" lon="6.94008">
        <ele>179.19999694824</ele>
        <time>2013-12-27T08:37:00.000Z</time>
      </trkpt>
      <trkpt lat="43.49282" lon="6.94003">
        <ele>179.19999694824</ele>
        <time>2013-12-27T08:37:05.000Z</time>
      </trkpt>
      <trkpt lat="43.49284" lon="6.93985">
        <ele>178.19999694824</ele>
        <time>2013-12-27T08:37:12.000Z</time>
      </trkpt>
      <trkpt lat="43.49288" lon="6.93958">
        <ele>176.19999694824</ele>
        <time>2013-12-27T08:37:19.000Z</time>
      </trkpt>
      <trkpt lat="43.49291" lon="6.93929">
        <ele>174.60000610352</ele>
        <time>2013-12-27T08:37:25.000Z</time>
      </trkpt>
      <trkpt lat="43.49292" lon="6.93911">
        <ele>173.80000305176</ele>
        <time>2013-12-27T08:37:29.000Z</time>
      </trkpt>
      <trkpt lat="43.49295" lon="6.93895">
        <ele>173.60000610352</ele>
        <time>2013-12-27T08:37:33.000Z</time>
      </trkpt>
      <trkpt lat="43.49294" lon="6.93893">
        <ele>173.39999389648</ele>
        <time>2013-12-27T08:37:34.000Z</time>
      </trkpt>
      <trkpt lat="43.49296" lon="6.93878">
        <ele>173.19999694824</ele>
        <time>2013-12-27T08:37:38.000Z</time>
      </trkpt>
      <trkpt lat="43.49304" lon="6.93856">
        <ele>173.60000610352</ele>
        <time>2013-12-27T08:37:42.000Z</time>
      </trkpt>
      <trkpt lat="43.49307" lon="6.93835">
        <ele>173.60000610352</ele>
        <time>2013-12-27T08:37:45.000Z</time>
      </trkpt>
      <trkpt lat="43.49308" lon="6.93829">
        <ele>173.60000610352</ele>
        <time>2013-12-27T08:37:46.000Z</time>
      </trkpt>
      <trkpt lat="43.4931" lon="6.93815">
        <ele>173.39999389648</ele>
        <time>2013-12-27T08:37:48.000Z</time>
      </trkpt>
      <trkpt lat="43.49312" lon="6.9379">
        <ele>173.19999694824</ele>
        <time>2013-12-27T08:37:52.000Z</time>
      </trkpt>
      <trkpt lat="43.49312" lon="6.93759">
        <ele>172.60000610352</ele>
        <time>2013-12-27T08:37:58.000Z</time>
      </trkpt>
      <trkpt lat="43.49312" lon="6.93757">
        <ele>172.60000610352</ele>
        <time>2013-12-27T08:37:59.000Z</time>
      </trkpt>
      <trkpt lat="43.4931" lon="6.93752">
        <ele>172.19999694824</ele>
        <time>2013-12-27T08:38:02.000Z</time>
      </trkpt>
      <trkpt lat="43.49308" lon="6.93747">
        <ele>172</ele>
        <time>2013-12-27T08:38:04.000Z</time>
      </trkpt>
      <trkpt lat="43.49302" lon="6.93727">
        <ele>170.80000305176</ele>
        <time>2013-12-27T08:38:08.000Z</time>
      </trkpt>
      <trkpt lat="43.49305" lon="6.93698">
        <ele>170.80000305176</ele>
        <time>2013-12-27T08:38:13.000Z</time>
      </trkpt>
      <trkpt lat="43.49314" lon="6.93687">
        <ele>172.19999694824</ele>
        <time>2013-12-27T08:38:16.000Z</time>
      </trkpt>
      <trkpt lat="43.49318" lon="6.93683">
        <ele>172.80000305176</ele>
        <time>2013-12-27T08:38:17.000Z</time>
      </trkpt>
      <trkpt lat="43.4933" lon="6.93668">
        <ele>175.39999389648</ele>
        <time>2013-12-27T08:38:20.000Z</time>
      </trkpt>
      <trkpt lat="43.49334" lon="6.93663">
        <ele>175.60000610352</ele>
        <time>2013-12-27T08:38:21.000Z</time>
      </trkpt>
      <trkpt lat="43.49338" lon="6.93645">
        <ele>174</ele>
        <time>2013-12-27T08:38:24.000Z</time>
      </trkpt>
      <trkpt lat="43.49339" lon="6.93632">
        <ele>173.60000610352</ele>
        <time>2013-12-27T08:38:26.000Z</time>
      </trkpt>
      <trkpt lat="43.4934" lon="6.93625">
        <ele>173.19999694824</ele>
        <time>2013-12-27T08:38:27.000Z</time>
      </trkpt>
      <trkpt lat="43.49344" lon="6.9361">
        <ele>171.80000305176</ele>
        <time>2013-12-27T08:38:29.000Z</time>
      </trkpt>
      <trkpt lat="43.49352" lon="6.93589">
        <ele>169.39999389648</ele>
        <time>2013-12-27T08:38:33.000Z</time>
      </trkpt>
      <trkpt lat="43.49352" lon="6.93586">
        <ele>169.19999694824</ele>
        <time>2013-12-27T08:38:36.000Z</time>
      </trkpt>
      <trkpt lat="43.49357" lon="6.93574">
        <ele>168.80000305176</ele>
        <time>2013-12-27T08:39:04.000Z</time>
      </trkpt>
      <trkpt lat="43.49365" lon="6.93558">
        <ele>168.19999694824</ele>
        <time>2013-12-27T08:39:09.000Z</time>
      </trkpt>
      <trkpt lat="43.49377" lon="6.93544">
        <ele>166.80000305176</ele>
        <time>2013-12-27T08:39:14.000Z</time>
      </trkpt>
      <trkpt lat="43.49386" lon="6.9353">
        <ele>166.60000610352</ele>
        <time>2013-12-27T08:39:18.000Z</time>
      </trkpt>
      <trkpt lat="43.49394" lon="6.93513">
        <ele>167</ele>
        <time>2013-12-27T08:39:22.000Z</time>
      </trkpt>
      <trkpt lat="43.49396" lon="6.93507">
        <ele>167.39999389648</ele>
        <time>2013-12-27T08:39:24.000Z</time>
      </trkpt>
      <trkpt lat="43.494" lon="6.93503">
        <ele>167.19999694824</ele>
        <time>2013-12-27T08:39:26.000Z</time>
      </trkpt>
      <trkpt lat="43.49408" lon="6.93483">
        <ele>166.60000610352</ele>
        <time>2013-12-27T08:39:31.000Z</time>
      </trkpt>
      <trkpt lat="43.49408" lon="6.9348">
        <ele>166.60000610352</ele>
        <time>2013-12-27T08:39:32.000Z</time>
      </trkpt>
      <trkpt lat="43.49409" lon="6.93478">
        <ele>166.39999389648</ele>
        <time>2013-12-27T08:39:34.000Z</time>
      </trkpt>
      <trkpt lat="43.49412" lon="6.93468">
        <ele>166.19999694824</ele>
        <time>2013-12-27T08:39:39.000Z</time>
      </trkpt>
      <trkpt lat="43.49415" lon="6.93458">
        <ele>165.80000305176</ele>
        <time>2013-12-27T08:39:42.000Z</time>
      </trkpt>
      <trkpt lat="43.49417" lon="6.93455">
        <ele>165.39999389648</ele>
        <time>2013-12-27T08:39:43.000Z</time>
      </trkpt>
      <trkpt lat="43.49421" lon="6.93449">
        <ele>163.80000305176</ele>
        <time>2013-12-27T08:39:46.000Z</time>
      </trkpt>
      <trkpt lat="43.49426" lon="6.93446">
        <ele>161.80000305176</ele>
        <time>2013-12-27T08:39:48.000Z</time>
      </trkpt>
      <trkpt lat="43.49434" lon="6.9344">
        <ele>158.60000610352</ele>
        <time>2013-12-27T08:39:52.000Z</time>
      </trkpt>
      <trkpt lat="43.49435" lon="6.93446">
        <ele>158.19999694824</ele>
        <time>2013-12-27T08:39:56.000Z</time>
      </trkpt>
      <trkpt lat="43.49434" lon="6.93449">
        <ele>158.39999389648</ele>
        <time>2013-12-27T08:39:57.000Z</time>
      </trkpt>
      <trkpt lat="43.49434" lon="6.93457">
        <ele>158.39999389648</ele>
        <time>2013-12-27T08:40:00.000Z</time>
      </trkpt>
      <trkpt lat="43.49433" lon="6.93468">
        <ele>158.80000305176</ele>
        <time>2013-12-27T08:40:05.000Z</time>
      </trkpt>
      <trkpt lat="43.49437" lon="6.93474">
        <ele>157.19999694824</ele>
        <time>2013-12-27T08:40:08.000Z</time>
      </trkpt>
      <trkpt lat="43.49438" lon="6.93477">
        <ele>156.60000610352</ele>
        <time>2013-12-27T08:40:09.000Z</time>
      </trkpt>
      <trkpt lat="43.49439" lon="6.93485">
        <ele>156</ele>
        <time>2013-12-27T08:40:12.000Z</time>
      </trkpt>
      <trkpt lat="43.49439" lon="6.93488">
        <ele>156.19999694824</ele>
        <time>2013-12-27T08:40:13.000Z</time>
      </trkpt>
      <trkpt lat="43.49438" lon="6.93496">
        <ele>156.19999694824</ele>
        <time>2013-12-27T08:40:16.000Z</time>
      </trkpt>
      <trkpt lat="43.49437" lon="6.93498">
        <ele>157</ele>
        <time>2013-12-27T08:40:17.000Z</time>
      </trkpt>
      <trkpt lat="43.49435" lon="6.93506">
        <ele>156.60000610352</ele>
        <time>2013-12-27T08:40:20.000Z</time>
      </trkpt>
      <trkpt lat="43.49434" lon="6.93509">
        <ele>156.80000305176</ele>
        <time>2013-12-27T08:40:22.000Z</time>
      </trkpt>
      <trkpt lat="43.49433" lon="6.93514">
        <ele>156.39999389648</ele>
        <time>2013-12-27T08:40:25.000Z</time>
      </trkpt>
      <trkpt lat="43.49434" lon="6.93519">
        <ele>155.39999389648</ele>
        <time>2013-12-27T08:40:27.000Z</time>
      </trkpt>
      <trkpt lat="43.49436" lon="6.93525">
        <ele>153.39999389648</ele>
        <time>2013-12-27T08:40:31.000Z</time>
      </trkpt>
      <trkpt lat="43.49439" lon="6.93539">
        <ele>150.19999694824</ele>
        <time>2013-12-27T08:40:36.000Z</time>
      </trkpt>
      <trkpt lat="43.49443" lon="6.93548">
        <ele>147.39999389648</ele>
        <time>2013-12-27T08:40:40.000Z</time>
      </trkpt>
      <trkpt lat="43.49444" lon="6.9355">
        <ele>146.60000610352</ele>
        <time>2013-12-27T08:40:41.000Z</time>
      </trkpt>
      <trkpt lat="43.49445" lon="6.93554">
        <ele>145.19999694824</ele>
        <time>2013-12-27T08:40:43.000Z</time>
      </trkpt>
      <trkpt lat="43.49447" lon="6.93555">
        <ele>144.80000305176</ele>
        <time>2013-12-27T08:40:44.000Z</time>
      </trkpt>
      <trkpt lat="43.4945" lon="6.93561">
        <ele>142.19999694824</ele>
        <time>2013-12-27T08:40:48.000Z</time>
      </trkpt>
      <trkpt lat="43.49452" lon="6.93565">
        <ele>140.60000610352</ele>
        <time>2013-12-27T08:40:50.000Z</time>
      </trkpt>
      <trkpt lat="43.49457" lon="6.93578">
        <ele>136.80000305176</ele>
        <time>2013-12-27T08:40:54.000Z</time>
      </trkpt>
      <trkpt lat="43.4946" lon="6.93582">
        <ele>135.19999694824</ele>
        <time>2013-12-27T08:40:57.000Z</time>
      </trkpt>
      <trkpt lat="43.49462" lon="6.93582">
        <ele>134.19999694824</ele>
        <time>2013-12-27T08:40:59.000Z</time>
      </trkpt>
      <trkpt lat="43.49464" lon="6.9359">
        <ele>133</ele>
        <time>2013-12-27T08:41:03.000Z</time>
      </trkpt>
      <trkpt lat="43.49468" lon="6.93589">
        <ele>131</ele>
        <time>2013-12-27T08:41:07.000Z</time>
      </trkpt>
      <trkpt lat="43.4947" lon="6.93587">
        <ele>130.39999389648</ele>
        <time>2013-12-27T08:41:09.000Z</time>
      </trkpt>
      <trkpt lat="43.49472" lon="6.93587">
        <ele>129.60000610352</ele>
        <time>2013-12-27T08:41:11.000Z</time>
      </trkpt>
      <trkpt lat="43.49474" lon="6.93591">
        <ele>128.39999389648</ele>
        <time>2013-12-27T08:41:13.000Z</time>
      </trkpt>
      <trkpt lat="43.49477" lon="6.936">
        <ele>126.40000152588</ele>
        <time>2013-12-27T08:41:18.000Z</time>
      </trkpt>
      <trkpt lat="43.49478" lon="6.93602">
        <ele>125.80000305176</ele>
        <time>2013-12-27T08:41:19.000Z</time>
      </trkpt>
      <trkpt lat="43.49481" lon="6.93607">
        <ele>124</ele>
        <time>2013-12-27T08:41:22.000Z</time>
      </trkpt>
      <trkpt lat="43.49483" lon="6.93609">
        <ele>122.59999847412</ele>
        <time>2013-12-27T08:41:24.000Z</time>
      </trkpt>
      <trkpt lat="43.49488" lon="6.93608">
        <ele>120.59999847412</ele>
        <time>2013-12-27T08:41:27.000Z</time>
      </trkpt>
      <trkpt lat="43.49492" lon="6.93608">
        <ele>119</ele>
        <time>2013-12-27T08:41:29.000Z</time>
      </trkpt>
      <trkpt lat="43.49496" lon="6.93606">
        <ele>117.40000152588</ele>
        <time>2013-12-27T08:41:32.000Z</time>
      </trkpt>
      <trkpt lat="43.49498" lon="6.93604">
        <ele>116.40000152588</ele>
        <time>2013-12-27T08:41:34.000Z</time>
      </trkpt>
      <trkpt lat="43.49504" lon="6.93607">
        <ele>114</ele>
        <time>2013-12-27T08:41:38.000Z</time>
      </trkpt>
      <trkpt lat="43.49508" lon="6.93618">
        <ele>111.40000152588</ele>
        <time>2013-12-27T08:41:42.000Z</time>
      </trkpt>
      <trkpt lat="43.4951" lon="6.9362">
        <ele>110.40000152588</ele>
        <time>2013-12-27T08:41:43.000Z</time>
      </trkpt>
      <trkpt lat="43.49511" lon="6.93623">
        <ele>109.80000305176</ele>
        <time>2013-12-27T08:41:44.000Z</time>
      </trkpt>
      <trkpt lat="43.49511" lon="6.93627">
        <ele>109.19999694824</ele>
        <time>2013-12-27T08:41:46.000Z</time>
      </trkpt>
      <trkpt lat="43.49517" lon="6.93629">
        <ele>107</ele>
        <time>2013-12-27T08:41:50.000Z</time>
      </trkpt>
      <trkpt lat="43.49519" lon="6.93628">
        <ele>106.40000152588</ele>
        <time>2013-12-27T08:41:51.000Z</time>
      </trkpt>
      <trkpt lat="43.49522" lon="6.93628">
        <ele>105</ele>
        <time>2013-12-27T08:41:53.000Z</time>
      </trkpt>
      <trkpt lat="43.49525" lon="6.93628">
        <ele>104</ele>
        <time>2013-12-27T08:41:55.000Z</time>
      </trkpt>
      <trkpt lat="43.49529" lon="6.93628">
        <ele>102.80000305176</ele>
        <time>2013-12-27T08:41:57.000Z</time>
      </trkpt>
      <trkpt lat="43.49529" lon="6.93633">
        <ele>102</ele>
        <time>2013-12-27T08:41:59.000Z</time>
      </trkpt>
      <trkpt lat="43.49531" lon="6.93647">
        <ele>99.599998474121</ele>
        <time>2013-12-27T08:42:03.000Z</time>
      </trkpt>
      <trkpt lat="43.49537" lon="6.93651">
        <ele>96.800003051758</ele>
        <time>2013-12-27T08:42:08.000Z</time>
      </trkpt>
      <trkpt lat="43.49545" lon="6.93646">
        <ele>94.599998474121</ele>
        <time>2013-12-27T08:42:12.000Z</time>
      </trkpt>
      <trkpt lat="43.49549" lon="6.93634">
        <ele>94.599998474121</ele>
        <time>2013-12-27T08:42:16.000Z</time>
      </trkpt>
      <trkpt lat="43.49551" lon="6.93618">
        <ele>96</ele>
        <time>2013-12-27T08:42:21.000Z</time>
      </trkpt>
      <trkpt lat="43.49552" lon="6.93615">
        <ele>96.400001525879</ele>
        <time>2013-12-27T08:42:22.000Z</time>
      </trkpt>
      <trkpt lat="43.49555" lon="6.93608">
        <ele>96.199996948242</ele>
        <time>2013-12-27T08:42:25.000Z</time>
      </trkpt>
      <trkpt lat="43.49557" lon="6.93605">
        <ele>95.800003051758</ele>
        <time>2013-12-27T08:42:27.000Z</time>
      </trkpt>
      <trkpt lat="43.4956" lon="6.93606">
        <ele>94.599998474121</ele>
        <time>2013-12-27T08:42:30.000Z</time>
      </trkpt>
      <trkpt lat="43.49565" lon="6.9361">
        <ele>92.199996948242</ele>
        <time>2013-12-27T08:42:33.000Z</time>
      </trkpt>
      <trkpt lat="43.49572" lon="6.93618">
        <ele>88.599998474121</ele>
        <time>2013-12-27T08:42:37.000Z</time>
      </trkpt>
      <trkpt lat="43.49578" lon="6.93633">
        <ele>84.199996948242</ele>
        <time>2013-12-27T08:42:42.000Z</time>
      </trkpt>
      <trkpt lat="43.4958" lon="6.93637">
        <ele>83</ele>
        <time>2013-12-27T08:42:44.000Z</time>
      </trkpt>
      <trkpt lat="43.49583" lon="6.93641">
        <ele>81.199996948242</ele>
        <time>2013-12-27T08:42:46.000Z</time>
      </trkpt>
      <trkpt lat="43.49586" lon="6.93651">
        <ele>79.199996948242</ele>
        <time>2013-12-27T08:42:51.000Z</time>
      </trkpt>
      <trkpt lat="43.49592" lon="6.93647">
        <ele>79.599998474121</ele>
        <time>2013-12-27T08:42:55.000Z</time>
      </trkpt>
      <trkpt lat="43.49596" lon="6.93646">
        <ele>79.400001525879</ele>
        <time>2013-12-27T08:42:57.000Z</time>
      </trkpt>
      <trkpt lat="43.49599" lon="6.93645">
        <ele>79.199996948242</ele>
        <time>2013-12-27T08:42:59.000Z</time>
      </trkpt>
      <trkpt lat="43.496" lon="6.93647">
        <ele>79</ele>
        <time>2013-12-27T08:43:00.000Z</time>
      </trkpt>
      <trkpt lat="43.496" lon="6.93657">
        <ele>78</ele>
        <time>2013-12-27T08:43:04.000Z</time>
      </trkpt>
      <trkpt lat="43.49592" lon="6.9367">
        <ele>77.400001525879</ele>
        <time>2013-12-27T08:43:08.000Z</time>
      </trkpt>
      <trkpt lat="43.49593" lon="6.93679">
        <ele>78.199996948242</ele>
        <time>2013-12-27T08:43:12.000Z</time>
      </trkpt>
      <trkpt lat="43.49596" lon="6.93678">
        <ele>78.199996948242</ele>
        <time>2013-12-27T08:43:14.000Z</time>
      </trkpt>
      <trkpt lat="43.49599" lon="6.93677">
        <ele>78.199996948242</ele>
        <time>2013-12-27T08:43:15.000Z</time>
      </trkpt>
      <trkpt lat="43.49608" lon="6.93669">
        <ele>77.400001525879</ele>
        <time>2013-12-27T08:43:19.000Z</time>
      </trkpt>
      <trkpt lat="43.49615" lon="6.93657">
        <ele>77.400001525879</ele>
        <time>2013-12-27T08:43:25.000Z</time>
      </trkpt>
      <trkpt lat="43.49615" lon="6.93657">
        <ele>77.400001525879</ele>
        <time>2013-12-27T08:43:30.000Z</time>
      </trkpt>
      <trkpt lat="43.49621" lon="6.93661">
        <ele>77.199996948242</ele>
        <time>2013-12-27T08:44:07.000Z</time>
      </trkpt>
      <trkpt lat="43.49629" lon="6.93658">
        <ele>77</ele>
        <time>2013-12-27T08:47:08.000Z</time>
      </trkpt>
      <trkpt lat="43.49632" lon="6.9364">
        <ele>76.599998474121</ele>
        <time>2013-12-27T08:47:14.000Z</time>
      </trkpt>
      <trkpt lat="43.49637" lon="6.93613">
        <ele>75.400001525879</ele>
        <time>2013-12-27T08:47:22.000Z</time>
      </trkpt>
      <trkpt lat="43.4964" lon="6.93593">
        <ele>74.199996948242</ele>
        <time>2013-12-27T08:47:29.000Z</time>
      </trkpt>
      <trkpt lat="43.49644" lon="6.93575">
        <ele>73.400001525879</ele>
        <time>2013-12-27T08:47:36.000Z</time>
      </trkpt>
      <trkpt lat="43.49648" lon="6.93554">
        <ele>73.599998474121</ele>
        <time>2013-12-27T08:47:43.000Z</time>
      </trkpt>
      <trkpt lat="43.49656" lon="6.93534">
        <ele>72.199996948242</ele>
        <time>2013-12-27T08:47:50.000Z</time>
      </trkpt>
      <trkpt lat="43.49663" lon="6.93512">
        <ele>70</ele>
        <time>2013-12-27T08:47:59.000Z</time>
      </trkpt>
      <trkpt lat="43.4967" lon="6.93491">
        <ele>68.599998474121</ele>
        <time>2013-12-27T08:48:08.000Z</time>
      </trkpt>
      <trkpt lat="43.49668" lon="6.93472">
        <ele>68.599998474121</ele>
        <time>2013-12-27T08:48:16.000Z</time>
      </trkpt>
      <trkpt lat="43.49664" lon="6.93451">
        <ele>69.800003051758</ele>
        <time>2013-12-27T08:48:24.000Z</time>
      </trkpt>
      <trkpt lat="43.49658" lon="6.93432">
        <ele>72</ele>
        <time>2013-12-27T08:48:32.000Z</time>
      </trkpt>
      <trkpt lat="43.49647" lon="6.93415">
        <ele>76.199996948242</ele>
        <time>2013-12-27T08:48:40.000Z</time>
      </trkpt>
      <trkpt lat="43.49638" lon="6.93402">
        <ele>79.599998474121</ele>
        <time>2013-12-27T08:48:47.000Z</time>
      </trkpt>
      <trkpt lat="43.49624" lon="6.93388">
        <ele>85</ele>
        <time>2013-12-27T08:48:56.000Z</time>
      </trkpt>
      <trkpt lat="43.49608" lon="6.93379">
        <ele>90.599998474121</ele>
        <time>2013-12-27T08:49:06.000Z</time>
      </trkpt>
      <trkpt lat="43.49595" lon="6.93373">
        <ele>95.199996948242</ele>
        <time>2013-12-27T08:49:14.000Z</time>
      </trkpt>
      <trkpt lat="43.49583" lon="6.93369">
        <ele>99.199996948242</ele>
        <time>2013-12-27T08:49:20.000Z</time>
      </trkpt>
      <trkpt lat="43.49573" lon="6.93359">
        <ele>102</ele>
        <time>2013-12-27T08:49:26.000Z</time>
      </trkpt>
      <trkpt lat="43.49573" lon="6.93348">
        <ele>101.19999694824</ele>
        <time>2013-12-27T08:49:29.000Z</time>
      </trkpt>
      <trkpt lat="43.49575" lon="6.93346">
        <ele>100.40000152588</ele>
        <time>2013-12-27T08:49:30.000Z</time>
      </trkpt>
      <trkpt lat="43.49586" lon="6.93334">
        <ele>95.400001525879</ele>
        <time>2013-12-27T08:49:37.000Z</time>
      </trkpt>
      <trkpt lat="43.49599" lon="6.93327">
        <ele>91.599998474121</ele>
        <time>2013-12-27T08:49:43.000Z</time>
      </trkpt>
      <trkpt lat="43.49616" lon="6.93317">
        <ele>87</ele>
        <time>2013-12-27T08:49:51.000Z</time>
      </trkpt>
      <trkpt lat="43.49624" lon="6.93304">
        <ele>85.400001525879</ele>
        <time>2013-12-27T08:49:57.000Z</time>
      </trkpt>
      <trkpt lat="43.49629" lon="6.93284">
        <ele>85.400001525879</ele>
        <time>2013-12-27T08:50:04.000Z</time>
      </trkpt>
      <trkpt lat="43.49626" lon="6.93261">
        <ele>88.400001525879</ele>
        <time>2013-12-27T08:50:13.000Z</time>
      </trkpt>
      <trkpt lat="43.49615" lon="6.93246">
        <ele>93</ele>
        <time>2013-12-27T08:50:21.000Z</time>
      </trkpt>
      <trkpt lat="43.49604" lon="6.93237">
        <ele>97</ele>
        <time>2013-12-27T08:50:26.000Z</time>
      </trkpt>
      <trkpt lat="43.49588" lon="6.93221">
        <ele>103</ele>
        <time>2013-12-27T08:50:34.000Z</time>
      </trkpt>
      <trkpt lat="43.49581" lon="6.93207">
        <ele>106.19999694824</ele>
        <time>2013-12-27T08:50:38.000Z</time>
      </trkpt>
      <trkpt lat="43.49585" lon="6.93195">
        <ele>105</ele>
        <time>2013-12-27T08:50:42.000Z</time>
      </trkpt>
      <trkpt lat="43.49592" lon="6.93183">
        <ele>103.40000152588</ele>
        <time>2013-12-27T08:50:47.000Z</time>
      </trkpt>
      <trkpt lat="43.49604" lon="6.93171">
        <ele>100.19999694824</ele>
        <time>2013-12-27T08:50:54.000Z</time>
      </trkpt>
      <trkpt lat="43.49619" lon="6.93156">
        <ele>97</ele>
        <time>2013-12-27T08:51:03.000Z</time>
      </trkpt>
      <trkpt lat="43.49626" lon="6.93142">
        <ele>96.599998474121</ele>
        <time>2013-12-27T08:51:09.000Z</time>
      </trkpt>
      <trkpt lat="43.49632" lon="6.9312">
        <ele>97.400001525879</ele>
        <time>2013-12-27T08:51:17.000Z</time>
      </trkpt>
      <trkpt lat="43.49636" lon="6.931">
        <ele>98.800003051758</ele>
        <time>2013-12-27T08:51:24.000Z</time>
      </trkpt>
      <trkpt lat="43.49639" lon="6.93079">
        <ele>100</ele>
        <time>2013-12-27T08:51:31.000Z</time>
      </trkpt>
      <trkpt lat="43.49637" lon="6.93058">
        <ele>100.59999847412</ele>
        <time>2013-12-27T08:51:39.000Z</time>
      </trkpt>
      <trkpt lat="43.49626" lon="6.9305">
        <ele>103.40000152588</ele>
        <time>2013-12-27T08:51:44.000Z</time>
      </trkpt>
      <trkpt lat="43.49605" lon="6.93037">
        <ele>109.19999694824</ele>
        <time>2013-12-27T08:51:53.000Z</time>
      </trkpt>
      <trkpt lat="43.49594" lon="6.93024">
        <ele>111.59999847412</ele>
        <time>2013-12-27T08:51:58.000Z</time>
      </trkpt>
      <trkpt lat="43.49594" lon="6.93008">
        <ele>111</ele>
        <time>2013-12-27T08:52:03.000Z</time>
      </trkpt>
      <trkpt lat="43.49598" lon="6.9299">
        <ele>108.80000305176</ele>
        <time>2013-12-27T08:52:09.000Z</time>
      </trkpt>
      <trkpt lat="43.49597" lon="6.92986">
        <ele>108.80000305176</ele>
        <time>2013-12-27T08:52:10.000Z</time>
      </trkpt>
      <trkpt lat="43.49594" lon="6.92979">
        <ele>109.19999694824</ele>
        <time>2013-12-27T08:52:13.000Z</time>
      </trkpt>
      <trkpt lat="43.49584" lon="6.92957">
        <ele>109.80000305176</ele>
        <time>2013-12-27T08:52:21.000Z</time>
      </trkpt>
      <trkpt lat="43.49578" lon="6.92943">
        <ele>110.80000305176</ele>
        <time>2013-12-27T08:52:27.000Z</time>
      </trkpt>
      <trkpt lat="43.49572" lon="6.92925">
        <ele>111.59999847412</ele>
        <time>2013-12-27T08:52:34.000Z</time>
      </trkpt>
      <trkpt lat="43.49559" lon="6.92905">
        <ele>114.40000152588</ele>
        <time>2013-12-27T08:52:42.000Z</time>
      </trkpt>
      <trkpt lat="43.49546" lon="6.92889">
        <ele>117</ele>
        <time>2013-12-27T08:52:49.000Z</time>
      </trkpt>
      <trkpt lat="43.49536" lon="6.92873">
        <ele>118.40000152588</ele>
        <time>2013-12-27T08:52:55.000Z</time>
      </trkpt>
      <trkpt lat="43.49519" lon="6.92853">
        <ele>120.80000305176</ele>
        <time>2013-12-27T08:53:03.000Z</time>
      </trkpt>
      <trkpt lat="43.49506" lon="6.92836">
        <ele>122</ele>
        <time>2013-12-27T08:53:10.000Z</time>
      </trkpt>
      <trkpt lat="43.49504" lon="6.9282">
        <ele>121.59999847412</ele>
        <time>2013-12-27T08:53:15.000Z</time>
      </trkpt>
      <trkpt lat="43.495" lon="6.92801">
        <ele>121.80000305176</ele>
        <time>2013-12-27T08:53:22.000Z</time>
      </trkpt>
      <trkpt lat="43.49495" lon="6.9279">
        <ele>121</ele>
        <time>2013-12-27T08:53:28.000Z</time>
      </trkpt>
      <trkpt lat="43.49491" lon="6.92781">
        <ele>120</ele>
        <time>2013-12-27T08:53:36.000Z</time>
      </trkpt>
      <trkpt lat="43.49488" lon="6.92777">
        <ele>119.59999847412</ele>
        <time>2013-12-27T08:53:42.000Z</time>
      </trkpt>
      <trkpt lat="43.49488" lon="6.92774">
        <ele>119.40000152588</ele>
        <time>2013-12-27T08:53:44.000Z</time>
      </trkpt>
      <trkpt lat="43.49488" lon="6.92773">
        <ele>119.40000152588</ele>
        <time>2013-12-27T08:53:48.000Z</time>
      </trkpt>
      <trkpt lat="43.49486" lon="6.92773">
        <ele>119</ele>
        <time>2013-12-27T08:54:38.000Z</time>
      </trkpt>
      <trkpt lat="43.49489" lon="6.92782">
        <ele>119.80000305176</ele>
        <time>2013-12-27T08:54:43.000Z</time>
      </trkpt>
      <trkpt lat="43.49487" lon="6.92794">
        <ele>120.40000152588</ele>
        <time>2013-12-27T08:54:49.000Z</time>
      </trkpt>
      <trkpt lat="43.49482" lon="6.92807">
        <ele>120.80000305176</ele>
        <time>2013-12-27T08:54:55.000Z</time>
      </trkpt>
      <trkpt lat="43.49473" lon="6.9282">
        <ele>121.19999694824</ele>
        <time>2013-12-27T08:55:02.000Z</time>
      </trkpt>
      <trkpt lat="43.49461" lon="6.92839">
        <ele>123</ele>
        <time>2013-12-27T08:55:11.000Z</time>
      </trkpt>
      <trkpt lat="43.49451" lon="6.92843">
        <ele>123.40000152588</ele>
        <time>2013-12-27T08:55:16.000Z</time>
      </trkpt>
      <trkpt lat="43.49449" lon="6.92842">
        <ele>123.19999694824</ele>
        <time>2013-12-27T08:55:17.000Z</time>
      </trkpt>
      <trkpt lat="43.49433" lon="6.92841">
        <ele>122.59999847412</ele>
        <time>2013-12-27T08:55:25.000Z</time>
      </trkpt>
      <trkpt lat="43.49419" lon="6.9285">
        <ele>123.80000305176</ele>
        <time>2013-12-27T08:55:32.000Z</time>
      </trkpt>
      <trkpt lat="43.49409" lon="6.92867">
        <ele>123.80000305176</ele>
        <time>2013-12-27T08:55:40.000Z</time>
      </trkpt>
      <trkpt lat="43.49406" lon="6.92887">
        <ele>125.80000305176</ele>
        <time>2013-12-27T08:55:47.000Z</time>
      </trkpt>
      <trkpt lat="43.4941" lon="6.92907">
        <ele>130</ele>
        <time>2013-12-27T08:55:55.000Z</time>
      </trkpt>
      <trkpt lat="43.49415" lon="6.92927">
        <ele>134.60000610352</ele>
        <time>2013-12-27T08:56:03.000Z</time>
      </trkpt>
      <trkpt lat="43.49414" lon="6.92945">
        <ele>136.60000610352</ele>
        <time>2013-12-27T08:56:10.000Z</time>
      </trkpt>
      <trkpt lat="43.49408" lon="6.92965">
        <ele>137.60000610352</ele>
        <time>2013-12-27T08:56:18.000Z</time>
      </trkpt>
      <trkpt lat="43.49407" lon="6.92988">
        <ele>140</ele>
        <time>2013-12-27T08:56:27.000Z</time>
      </trkpt>
      <trkpt lat="43.49409" lon="6.93012">
        <ele>144</ele>
        <time>2013-12-27T08:56:36.000Z</time>
      </trkpt>
      <trkpt lat="43.49407" lon="6.93027">
        <ele>145.60000610352</ele>
        <time>2013-12-27T08:56:42.000Z</time>
      </trkpt>
      <trkpt lat="43.49403" lon="6.93047">
        <ele>147.39999389648</ele>
        <time>2013-12-27T08:56:50.000Z</time>
      </trkpt>
      <trkpt lat="43.49396" lon="6.93071">
        <ele>148.80000305176</ele>
        <time>2013-12-27T08:57:00.000Z</time>
      </trkpt>
      <trkpt lat="43.49387" lon="6.93085">
        <ele>148.39999389648</ele>
        <time>2013-12-27T08:57:07.000Z</time>
      </trkpt>
      <trkpt lat="43.49378" lon="6.93099">
        <ele>147.19999694824</ele>
        <time>2013-12-27T08:57:14.000Z</time>
      </trkpt>
      <trkpt lat="43.49369" lon="6.93115">
        <ele>147</ele>
        <time>2013-12-27T08:57:22.000Z</time>
      </trkpt>
      <trkpt lat="43.49361" lon="6.93136">
        <ele>148.19999694824</ele>
        <time>2013-12-27T08:57:31.000Z</time>
      </trkpt>
      <trkpt lat="43.49357" lon="6.93153">
        <ele>149.80000305176</ele>
        <time>2013-12-27T08:57:38.000Z</time>
      </trkpt>
      <trkpt lat="43.49359" lon="6.93172">
        <ele>152.80000305176</ele>
        <time>2013-12-27T08:57:45.000Z</time>
      </trkpt>
      <trkpt lat="43.49365" lon="6.93189">
        <ele>155.80000305176</ele>
        <time>2013-12-27T08:57:53.000Z</time>
      </trkpt>
      <trkpt lat="43.49373" lon="6.93198">
        <ele>157.80000305176</ele>
        <time>2013-12-27T08:57:59.000Z</time>
      </trkpt>
      <trkpt lat="43.49374" lon="6.93197">
        <ele>158</ele>
        <time>2013-12-27T08:58:00.000Z</time>
      </trkpt>
      <trkpt lat="43.49376" lon="6.93192">
        <ele>157.80000305176</ele>
        <time>2013-12-27T08:58:03.000Z</time>
      </trkpt>
      <trkpt lat="43.49375" lon="6.93188">
        <ele>157.19999694824</ele>
        <time>2013-12-27T08:58:05.000Z</time>
      </trkpt>
      <trkpt lat="43.49372" lon="6.93175">
        <ele>155.80000305176</ele>
        <time>2013-12-27T08:58:10.000Z</time>
      </trkpt>
      <trkpt lat="43.49377" lon="6.93156">
        <ele>154.39999389648</ele>
        <time>2013-12-27T08:58:17.000Z</time>
      </trkpt>
      <trkpt lat="43.49391" lon="6.9314">
        <ele>155.80000305176</ele>
        <time>2013-12-27T08:58:26.000Z</time>
      </trkpt>
      <trkpt lat="43.49406" lon="6.93131">
        <ele>158.39999389648</ele>
        <time>2013-12-27T08:58:34.000Z</time>
      </trkpt>
      <trkpt lat="43.49424" lon="6.93124">
        <ele>159.19999694824</ele>
        <time>2013-12-27T08:58:43.000Z</time>
      </trkpt>
      <trkpt lat="43.49441" lon="6.93119">
        <ele>155.80000305176</ele>
        <time>2013-12-27T08:58:53.000Z</time>
      </trkpt>
      <trkpt lat="43.49443" lon="6.9312">
        <ele>155.60000610352</ele>
        <time>2013-12-27T08:58:55.000Z</time>
      </trkpt>
      <trkpt lat="43.49445" lon="6.93127">
        <ele>155.39999389648</ele>
        <time>2013-12-27T08:58:59.000Z</time>
      </trkpt>
      <trkpt lat="43.49444" lon="6.93135">
        <ele>156</ele>
        <time>2013-12-27T08:59:03.000Z</time>
      </trkpt>
      <trkpt lat="43.49443" lon="6.93142">
        <ele>156.39999389648</ele>
        <time>2013-12-27T08:59:06.000Z</time>
      </trkpt>
      <trkpt lat="43.49441" lon="6.93163">
        <ele>158</ele>
        <time>2013-12-27T08:59:13.000Z</time>
      </trkpt>
      <trkpt lat="43.49431" lon="6.93187">
        <ele>160.19999694824</ele>
        <time>2013-12-27T08:59:20.000Z</time>
      </trkpt>
      <trkpt lat="43.49419" lon="6.93209">
        <ele>163.39999389648</ele>
        <time>2013-12-27T08:59:25.000Z</time>
      </trkpt>
      <trkpt lat="43.49408" lon="6.93232">
        <ele>163.39999389648</ele>
        <time>2013-12-27T08:59:30.000Z</time>
      </trkpt>
      <trkpt lat="43.49403" lon="6.93253">
        <ele>163.60000610352</ele>
        <time>2013-12-27T08:59:35.000Z</time>
      </trkpt>
      <trkpt lat="43.49402" lon="6.93288">
        <ele>164.39999389648</ele>
        <time>2013-12-27T08:59:42.000Z</time>
      </trkpt>
      <trkpt lat="43.49403" lon="6.93304">
        <ele>165</ele>
        <time>2013-12-27T08:59:46.000Z</time>
      </trkpt>
      <trkpt lat="43.49402" lon="6.9332">
        <ele>165.39999389648</ele>
        <time>2013-12-27T08:59:51.000Z</time>
      </trkpt>
      <trkpt lat="43.49396" lon="6.93325">
        <ele>166.19999694824</ele>
        <time>2013-12-27T08:59:55.000Z</time>
      </trkpt>
      <trkpt lat="43.49395" lon="6.93323">
        <ele>166.19999694824</ele>
        <time>2013-12-27T08:59:56.000Z</time>
      </trkpt>
      <trkpt lat="43.49386" lon="6.93311">
        <ele>166.39999389648</ele>
        <time>2013-12-27T09:00:03.000Z</time>
      </trkpt>
      <trkpt lat="43.49373" lon="6.93308">
        <ele>167.19999694824</ele>
        <time>2013-12-27T09:00:10.000Z</time>
      </trkpt>
      <trkpt lat="43.49359" lon="6.93308">
        <ele>168.19999694824</ele>
        <time>2013-12-27T09:00:16.000Z</time>
      </trkpt>
      <trkpt lat="43.4935" lon="6.93313">
        <ele>169.39999389648</ele>
        <time>2013-12-27T09:00:21.000Z</time>
      </trkpt>
      <trkpt lat="43.4934" lon="6.9333">
        <ele>172.60000610352</ele>
        <time>2013-12-27T09:00:29.000Z</time>
      </trkpt>
      <trkpt lat="43.49342" lon="6.93344">
        <ele>173.60000610352</ele>
        <time>2013-12-27T09:00:35.000Z</time>
      </trkpt>
      <trkpt lat="43.4935" lon="6.93359">
        <ele>173.60000610352</ele>
        <time>2013-12-27T09:00:41.000Z</time>
      </trkpt>
      <trkpt lat="43.49355" lon="6.93374">
        <ele>173.80000305176</ele>
        <time>2013-12-27T09:00:48.000Z</time>
      </trkpt>
      <trkpt lat="43.49352" lon="6.93385">
        <ele>174.80000305176</ele>
        <time>2013-12-27T09:00:54.000Z</time>
      </trkpt>
      <trkpt lat="43.49349" lon="6.93401">
        <ele>176.39999389648</ele>
        <time>2013-12-27T09:01:03.000Z</time>
      </trkpt>
      <trkpt lat="43.49345" lon="6.93429">
        <ele>177.80000305176</ele>
        <time>2013-12-27T09:01:09.000Z</time>
      </trkpt>
      <trkpt lat="43.49339" lon="6.93465">
        <ele>177.80000305176</ele>
        <time>2013-12-27T09:01:17.000Z</time>
      </trkpt>
      <trkpt lat="43.49337" lon="6.93498">
        <ele>177.60000610352</ele>
        <time>2013-12-27T09:01:21.000Z</time>
      </trkpt>
      <trkpt lat="43.49344" lon="6.93531">
        <ele>174.39999389648</ele>
        <time>2013-12-27T09:01:24.000Z</time>
      </trkpt>
      <trkpt lat="43.4935" lon="6.93558">
        <ele>171.39999389648</ele>
        <time>2013-12-27T09:01:26.000Z</time>
      </trkpt>
      <trkpt lat="43.49351" lon="6.93587">
        <ele>169.60000610352</ele>
        <time>2013-12-27T09:01:28.000Z</time>
      </trkpt>
      <trkpt lat="43.49341" lon="6.93621">
        <ele>172.80000305176</ele>
        <time>2013-12-27T09:01:31.000Z</time>
      </trkpt>
      <trkpt lat="43.49337" lon="6.93629">
        <ele>174</ele>
        <time>2013-12-27T09:01:32.000Z</time>
      </trkpt>
      <trkpt lat="43.49329" lon="6.93658">
        <ele>174.80000305176</ele>
        <time>2013-12-27T09:01:35.000Z</time>
      </trkpt>
      <trkpt lat="43.49322" lon="6.93685">
        <ele>173.80000305176</ele>
        <time>2013-12-27T09:01:39.000Z</time>
      </trkpt>
      <trkpt lat="43.49321" lon="6.93694">
        <ele>173.39999389648</ele>
        <time>2013-12-27T09:01:41.000Z</time>
      </trkpt>
      <trkpt lat="43.49318" lon="6.93708">
        <ele>173</ele>
        <time>2013-12-27T09:01:44.000Z</time>
      </trkpt>
      <trkpt lat="43.49311" lon="6.93733">
        <ele>172.19999694824</ele>
        <time>2013-12-27T09:01:51.000Z</time>
      </trkpt>
      <trkpt lat="43.49311" lon="6.93753">
        <ele>172.39999389648</ele>
        <time>2013-12-27T09:01:57.000Z</time>
      </trkpt>
      <trkpt lat="43.49313" lon="6.93784">
        <ele>173.19999694824</ele>
        <time>2013-12-27T09:02:05.000Z</time>
      </trkpt>
      <trkpt lat="43.49309" lon="6.93815">
        <ele>173.39999389648</ele>
        <time>2013-12-27T09:02:13.000Z</time>
      </trkpt>
      <trkpt lat="43.49306" lon="6.93853">
        <ele>173.80000305176</ele>
        <time>2013-12-27T09:02:20.000Z</time>
      </trkpt>
      <trkpt lat="43.49309" lon="6.93877">
        <ele>174.39999389648</ele>
        <time>2013-12-27T09:02:25.000Z</time>
      </trkpt>
      <trkpt lat="43.4931" lon="6.93885">
        <ele>174.60000610352</ele>
        <time>2013-12-27T09:02:30.000Z</time>
      </trkpt>
      <trkpt lat="43.4931" lon="6.93894">
        <ele>174.60000610352</ele>
        <time>2013-12-27T09:02:38.000Z</time>
      </trkpt>
      <trkpt lat="43.49312" lon="6.939">
        <ele>174.80000305176</ele>
        <time>2013-12-27T09:02:44.000Z</time>
      </trkpt>
      <trkpt lat="43.49316" lon="6.93918">
        <ele>175.19999694824</ele>
        <time>2013-12-27T09:02:50.000Z</time>
      </trkpt>
      <trkpt lat="43.49322" lon="6.93952">
        <ele>175.60000610352</ele>
        <time>2013-12-27T09:02:56.000Z</time>
      </trkpt>
      <trkpt lat="43.4933" lon="6.93997">
        <ele>175.39999389648</ele>
        <time>2013-12-27T09:03:01.000Z</time>
      </trkpt>
      <trkpt lat="43.49334" lon="6.94026">
        <ele>174.19999694824</ele>
        <time>2013-12-27T09:03:04.000Z</time>
      </trkpt>
      <trkpt lat="43.49335" lon="6.94049">
        <ele>173.19999694824</ele>
        <time>2013-12-27T09:03:06.000Z</time>
      </trkpt>
      <trkpt lat="43.49339" lon="6.94119">
        <ele>169.19999694824</ele>
        <time>2013-12-27T09:03:12.000Z</time>
      </trkpt>
      <trkpt lat="43.49344" lon="6.94179">
        <ele>165.19999694824</ele>
        <time>2013-12-27T09:03:17.000Z</time>
      </trkpt>
      <trkpt lat="43.49345" lon="6.94213">
        <ele>161.60000610352</ele>
        <time>2013-12-27T09:03:21.000Z</time>
      </trkpt>
      <trkpt lat="43.49347" lon="6.94235">
        <ele>159.19999694824</ele>
        <time>2013-12-27T09:03:24.000Z</time>
      </trkpt>
      <trkpt lat="43.49349" lon="6.94245">
        <ele>158.19999694824</ele>
        <time>2013-12-27T09:03:26.000Z</time>
      </trkpt>
      <trkpt lat="43.49361" lon="6.94253">
        <ele>156.80000305176</ele>
        <time>2013-12-27T09:03:29.000Z</time>
      </trkpt>
      <trkpt lat="43.49373" lon="6.94253">
        <ele>156.39999389648</ele>
        <time>2013-12-27T09:03:31.000Z</time>
      </trkpt>
      <trkpt lat="43.4938" lon="6.94253">
        <ele>156.39999389648</ele>
        <time>2013-12-27T09:03:32.000Z</time>
      </trkpt>
      <trkpt lat="43.49413" lon="6.94253">
        <ele>155.60000610352</ele>
        <time>2013-12-27T09:03:37.000Z</time>
      </trkpt>
      <trkpt lat="43.49442" lon="6.94252">
        <ele>156</ele>
        <time>2013-12-27T09:03:42.000Z</time>
      </trkpt>
      <trkpt lat="43.49446" lon="6.94251">
        <ele>156.19999694824</ele>
        <time>2013-12-27T09:03:43.000Z</time>
      </trkpt>
      <trkpt lat="43.49464" lon="6.94252">
        <ele>156.19999694824</ele>
        <time>2013-12-27T09:03:48.000Z</time>
      </trkpt>
      <trkpt lat="43.49467" lon="6.94252">
        <ele>156.39999389648</ele>
        <time>2013-12-27T09:03:49.000Z</time>
      </trkpt>
      <trkpt lat="43.49486" lon="6.94253">
        <ele>156.39999389648</ele>
        <time>2013-12-27T09:03:55.000Z</time>
      </trkpt>
      <trkpt lat="43.49506" lon="6.94251">
        <ele>157.19999694824</ele>
        <time>2013-12-27T09:04:02.000Z</time>
      </trkpt>
      <trkpt lat="43.49528" lon="6.94244">
        <ele>157.60000610352</ele>
        <time>2013-12-27T09:04:10.000Z</time>
      </trkpt>
      <trkpt lat="43.49544" lon="6.94252">
        <ele>159</ele>
        <time>2013-12-27T09:04:16.000Z</time>
      </trkpt>
      <trkpt lat="43.49551" lon="6.94268">
        <ele>158</ele>
        <time>2013-12-27T09:04:20.000Z</time>
      </trkpt>
      <trkpt lat="43.49561" lon="6.94269">
        <ele>158.39999389648</ele>
        <time>2013-12-27T09:04:23.000Z</time>
      </trkpt>
      <trkpt lat="43.49571" lon="6.9426">
        <ele>159.60000610352</ele>
        <time>2013-12-27T09:04:28.000Z</time>
      </trkpt>
      <trkpt lat="43.4958" lon="6.94252">
        <ele>160.60000610352</ele>
        <time>2013-12-27T09:04:33.000Z</time>
      </trkpt>
      <trkpt lat="43.49593" lon="6.94249">
        <ele>162.60000610352</ele>
        <time>2013-12-27T09:04:40.000Z</time>
      </trkpt>
      <trkpt lat="43.49604" lon="6.94244">
        <ele>163.80000305176</ele>
        <time>2013-12-27T09:04:47.000Z</time>
      </trkpt>
      <trkpt lat="43.49619" lon="6.94236">
        <ele>165.80000305176</ele>
        <time>2013-12-27T09:04:56.000Z</time>
      </trkpt>
      <trkpt lat="43.49634" lon="6.94226">
        <ele>167.39999389648</ele>
        <time>2013-12-27T09:05:05.000Z</time>
      </trkpt>
      <trkpt lat="43.49649" lon="6.94214">
        <ele>169</ele>
        <time>2013-12-27T09:05:14.000Z</time>
      </trkpt>
      <trkpt lat="43.4966" lon="6.94205">
        <ele>170.39999389648</ele>
        <time>2013-12-27T09:05:21.000Z</time>
      </trkpt>
      <trkpt lat="43.49671" lon="6.94196">
        <ele>171.60000610352</ele>
        <time>2013-12-27T09:05:28.000Z</time>
      </trkpt>
      <trkpt lat="43.49683" lon="6.94182">
        <ele>172.19999694824</ele>
        <time>2013-12-27T09:05:37.000Z</time>
      </trkpt>
      <trkpt lat="43.49692" lon="6.94173">
        <ele>172.60000610352</ele>
        <time>2013-12-27T09:05:44.000Z</time>
      </trkpt>
      <trkpt lat="43.49704" lon="6.94167">
        <ele>173.80000305176</ele>
        <time>2013-12-27T09:05:52.000Z</time>
      </trkpt>
      <trkpt lat="43.49712" lon="6.94166">
        <ele>175</ele>
        <time>2013-12-27T09:05:58.000Z</time>
      </trkpt>
      <trkpt lat="43.49724" lon="6.94167">
        <ele>177</ele>
        <time>2013-12-27T09:06:07.000Z</time>
      </trkpt>
      <trkpt lat="43.49735" lon="6.94168">
        <ele>178.80000305176</ele>
        <time>2013-12-27T09:06:15.000Z</time>
      </trkpt>
      <trkpt lat="43.49745" lon="6.94167">
        <ele>180.39999389648</ele>
        <time>2013-12-27T09:06:21.000Z</time>
      </trkpt>
      <trkpt lat="43.49759" lon="6.94167">
        <ele>181.80000305176</ele>
        <time>2013-12-27T09:06:28.000Z</time>
      </trkpt>
      <trkpt lat="43.49774" lon="6.94165">
        <ele>183.19999694824</ele>
        <time>2013-12-27T09:06:36.000Z</time>
      </trkpt>
      <trkpt lat="43.4979" lon="6.94162">
        <ele>184.19999694824</ele>
        <time>2013-12-27T09:06:44.000Z</time>
      </trkpt>
      <trkpt lat="43.49802" lon="6.94156">
        <ele>183.80000305176</ele>
        <time>2013-12-27T09:06:51.000Z</time>
      </trkpt>
      <trkpt lat="43.49818" lon="6.9415">
        <ele>183.80000305176</ele>
        <time>2013-12-27T09:06:59.000Z</time>
      </trkpt>
      <trkpt lat="43.49831" lon="6.94144">
        <ele>183.39999389648</ele>
        <time>2013-12-27T09:07:06.000Z</time>
      </trkpt>
      <trkpt lat="43.49838" lon="6.94144">
        <ele>183.60000610352</ele>
        <time>2013-12-27T09:07:09.000Z</time>
      </trkpt>
      <trkpt lat="43.4984" lon="6.94149">
        <ele>185</ele>
        <time>2013-12-27T09:07:11.000Z</time>
      </trkpt>
      <trkpt lat="43.49836" lon="6.94156">
        <ele>187</ele>
        <time>2013-12-27T09:07:15.000Z</time>
      </trkpt>
      <trkpt lat="43.49827" lon="6.94166">
        <ele>189.19999694824</ele>
        <time>2013-12-27T09:07:22.000Z</time>
      </trkpt>
      <trkpt lat="43.49814" lon="6.9418">
        <ele>190</ele>
        <time>2013-12-27T09:07:31.000Z</time>
      </trkpt>
      <trkpt lat="43.49803" lon="6.94195">
        <ele>191.19999694824</ele>
        <time>2013-12-27T09:07:39.000Z</time>
      </trkpt>
      <trkpt lat="43.49795" lon="6.94204">
        <ele>191.60000610352</ele>
        <time>2013-12-27T09:07:45.000Z</time>
      </trkpt>
      <trkpt lat="43.49781" lon="6.9422">
        <ele>192.80000305176</ele>
        <time>2013-12-27T09:07:54.000Z</time>
      </trkpt>
      <trkpt lat="43.49769" lon="6.94238">
        <ele>194.19999694824</ele>
        <time>2013-12-27T09:08:03.000Z</time>
      </trkpt>
      <trkpt lat="43.49765" lon="6.94257">
        <ele>195.60000610352</ele>
        <time>2013-12-27T09:08:11.000Z</time>
      </trkpt>
      <trkpt lat="43.49764" lon="6.94279">
        <ele>195</ele>
        <time>2013-12-27T09:08:20.000Z</time>
      </trkpt>
      <trkpt lat="43.49764" lon="6.94289">
        <ele>195</ele>
        <time>2013-12-27T09:08:26.000Z</time>
      </trkpt>
      <trkpt lat="43.49767" lon="6.94303">
        <ele>195.19999694824</ele>
        <time>2013-12-27T09:08:32.000Z</time>
      </trkpt>
      <trkpt lat="43.49774" lon="6.94321">
        <ele>196.80000305176</ele>
        <time>2013-12-27T09:08:38.000Z</time>
      </trkpt>
      <trkpt lat="43.49783" lon="6.9434">
        <ele>199</ele>
        <time>2013-12-27T09:08:45.000Z</time>
      </trkpt>
      <trkpt lat="43.49789" lon="6.94359">
        <ele>200</ele>
        <time>2013-12-27T09:08:52.000Z</time>
      </trkpt>
      <trkpt lat="43.49793" lon="6.94383">
        <ele>200.39999389648</ele>
        <time>2013-12-27T09:09:00.000Z</time>
      </trkpt>
      <trkpt lat="43.49794" lon="6.9441">
        <ele>199.60000610352</ele>
        <time>2013-12-27T09:09:08.000Z</time>
      </trkpt>
      <trkpt lat="43.49796" lon="6.94437">
        <ele>199</ele>
        <time>2013-12-27T09:09:16.000Z</time>
      </trkpt>
      <trkpt lat="43.498" lon="6.9446">
        <ele>199</ele>
        <time>2013-12-27T09:09:23.000Z</time>
      </trkpt>
      <trkpt lat="43.49808" lon="6.94493">
        <ele>200.80000305176</ele>
        <time>2013-12-27T09:09:33.000Z</time>
      </trkpt>
      <trkpt lat="43.49818" lon="6.94521">
        <ele>201</ele>
        <time>2013-12-27T09:09:41.000Z</time>
      </trkpt>
      <trkpt lat="43.49828" lon="6.94544">
        <ele>200.80000305176</ele>
        <time>2013-12-27T09:09:48.000Z</time>
      </trkpt>
      <trkpt lat="43.49844" lon="6.94574">
        <ele>202</ele>
        <time>2013-12-27T09:09:57.000Z</time>
      </trkpt>
      <trkpt lat="43.49861" lon="6.94604">
        <ele>203.39999389648</ele>
        <time>2013-12-27T09:10:06.000Z</time>
      </trkpt>
      <trkpt lat="43.49881" lon="6.94636">
        <ele>204.19999694824</ele>
        <time>2013-12-27T09:10:16.000Z</time>
      </trkpt>
      <trkpt lat="43.49899" lon="6.94662">
        <ele>205.80000305176</ele>
        <time>2013-12-27T09:10:24.000Z</time>
      </trkpt>
      <trkpt lat="43.49917" lon="6.94687">
        <ele>207.19999694824</ele>
        <time>2013-12-27T09:10:32.000Z</time>
      </trkpt>
      <trkpt lat="43.49938" lon="6.94709">
        <ele>205.60000610352</ele>
        <time>2013-12-27T09:10:40.000Z</time>
      </trkpt>
      <trkpt lat="43.4996" lon="6.94729">
        <ele>205.39999389648</ele>
        <time>2013-12-27T09:10:48.000Z</time>
      </trkpt>
      <trkpt lat="43.4998" lon="6.94744">
        <ele>206.60000610352</ele>
        <time>2013-12-27T09:10:55.000Z</time>
      </trkpt>
      <trkpt lat="43.50001" lon="6.94757">
        <ele>208.19999694824</ele>
        <time>2013-12-27T09:11:02.000Z</time>
      </trkpt>
      <trkpt lat="43.50027" lon="6.94773">
        <ele>203.39999389648</ele>
        <time>2013-12-27T09:11:11.000Z</time>
      </trkpt>
      <trkpt lat="43.50045" lon="6.94784">
        <ele>201.80000305176</ele>
        <time>2013-12-27T09:11:17.000Z</time>
      </trkpt>
      <trkpt lat="43.50061" lon="6.94793">
        <ele>201.60000610352</ele>
        <time>2013-12-27T09:11:24.000Z</time>
      </trkpt>
      <trkpt lat="43.50062" lon="6.94793">
        <ele>201.60000610352</ele>
        <time>2013-12-27T09:11:28.000Z</time>
      </trkpt>
      <trkpt lat="43.50061" lon="6.94789">
        <ele>201.80000305176</ele>
        <time>2013-12-27T09:11:39.000Z</time>
      </trkpt>
      <trkpt lat="43.50061" lon="6.94787">
        <ele>202</ele>
        <time>2013-12-27T09:11:44.000Z</time>
      </trkpt>
      <trkpt lat="43.50059" lon="6.94782">
        <ele>202.19999694824</ele>
        <time>2013-12-27T09:11:49.000Z</time>
      </trkpt>
      <trkpt lat="43.50057" lon="6.94776">
        <ele>202.39999389648</ele>
        <time>2013-12-27T09:11:56.000Z</time>
      </trkpt>
      <trkpt lat="43.50057" lon="6.94775">
        <ele>202.39999389648</ele>
        <time>2013-12-27T09:11:58.000Z</time>
      </trkpt>
      <trkpt lat="43.50055" lon="6.94772">
        <ele>202.80000305176</ele>
        <time>2013-12-27T09:12:02.000Z</time>
      </trkpt>
      <trkpt lat="43.50054" lon="6.9477">
        <ele>202.80000305176</ele>
        <time>2013-12-27T09:12:03.000Z</time>
      </trkpt>
      <trkpt lat="43.50053" lon="6.94767">
        <ele>203</ele>
        <time>2013-12-27T09:12:08.000Z</time>
      </trkpt>
      <trkpt lat="43.50053" lon="6.94759">
        <ele>203.60000610352</ele>
        <time>2013-12-27T09:12:15.000Z</time>
      </trkpt>
      <trkpt lat="43.50052" lon="6.94756">
        <ele>204</ele>
        <time>2013-12-27T09:12:18.000Z</time>
      </trkpt>
      <trkpt lat="43.50051" lon="6.94754">
        <ele>204.19999694824</ele>
        <time>2013-12-27T09:12:20.000Z</time>
      </trkpt>
      <trkpt lat="43.50051" lon="6.94753">
        <ele>204.19999694824</ele>
        <time>2013-12-27T09:12:21.000Z</time>
      </trkpt>
      <trkpt lat="43.50048" lon="6.94749">
        <ele>205</ele>
        <time>2013-12-27T09:12:25.000Z</time>
      </trkpt>
      <trkpt lat="43.50048" lon="6.94748">
        <ele>205</ele>
        <time>2013-12-27T09:12:26.000Z</time>
      </trkpt>
      <trkpt lat="43.50048" lon="6.94745">
        <ele>205.39999389648</ele>
        <time>2013-12-27T09:12:32.000Z</time>
      </trkpt>
      <trkpt lat="43.50046" lon="6.94743">
        <ele>206.19999694824</ele>
        <time>2013-12-27T09:12:37.000Z</time>
      </trkpt>
      <trkpt lat="43.50043" lon="6.94739">
        <ele>207</ele>
        <time>2013-12-27T09:12:46.000Z</time>
      </trkpt>
      <trkpt lat="43.50039" lon="6.94734">
        <ele>208.19999694824</ele>
        <time>2013-12-27T09:12:55.000Z</time>
      </trkpt>
      <trkpt lat="43.50036" lon="6.94731">
        <ele>209.19999694824</ele>
        <time>2013-12-27T09:13:00.000Z</time>
      </trkpt>
      <trkpt lat="43.50033" lon="6.94726">
        <ele>210.39999389648</ele>
        <time>2013-12-27T09:13:06.000Z</time>
      </trkpt>
      <trkpt lat="43.50032" lon="6.9472">
        <ele>211.60000610352</ele>
        <time>2013-12-27T09:13:13.000Z</time>
      </trkpt>
      <trkpt lat="43.50033" lon="6.94717">
        <ele>212.19999694824</ele>
        <time>2013-12-27T09:13:19.000Z</time>
      </trkpt>
      <trkpt lat="43.50032" lon="6.94712">
        <ele>213.19999694824</ele>
        <time>2013-12-27T09:13:25.000Z</time>
      </trkpt>
      <trkpt lat="43.50029" lon="6.94705">
        <ele>214.80000305176</ele>
        <time>2013-12-27T09:13:32.000Z</time>
      </trkpt>
      <trkpt lat="43.50026" lon="6.94701">
        <ele>216.19999694824</ele>
        <time>2013-12-27T09:13:37.000Z</time>
      </trkpt>
      <trkpt lat="43.50025" lon="6.94701">
        <ele>216.39999389648</ele>
        <time>2013-12-27T09:13:38.000Z</time>
      </trkpt>
      <trkpt lat="43.50024" lon="6.94697">
        <ele>217.39999389648</ele>
        <time>2013-12-27T09:13:43.000Z</time>
      </trkpt>
      <trkpt lat="43.50021" lon="6.94692">
        <ele>219</ele>
        <time>2013-12-27T09:13:49.000Z</time>
      </trkpt>
      <trkpt lat="43.50019" lon="6.94688">
        <ele>220.39999389648</ele>
        <time>2013-12-27T09:13:54.000Z</time>
      </trkpt>
      <trkpt lat="43.50017" lon="6.94684">
        <ele>221.60000610352</ele>
        <time>2013-12-27T09:14:00.000Z</time>
      </trkpt>
      <trkpt lat="43.50016" lon="6.9468">
        <ele>222.60000610352</ele>
        <time>2013-12-27T09:14:06.000Z</time>
      </trkpt>
      <trkpt lat="43.50015" lon="6.94675">
        <ele>223.80000305176</ele>
        <time>2013-12-27T09:14:12.000Z</time>
      </trkpt>
      <trkpt lat="43.50014" lon="6.94671">
        <ele>225</ele>
        <time>2013-12-27T09:14:17.000Z</time>
      </trkpt>
      <trkpt lat="43.50011" lon="6.94664">
        <ele>227.19999694824</ele>
        <time>2013-12-27T09:14:24.000Z</time>
      </trkpt>
      <trkpt lat="43.5001" lon="6.94662">
        <ele>227.80000305176</ele>
        <time>2013-12-27T09:14:26.000Z</time>
      </trkpt>
      <trkpt lat="43.5001" lon="6.9466">
        <ele>228.19999694824</ele>
        <time>2013-12-27T09:14:28.000Z</time>
      </trkpt>
      <trkpt lat="43.50007" lon="6.94656">
        <ele>229.39999389648</ele>
        <time>2013-12-27T09:14:32.000Z</time>
      </trkpt>
      <trkpt lat="43.50007" lon="6.94655">
        <ele>229.80000305176</ele>
        <time>2013-12-27T09:14:33.000Z</time>
      </trkpt>
      <trkpt lat="43.50006" lon="6.94652">
        <ele>230.39999389648</ele>
        <time>2013-12-27T09:14:36.000Z</time>
      </trkpt>
      <trkpt lat="43.50005" lon="6.94652">
        <ele>230.80000305176</ele>
        <time>2013-12-27T09:14:38.000Z</time>
      </trkpt>
      <trkpt lat="43.50004" lon="6.94647">
        <ele>231.80000305176</ele>
        <time>2013-12-27T09:14:45.000Z</time>
      </trkpt>
      <trkpt lat="43.50002" lon="6.94639">
        <ele>233.60000610352</ele>
        <time>2013-12-27T09:14:51.000Z</time>
      </trkpt>
      <trkpt lat="43.50002" lon="6.94638">
        <ele>234</ele>
        <time>2013-12-27T09:14:52.000Z</time>
      </trkpt>
      <trkpt lat="43.49999" lon="6.94632">
        <ele>235.19999694824</ele>
        <time>2013-12-27T09:14:58.000Z</time>
      </trkpt>
      <trkpt lat="43.49998" lon="6.94623">
        <ele>236.60000610352</ele>
        <time>2013-12-27T09:15:04.000Z</time>
      </trkpt>
      <trkpt lat="43.49998" lon="6.94622">
        <ele>236.60000610352</ele>
        <time>2013-12-27T09:15:05.000Z</time>
      </trkpt>
      <trkpt lat="43.49994" lon="6.94616">
        <ele>237.19999694824</ele>
        <time>2013-12-27T09:15:11.000Z</time>
      </trkpt>
      <trkpt lat="43.49994" lon="6.94616">
        <ele>237.19999694824</ele>
        <time>2013-12-27T09:15:12.000Z</time>
      </trkpt>
      <trkpt lat="43.49992" lon="6.94608">
        <ele>238.19999694824</ele>
        <time>2013-12-27T09:15:17.000Z</time>
      </trkpt>
      <trkpt lat="43.4999" lon="6.94602">
        <ele>239</ele>
        <time>2013-12-27T09:15:22.000Z</time>
      </trkpt>
      <trkpt lat="43.49988" lon="6.946">
        <ele>239</ele>
        <time>2013-12-27T09:15:25.000Z</time>
      </trkpt>
      <trkpt lat="43.49986" lon="6.946">
        <ele>238.80000305176</ele>
        <time>2013-12-27T09:15:28.000Z</time>
      </trkpt>
      <trkpt lat="43.49979" lon="6.94596">
        <ele>238.80000305176</ele>
        <time>2013-12-27T09:15:36.000Z</time>
      </trkpt>
      <trkpt lat="43.49978" lon="6.94593">
        <ele>239.19999694824</ele>
        <time>2013-12-27T09:15:39.000Z</time>
      </trkpt>
      <trkpt lat="43.49976" lon="6.94589">
        <ele>240</ele>
        <time>2013-12-27T09:15:44.000Z</time>
      </trkpt>
      <trkpt lat="43.49972" lon="6.94581">
        <ele>240.60000610352</ele>
        <time>2013-12-27T09:15:50.000Z</time>
      </trkpt>
      <trkpt lat="43.49969" lon="6.94576">
        <ele>240.19999694824</ele>
        <time>2013-12-27T09:15:55.000Z</time>
      </trkpt>
      <trkpt lat="43.49968" lon="6.94574">
        <ele>240</ele>
        <time>2013-12-27T09:15:57.000Z</time>
      </trkpt>
      <trkpt lat="43.49967" lon="6.94573">
        <ele>240</ele>
        <time>2013-12-27T09:15:58.000Z</time>
      </trkpt>
      <trkpt lat="43.49964" lon="6.9457">
        <ele>239.80000305176</ele>
        <time>2013-12-27T09:16:02.000Z</time>
      </trkpt>
      <trkpt lat="43.49961" lon="6.94566">
        <ele>239.39999389648</ele>
        <time>2013-12-27T09:16:09.000Z</time>
      </trkpt>
      <trkpt lat="43.4996" lon="6.94565">
        <ele>239.39999389648</ele>
        <time>2013-12-27T09:16:17.000Z</time>
      </trkpt>
      <trkpt lat="43.49948" lon="6.94557">
        <ele>239.19999694824</ele>
        <time>2013-12-27T09:18:17.000Z</time>
      </trkpt>
      <trkpt lat="43.49948" lon="6.94553">
        <ele>239.19999694824</ele>
        <time>2013-12-27T09:18:18.000Z</time>
      </trkpt>
      <trkpt lat="43.4995" lon="6.94545">
        <ele>239.39999389648</ele>
        <time>2013-12-27T09:18:21.000Z</time>
      </trkpt>
      <trkpt lat="43.49946" lon="6.9453">
        <ele>239.80000305176</ele>
        <time>2013-12-27T09:18:24.000Z</time>
      </trkpt>
      <trkpt lat="43.49945" lon="6.94526">
        <ele>240</ele>
        <time>2013-12-27T09:18:25.000Z</time>
      </trkpt>
      <trkpt lat="43.49943" lon="6.94525">
        <ele>240</ele>
        <time>2013-12-27T09:18:26.000Z</time>
      </trkpt>
      <trkpt lat="43.49939" lon="6.94525">
        <ele>240.19999694824</ele>
        <time>2013-12-27T09:18:27.000Z</time>
      </trkpt>
      <trkpt lat="43.49928" lon="6.94518">
        <ele>241.39999389648</ele>
        <time>2013-12-27T09:18:31.000Z</time>
      </trkpt>
      <trkpt lat="43.4992" lon="6.94505">
        <ele>243.19999694824</ele>
        <time>2013-12-27T09:18:35.000Z</time>
      </trkpt>
      <trkpt lat="43.49909" lon="6.94492">
        <ele>240.19999694824</ele>
        <time>2013-12-27T09:18:39.000Z</time>
      </trkpt>
      <trkpt lat="43.49902" lon="6.94478">
        <ele>236.80000305176</ele>
        <time>2013-12-27T09:18:43.000Z</time>
      </trkpt>
      <trkpt lat="43.49898" lon="6.94464">
        <ele>234.39999389648</ele>
        <time>2013-12-27T09:18:46.000Z</time>
      </trkpt>
      <trkpt lat="43.49894" lon="6.9446">
        <ele>233.19999694824</ele>
        <time>2013-12-27T09:18:47.000Z</time>
      </trkpt>
      <trkpt lat="43.49886" lon="6.94446">
        <ele>230.19999694824</ele>
        <time>2013-12-27T09:18:51.000Z</time>
      </trkpt>
      <trkpt lat="43.49883" lon="6.94431">
        <ele>228.60000610352</ele>
        <time>2013-12-27T09:18:56.000Z</time>
      </trkpt>
      <trkpt lat="43.49885" lon="6.94419">
        <ele>228.60000610352</ele>
        <time>2013-12-27T09:19:00.000Z</time>
      </trkpt>
      <trkpt lat="43.49886" lon="6.94407">
        <ele>227.60000610352</ele>
        <time>2013-12-27T09:19:03.000Z</time>
      </trkpt>
      <trkpt lat="43.49888" lon="6.944">
        <ele>227.19999694824</ele>
        <time>2013-12-27T09:19:04.000Z</time>
      </trkpt>
      <trkpt lat="43.4989" lon="6.94374">
        <ele>224.60000610352</ele>
        <time>2013-12-27T09:19:08.000Z</time>
      </trkpt>
      <trkpt lat="43.49887" lon="6.94367">
        <ele>223.39999389648</ele>
        <time>2013-12-27T09:19:10.000Z</time>
      </trkpt>
      <trkpt lat="43.49884" lon="6.94363">
        <ele>222.80000305176</ele>
        <time>2013-12-27T09:19:11.000Z</time>
      </trkpt>
      <trkpt lat="43.49883" lon="6.94352">
        <ele>221.39999389648</ele>
        <time>2013-12-27T09:19:14.000Z</time>
      </trkpt>
      <trkpt lat="43.49883" lon="6.94348">
        <ele>221</ele>
        <time>2013-12-27T09:19:15.000Z</time>
      </trkpt>
      <trkpt lat="43.49884" lon="6.94338">
        <ele>220</ele>
        <time>2013-12-27T09:19:18.000Z</time>
      </trkpt>
      <trkpt lat="43.49883" lon="6.94336">
        <ele>219.60000610352</ele>
        <time>2013-12-27T09:19:19.000Z</time>
      </trkpt>
      <trkpt lat="43.49882" lon="6.94326">
        <ele>218</ele>
        <time>2013-12-27T09:19:22.000Z</time>
      </trkpt>
      <trkpt lat="43.49877" lon="6.94318">
        <ele>216</ele>
        <time>2013-12-27T09:19:26.000Z</time>
      </trkpt>
      <trkpt lat="43.49866" lon="6.94317">
        <ele>214.80000305176</ele>
        <time>2013-12-27T09:19:30.000Z</time>
      </trkpt>
      <trkpt lat="43.49854" lon="6.94315">
        <ele>213.39999389648</ele>
        <time>2013-12-27T09:19:35.000Z</time>
      </trkpt>
      <trkpt lat="43.49845" lon="6.94306">
        <ele>211.39999389648</ele>
        <time>2013-12-27T09:19:39.000Z</time>
      </trkpt>
      <trkpt lat="43.49841" lon="6.94302">
        <ele>210.39999389648</ele>
        <time>2013-12-27T09:19:42.000Z</time>
      </trkpt>
      <trkpt lat="43.49841" lon="6.94299">
        <ele>210.19999694824</ele>
        <time>2013-12-27T09:19:43.000Z</time>
      </trkpt>
      <trkpt lat="43.49845" lon="6.94291">
        <ele>209.19999694824</ele>
        <time>2013-12-27T09:19:46.000Z</time>
      </trkpt>
      <trkpt lat="43.49844" lon="6.94288">
        <ele>208.80000305176</ele>
        <time>2013-12-27T09:19:47.000Z</time>
      </trkpt>
      <trkpt lat="43.49836" lon="6.94287">
        <ele>208</ele>
        <time>2013-12-27T09:19:51.000Z</time>
      </trkpt>
      <trkpt lat="43.49828" lon="6.9429">
        <ele>207.19999694824</ele>
        <time>2013-12-27T09:19:54.000Z</time>
      </trkpt>
      <trkpt lat="43.49817" lon="6.94293">
        <ele>205.39999389648</ele>
        <time>2013-12-27T09:19:58.000Z</time>
      </trkpt>
      <trkpt lat="43.49815" lon="6.94293">
        <ele>205</ele>
        <time>2013-12-27T09:19:59.000Z</time>
      </trkpt>
      <trkpt lat="43.4981" lon="6.94288">
        <ele>203.60000610352</ele>
        <time>2013-12-27T09:20:01.000Z</time>
      </trkpt>
      <trkpt lat="43.49798" lon="6.94289">
        <ele>201.39999389648</ele>
        <time>2013-12-27T09:20:04.000Z</time>
      </trkpt>
      <trkpt lat="43.49782" lon="6.94284">
        <ele>198.19999694824</ele>
        <time>2013-12-27T09:20:08.000Z</time>
      </trkpt>
      <trkpt lat="43.49764" lon="6.94271">
        <ele>195.19999694824</ele>
        <time>2013-12-27T09:20:12.000Z</time>
      </trkpt>
      <trkpt lat="43.49765" lon="6.94262">
        <ele>195.39999389648</ele>
        <time>2013-12-27T09:20:15.000Z</time>
      </trkpt>
      <trkpt lat="43.49763" lon="6.94268">
        <ele>195.19999694824</ele>
        <time>2013-12-27T09:20:18.000Z</time>
      </trkpt>
      <trkpt lat="43.49765" lon="6.94279">
        <ele>195.19999694824</ele>
        <time>2013-12-27T09:20:23.000Z</time>
      </trkpt>
      <trkpt lat="43.49763" lon="6.94278">
        <ele>194.80000305176</ele>
        <time>2013-12-27T09:20:27.000Z</time>
      </trkpt>
      <trkpt lat="43.49762" lon="6.9428">
        <ele>194.60000610352</ele>
        <time>2013-12-27T09:20:44.000Z</time>
      </trkpt>
      <trkpt lat="43.4976" lon="6.94283">
        <ele>194.19999694824</ele>
        <time>2013-12-27T09:20:48.000Z</time>
      </trkpt>
      <trkpt lat="43.49757" lon="6.9428">
        <ele>193.80000305176</ele>
        <time>2013-12-27T09:20:50.000Z</time>
      </trkpt>
      <trkpt lat="43.49758" lon="6.9428">
        <ele>194</ele>
        <time>2013-12-27T09:20:52.000Z</time>
      </trkpt>
      <trkpt lat="43.49758" lon="6.9428">
        <ele>194</ele>
        <time>2013-12-27T09:20:53.000Z</time>
      </trkpt>
      <trkpt lat="43.49761" lon="6.94281">
        <ele>194.39999389648</ele>
        <time>2013-12-27T09:25:59.000Z</time>
      </trkpt>
      <trkpt lat="43.49763" lon="6.94268">
        <ele>195</ele>
        <time>2013-12-27T09:26:04.000Z</time>
      </trkpt>
      <trkpt lat="43.49754" lon="6.94251">
        <ele>194.39999389648</ele>
        <time>2013-12-27T09:26:07.000Z</time>
      </trkpt>
      <trkpt lat="43.49738" lon="6.94227">
        <ele>188</ele>
        <time>2013-12-27T09:26:11.000Z</time>
      </trkpt>
      <trkpt lat="43.49735" lon="6.94221">
        <ele>186.60000610352</ele>
        <time>2013-12-27T09:26:12.000Z</time>
      </trkpt>
      <trkpt lat="43.49734" lon="6.94216">
        <ele>185.80000305176</ele>
        <time>2013-12-27T09:26:14.000Z</time>
      </trkpt>
      <trkpt lat="43.4974" lon="6.94219">
        <ele>187.19999694824</ele>
        <time>2013-12-27T09:26:17.000Z</time>
      </trkpt>
      <trkpt lat="43.49746" lon="6.94225">
        <ele>189.39999389648</ele>
        <time>2013-12-27T09:26:21.000Z</time>
      </trkpt>
      <trkpt lat="43.49748" lon="6.94227">
        <ele>190</ele>
        <time>2013-12-27T09:26:22.000Z</time>
      </trkpt>
      <trkpt lat="43.49762" lon="6.94242">
        <ele>194</ele>
        <time>2013-12-27T09:26:28.000Z</time>
      </trkpt>
      <trkpt lat="43.49768" lon="6.94259">
        <ele>195.80000305176</ele>
        <time>2013-12-27T09:26:33.000Z</time>
      </trkpt>
      <trkpt lat="43.49767" lon="6.94264">
        <ele>195.60000610352</ele>
        <time>2013-12-27T09:26:35.000Z</time>
      </trkpt>
      <trkpt lat="43.49763" lon="6.94263">
        <ele>195.19999694824</ele>
        <time>2013-12-27T09:26:37.000Z</time>
      </trkpt>
      <trkpt lat="43.49759" lon="6.94251">
        <ele>195</ele>
        <time>2013-12-27T09:26:39.000Z</time>
      </trkpt>
      <trkpt lat="43.49756" lon="6.94246">
        <ele>194</ele>
        <time>2013-12-27T09:26:40.000Z</time>
      </trkpt>
      <trkpt lat="43.49739" lon="6.94226">
        <ele>188</ele>
        <time>2013-12-27T09:26:44.000Z</time>
      </trkpt>
      <trkpt lat="43.49733" lon="6.94221">
        <ele>186.19999694824</ele>
        <time>2013-12-27T09:26:46.000Z</time>
      </trkpt>
      <trkpt lat="43.49733" lon="6.94224">
        <ele>186.39999389648</ele>
        <time>2013-12-27T09:26:47.000Z</time>
      </trkpt>
      <trkpt lat="43.49735" lon="6.94229">
        <ele>187.60000610352</ele>
        <time>2013-12-27T09:26:50.000Z</time>
      </trkpt>
      <trkpt lat="43.49738" lon="6.94231">
        <ele>188.60000610352</ele>
        <time>2013-12-27T09:26:55.000Z</time>
      </trkpt>
      <trkpt lat="43.49737" lon="6.94232">
        <ele>188.60000610352</ele>
        <time>2013-12-27T09:27:02.000Z</time>
      </trkpt>
      <trkpt lat="43.4974" lon="6.94227">
        <ele>188.39999389648</ele>
        <time>2013-12-27T09:27:57.000Z</time>
      </trkpt>
      <trkpt lat="43.49745" lon="6.94225">
        <ele>189.19999694824</ele>
        <time>2013-12-27T09:28:00.000Z</time>
      </trkpt>
      <trkpt lat="43.49757" lon="6.9423">
        <ele>191.60000610352</ele>
        <time>2013-12-27T09:28:05.000Z</time>
      </trkpt>
      <trkpt lat="43.49763" lon="6.94239">
        <ele>193.80000305176</ele>
        <time>2013-12-27T09:28:10.000Z</time>
      </trkpt>
      <trkpt lat="43.49763" lon="6.94255">
        <ele>195.39999389648</ele>
        <time>2013-12-27T09:28:14.000Z</time>
      </trkpt>
      <trkpt lat="43.49765" lon="6.94265">
        <ele>195.39999389648</ele>
        <time>2013-12-27T09:28:17.000Z</time>
      </trkpt>
      <trkpt lat="43.49767" lon="6.94264">
        <ele>195.80000305176</ele>
        <time>2013-12-27T09:28:18.000Z</time>
      </trkpt>
      <trkpt lat="43.49766" lon="6.94254">
        <ele>195.60000610352</ele>
        <time>2013-12-27T09:28:21.000Z</time>
      </trkpt>
      <trkpt lat="43.49757" lon="6.94247">
        <ele>194.19999694824</ele>
        <time>2013-12-27T09:28:23.000Z</time>
      </trkpt>
      <trkpt lat="43.49753" lon="6.94241">
        <ele>193</ele>
        <time>2013-12-27T09:28:24.000Z</time>
      </trkpt>
      <trkpt lat="43.49737" lon="6.94222">
        <ele>187</ele>
        <time>2013-12-27T09:28:28.000Z</time>
      </trkpt>
      <trkpt lat="43.49732" lon="6.94219">
        <ele>185.60000610352</ele>
        <time>2013-12-27T09:28:29.000Z</time>
      </trkpt>
      <trkpt lat="43.49733" lon="6.94223">
        <ele>186.39999389648</ele>
        <time>2013-12-27T09:28:31.000Z</time>
      </trkpt>
      <trkpt lat="43.49737" lon="6.94227">
        <ele>187.80000305176</ele>
        <time>2013-12-27T09:28:34.000Z</time>
      </trkpt>
      <trkpt lat="43.4974" lon="6.94222">
        <ele>187.60000610352</ele>
        <time>2013-12-27T09:28:38.000Z</time>
      </trkpt>
      <trkpt lat="43.49746" lon="6.94216">
        <ele>188</ele>
        <time>2013-12-27T09:28:43.000Z</time>
      </trkpt>
      <trkpt lat="43.49746" lon="6.94223">
        <ele>189</ele>
        <time>2013-12-27T09:28:48.000Z</time>
      </trkpt>
      <trkpt lat="43.49741" lon="6.94223">
        <ele>188</ele>
        <time>2013-12-27T09:28:52.000Z</time>
      </trkpt>
      <trkpt lat="43.49742" lon="6.94223">
        <ele>188.19999694824</ele>
        <time>2013-12-27T09:28:53.000Z</time>
      </trkpt>
      <trkpt lat="43.49741" lon="6.94223">
        <ele>188</ele>
        <time>2013-12-27T09:28:58.000Z</time>
      </trkpt>
      <trkpt lat="43.49743" lon="6.9423">
        <ele>189.39999389648</ele>
        <time>2013-12-27T09:30:51.000Z</time>
      </trkpt>
      <trkpt lat="43.49734" lon="6.94221">
        <ele>186.19999694824</ele>
        <time>2013-12-27T09:37:09.000Z</time>
      </trkpt>
      <trkpt lat="43.4972" lon="6.94216">
        <ele>183</ele>
        <time>2013-12-27T09:37:14.000Z</time>
      </trkpt>
      <trkpt lat="43.49704" lon="6.94222">
        <ele>180.39999389648</ele>
        <time>2013-12-27T09:37:18.000Z</time>
      </trkpt>
      <trkpt lat="43.49689" lon="6.94223">
        <ele>177.60000610352</ele>
        <time>2013-12-27T09:37:22.000Z</time>
      </trkpt>
      <trkpt lat="43.49682" lon="6.94224">
        <ele>176.60000610352</ele>
        <time>2013-12-27T09:37:26.000Z</time>
      </trkpt>
      <trkpt lat="43.49675" lon="6.94236">
        <ele>176.39999389648</ele>
        <time>2013-12-27T09:37:30.000Z</time>
      </trkpt>
      <trkpt lat="43.49668" lon="6.94245">
        <ele>175.80000305176</ele>
        <time>2013-12-27T09:37:34.000Z</time>
      </trkpt>
      <trkpt lat="43.49655" lon="6.94241">
        <ele>173</ele>
        <time>2013-12-27T09:37:38.000Z</time>
      </trkpt>
      <trkpt lat="43.49641" lon="6.94245">
        <ele>171</ele>
        <time>2013-12-27T09:37:41.000Z</time>
      </trkpt>
      <trkpt lat="43.49623" lon="6.94257">
        <ele>167.39999389648</ele>
        <time>2013-12-27T09:37:46.000Z</time>
      </trkpt>
      <trkpt lat="43.49613" lon="6.94269">
        <ele>164.39999389648</ele>
        <time>2013-12-27T09:37:50.000Z</time>
      </trkpt>
      <trkpt lat="43.49602" lon="6.94281">
        <ele>161.60000610352</ele>
        <time>2013-12-27T09:37:55.000Z</time>
      </trkpt>
      <trkpt lat="43.49587" lon="6.94284">
        <ele>159</ele>
        <time>2013-12-27T09:38:00.000Z</time>
      </trkpt>
      <trkpt lat="43.49577" lon="6.94279">
        <ele>158.39999389648</ele>
        <time>2013-12-27T09:38:04.000Z</time>
      </trkpt>
      <trkpt lat="43.49567" lon="6.94272">
        <ele>158.39999389648</ele>
        <time>2013-12-27T09:38:09.000Z</time>
      </trkpt>
      <trkpt lat="43.49565" lon="6.94277">
        <ele>158</ele>
        <time>2013-12-27T09:38:13.000Z</time>
      </trkpt>
      <trkpt lat="43.49557" lon="6.94276">
        <ele>157.60000610352</ele>
        <time>2013-12-27T09:38:19.000Z</time>
      </trkpt>
      <trkpt lat="43.49557" lon="6.94276">
        <ele>157.60000610352</ele>
        <time>2013-12-27T09:38:20.000Z</time>
      </trkpt>
      <trkpt lat="43.49558" lon="6.94276">
        <ele>157.60000610352</ele>
        <time>2013-12-27T09:38:24.000Z</time>
      </trkpt>
      <trkpt lat="43.49561" lon="6.94277">
        <ele>157.60000610352</ele>
        <time>2013-12-27T09:39:05.000Z</time>
      </trkpt>
      <trkpt lat="43.4957" lon="6.94269">
        <ele>158.80000305176</ele>
        <time>2013-12-27T09:39:12.000Z</time>
      </trkpt>
      <trkpt lat="43.49576" lon="6.9426">
        <ele>160</ele>
        <time>2013-12-27T09:39:17.000Z</time>
      </trkpt>
      <trkpt lat="43.49589" lon="6.9425">
        <ele>162</ele>
        <time>2013-12-27T09:39:24.000Z</time>
      </trkpt>
      <trkpt lat="43.49604" lon="6.94244">
        <ele>164</ele>
        <time>2013-12-27T09:39:31.000Z</time>
      </trkpt>
      <trkpt lat="43.49619" lon="6.94234">
        <ele>165.39999389648</ele>
        <time>2013-12-27T09:39:38.000Z</time>
      </trkpt>
      <trkpt lat="43.49633" lon="6.94225">
        <ele>167</ele>
        <time>2013-12-27T09:39:45.000Z</time>
      </trkpt>
      <trkpt lat="43.4965" lon="6.94213">
        <ele>169</ele>
        <time>2013-12-27T09:39:54.000Z</time>
      </trkpt>
      <trkpt lat="43.49664" lon="6.942">
        <ele>170.60000610352</ele>
        <time>2013-12-27T09:40:02.000Z</time>
      </trkpt>
      <trkpt lat="43.49678" lon="6.94185">
        <ele>171.60000610352</ele>
        <time>2013-12-27T09:40:11.000Z</time>
      </trkpt>
      <trkpt lat="43.49689" lon="6.94175">
        <ele>172.60000610352</ele>
        <time>2013-12-27T09:40:17.000Z</time>
      </trkpt>
      <trkpt lat="43.49708" lon="6.94169">
        <ele>174.60000610352</ele>
        <time>2013-12-27T09:40:25.000Z</time>
      </trkpt>
      <trkpt lat="43.49722" lon="6.9417">
        <ele>177.19999694824</ele>
        <time>2013-12-27T09:40:32.000Z</time>
      </trkpt>
      <trkpt lat="43.49733" lon="6.94172">
        <ele>179</ele>
        <time>2013-12-27T09:40:38.000Z</time>
      </trkpt>
      <trkpt lat="43.49743" lon="6.94172">
        <ele>180.60000610352</ele>
        <time>2013-12-27T09:40:44.000Z</time>
      </trkpt>
      <trkpt lat="43.49751" lon="6.94172">
        <ele>182</ele>
        <time>2013-12-27T09:40:48.000Z</time>
      </trkpt>
      <trkpt lat="43.49755" lon="6.94171">
        <ele>182.19999694824</ele>
        <time>2013-12-27T09:40:50.000Z</time>
      </trkpt>
      <trkpt lat="43.49757" lon="6.94172">
        <ele>182.60000610352</ele>
        <time>2013-12-27T09:40:52.000Z</time>
      </trkpt>
      <trkpt lat="43.49755" lon="6.94174">
        <ele>182.60000610352</ele>
        <time>2013-12-27T09:40:54.000Z</time>
      </trkpt>
      <trkpt lat="43.49752" lon="6.94174">
        <ele>182.39999389648</ele>
        <time>2013-12-27T09:40:57.000Z</time>
      </trkpt>
      <trkpt lat="43.49749" lon="6.94174">
        <ele>182</ele>
        <time>2013-12-27T09:41:01.000Z</time>
      </trkpt>
      <trkpt lat="43.49746" lon="6.94173">
        <ele>181.39999389648</ele>
        <time>2013-12-27T09:41:06.000Z</time>
      </trkpt>
      <trkpt lat="43.49739" lon="6.9417">
        <ele>179.80000305176</ele>
        <time>2013-12-27T09:41:18.000Z</time>
      </trkpt>
      <trkpt lat="43.4973" lon="6.94167">
        <ele>178</ele>
        <time>2013-12-27T09:41:21.000Z</time>
      </trkpt>
      <trkpt lat="43.49728" lon="6.94165">
        <ele>177.19999694824</ele>
        <time>2013-12-27T09:41:22.000Z</time>
      </trkpt>
      <trkpt lat="43.49726" lon="6.94157">
        <ele>175</ele>
        <time>2013-12-27T09:41:26.000Z</time>
      </trkpt>
      <trkpt lat="43.49726" lon="6.94152">
        <ele>173.80000305176</ele>
        <time>2013-12-27T09:41:30.000Z</time>
      </trkpt>
      <trkpt lat="43.49716" lon="6.94146">
        <ele>171</ele>
        <time>2013-12-27T09:41:34.000Z</time>
      </trkpt>
      <trkpt lat="43.4971" lon="6.94137">
        <ele>168.60000610352</ele>
        <time>2013-12-27T09:41:38.000Z</time>
      </trkpt>
      <trkpt lat="43.49706" lon="6.94129">
        <ele>166.39999389648</ele>
        <time>2013-12-27T09:41:41.000Z</time>
      </trkpt>
      <trkpt lat="43.497" lon="6.9412">
        <ele>164</ele>
        <time>2013-12-27T09:41:44.000Z</time>
      </trkpt>
      <trkpt lat="43.49694" lon="6.94116">
        <ele>162.60000610352</ele>
        <time>2013-12-27T09:41:46.000Z</time>
      </trkpt>
      <trkpt lat="43.49688" lon="6.94112">
        <ele>161.60000610352</ele>
        <time>2013-12-27T09:41:48.000Z</time>
      </trkpt>
      <trkpt lat="43.49683" lon="6.94106">
        <ele>160.19999694824</ele>
        <time>2013-12-27T09:41:52.000Z</time>
      </trkpt>
      <trkpt lat="43.49682" lon="6.94103">
        <ele>159.60000610352</ele>
        <time>2013-12-27T09:41:53.000Z</time>
      </trkpt>
      <trkpt lat="43.49681" lon="6.941">
        <ele>159.19999694824</ele>
        <time>2013-12-27T09:41:57.000Z</time>
      </trkpt>
      <trkpt lat="43.49676" lon="6.94087">
        <ele>156.80000305176</ele>
        <time>2013-12-27T09:42:10.000Z</time>
      </trkpt>
      <trkpt lat="43.49672" lon="6.94073">
        <ele>155</ele>
        <time>2013-12-27T09:42:15.000Z</time>
      </trkpt>
      <trkpt lat="43.49672" lon="6.94064">
        <ele>154</ele>
        <time>2013-12-27T09:42:17.000Z</time>
      </trkpt>
      <trkpt lat="43.49675" lon="6.94059">
        <ele>153.39999389648</ele>
        <time>2013-12-27T09:42:18.000Z</time>
      </trkpt>
      <trkpt lat="43.49676" lon="6.94049">
        <ele>152.19999694824</ele>
        <time>2013-12-27T09:42:20.000Z</time>
      </trkpt>
      <trkpt lat="43.49673" lon="6.94045">
        <ele>152</ele>
        <time>2013-12-27T09:42:21.000Z</time>
      </trkpt>
      <trkpt lat="43.49672" lon="6.94031">
        <ele>150.39999389648</ele>
        <time>2013-12-27T09:42:24.000Z</time>
      </trkpt>
      <trkpt lat="43.49679" lon="6.94019">
        <ele>148.39999389648</ele>
        <time>2013-12-27T09:42:28.000Z</time>
      </trkpt>
      <trkpt lat="43.49677" lon="6.94002">
        <ele>146.60000610352</ele>
        <time>2013-12-27T09:42:32.000Z</time>
      </trkpt>
      <trkpt lat="43.4968" lon="6.93987">
        <ele>144.19999694824</ele>
        <time>2013-12-27T09:42:36.000Z</time>
      </trkpt>
      <trkpt lat="43.49678" lon="6.93984">
        <ele>144</ele>
        <time>2013-12-27T09:42:37.000Z</time>
      </trkpt>
      <trkpt lat="43.49678" lon="6.93975">
        <ele>142.80000305176</ele>
        <time>2013-12-27T09:42:39.000Z</time>
      </trkpt>
      <trkpt lat="43.49677" lon="6.9397">
        <ele>142.19999694824</ele>
        <time>2013-12-27T09:42:41.000Z</time>
      </trkpt>
      <trkpt lat="43.49675" lon="6.93967">
        <ele>142.19999694824</ele>
        <time>2013-12-27T09:42:43.000Z</time>
      </trkpt>
      <trkpt lat="43.49671" lon="6.9396">
        <ele>142</ele>
        <time>2013-12-27T09:42:47.000Z</time>
      </trkpt>
      <trkpt lat="43.49668" lon="6.93959">
        <ele>142.39999389648</ele>
        <time>2013-12-27T09:42:49.000Z</time>
      </trkpt>
      <trkpt lat="43.49666" lon="6.93951">
        <ele>141.39999389648</ele>
        <time>2013-12-27T09:42:52.000Z</time>
      </trkpt>
      <trkpt lat="43.49666" lon="6.93951">
        <ele>141.39999389648</ele>
        <time>2013-12-27T09:42:53.000Z</time>
      </trkpt>
      <trkpt lat="43.49661" lon="6.93952">
        <ele>140.39999389648</ele>
        <time>2013-12-27T09:42:58.000Z</time>
      </trkpt>
      <trkpt lat="43.49659" lon="6.93949">
        <ele>139.39999389648</ele>
        <time>2013-12-27T09:43:03.000Z</time>
      </trkpt>
      <trkpt lat="43.49656" lon="6.93948">
        <ele>138.60000610352</ele>
        <time>2013-12-27T09:43:06.000Z</time>
      </trkpt>
      <trkpt lat="43.49651" lon="6.93943">
        <ele>136.80000305176</ele>
        <time>2013-12-27T09:43:08.000Z</time>
      </trkpt>
      <trkpt lat="43.49646" lon="6.93924">
        <ele>133.19999694824</ele>
        <time>2013-12-27T09:43:12.000Z</time>
      </trkpt>
      <trkpt lat="43.49651" lon="6.93905">
        <ele>131.19999694824</ele>
        <time>2013-12-27T09:43:16.000Z</time>
      </trkpt>
      <trkpt lat="43.49658" lon="6.93893">
        <ele>130.60000610352</ele>
        <time>2013-12-27T09:43:19.000Z</time>
      </trkpt>
      <trkpt lat="43.49664" lon="6.93885">
        <ele>130.60000610352</ele>
        <time>2013-12-27T09:43:21.000Z</time>
      </trkpt>
      <trkpt lat="43.49666" lon="6.93877">
        <ele>129.60000610352</ele>
        <time>2013-12-27T09:43:23.000Z</time>
      </trkpt>
      <trkpt lat="43.49668" lon="6.9387">
        <ele>128.39999389648</ele>
        <time>2013-12-27T09:43:25.000Z</time>
      </trkpt>
      <trkpt lat="43.49673" lon="6.93848">
        <ele>124.19999694824</ele>
        <time>2013-12-27T09:43:30.000Z</time>
      </trkpt>
      <trkpt lat="43.4968" lon="6.93829">
        <ele>120</ele>
        <time>2013-12-27T09:43:34.000Z</time>
      </trkpt>
      <trkpt lat="43.49692" lon="6.93811">
        <ele>115.19999694824</ele>
        <time>2013-12-27T09:43:39.000Z</time>
      </trkpt>
      <trkpt lat="43.49703" lon="6.93795">
        <ele>111</ele>
        <time>2013-12-27T09:43:43.000Z</time>
      </trkpt>
      <trkpt lat="43.49716" lon="6.93777">
        <ele>106.80000305176</ele>
        <time>2013-12-27T09:43:48.000Z</time>
      </trkpt>
      <trkpt lat="43.49719" lon="6.93772">
        <ele>105.59999847412</ele>
        <time>2013-12-27T09:43:50.000Z</time>
      </trkpt>
      <trkpt lat="43.4972" lon="6.93767">
        <ele>104.59999847412</ele>
        <time>2013-12-27T09:43:52.000Z</time>
      </trkpt>
      <trkpt lat="43.49725" lon="6.93766">
        <ele>104.40000152588</ele>
        <time>2013-12-27T09:43:56.000Z</time>
      </trkpt>
      <trkpt lat="43.49732" lon="6.93764">
        <ele>104</ele>
        <time>2013-12-27T09:43:59.000Z</time>
      </trkpt>
      <trkpt lat="43.49737" lon="6.93762">
        <ele>103.59999847412</ele>
        <time>2013-12-27T09:44:01.000Z</time>
      </trkpt>
      <trkpt lat="43.49752" lon="6.93764">
        <ele>103</ele>
        <time>2013-12-27T09:44:06.000Z</time>
      </trkpt>
      <trkpt lat="43.49761" lon="6.93765">
        <ele>100</ele>
        <time>2013-12-27T09:44:12.000Z</time>
      </trkpt>
      <trkpt lat="43.49766" lon="6.93763">
        <ele>98</ele>
        <time>2013-12-27T09:44:16.000Z</time>
      </trkpt>
      <trkpt lat="43.49768" lon="6.93759">
        <ele>96.800003051758</ele>
        <time>2013-12-27T09:44:18.000Z</time>
      </trkpt>
      <trkpt lat="43.49774" lon="6.9375">
        <ele>92.800003051758</ele>
        <time>2013-12-27T09:44:22.000Z</time>
      </trkpt>
      <trkpt lat="43.49776" lon="6.93747">
        <ele>91.599998474121</ele>
        <time>2013-12-27T09:44:23.000Z</time>
      </trkpt>
      <trkpt lat="43.49782" lon="6.93742">
        <ele>88.599998474121</ele>
        <time>2013-12-27T09:44:26.000Z</time>
      </trkpt>
      <trkpt lat="43.49782" lon="6.93742">
        <ele>88.199996948242</ele>
        <time>2013-12-27T09:44:28.000Z</time>
      </trkpt>
      <trkpt lat="43.49784" lon="6.93738">
        <ele>86.599998474121</ele>
        <time>2013-12-27T09:44:53.000Z</time>
      </trkpt>
      <trkpt lat="43.49785" lon="6.93738">
        <ele>86.400001525879</ele>
        <time>2013-12-27T09:45:00.000Z</time>
      </trkpt>
      <trkpt lat="43.4979" lon="6.93735">
        <ele>84.199996948242</ele>
        <time>2013-12-27T09:49:28.000Z</time>
      </trkpt>
      <trkpt lat="43.49789" lon="6.93723">
        <ele>81.400001525879</ele>
        <time>2013-12-27T09:49:32.000Z</time>
      </trkpt>
      <trkpt lat="43.49792" lon="6.93721">
        <ele>80.199996948242</ele>
        <time>2013-12-27T09:49:33.000Z</time>
      </trkpt>
      <trkpt lat="43.4979" lon="6.93713">
        <ele>79</ele>
        <time>2013-12-27T09:49:37.000Z</time>
      </trkpt>
      <trkpt lat="43.49793" lon="6.93705">
        <ele>76.199996948242</ele>
        <time>2013-12-27T09:49:41.000Z</time>
      </trkpt>
      <trkpt lat="43.49797" lon="6.93704">
        <ele>74.599998474121</ele>
        <time>2013-12-27T09:49:44.000Z</time>
      </trkpt>
      <trkpt lat="43.49798" lon="6.93702">
        <ele>73.800003051758</ele>
        <time>2013-12-27T09:49:45.000Z</time>
      </trkpt>
      <trkpt lat="43.49798" lon="6.93692">
        <ele>71.400001525879</ele>
        <time>2013-12-27T09:49:49.000Z</time>
      </trkpt>
      <trkpt lat="43.49792" lon="6.93681">
        <ele>70.800003051758</ele>
        <time>2013-12-27T09:49:54.000Z</time>
      </trkpt>
      <trkpt lat="43.49789" lon="6.93678">
        <ele>71</ele>
        <time>2013-12-27T09:49:56.000Z</time>
      </trkpt>
      <trkpt lat="43.49782" lon="6.93675">
        <ele>72.199996948242</ele>
        <time>2013-12-27T09:50:00.000Z</time>
      </trkpt>
      <trkpt lat="43.49776" lon="6.93672">
        <ele>73.199996948242</ele>
        <time>2013-12-27T09:50:03.000Z</time>
      </trkpt>
      <trkpt lat="43.49776" lon="6.93669">
        <ele>72.400001525879</ele>
        <time>2013-12-27T09:50:04.000Z</time>
      </trkpt>
      <trkpt lat="43.49774" lon="6.93658">
        <ele>70.599998474121</ele>
        <time>2013-12-27T09:50:07.000Z</time>
      </trkpt>
      <trkpt lat="43.49772" lon="6.93651">
        <ele>69.800003051758</ele>
        <time>2013-12-27T09:50:10.000Z</time>
      </trkpt>
      <trkpt lat="43.49772" lon="6.93638">
        <ele>67.199996948242</ele>
        <time>2013-12-27T09:50:14.000Z</time>
      </trkpt>
      <trkpt lat="43.49774" lon="6.93636">
        <ele>66.199996948242</ele>
        <time>2013-12-27T09:50:16.000Z</time>
      </trkpt>
      <trkpt lat="43.49775" lon="6.93636">
        <ele>66</ele>
        <time>2013-12-27T09:50:17.000Z</time>
      </trkpt>
      <trkpt lat="43.49782" lon="6.93636">
        <ele>64.400001525879</ele>
        <time>2013-12-27T09:50:21.000Z</time>
      </trkpt>
      <trkpt lat="43.49785" lon="6.93635">
        <ele>63.599998474121</ele>
        <time>2013-12-27T09:50:22.000Z</time>
      </trkpt>
      <trkpt lat="43.49786" lon="6.93635">
        <ele>63.400001525879</ele>
        <time>2013-12-27T09:50:23.000Z</time>
      </trkpt>
      <trkpt lat="43.4979" lon="6.93634">
        <ele>62.200000762939</ele>
        <time>2013-12-27T09:50:26.000Z</time>
      </trkpt>
      <trkpt lat="43.49792" lon="6.93631">
        <ele>61.200000762939</ele>
        <time>2013-12-27T09:50:28.000Z</time>
      </trkpt>
      <trkpt lat="43.49793" lon="6.93631">
        <ele>61.200000762939</ele>
        <time>2013-12-27T09:50:33.000Z</time>
      </trkpt>
      <trkpt lat="43.49797" lon="6.93633">
        <ele>60.400001525879</ele>
        <time>2013-12-27T09:50:45.000Z</time>
      </trkpt>
      <trkpt lat="43.49799" lon="6.93633">
        <ele>60</ele>
        <time>2013-12-27T09:50:46.000Z</time>
      </trkpt>
      <trkpt lat="43.498" lon="6.93632">
        <ele>59.599998474121</ele>
        <time>2013-12-27T09:50:48.000Z</time>
      </trkpt>
      <trkpt lat="43.498" lon="6.9363">
        <ele>59.200000762939</ele>
        <time>2013-12-27T09:51:01.000Z</time>
      </trkpt>
      <trkpt lat="43.49796" lon="6.93628">
        <ele>59.799999237061</ele>
        <time>2013-12-27T09:52:39.000Z</time>
      </trkpt>
      <trkpt lat="43.49799" lon="6.93632">
        <ele>59.799999237061</ele>
        <time>2013-12-27T09:54:46.000Z</time>
      </trkpt>
      <trkpt lat="43.49791" lon="6.93632">
        <ele>61.599998474121</ele>
        <time>2013-12-27T09:55:02.000Z</time>
      </trkpt>
      <trkpt lat="43.49786" lon="6.93628">
        <ele>61.799999237061</ele>
        <time>2013-12-27T09:55:05.000Z</time>
      </trkpt>
      <trkpt lat="43.49784" lon="6.93624">
        <ele>61.599998474121</ele>
        <time>2013-12-27T09:55:07.000Z</time>
      </trkpt>
      <trkpt lat="43.49771" lon="6.93609">
        <ele>61.200000762939</ele>
        <time>2013-12-27T09:55:12.000Z</time>
      </trkpt>
      <trkpt lat="43.49758" lon="6.93588">
        <ele>59</ele>
        <time>2013-12-27T09:55:19.000Z</time>
      </trkpt>
      <trkpt lat="43.49738" lon="6.93571">
        <ele>60.200000762939</ele>
        <time>2013-12-27T09:55:26.000Z</time>
      </trkpt>
      <trkpt lat="43.4972" lon="6.93567">
        <ele>61.799999237061</ele>
        <time>2013-12-27T09:55:32.000Z</time>
      </trkpt>
      <trkpt lat="43.497" lon="6.93573">
        <ele>63.599998474121</ele>
        <time>2013-12-27T09:55:38.000Z</time>
      </trkpt>
      <trkpt lat="43.49682" lon="6.93594">
        <ele>66.400001525879</ele>
        <time>2013-12-27T09:55:44.000Z</time>
      </trkpt>
      <trkpt lat="43.49661" lon="6.93628">
        <ele>72.800003051758</ele>
        <time>2013-12-27T09:55:53.000Z</time>
      </trkpt>
      <trkpt lat="43.49645" lon="6.93651">
        <ele>76.199996948242</ele>
        <time>2013-12-27T09:56:00.000Z</time>
      </trkpt>
      <trkpt lat="43.49627" lon="6.93669">
        <ele>77.400001525879</ele>
        <time>2013-12-27T09:56:08.000Z</time>
      </trkpt>
      <trkpt lat="43.49615" lon="6.9367">
        <ele>77.599998474121</ele>
        <time>2013-12-27T09:56:13.000Z</time>
      </trkpt>
      <trkpt lat="43.49614" lon="6.93668">
        <ele>77.199996948242</ele>
        <time>2013-12-27T09:56:14.000Z</time>
      </trkpt>
      <trkpt lat="43.49617" lon="6.93659">
        <ele>77.199996948242</ele>
        <time>2013-12-27T09:56:17.000Z</time>
      </trkpt>
      <trkpt lat="43.49622" lon="6.93648">
        <ele>77.400001525879</ele>
        <time>2013-12-27T09:56:21.000Z</time>
      </trkpt>
      <trkpt lat="43.49625" lon="6.93643">
        <ele>77.400001525879</ele>
        <time>2013-12-27T09:56:23.000Z</time>
      </trkpt>
      <trkpt lat="43.49631" lon="6.93624">
        <ele>76.599998474121</ele>
        <time>2013-12-27T09:56:30.000Z</time>
      </trkpt>
      <trkpt lat="43.49634" lon="6.93603">
        <ele>75.599998474121</ele>
        <time>2013-12-27T09:56:37.000Z</time>
      </trkpt>
      <trkpt lat="43.49641" lon="6.93576">
        <ele>74.199996948242</ele>
        <time>2013-12-27T09:56:46.000Z</time>
      </trkpt>
      <trkpt lat="43.49649" lon="6.93551">
        <ele>73.400001525879</ele>
        <time>2013-12-27T09:56:55.000Z</time>
      </trkpt>
      <trkpt lat="43.49657" lon="6.93533">
        <ele>72</ele>
        <time>2013-12-27T09:57:02.000Z</time>
      </trkpt>
      <trkpt lat="43.49665" lon="6.93506">
        <ele>69.400001525879</ele>
        <time>2013-12-27T09:57:11.000Z</time>
      </trkpt>
      <trkpt lat="43.49668" lon="6.93485">
        <ele>68.800003051758</ele>
        <time>2013-12-27T09:57:18.000Z</time>
      </trkpt>
      <trkpt lat="43.49664" lon="6.93468">
        <ele>70</ele>
        <time>2013-12-27T09:57:24.000Z</time>
      </trkpt>
      <trkpt lat="43.49657" lon="6.93445">
        <ele>72.400001525879</ele>
        <time>2013-12-27T09:57:32.000Z</time>
      </trkpt>
      <trkpt lat="43.49645" lon="6.93422">
        <ele>77.199996948242</ele>
        <time>2013-12-27T09:57:41.000Z</time>
      </trkpt>
      <trkpt lat="43.49633" lon="6.93406">
        <ele>81.800003051758</ele>
        <time>2013-12-27T09:57:49.000Z</time>
      </trkpt>
      <trkpt lat="43.49621" lon="6.93395">
        <ele>86.400001525879</ele>
        <time>2013-12-27T09:57:56.000Z</time>
      </trkpt>
      <trkpt lat="43.49607" lon="6.93386">
        <ele>91.400001525879</ele>
        <time>2013-12-27T09:58:03.000Z</time>
      </trkpt>
      <trkpt lat="43.49595" lon="6.93382">
        <ele>95.599998474121</ele>
        <time>2013-12-27T09:58:10.000Z</time>
      </trkpt>
      <trkpt lat="43.49582" lon="6.93375">
        <ele>100</ele>
        <time>2013-12-27T09:58:18.000Z</time>
      </trkpt>
      <trkpt lat="43.49573" lon="6.9336">
        <ele>102</ele>
        <time>2013-12-27T09:58:24.000Z</time>
      </trkpt>
      <trkpt lat="43.49575" lon="6.93349">
        <ele>100.59999847412</ele>
        <time>2013-12-27T09:58:27.000Z</time>
      </trkpt>
      <trkpt lat="43.4958" lon="6.93341">
        <ele>98</ele>
        <time>2013-12-27T09:58:31.000Z</time>
      </trkpt>
      <trkpt lat="43.49584" lon="6.93339">
        <ele>96.199996948242</ele>
        <time>2013-12-27T09:58:33.000Z</time>
      </trkpt>
      <trkpt lat="43.49603" lon="6.93327">
        <ele>90.199996948242</ele>
        <time>2013-12-27T09:58:40.000Z</time>
      </trkpt>
      <trkpt lat="43.49619" lon="6.93312">
        <ele>86.400001525879</ele>
        <time>2013-12-27T09:58:47.000Z</time>
      </trkpt>
      <trkpt lat="43.49622" lon="6.93304">
        <ele>85.800003051758</ele>
        <time>2013-12-27T09:58:50.000Z</time>
      </trkpt>
      <trkpt lat="43.49624" lon="6.93298">
        <ele>85.800003051758</ele>
        <time>2013-12-27T09:58:52.000Z</time>
      </trkpt>
      <trkpt lat="43.49626" lon="6.93285">
        <ele>86.199996948242</ele>
        <time>2013-12-27T09:58:57.000Z</time>
      </trkpt>
      <trkpt lat="43.49627" lon="6.93282">
        <ele>86.400001525879</ele>
        <time>2013-12-27T09:58:58.000Z</time>
      </trkpt>
      <trkpt lat="43.49623" lon="6.93262">
        <ele>89.199996948242</ele>
        <time>2013-12-27T09:59:05.000Z</time>
      </trkpt>
      <trkpt lat="43.49612" lon="6.93245">
        <ele>94</ele>
        <time>2013-12-27T09:59:12.000Z</time>
      </trkpt>
      <trkpt lat="43.49595" lon="6.93227">
        <ele>100.40000152588</ele>
        <time>2013-12-27T09:59:20.000Z</time>
      </trkpt>
      <trkpt lat="43.49581" lon="6.93208">
        <ele>105.80000305176</ele>
        <time>2013-12-27T09:59:26.000Z</time>
      </trkpt>
      <trkpt lat="43.49584" lon="6.93193">
        <ele>105.40000152588</ele>
        <time>2013-12-27T09:59:30.000Z</time>
      </trkpt>
      <trkpt lat="43.49595" lon="6.9318">
        <ele>102.59999847412</ele>
        <time>2013-12-27T09:59:35.000Z</time>
      </trkpt>
      <trkpt lat="43.49615" lon="6.93162">
        <ele>97.400001525879</ele>
        <time>2013-12-27T09:59:44.000Z</time>
      </trkpt>
      <trkpt lat="43.49626" lon="6.93147">
        <ele>95.800003051758</ele>
        <time>2013-12-27T09:59:51.000Z</time>
      </trkpt>
      <trkpt lat="43.49631" lon="6.93124">
        <ele>97</ele>
        <time>2013-12-27T09:59:58.000Z</time>
      </trkpt>
      <trkpt lat="43.49634" lon="6.93105">
        <ele>98.800003051758</ele>
        <time>2013-12-27T10:00:04.000Z</time>
      </trkpt>
      <trkpt lat="43.49636" lon="6.93075">
        <ele>100.80000305176</ele>
        <time>2013-12-27T10:00:13.000Z</time>
      </trkpt>
      <trkpt lat="43.49631" lon="6.9306">
        <ele>102.40000152588</ele>
        <time>2013-12-27T10:00:18.000Z</time>
      </trkpt>
      <trkpt lat="43.49617" lon="6.93049">
        <ele>106.19999694824</ele>
        <time>2013-12-27T10:00:25.000Z</time>
      </trkpt>
      <trkpt lat="43.49602" lon="6.93036">
        <ele>110.19999694824</ele>
        <time>2013-12-27T10:00:33.000Z</time>
      </trkpt>
      <trkpt lat="43.49594" lon="6.9302">
        <ele>111.40000152588</ele>
        <time>2013-12-27T10:00:38.000Z</time>
      </trkpt>
      <trkpt lat="43.49597" lon="6.93003">
        <ele>110</ele>
        <time>2013-12-27T10:00:42.000Z</time>
      </trkpt>
      <trkpt lat="43.49598" lon="6.92987">
        <ele>108.59999847412</ele>
        <time>2013-12-27T10:00:47.000Z</time>
      </trkpt>
      <trkpt lat="43.4959" lon="6.92971">
        <ele>109.40000152588</ele>
        <time>2013-12-27T10:00:52.000Z</time>
      </trkpt>
      <trkpt lat="43.4958" lon="6.92947">
        <ele>110.40000152588</ele>
        <time>2013-12-27T10:01:00.000Z</time>
      </trkpt>
      <trkpt lat="43.49572" lon="6.9293">
        <ele>111.80000305176</ele>
        <time>2013-12-27T10:01:06.000Z</time>
      </trkpt>
      <trkpt lat="43.49561" lon="6.92909">
        <ele>114.19999694824</ele>
        <time>2013-12-27T10:01:14.000Z</time>
      </trkpt>
      <trkpt lat="43.49546" lon="6.92891">
        <ele>117.40000152588</ele>
        <time>2013-12-27T10:01:22.000Z</time>
      </trkpt>
      <trkpt lat="43.49533" lon="6.92871">
        <ele>119.19999694824</ele>
        <time>2013-12-27T10:01:30.000Z</time>
      </trkpt>
      <trkpt lat="43.49521" lon="6.92858">
        <ele>121</ele>
        <time>2013-12-27T10:01:37.000Z</time>
      </trkpt>
      <trkpt lat="43.49508" lon="6.92845">
        <ele>122.59999847412</ele>
        <time>2013-12-27T10:01:45.000Z</time>
      </trkpt>
      <trkpt lat="43.49501" lon="6.92826">
        <ele>122.59999847412</ele>
        <time>2013-12-27T10:01:52.000Z</time>
      </trkpt>
      <trkpt lat="43.49497" lon="6.92806">
        <ele>121.80000305176</ele>
        <time>2013-12-27T10:01:59.000Z</time>
      </trkpt>
      <trkpt lat="43.4949" lon="6.9279">
        <ele>120.40000152588</ele>
        <time>2013-12-27T10:02:06.000Z</time>
      </trkpt>
      <trkpt lat="43.49487" lon="6.92788">
        <ele>120</ele>
        <time>2013-12-27T10:02:08.000Z</time>
      </trkpt>
      <trkpt lat="43.49485" lon="6.92789">
        <ele>120</ele>
        <time>2013-12-27T10:02:11.000Z</time>
      </trkpt>
      <trkpt lat="43.49483" lon="6.92796">
        <ele>120.19999694824</ele>
        <time>2013-12-27T10:02:15.000Z</time>
      </trkpt>
      <trkpt lat="43.49481" lon="6.92799">
        <ele>120.19999694824</ele>
        <time>2013-12-27T10:02:17.000Z</time>
      </trkpt>
      <trkpt lat="43.49475" lon="6.92812">
        <ele>120.80000305176</ele>
        <time>2013-12-27T10:02:24.000Z</time>
      </trkpt>
      <trkpt lat="43.49465" lon="6.92828">
        <ele>121.59999847412</ele>
        <time>2013-12-27T10:02:32.000Z</time>
      </trkpt>
      <trkpt lat="43.49454" lon="6.92845">
        <ele>123.59999847412</ele>
        <time>2013-12-27T10:02:41.000Z</time>
      </trkpt>
      <trkpt lat="43.49445" lon="6.92846">
        <ele>123.59999847412</ele>
        <time>2013-12-27T10:02:46.000Z</time>
      </trkpt>
      <trkpt lat="43.49431" lon="6.92844">
        <ele>123</ele>
        <time>2013-12-27T10:02:55.000Z</time>
      </trkpt>
      <trkpt lat="43.49421" lon="6.92848">
        <ele>123.40000152588</ele>
        <time>2013-12-27T10:03:02.000Z</time>
      </trkpt>
      <trkpt lat="43.49412" lon="6.92857">
        <ele>123.40000152588</ele>
        <time>2013-12-27T10:03:09.000Z</time>
      </trkpt>
      <trkpt lat="43.49405" lon="6.92873">
        <ele>123.40000152588</ele>
        <time>2013-12-27T10:03:17.000Z</time>
      </trkpt>
      <trkpt lat="43.49404" lon="6.92893">
        <ele>126</ele>
        <time>2013-12-27T10:03:25.000Z</time>
      </trkpt>
      <trkpt lat="43.49406" lon="6.92907">
        <ele>128.80000305176</ele>
        <time>2013-12-27T10:03:32.000Z</time>
      </trkpt>
      <trkpt lat="43.49411" lon="6.92924">
        <ele>133</ele>
        <time>2013-12-27T10:03:40.000Z</time>
      </trkpt>
      <trkpt lat="43.49414" lon="6.92943">
        <ele>136.39999389648</ele>
        <time>2013-12-27T10:03:48.000Z</time>
      </trkpt>
      <trkpt lat="43.4941" lon="6.92957">
        <ele>137</ele>
        <time>2013-12-27T10:03:55.000Z</time>
      </trkpt>
      <trkpt lat="43.49406" lon="6.92973">
        <ele>137.80000305176</ele>
        <time>2013-12-27T10:04:02.000Z</time>
      </trkpt>
      <trkpt lat="43.49406" lon="6.92989">
        <ele>139.80000305176</ele>
        <time>2013-12-27T10:04:09.000Z</time>
      </trkpt>
      <trkpt lat="43.4941" lon="6.93004">
        <ele>143.19999694824</ele>
        <time>2013-12-27T10:04:15.000Z</time>
      </trkpt>
      <trkpt lat="43.49409" lon="6.93021">
        <ele>145.60000610352</ele>
        <time>2013-12-27T10:04:22.000Z</time>
      </trkpt>
      <trkpt lat="43.49406" lon="6.93037">
        <ele>146.80000305176</ele>
        <time>2013-12-27T10:04:29.000Z</time>
      </trkpt>
      <trkpt lat="43.49399" lon="6.9306">
        <ele>148.19999694824</ele>
        <time>2013-12-27T10:04:38.000Z</time>
      </trkpt>
      <trkpt lat="43.49394" lon="6.93075">
        <ele>149</ele>
        <time>2013-12-27T10:04:44.000Z</time>
      </trkpt>
      <trkpt lat="43.49387" lon="6.93088">
        <ele>148.60000610352</ele>
        <time>2013-12-27T10:04:51.000Z</time>
      </trkpt>
      <trkpt lat="43.49377" lon="6.93106">
        <ele>148</ele>
        <time>2013-12-27T10:04:59.000Z</time>
      </trkpt>
      <trkpt lat="43.49367" lon="6.93124">
        <ele>147.80000305176</ele>
        <time>2013-12-27T10:05:08.000Z</time>
      </trkpt>
      <trkpt lat="43.49361" lon="6.93143">
        <ele>149.19999694824</ele>
        <time>2013-12-27T10:05:16.000Z</time>
      </trkpt>
      <trkpt lat="43.49359" lon="6.93166">
        <ele>152.19999694824</ele>
        <time>2013-12-27T10:05:26.000Z</time>
      </trkpt>
      <trkpt lat="43.49366" lon="6.93187">
        <ele>155.60000610352</ele>
        <time>2013-12-27T10:05:34.000Z</time>
      </trkpt>
      <trkpt lat="43.49374" lon="6.932">
        <ele>158</ele>
        <time>2013-12-27T10:05:41.000Z</time>
      </trkpt>
      <trkpt lat="43.49375" lon="6.93199">
        <ele>158.39999389648</ele>
        <time>2013-12-27T10:05:42.000Z</time>
      </trkpt>
      <trkpt lat="43.49375" lon="6.93193">
        <ele>157.80000305176</ele>
        <time>2013-12-27T10:05:45.000Z</time>
      </trkpt>
      <trkpt lat="43.49374" lon="6.93191">
        <ele>157.39999389648</ele>
        <time>2013-12-27T10:05:46.000Z</time>
      </trkpt>
      <trkpt lat="43.49372" lon="6.93175">
        <ele>155.60000610352</ele>
        <time>2013-12-27T10:05:53.000Z</time>
      </trkpt>
      <trkpt lat="43.49379" lon="6.93157">
        <ele>155.19999694824</ele>
        <time>2013-12-27T10:06:00.000Z</time>
      </trkpt>
      <trkpt lat="43.49391" lon="6.93144">
        <ele>156</ele>
        <time>2013-12-27T10:06:07.000Z</time>
      </trkpt>
      <trkpt lat="43.49406" lon="6.9313">
        <ele>158.19999694824</ele>
        <time>2013-12-27T10:06:16.000Z</time>
      </trkpt>
      <trkpt lat="43.49423" lon="6.93121">
        <ele>159</ele>
        <time>2013-12-27T10:06:25.000Z</time>
      </trkpt>
      <trkpt lat="43.49438" lon="6.93117">
        <ele>156.19999694824</ele>
        <time>2013-12-27T10:06:33.000Z</time>
      </trkpt>
      <trkpt lat="43.49444" lon="6.93127">
        <ele>155.60000610352</ele>
        <time>2013-12-27T10:06:38.000Z</time>
      </trkpt>
      <trkpt lat="43.49446" lon="6.93145">
        <ele>156.19999694824</ele>
        <time>2013-12-27T10:06:43.000Z</time>
      </trkpt>
      <trkpt lat="43.49441" lon="6.93174">
        <ele>158</ele>
        <time>2013-12-27T10:06:49.000Z</time>
      </trkpt>
      <trkpt lat="43.49426" lon="6.93201">
        <ele>161.39999389648</ele>
        <time>2013-12-27T10:06:55.000Z</time>
      </trkpt>
      <trkpt lat="43.49409" lon="6.93233">
        <ele>163.39999389648</ele>
        <time>2013-12-27T10:07:02.000Z</time>
      </trkpt>
      <trkpt lat="43.49404" lon="6.93253">
        <ele>163.60000610352</ele>
        <time>2013-12-27T10:07:08.000Z</time>
      </trkpt>
      <trkpt lat="43.49401" lon="6.9328">
        <ele>164.19999694824</ele>
        <time>2013-12-27T10:07:17.000Z</time>
      </trkpt>
      <trkpt lat="43.49403" lon="6.933">
        <ele>164.80000305176</ele>
        <time>2013-12-27T10:07:24.000Z</time>
      </trkpt>
      <trkpt lat="43.49403" lon="6.93319">
        <ele>165.39999389648</ele>
        <time>2013-12-27T10:07:30.000Z</time>
      </trkpt>
      <trkpt lat="43.49401" lon="6.93324">
        <ele>165.60000610352</ele>
        <time>2013-12-27T10:07:32.000Z</time>
      </trkpt>
      <trkpt lat="43.49396" lon="6.93325">
        <ele>166.19999694824</ele>
        <time>2013-12-27T10:07:35.000Z</time>
      </trkpt>
      <trkpt lat="43.4939" lon="6.93317">
        <ele>166.39999389648</ele>
        <time>2013-12-27T10:07:39.000Z</time>
      </trkpt>
      <trkpt lat="43.49389" lon="6.93315">
        <ele>166.39999389648</ele>
        <time>2013-12-27T10:07:40.000Z</time>
      </trkpt>
      <trkpt lat="43.49376" lon="6.93309">
        <ele>167</ele>
        <time>2013-12-27T10:07:47.000Z</time>
      </trkpt>
      <trkpt lat="43.49361" lon="6.9331">
        <ele>168.19999694824</ele>
        <time>2013-12-27T10:07:54.000Z</time>
      </trkpt>
      <trkpt lat="43.49346" lon="6.93321">
        <ele>170.80000305176</ele>
        <time>2013-12-27T10:08:02.000Z</time>
      </trkpt>
      <trkpt lat="43.49342" lon="6.93341">
        <ele>173.39999389648</ele>
        <time>2013-12-27T10:08:09.000Z</time>
      </trkpt>
      <trkpt lat="43.49349" lon="6.93356">
        <ele>173.60000610352</ele>
        <time>2013-12-27T10:08:15.000Z</time>
      </trkpt>
      <trkpt lat="43.49357" lon="6.93373">
        <ele>173.39999389648</ele>
        <time>2013-12-27T10:08:22.000Z</time>
      </trkpt>
      <trkpt lat="43.49354" lon="6.93385">
        <ele>174.60000610352</ele>
        <time>2013-12-27T10:08:28.000Z</time>
      </trkpt>
      <trkpt lat="43.4935" lon="6.93392">
        <ele>175.60000610352</ele>
        <time>2013-12-27T10:08:36.000Z</time>
      </trkpt>
      <trkpt lat="43.49348" lon="6.93398">
        <ele>176.39999389648</ele>
        <time>2013-12-27T10:08:41.000Z</time>
      </trkpt>
      <trkpt lat="43.49347" lon="6.93401">
        <ele>176.80000305176</ele>
        <time>2013-12-27T10:08:43.000Z</time>
      </trkpt>
      <trkpt lat="43.49345" lon="6.93417">
        <ele>178</ele>
        <time>2013-12-27T10:08:50.000Z</time>
      </trkpt>
      <trkpt lat="43.49343" lon="6.93439">
        <ele>178</ele>
        <time>2013-12-27T10:08:58.000Z</time>
      </trkpt>
      <trkpt lat="43.49341" lon="6.9345">
        <ele>178</ele>
        <time>2013-12-27T10:09:06.000Z</time>
      </trkpt>
      <trkpt lat="43.49341" lon="6.93457">
        <ele>177.80000305176</ele>
        <time>2013-12-27T10:09:13.000Z</time>
      </trkpt>
      <trkpt lat="43.49339" lon="6.93461">
        <ele>178</ele>
        <time>2013-12-27T10:09:19.000Z</time>
      </trkpt>
      <trkpt lat="43.49338" lon="6.9346">
        <ele>178.19999694824</ele>
        <time>2013-12-27T10:10:31.000Z</time>
      </trkpt>
      <trkpt lat="43.4934" lon="6.93458">
        <ele>178</ele>
        <time>2013-12-27T10:10:39.000Z</time>
      </trkpt>
      <trkpt lat="43.49343" lon="6.93458">
        <ele>177.39999389648</ele>
        <time>2013-12-27T10:12:04.000Z</time>
      </trkpt>
      <trkpt lat="43.49345" lon="6.93462">
        <ele>177</ele>
        <time>2013-12-27T10:14:21.000Z</time>
      </trkpt>
      <trkpt lat="43.49344" lon="6.93465">
        <ele>177</ele>
        <time>2013-12-27T10:14:24.000Z</time>
      </trkpt>
      <trkpt lat="43.49343" lon="6.93467">
        <ele>177.19999694824</ele>
        <time>2013-12-27T10:14:27.000Z</time>
      </trkpt>
      <trkpt lat="43.49342" lon="6.93468">
        <ele>177.39999389648</ele>
        <time>2013-12-27T10:14:29.000Z</time>
      </trkpt>
      <trkpt lat="43.49337" lon="6.93478">
        <ele>178</ele>
        <time>2013-12-27T10:15:13.000Z</time>
      </trkpt>
      <trkpt lat="43.49336" lon="6.93499">
        <ele>177.60000610352</ele>
        <time>2013-12-27T10:15:16.000Z</time>
      </trkpt>
      <trkpt lat="43.49345" lon="6.93537">
        <ele>173.80000305176</ele>
        <time>2013-12-27T10:15:20.000Z</time>
      </trkpt>
      <trkpt lat="43.49347" lon="6.93549">
        <ele>172.80000305176</ele>
        <time>2013-12-27T10:15:21.000Z</time>
      </trkpt>
      <trkpt lat="43.49348" lon="6.93576">
        <ele>170.60000610352</ele>
        <time>2013-12-27T10:15:23.000Z</time>
      </trkpt>
      <trkpt lat="43.49342" lon="6.93615">
        <ele>172.60000610352</ele>
        <time>2013-12-27T10:15:26.000Z</time>
      </trkpt>
      <trkpt lat="43.49337" lon="6.93621">
        <ele>173.80000305176</ele>
        <time>2013-12-27T10:15:27.000Z</time>
      </trkpt>
      <trkpt lat="43.49332" lon="6.93637">
        <ele>174.80000305176</ele>
        <time>2013-12-27T10:15:29.000Z</time>
      </trkpt>
      <trkpt lat="43.49324" lon="6.93662">
        <ele>174</ele>
        <time>2013-12-27T10:15:33.000Z</time>
      </trkpt>
      <trkpt lat="43.49321" lon="6.93675">
        <ele>173.39999389648</ele>
        <time>2013-12-27T10:15:36.000Z</time>
      </trkpt>
      <trkpt lat="43.49319" lon="6.93682">
        <ele>173.19999694824</ele>
        <time>2013-12-27T10:15:38.000Z</time>
      </trkpt>
      <trkpt lat="43.49314" lon="6.93708">
        <ele>172.39999389648</ele>
        <time>2013-12-27T10:15:45.000Z</time>
      </trkpt>
      <trkpt lat="43.49308" lon="6.93732">
        <ele>171.80000305176</ele>
        <time>2013-12-27T10:15:51.000Z</time>
      </trkpt>
      <trkpt lat="43.49308" lon="6.93765">
        <ele>172.19999694824</ele>
        <time>2013-12-27T10:15:58.000Z</time>
      </trkpt>
      <trkpt lat="43.49306" lon="6.93802">
        <ele>172.80000305176</ele>
        <time>2013-12-27T10:16:05.000Z</time>
      </trkpt>
      <trkpt lat="43.493" lon="6.93851">
        <ele>173</ele>
        <time>2013-12-27T10:16:14.000Z</time>
      </trkpt>
      <trkpt lat="43.49304" lon="6.93875">
        <ele>173.80000305176</ele>
        <time>2013-12-27T10:16:19.000Z</time>
      </trkpt>
      <trkpt lat="43.49314" lon="6.93919">
        <ele>175.19999694824</ele>
        <time>2013-12-27T10:16:27.000Z</time>
      </trkpt>
      <trkpt lat="43.49323" lon="6.93969">
        <ele>175.80000305176</ele>
        <time>2013-12-27T10:16:34.000Z</time>
      </trkpt>
      <trkpt lat="43.49332" lon="6.94032">
        <ele>174.39999389648</ele>
        <time>2013-12-27T10:16:40.000Z</time>
      </trkpt>
      <trkpt lat="43.49337" lon="6.94101">
        <ele>170.80000305176</ele>
        <time>2013-12-27T10:16:46.000Z</time>
      </trkpt>
      <trkpt lat="43.49342" lon="6.94175">
        <ele>166</ele>
        <time>2013-12-27T10:16:52.000Z</time>
      </trkpt>
      <trkpt lat="43.49345" lon="6.94211">
        <ele>161.80000305176</ele>
        <time>2013-12-27T10:16:56.000Z</time>
      </trkpt>
      <trkpt lat="43.49347" lon="6.94248">
        <ele>157.80000305176</ele>
        <time>2013-12-27T10:17:02.000Z</time>
      </trkpt>
      <trkpt lat="43.49349" lon="6.94251">
        <ele>157.39999389648</ele>
        <time>2013-12-27T10:17:03.000Z</time>
      </trkpt>
      <trkpt lat="43.49353" lon="6.94254">
        <ele>156.80000305176</ele>
        <time>2013-12-27T10:17:05.000Z</time>
      </trkpt>
      <trkpt lat="43.49372" lon="6.94256">
        <ele>156</ele>
        <time>2013-12-27T10:17:10.000Z</time>
      </trkpt>
      <trkpt lat="43.49387" lon="6.94255">
        <ele>155.80000305176</ele>
        <time>2013-12-27T10:17:15.000Z</time>
      </trkpt>
      <trkpt lat="43.49395" lon="6.94255">
        <ele>155.80000305176</ele>
        <time>2013-12-27T10:17:20.000Z</time>
      </trkpt>
      <trkpt lat="43.49402" lon="6.94254">
        <ele>155.80000305176</ele>
        <time>2013-12-27T10:17:25.000Z</time>
      </trkpt>
      <trkpt lat="43.49401" lon="6.94257">
        <ele>155.19999694824</ele>
        <time>2013-12-27T10:17:27.000Z</time>
      </trkpt>
      <trkpt lat="43.49401" lon="6.94258">
        <ele>155</ele>
        <time>2013-12-27T10:17:28.000Z</time>
      </trkpt>
      <trkpt lat="43.49395" lon="6.94264">
        <ele>154.19999694824</ele>
        <time>2013-12-27T10:17:32.000Z</time>
      </trkpt>
      <trkpt lat="43.49391" lon="6.94269">
        <ele>153.39999389648</ele>
        <time>2013-12-27T10:17:35.000Z</time>
      </trkpt>
      <trkpt lat="43.4939" lon="6.94269">
        <ele>153.19999694824</ele>
        <time>2013-12-27T10:17:36.000Z</time>
      </trkpt>
      <trkpt lat="43.49391" lon="6.94266">
        <ele>153.80000305176</ele>
        <time>2013-12-27T10:17:47.000Z</time>
      </trkpt>
      <trkpt lat="43.49386" lon="6.94272">
        <ele>152.80000305176</ele>
        <time>2013-12-27T10:17:56.000Z</time>
      </trkpt>
      <trkpt lat="43.49368" lon="6.94287">
        <ele>150.39999389648</ele>
        <time>2013-12-27T10:18:03.000Z</time>
      </trkpt>
      <trkpt lat="43.49368" lon="6.94292">
        <ele>149.60000610352</ele>
        <time>2013-12-27T10:18:04.000Z</time>
      </trkpt>
      <trkpt lat="43.49365" lon="6.94297">
        <ele>148.60000610352</ele>
        <time>2013-12-27T10:18:06.000Z</time>
      </trkpt>
      <trkpt lat="43.49364" lon="6.94303">
        <ele>147.39999389648</ele>
        <time>2013-12-27T10:18:09.000Z</time>
      </trkpt>
      <trkpt lat="43.49364" lon="6.94307">
        <ele>146.80000305176</ele>
        <time>2013-12-27T10:18:11.000Z</time>
      </trkpt>
      <trkpt lat="43.49362" lon="6.94312">
        <ele>145.80000305176</ele>
        <time>2013-12-27T10:18:13.000Z</time>
      </trkpt>
      <trkpt lat="43.49361" lon="6.94324">
        <ele>143.80000305176</ele>
        <time>2013-12-27T10:18:18.000Z</time>
      </trkpt>
      <trkpt lat="43.49359" lon="6.94334">
        <ele>141.80000305176</ele>
        <time>2013-12-27T10:18:22.000Z</time>
      </trkpt>
      <trkpt lat="43.49352" lon="6.94346">
        <ele>137.80000305176</ele>
        <time>2013-12-27T10:18:26.000Z</time>
      </trkpt>
      <trkpt lat="43.49351" lon="6.9435">
        <ele>136.60000610352</ele>
        <time>2013-12-27T10:18:27.000Z</time>
      </trkpt>
      <trkpt lat="43.49348" lon="6.94362">
        <ele>132.80000305176</ele>
        <time>2013-12-27T10:18:31.000Z</time>
      </trkpt>
      <trkpt lat="43.49341" lon="6.94378">
        <ele>127.80000305176</ele>
        <time>2013-12-27T10:18:36.000Z</time>
      </trkpt>
      <trkpt lat="43.49337" lon="6.94384">
        <ele>126</ele>
        <time>2013-12-27T10:18:39.000Z</time>
      </trkpt>
      <trkpt lat="43.49336" lon="6.94386">
        <ele>125.40000152588</ele>
        <time>2013-12-27T10:18:40.000Z</time>
      </trkpt>
      <trkpt lat="43.49336" lon="6.94393">
        <ele>123.40000152588</ele>
        <time>2013-12-27T10:18:44.000Z</time>
      </trkpt>
      <trkpt lat="43.49335" lon="6.94394">
        <ele>123</ele>
        <time>2013-12-27T10:18:45.000Z</time>
      </trkpt>
      <trkpt lat="43.49329" lon="6.944">
        <ele>120.19999694824</ele>
        <time>2013-12-27T10:18:49.000Z</time>
      </trkpt>
      <trkpt lat="43.49321" lon="6.944">
        <ele>118.40000152588</ele>
        <time>2013-12-27T10:18:52.000Z</time>
      </trkpt>
      <trkpt lat="43.49317" lon="6.944">
        <ele>117.80000305176</ele>
        <time>2013-12-27T10:18:53.000Z</time>
      </trkpt>
      <trkpt lat="43.49299" lon="6.94401">
        <ele>113.19999694824</ele>
        <time>2013-12-27T10:18:59.000Z</time>
      </trkpt>
      <trkpt lat="43.49294" lon="6.94401">
        <ele>112.40000152588</ele>
        <time>2013-12-27T10:19:01.000Z</time>
      </trkpt>
      <trkpt lat="43.49289" lon="6.94401">
        <ele>111.19999694824</ele>
        <time>2013-12-27T10:19:04.000Z</time>
      </trkpt>
      <trkpt lat="43.49287" lon="6.94409">
        <ele>109</ele>
        <time>2013-12-27T10:19:08.000Z</time>
      </trkpt>
      <trkpt lat="43.49282" lon="6.94407">
        <ele>108.40000152588</ele>
        <time>2013-12-27T10:19:12.000Z</time>
      </trkpt>
      <trkpt lat="43.49279" lon="6.94404">
        <ele>108.40000152588</ele>
        <time>2013-12-27T10:19:16.000Z</time>
      </trkpt>
      <trkpt lat="43.49277" lon="6.94405">
        <ele>107.59999847412</ele>
        <time>2013-12-27T10:19:36.000Z</time>
      </trkpt>
      <trkpt lat="43.49273" lon="6.94404">
        <ele>107</ele>
        <time>2013-12-27T10:30:21.000Z</time>
      </trkpt>
      <trkpt lat="43.49272" lon="6.94404">
        <ele>106.80000305176</ele>
        <time>2013-12-27T10:30:24.000Z</time>
      </trkpt>
      <trkpt lat="43.49267" lon="6.94399">
        <ele>106.59999847412</ele>
        <time>2013-12-27T10:30:31.000Z</time>
      </trkpt>
      <trkpt lat="43.49266" lon="6.94397">
        <ele>107</ele>
        <time>2013-12-27T10:30:32.000Z</time>
      </trkpt>
      <trkpt lat="43.49265" lon="6.94393">
        <ele>107.40000152588</ele>
        <time>2013-12-27T10:30:34.000Z</time>
      </trkpt>
      <trkpt lat="43.49263" lon="6.94392">
        <ele>107.19999694824</ele>
        <time>2013-12-27T10:30:35.000Z</time>
      </trkpt>
      <trkpt lat="43.49254" lon="6.94383">
        <ele>106.59999847412</ele>
        <time>2013-12-27T10:30:40.000Z</time>
      </trkpt>
      <trkpt lat="43.49244" lon="6.94383">
        <ele>103.40000152588</ele>
        <time>2013-12-27T10:30:45.000Z</time>
      </trkpt>
      <trkpt lat="43.4924" lon="6.94383">
        <ele>102</ele>
        <time>2013-12-27T10:30:47.000Z</time>
      </trkpt>
      <trkpt lat="43.49233" lon="6.94382">
        <ele>100</ele>
        <time>2013-12-27T10:30:50.000Z</time>
      </trkpt>
      <trkpt lat="43.49233" lon="6.94378">
        <ele>100.59999847412</ele>
        <time>2013-12-27T10:30:53.000Z</time>
      </trkpt>
      <trkpt lat="43.49233" lon="6.94377">
        <ele>100.80000305176</ele>
        <time>2013-12-27T10:30:54.000Z</time>
      </trkpt>
      <trkpt lat="43.49234" lon="6.94377">
        <ele>100.80000305176</ele>
        <time>2013-12-27T10:30:58.000Z</time>
      </trkpt>
      <trkpt lat="43.49232" lon="6.94372">
        <ele>101</ele>
        <time>2013-12-27T10:31:33.000Z</time>
      </trkpt>
      <trkpt lat="43.49229" lon="6.94348">
        <ele>104.40000152588</ele>
        <time>2013-12-27T10:31:39.000Z</time>
      </trkpt>
      <trkpt lat="43.49227" lon="6.94336">
        <ele>105.59999847412</ele>
        <time>2013-12-27T10:31:42.000Z</time>
      </trkpt>
      <trkpt lat="43.49222" lon="6.94331">
        <ele>105</ele>
        <time>2013-12-27T10:31:44.000Z</time>
      </trkpt>
      <trkpt lat="43.49206" lon="6.94318">
        <ele>102.80000305176</ele>
        <time>2013-12-27T10:31:49.000Z</time>
      </trkpt>
      <trkpt lat="43.49185" lon="6.94302">
        <ele>100.40000152588</ele>
        <time>2013-12-27T10:31:54.000Z</time>
      </trkpt>
      <trkpt lat="43.49176" lon="6.94282">
        <ele>102.59999847412</ele>
        <time>2013-12-27T10:31:58.000Z</time>
      </trkpt>
      <trkpt lat="43.49174" lon="6.94278">
        <ele>103.19999694824</ele>
        <time>2013-12-27T10:31:59.000Z</time>
      </trkpt>
      <trkpt lat="43.49163" lon="6.94265">
        <ele>104</ele>
        <time>2013-12-27T10:32:03.000Z</time>
      </trkpt>
      <trkpt lat="43.49159" lon="6.94263">
        <ele>104.19999694824</ele>
        <time>2013-12-27T10:32:04.000Z</time>
      </trkpt>
      <trkpt lat="43.49144" lon="6.94259">
        <ele>102.80000305176</ele>
        <time>2013-12-27T10:32:08.000Z</time>
      </trkpt>
      <trkpt lat="43.49122" lon="6.94254">
        <ele>100.80000305176</ele>
        <time>2013-12-27T10:32:14.000Z</time>
      </trkpt>
      <trkpt lat="43.49102" lon="6.94244">
        <ele>100.19999694824</ele>
        <time>2013-12-27T10:32:19.000Z</time>
      </trkpt>
      <trkpt lat="43.49095" lon="6.94237">
        <ele>100.40000152588</ele>
        <time>2013-12-27T10:32:21.000Z</time>
      </trkpt>
      <trkpt lat="43.49088" lon="6.94227">
        <ele>101.19999694824</ele>
        <time>2013-12-27T10:32:23.000Z</time>
      </trkpt>
      <trkpt lat="43.49083" lon="6.94218">
        <ele>101.80000305176</ele>
        <time>2013-12-27T10:32:25.000Z</time>
      </trkpt>
      <trkpt lat="43.49075" lon="6.94203">
        <ele>104.59999847412</ele>
        <time>2013-12-27T10:32:29.000Z</time>
      </trkpt>
      <trkpt lat="43.4906" lon="6.94181">
        <ele>108.40000152588</ele>
        <time>2013-12-27T10:32:35.000Z</time>
      </trkpt>
      <trkpt lat="43.49052" lon="6.94164">
        <ele>110.59999847412</ele>
        <time>2013-12-27T10:32:40.000Z</time>
      </trkpt>
      <trkpt lat="43.4905" lon="6.94148">
        <ele>110.19999694824</ele>
        <time>2013-12-27T10:32:46.000Z</time>
      </trkpt>
      <trkpt lat="43.49052" lon="6.94143">
        <ele>110.19999694824</ele>
        <time>2013-12-27T10:32:49.000Z</time>
      </trkpt>
      <trkpt lat="43.49053" lon="6.94143">
        <ele>110.19999694824</ele>
        <time>2013-12-27T10:32:51.000Z</time>
      </trkpt>
      <trkpt lat="43.49055" lon="6.9414">
        <ele>110.19999694824</ele>
        <time>2013-12-27T10:32:56.000Z</time>
      </trkpt>
      <trkpt lat="43.49056" lon="6.94141">
        <ele>110.19999694824</ele>
        <time>2013-12-27T10:33:05.000Z</time>
      </trkpt>
      <trkpt lat="43.4906" lon="6.94139">
        <ele>110.19999694824</ele>
        <time>2013-12-27T10:36:37.000Z</time>
      </trkpt>
      <trkpt lat="43.49061" lon="6.94138">
        <ele>110.19999694824</ele>
        <time>2013-12-27T10:36:38.000Z</time>
      </trkpt>
      <trkpt lat="43.49068" lon="6.94125">
        <ele>110.40000152588</ele>
        <time>2013-12-27T10:36:44.000Z</time>
      </trkpt>
      <trkpt lat="43.49076" lon="6.94106">
        <ele>110.59999847412</ele>
        <time>2013-12-27T10:36:51.000Z</time>
      </trkpt>
      <trkpt lat="43.49083" lon="6.94091">
        <ele>111</ele>
        <time>2013-12-27T10:36:57.000Z</time>
      </trkpt>
      <trkpt lat="43.49089" lon="6.94074">
        <ele>113</ele>
        <time>2013-12-27T10:37:03.000Z</time>
      </trkpt>
      <trkpt lat="43.49092" lon="6.9406">
        <ele>113.40000152588</ele>
        <time>2013-12-27T10:37:08.000Z</time>
      </trkpt>
      <trkpt lat="43.49092" lon="6.94057">
        <ele>113.40000152588</ele>
        <time>2013-12-27T10:37:09.000Z</time>
      </trkpt>
      <trkpt lat="43.49093" lon="6.94033">
        <ele>112.19999694824</ele>
        <time>2013-12-27T10:37:16.000Z</time>
      </trkpt>
      <trkpt lat="43.49097" lon="6.94008">
        <ele>112.59999847412</ele>
        <time>2013-12-27T10:37:22.000Z</time>
      </trkpt>
      <trkpt lat="43.49101" lon="6.93986">
        <ele>113</ele>
        <time>2013-12-27T10:37:28.000Z</time>
      </trkpt>
      <trkpt lat="43.49107" lon="6.93946">
        <ele>112.40000152588</ele>
        <time>2013-12-27T10:37:36.000Z</time>
      </trkpt>
      <trkpt lat="43.49111" lon="6.93911">
        <ele>111.19999694824</ele>
        <time>2013-12-27T10:37:44.000Z</time>
      </trkpt>
      <trkpt lat="43.49119" lon="6.93884">
        <ele>112.19999694824</ele>
        <time>2013-12-27T10:37:51.000Z</time>
      </trkpt>
      <trkpt lat="43.49132" lon="6.93865">
        <ele>115.40000152588</ele>
        <time>2013-12-27T10:37:57.000Z</time>
      </trkpt>
      <trkpt lat="43.49142" lon="6.93855">
        <ele>118.19999694824</ele>
        <time>2013-12-27T10:38:02.000Z</time>
      </trkpt>
      <trkpt lat="43.49148" lon="6.93846">
        <ele>119.59999847412</ele>
        <time>2013-12-27T10:38:06.000Z</time>
      </trkpt>
      <trkpt lat="43.49148" lon="6.93844">
        <ele>119.40000152588</ele>
        <time>2013-12-27T10:38:07.000Z</time>
      </trkpt>
      <trkpt lat="43.49148" lon="6.93836">
        <ele>118.19999694824</ele>
        <time>2013-12-27T10:38:11.000Z</time>
      </trkpt>
      <trkpt lat="43.49153" lon="6.93823">
        <ele>119.80000305176</ele>
        <time>2013-12-27T10:38:15.000Z</time>
      </trkpt>
      <trkpt lat="43.49162" lon="6.93802">
        <ele>122.40000152588</ele>
        <time>2013-12-27T10:38:21.000Z</time>
      </trkpt>
      <trkpt lat="43.49163" lon="6.93784">
        <ele>122.59999847412</ele>
        <time>2013-12-27T10:38:26.000Z</time>
      </trkpt>
      <trkpt lat="43.49156" lon="6.93764">
        <ele>119.19999694824</ele>
        <time>2013-12-27T10:38:31.000Z</time>
      </trkpt>
      <trkpt lat="43.49142" lon="6.9374">
        <ele>113.59999847412</ele>
        <time>2013-12-27T10:38:38.000Z</time>
      </trkpt>
      <trkpt lat="43.49139" lon="6.93718">
        <ele>112.40000152588</ele>
        <time>2013-12-27T10:38:43.000Z</time>
      </trkpt>
      <trkpt lat="43.49144" lon="6.93691">
        <ele>114.80000305176</ele>
        <time>2013-12-27T10:38:49.000Z</time>
      </trkpt>
      <trkpt lat="43.49149" lon="6.93663">
        <ele>117</ele>
        <time>2013-12-27T10:38:56.000Z</time>
      </trkpt>
      <trkpt lat="43.49159" lon="6.93641">
        <ele>118.40000152588</ele>
        <time>2013-12-27T10:39:02.000Z</time>
      </trkpt>
      <trkpt lat="43.4917" lon="6.93626">
        <ele>120.40000152588</ele>
        <time>2013-12-27T10:39:07.000Z</time>
      </trkpt>
      <trkpt lat="43.49183" lon="6.9361">
        <ele>123.80000305176</ele>
        <time>2013-12-27T10:39:13.000Z</time>
      </trkpt>
      <trkpt lat="43.49196" lon="6.93596">
        <ele>127</ele>
        <time>2013-12-27T10:39:18.000Z</time>
      </trkpt>
      <trkpt lat="43.49209" lon="6.93581">
        <ele>130.39999389648</ele>
        <time>2013-12-27T10:39:24.000Z</time>
      </trkpt>
      <trkpt lat="43.4921" lon="6.93563">
        <ele>130.39999389648</ele>
        <time>2013-12-27T10:39:28.000Z</time>
      </trkpt>
      <trkpt lat="43.49211" lon="6.93559">
        <ele>130.60000610352</ele>
        <time>2013-12-27T10:39:29.000Z</time>
      </trkpt>
      <trkpt lat="43.49209" lon="6.93541">
        <ele>129.80000305176</ele>
        <time>2013-12-27T10:39:34.000Z</time>
      </trkpt>
      <trkpt lat="43.49209" lon="6.93539">
        <ele>129.60000610352</ele>
        <time>2013-12-27T10:39:35.000Z</time>
      </trkpt>
      <trkpt lat="43.49203" lon="6.93528">
        <ele>126.80000305176</ele>
        <time>2013-12-27T10:39:39.000Z</time>
      </trkpt>
      <trkpt lat="43.49201" lon="6.93525">
        <ele>126</ele>
        <time>2013-12-27T10:39:40.000Z</time>
      </trkpt>
      <trkpt lat="43.49197" lon="6.93508">
        <ele>123.80000305176</ele>
        <time>2013-12-27T10:39:45.000Z</time>
      </trkpt>
      <trkpt lat="43.49196" lon="6.93482">
        <ele>122.40000152588</ele>
        <time>2013-12-27T10:39:52.000Z</time>
      </trkpt>
      <trkpt lat="43.49199" lon="6.93464">
        <ele>123.80000305176</ele>
        <time>2013-12-27T10:39:57.000Z</time>
      </trkpt>
      <trkpt lat="43.49204" lon="6.93445">
        <ele>126</ele>
        <time>2013-12-27T10:40:03.000Z</time>
      </trkpt>
      <trkpt lat="43.4921" lon="6.93425">
        <ele>128.39999389648</ele>
        <time>2013-12-27T10:40:09.000Z</time>
      </trkpt>
      <trkpt lat="43.49218" lon="6.93403">
        <ele>131.39999389648</ele>
        <time>2013-12-27T10:40:16.000Z</time>
      </trkpt>
      <trkpt lat="43.49225" lon="6.93388">
        <ele>134.19999694824</ele>
        <time>2013-12-27T10:40:22.000Z</time>
      </trkpt>
      <trkpt lat="43.49229" lon="6.93368">
        <ele>134.80000305176</ele>
        <time>2013-12-27T10:40:27.000Z</time>
      </trkpt>
      <trkpt lat="43.49234" lon="6.93345">
        <ele>135.60000610352</ele>
        <time>2013-12-27T10:40:32.000Z</time>
      </trkpt>
      <trkpt lat="43.49238" lon="6.93323">
        <ele>135.60000610352</ele>
        <time>2013-12-27T10:40:38.000Z</time>
      </trkpt>
      <trkpt lat="43.4924" lon="6.93303">
        <ele>134.19999694824</ele>
        <time>2013-12-27T10:40:43.000Z</time>
      </trkpt>
      <trkpt lat="43.49238" lon="6.93281">
        <ele>131</ele>
        <time>2013-12-27T10:40:48.000Z</time>
      </trkpt>
      <trkpt lat="43.49241" lon="6.93259">
        <ele>129.60000610352</ele>
        <time>2013-12-27T10:40:54.000Z</time>
      </trkpt>
      <trkpt lat="43.49249" lon="6.93242">
        <ele>130</ele>
        <time>2013-12-27T10:41:00.000Z</time>
      </trkpt>
      <trkpt lat="43.49262" lon="6.93224">
        <ele>130.39999389648</ele>
        <time>2013-12-27T10:41:08.000Z</time>
      </trkpt>
      <trkpt lat="43.49271" lon="6.93214">
        <ele>131.60000610352</ele>
        <time>2013-12-27T10:41:14.000Z</time>
      </trkpt>
      <trkpt lat="43.49278" lon="6.93203">
        <ele>131.80000305176</ele>
        <time>2013-12-27T10:41:20.000Z</time>
      </trkpt>
      <trkpt lat="43.49285" lon="6.93193">
        <ele>132.80000305176</ele>
        <time>2013-12-27T10:41:27.000Z</time>
      </trkpt>
      <trkpt lat="43.49295" lon="6.93185">
        <ele>134.80000305176</ele>
        <time>2013-12-27T10:41:33.000Z</time>
      </trkpt>
      <trkpt lat="43.49303" lon="6.93171">
        <ele>135.39999389648</ele>
        <time>2013-12-27T10:41:38.000Z</time>
      </trkpt>
      <trkpt lat="43.49303" lon="6.93154">
        <ele>132.19999694824</ele>
        <time>2013-12-27T10:41:43.000Z</time>
      </trkpt>
      <trkpt lat="43.49302" lon="6.93128">
        <ele>126.80000305176</ele>
        <time>2013-12-27T10:41:50.000Z</time>
      </trkpt>
      <trkpt lat="43.4931" lon="6.93114">
        <ele>127.40000152588</ele>
        <time>2013-12-27T10:41:54.000Z</time>
      </trkpt>
      <trkpt lat="43.49328" lon="6.93092">
        <ele>131</ele>
        <time>2013-12-27T10:42:00.000Z</time>
      </trkpt>
      <trkpt lat="43.49342" lon="6.93071">
        <ele>132.19999694824</ele>
        <time>2013-12-27T10:42:05.000Z</time>
      </trkpt>
      <trkpt lat="43.49344" lon="6.93067">
        <ele>132.19999694824</ele>
        <time>2013-12-27T10:42:06.000Z</time>
      </trkpt>
      <trkpt lat="43.49359" lon="6.93043">
        <ele>132.60000610352</ele>
        <time>2013-12-27T10:42:11.000Z</time>
      </trkpt>
      <trkpt lat="43.49362" lon="6.93035">
        <ele>132.19999694824</ele>
        <time>2013-12-27T10:42:13.000Z</time>
      </trkpt>
      <trkpt lat="43.49367" lon="6.93021">
        <ele>131.39999389648</ele>
        <time>2013-12-27T10:42:16.000Z</time>
      </trkpt>
      <trkpt lat="43.49365" lon="6.93011">
        <ele>129</ele>
        <time>2013-12-27T10:42:18.000Z</time>
      </trkpt>
      <trkpt lat="43.49363" lon="6.92989">
        <ele>125</ele>
        <time>2013-12-27T10:42:22.000Z</time>
      </trkpt>
      <trkpt lat="43.49369" lon="6.9297">
        <ele>124.40000152588</ele>
        <time>2013-12-27T10:42:26.000Z</time>
      </trkpt>
      <trkpt lat="43.49373" lon="6.92958">
        <ele>124.19999694824</ele>
        <time>2013-12-27T10:42:28.000Z</time>
      </trkpt>
      <trkpt lat="43.49375" lon="6.92953">
        <ele>124.40000152588</ele>
        <time>2013-12-27T10:42:29.000Z</time>
      </trkpt>
      <trkpt lat="43.49383" lon="6.92939">
        <ele>125.19999694824</ele>
        <time>2013-12-27T10:42:32.000Z</time>
      </trkpt>
      <trkpt lat="43.49384" lon="6.92934">
        <ele>124.80000305176</ele>
        <time>2013-12-27T10:42:33.000Z</time>
      </trkpt>
      <trkpt lat="43.4938" lon="6.92914">
        <ele>121</ele>
        <time>2013-12-27T10:42:37.000Z</time>
      </trkpt>
      <trkpt lat="43.49382" lon="6.92874">
        <ele>115.80000305176</ele>
        <time>2013-12-27T10:42:44.000Z</time>
      </trkpt>
      <trkpt lat="43.49387" lon="6.92858">
        <ele>115.19999694824</ele>
        <time>2013-12-27T10:42:47.000Z</time>
      </trkpt>
      <trkpt lat="43.49391" lon="6.92848">
        <ele>115.19999694824</ele>
        <time>2013-12-27T10:42:49.000Z</time>
      </trkpt>
      <trkpt lat="43.49408" lon="6.92827">
        <ele>117.19999694824</ele>
        <time>2013-12-27T10:42:54.000Z</time>
      </trkpt>
      <trkpt lat="43.49417" lon="6.92823">
        <ele>119.19999694824</ele>
        <time>2013-12-27T10:42:56.000Z</time>
      </trkpt>
      <trkpt lat="43.49421" lon="6.92822">
        <ele>119</ele>
        <time>2013-12-27T10:42:57.000Z</time>
      </trkpt>
      <trkpt lat="43.4943" lon="6.92822">
        <ele>119.59999847412</ele>
        <time>2013-12-27T10:42:59.000Z</time>
      </trkpt>
      <trkpt lat="43.49443" lon="6.92831">
        <ele>121.40000152588</ele>
        <time>2013-12-27T10:43:03.000Z</time>
      </trkpt>
      <trkpt lat="43.49452" lon="6.92824">
        <ele>120.80000305176</ele>
        <time>2013-12-27T10:43:07.000Z</time>
      </trkpt>
      <trkpt lat="43.49457" lon="6.92816">
        <ele>120</ele>
        <time>2013-12-27T10:43:09.000Z</time>
      </trkpt>
      <trkpt lat="43.49467" lon="6.92802">
        <ele>119.40000152588</ele>
        <time>2013-12-27T10:43:13.000Z</time>
      </trkpt>
      <trkpt lat="43.49484" lon="6.92785">
        <ele>119.59999847412</ele>
        <time>2013-12-27T10:43:20.000Z</time>
      </trkpt>
      <trkpt lat="43.49485" lon="6.92785">
        <ele>119.59999847412</ele>
        <time>2013-12-27T10:43:24.000Z</time>
      </trkpt>
      <trkpt lat="43.49487" lon="6.92775">
        <ele>119.19999694824</ele>
        <time>2013-12-27T10:44:20.000Z</time>
      </trkpt>
      <trkpt lat="43.49483" lon="6.92755">
        <ele>117.59999847412</ele>
        <time>2013-12-27T10:44:26.000Z</time>
      </trkpt>
      <trkpt lat="43.49475" lon="6.92741">
        <ele>116.59999847412</ele>
        <time>2013-12-27T10:44:32.000Z</time>
      </trkpt>
      <trkpt lat="43.49469" lon="6.92707">
        <ele>118</ele>
        <time>2013-12-27T10:44:43.000Z</time>
      </trkpt>
      <trkpt lat="43.49473" lon="6.92679">
        <ele>120.80000305176</ele>
        <time>2013-12-27T10:44:51.000Z</time>
      </trkpt>
      <trkpt lat="43.49476" lon="6.92656">
        <ele>124.40000152588</ele>
        <time>2013-12-27T10:44:57.000Z</time>
      </trkpt>
      <trkpt lat="43.49474" lon="6.92629">
        <ele>128.80000305176</ele>
        <time>2013-12-27T10:45:05.000Z</time>
      </trkpt>
      <trkpt lat="43.49466" lon="6.92601">
        <ele>131.60000610352</ele>
        <time>2013-12-27T10:45:14.000Z</time>
      </trkpt>
      <trkpt lat="43.49458" lon="6.92585">
        <ele>132.60000610352</ele>
        <time>2013-12-27T10:45:21.000Z</time>
      </trkpt>
      <trkpt lat="43.49452" lon="6.92573">
        <ele>133.60000610352</ele>
        <time>2013-12-27T10:45:26.000Z</time>
      </trkpt>
      <trkpt lat="43.49442" lon="6.92552">
        <ele>136.39999389648</ele>
        <time>2013-12-27T10:45:34.000Z</time>
      </trkpt>
      <trkpt lat="43.49435" lon="6.92525">
        <ele>141</ele>
        <time>2013-12-27T10:45:42.000Z</time>
      </trkpt>
      <trkpt lat="43.49432" lon="6.92501">
        <ele>146.19999694824</ele>
        <time>2013-12-27T10:45:49.000Z</time>
      </trkpt>
      <trkpt lat="43.4943" lon="6.92476">
        <ele>150.39999389648</ele>
        <time>2013-12-27T10:45:56.000Z</time>
      </trkpt>
      <trkpt lat="43.49426" lon="6.92452">
        <ele>154.19999694824</ele>
        <time>2013-12-27T10:46:03.000Z</time>
      </trkpt>
      <trkpt lat="43.49427" lon="6.92447">
        <ele>155.19999694824</ele>
        <time>2013-12-27T10:46:05.000Z</time>
      </trkpt>
      <trkpt lat="43.49431" lon="6.92445">
        <ele>156</ele>
        <time>2013-12-27T10:46:07.000Z</time>
      </trkpt>
      <trkpt lat="43.49432" lon="6.92452">
        <ele>154.80000305176</ele>
        <time>2013-12-27T10:46:10.000Z</time>
      </trkpt>
      <trkpt lat="43.49434" lon="6.92471">
        <ele>151.80000305176</ele>
        <time>2013-12-27T10:46:16.000Z</time>
      </trkpt>
      <trkpt lat="43.4944" lon="6.92492">
        <ele>149</ele>
        <time>2013-12-27T10:46:22.000Z</time>
      </trkpt>
      <trkpt lat="43.49444" lon="6.92511">
        <ele>146</ele>
        <time>2013-12-27T10:46:27.000Z</time>
      </trkpt>
      <trkpt lat="43.4945" lon="6.92532">
        <ele>142.39999389648</ele>
        <time>2013-12-27T10:46:34.000Z</time>
      </trkpt>
      <trkpt lat="43.49463" lon="6.9255">
        <ele>141</ele>
        <time>2013-12-27T10:46:40.000Z</time>
      </trkpt>
      <trkpt lat="43.49477" lon="6.92563">
        <ele>141.60000610352</ele>
        <time>2013-12-27T10:46:46.000Z</time>
      </trkpt>
      <trkpt lat="43.4949" lon="6.92572">
        <ele>142.60000610352</ele>
        <time>2013-12-27T10:46:52.000Z</time>
      </trkpt>
      <trkpt lat="43.49503" lon="6.92579">
        <ele>143.19999694824</ele>
        <time>2013-12-27T10:46:58.000Z</time>
      </trkpt>
      <trkpt lat="43.49516" lon="6.92574">
        <ele>141.19999694824</ele>
        <time>2013-12-27T10:47:04.000Z</time>
      </trkpt>
      <trkpt lat="43.49523" lon="6.92556">
        <ele>142.60000610352</ele>
        <time>2013-12-27T10:47:10.000Z</time>
      </trkpt>
      <trkpt lat="43.49529" lon="6.9253">
        <ele>145.19999694824</ele>
        <time>2013-12-27T10:47:18.000Z</time>
      </trkpt>
      <trkpt lat="43.49528" lon="6.9251">
        <ele>148.60000610352</ele>
        <time>2013-12-27T10:47:25.000Z</time>
      </trkpt>
      <trkpt lat="43.49525" lon="6.92486">
        <ele>152.19999694824</ele>
        <time>2013-12-27T10:47:32.000Z</time>
      </trkpt>
      <trkpt lat="43.49522" lon="6.92459">
        <ele>155.39999389648</ele>
        <time>2013-12-27T10:47:40.000Z</time>
      </trkpt>
      <trkpt lat="43.49518" lon="6.92436">
        <ele>158.80000305176</ele>
        <time>2013-12-27T10:47:48.000Z</time>
      </trkpt>
      <trkpt lat="43.49517" lon="6.92421">
        <ele>160.19999694824</ele>
        <time>2013-12-27T10:47:53.000Z</time>
      </trkpt>
      <trkpt lat="43.49526" lon="6.92399">
        <ele>160.19999694824</ele>
        <time>2013-12-27T10:48:00.000Z</time>
      </trkpt>
      <trkpt lat="43.49536" lon="6.92382">
        <ele>159.60000610352</ele>
        <time>2013-12-27T10:48:06.000Z</time>
      </trkpt>
      <trkpt lat="43.49547" lon="6.92364">
        <ele>158.80000305176</ele>
        <time>2013-12-27T10:48:12.000Z</time>
      </trkpt>
      <trkpt lat="43.49551" lon="6.92341">
        <ele>160.60000610352</ele>
        <time>2013-12-27T10:48:19.000Z</time>
      </trkpt>
      <trkpt lat="43.4955" lon="6.9232">
        <ele>162.80000305176</ele>
        <time>2013-12-27T10:48:25.000Z</time>
      </trkpt>
      <trkpt lat="43.49553" lon="6.92298">
        <ele>164.39999389648</ele>
        <time>2013-12-27T10:48:32.000Z</time>
      </trkpt>
      <trkpt lat="43.49552" lon="6.92274">
        <ele>166.80000305176</ele>
        <time>2013-12-27T10:48:39.000Z</time>
      </trkpt>
      <trkpt lat="43.49551" lon="6.92251">
        <ele>169.60000610352</ele>
        <time>2013-12-27T10:48:46.000Z</time>
      </trkpt>
      <trkpt lat="43.49548" lon="6.92227">
        <ele>170.39999389648</ele>
        <time>2013-12-27T10:48:54.000Z</time>
      </trkpt>
      <trkpt lat="43.49544" lon="6.9221">
        <ele>171.39999389648</ele>
        <time>2013-12-27T10:49:00.000Z</time>
      </trkpt>
      <trkpt lat="43.49541" lon="6.92201">
        <ele>171.80000305176</ele>
        <time>2013-12-27T10:49:03.000Z</time>
      </trkpt>
      <trkpt lat="43.49539" lon="6.92195">
        <ele>172.19999694824</ele>
        <time>2013-12-27T10:49:05.000Z</time>
      </trkpt>
      <trkpt lat="43.49527" lon="6.92173">
        <ele>173.60000610352</ele>
        <time>2013-12-27T10:49:13.000Z</time>
      </trkpt>
      <trkpt lat="43.49517" lon="6.92171">
        <ele>175</ele>
        <time>2013-12-27T10:49:18.000Z</time>
      </trkpt>
      <trkpt lat="43.49508" lon="6.92184">
        <ele>177</ele>
        <time>2013-12-27T10:49:24.000Z</time>
      </trkpt>
      <trkpt lat="43.49496" lon="6.92195">
        <ele>179.60000610352</ele>
        <time>2013-12-27T10:49:31.000Z</time>
      </trkpt>
      <trkpt lat="43.4949" lon="6.92186">
        <ele>180</ele>
        <time>2013-12-27T10:49:35.000Z</time>
      </trkpt>
      <trkpt lat="43.49489" lon="6.9218">
        <ele>179.60000610352</ele>
        <time>2013-12-27T10:49:37.000Z</time>
      </trkpt>
      <trkpt lat="43.49486" lon="6.92165">
        <ele>179.19999694824</ele>
        <time>2013-12-27T10:49:42.000Z</time>
      </trkpt>
      <trkpt lat="43.4948" lon="6.92141">
        <ele>179.80000305176</ele>
        <time>2013-12-27T10:49:50.000Z</time>
      </trkpt>
      <trkpt lat="43.49472" lon="6.92119">
        <ele>180.39999389648</ele>
        <time>2013-12-27T10:49:58.000Z</time>
      </trkpt>
      <trkpt lat="43.49457" lon="6.92112">
        <ele>181.60000610352</ele>
        <time>2013-12-27T10:50:05.000Z</time>
      </trkpt>
      <trkpt lat="43.49439" lon="6.92103">
        <ele>182.80000305176</ele>
        <time>2013-12-27T10:50:12.000Z</time>
      </trkpt>
      <trkpt lat="43.49431" lon="6.92089">
        <ele>182.60000610352</ele>
        <time>2013-12-27T10:50:18.000Z</time>
      </trkpt>
      <trkpt lat="43.49423" lon="6.92071">
        <ele>183.19999694824</ele>
        <time>2013-12-27T10:50:25.000Z</time>
      </trkpt>
      <trkpt lat="43.49419" lon="6.92051">
        <ele>184.19999694824</ele>
        <time>2013-12-27T10:50:32.000Z</time>
      </trkpt>
      <trkpt lat="43.49426" lon="6.92028">
        <ele>185</ele>
        <time>2013-12-27T10:50:38.000Z</time>
      </trkpt>
      <trkpt lat="43.4944" lon="6.92011">
        <ele>186.19999694824</ele>
        <time>2013-12-27T10:50:46.000Z</time>
      </trkpt>
      <trkpt lat="43.49454" lon="6.92001">
        <ele>187.19999694824</ele>
        <time>2013-12-27T10:50:53.000Z</time>
      </trkpt>
      <trkpt lat="43.49474" lon="6.91981">
        <ele>192.19999694824</ele>
        <time>2013-12-27T10:51:03.000Z</time>
      </trkpt>
      <trkpt lat="43.49482" lon="6.91966">
        <ele>195.80000305176</ele>
        <time>2013-12-27T10:51:09.000Z</time>
      </trkpt>
      <trkpt lat="43.49489" lon="6.91954">
        <ele>198.80000305176</ele>
        <time>2013-12-27T10:51:15.000Z</time>
      </trkpt>
      <trkpt lat="43.495" lon="6.91949">
        <ele>200</ele>
        <time>2013-12-27T10:51:20.000Z</time>
      </trkpt>
      <trkpt lat="43.49514" lon="6.91956">
        <ele>198.19999694824</ele>
        <time>2013-12-27T10:51:27.000Z</time>
      </trkpt>
      <trkpt lat="43.49528" lon="6.91952">
        <ele>198.60000610352</ele>
        <time>2013-12-27T10:51:34.000Z</time>
      </trkpt>
      <trkpt lat="43.49537" lon="6.91938">
        <ele>201.39999389648</ele>
        <time>2013-12-27T10:51:40.000Z</time>
      </trkpt>
      <trkpt lat="43.49545" lon="6.91924">
        <ele>203.80000305176</ele>
        <time>2013-12-27T10:51:47.000Z</time>
      </trkpt>
      <trkpt lat="43.49551" lon="6.91906">
        <ele>208.19999694824</ele>
        <time>2013-12-27T10:51:54.000Z</time>
      </trkpt>
      <trkpt lat="43.49559" lon="6.91891">
        <ele>212.19999694824</ele>
        <time>2013-12-27T10:52:00.000Z</time>
      </trkpt>
      <trkpt lat="43.4957" lon="6.91874">
        <ele>216.39999389648</ele>
        <time>2013-12-27T10:52:07.000Z</time>
      </trkpt>
      <trkpt lat="43.49577" lon="6.91878">
        <ele>215</ele>
        <time>2013-12-27T10:52:11.000Z</time>
      </trkpt>
      <trkpt lat="43.49586" lon="6.91886">
        <ele>213</ele>
        <time>2013-12-27T10:52:16.000Z</time>
      </trkpt>
      <trkpt lat="43.49589" lon="6.91888">
        <ele>213.19999694824</ele>
        <time>2013-12-27T10:52:17.000Z</time>
      </trkpt>
      <trkpt lat="43.49605" lon="6.91898">
        <ele>214.39999389648</ele>
        <time>2013-12-27T10:52:25.000Z</time>
      </trkpt>
      <trkpt lat="43.49622" lon="6.91908">
        <ele>216.39999389648</ele>
        <time>2013-12-27T10:52:33.000Z</time>
      </trkpt>
      <trkpt lat="43.49632" lon="6.91925">
        <ele>216</ele>
        <time>2013-12-27T10:52:40.000Z</time>
      </trkpt>
      <trkpt lat="43.49642" lon="6.91941">
        <ele>215.80000305176</ele>
        <time>2013-12-27T10:52:47.000Z</time>
      </trkpt>
      <trkpt lat="43.49656" lon="6.91961">
        <ele>216</ele>
        <time>2013-12-27T10:52:56.000Z</time>
      </trkpt>
      <trkpt lat="43.49668" lon="6.91981">
        <ele>215.80000305176</ele>
        <time>2013-12-27T10:53:04.000Z</time>
      </trkpt>
      <trkpt lat="43.49678" lon="6.91997">
        <ele>215.19999694824</ele>
        <time>2013-12-27T10:53:11.000Z</time>
      </trkpt>
      <trkpt lat="43.4969" lon="6.92015">
        <ele>216</ele>
        <time>2013-12-27T10:53:19.000Z</time>
      </trkpt>
      <trkpt lat="43.49704" lon="6.9203">
        <ele>218</ele>
        <time>2013-12-27T10:53:26.000Z</time>
      </trkpt>
      <trkpt lat="43.49714" lon="6.92047">
        <ele>219.60000610352</ele>
        <time>2013-12-27T10:53:33.000Z</time>
      </trkpt>
      <trkpt lat="43.49717" lon="6.92066">
        <ele>218.80000305176</ele>
        <time>2013-12-27T10:53:39.000Z</time>
      </trkpt>
      <trkpt lat="43.49717" lon="6.92084">
        <ele>217.60000610352</ele>
        <time>2013-12-27T10:53:44.000Z</time>
      </trkpt>
      <trkpt lat="43.49719" lon="6.92104">
        <ele>217.19999694824</ele>
        <time>2013-12-27T10:53:50.000Z</time>
      </trkpt>
      <trkpt lat="43.49725" lon="6.92137">
        <ele>217.80000305176</ele>
        <time>2013-12-27T10:54:00.000Z</time>
      </trkpt>
      <trkpt lat="43.49731" lon="6.92162">
        <ele>219.19999694824</ele>
        <time>2013-12-27T10:54:08.000Z</time>
      </trkpt>
      <trkpt lat="43.4974" lon="6.92185">
        <ele>219.80000305176</ele>
        <time>2013-12-27T10:54:17.000Z</time>
      </trkpt>
      <trkpt lat="43.49754" lon="6.92206">
        <ele>220.39999389648</ele>
        <time>2013-12-27T10:54:26.000Z</time>
      </trkpt>
      <trkpt lat="43.49765" lon="6.92216">
        <ele>220.60000610352</ele>
        <time>2013-12-27T10:54:32.000Z</time>
      </trkpt>
      <trkpt lat="43.4978" lon="6.92226">
        <ele>222.19999694824</ele>
        <time>2013-12-27T10:54:40.000Z</time>
      </trkpt>
      <trkpt lat="43.49795" lon="6.92229">
        <ele>225.19999694824</ele>
        <time>2013-12-27T10:54:48.000Z</time>
      </trkpt>
      <trkpt lat="43.49811" lon="6.92226">
        <ele>228.39999389648</ele>
        <time>2013-12-27T10:54:56.000Z</time>
      </trkpt>
      <trkpt lat="43.49825" lon="6.92225">
        <ele>231</ele>
        <time>2013-12-27T10:55:04.000Z</time>
      </trkpt>
      <trkpt lat="43.49831" lon="6.92228">
        <ele>232.39999389648</ele>
        <time>2013-12-27T10:55:10.000Z</time>
      </trkpt>
      <trkpt lat="43.49831" lon="6.92229">
        <ele>232.60000610352</ele>
        <time>2013-12-27T10:55:16.000Z</time>
      </trkpt>
      <trkpt lat="43.49829" lon="6.92235">
        <ele>232.39999389648</ele>
        <time>2013-12-27T10:58:10.000Z</time>
      </trkpt>
      <trkpt lat="43.49832" lon="6.9224">
        <ele>233.19999694824</ele>
        <time>2013-12-27T10:58:13.000Z</time>
      </trkpt>
      <trkpt lat="43.49844" lon="6.9226">
        <ele>235.60000610352</ele>
        <time>2013-12-27T10:58:20.000Z</time>
      </trkpt>
      <trkpt lat="43.49852" lon="6.92293">
        <ele>235.60000610352</ele>
        <time>2013-12-27T10:58:26.000Z</time>
      </trkpt>
      <trkpt lat="43.4986" lon="6.92321">
        <ele>237.19999694824</ele>
        <time>2013-12-27T10:58:31.000Z</time>
      </trkpt>
      <trkpt lat="43.49862" lon="6.9235">
        <ele>235.80000305176</ele>
        <time>2013-12-27T10:58:36.000Z</time>
      </trkpt>
      <trkpt lat="43.49863" lon="6.92355">
        <ele>235.39999389648</ele>
        <time>2013-12-27T10:58:37.000Z</time>
      </trkpt>
      <trkpt lat="43.49869" lon="6.9238">
        <ele>235.60000610352</ele>
        <time>2013-12-27T10:58:42.000Z</time>
      </trkpt>
      <trkpt lat="43.49871" lon="6.9239">
        <ele>236.19999694824</ele>
        <time>2013-12-27T10:58:44.000Z</time>
      </trkpt>
      <trkpt lat="43.49881" lon="6.92419">
        <ele>238.39999389648</ele>
        <time>2013-12-27T10:58:50.000Z</time>
      </trkpt>
      <trkpt lat="43.49884" lon="6.92451">
        <ele>235.80000305176</ele>
        <time>2013-12-27T10:58:55.000Z</time>
      </trkpt>
      <trkpt lat="43.49888" lon="6.92483">
        <ele>233.19999694824</ele>
        <time>2013-12-27T10:59:00.000Z</time>
      </trkpt>
      <trkpt lat="43.49888" lon="6.9249">
        <ele>232.60000610352</ele>
        <time>2013-12-27T10:59:01.000Z</time>
      </trkpt>
      <trkpt lat="43.4989" lon="6.92497">
        <ele>232.19999694824</ele>
        <time>2013-12-27T10:59:02.000Z</time>
      </trkpt>
      <trkpt lat="43.49893" lon="6.9251">
        <ele>231.80000305176</ele>
        <time>2013-12-27T10:59:04.000Z</time>
      </trkpt>
      <trkpt lat="43.49894" lon="6.92516">
        <ele>231.60000610352</ele>
        <time>2013-12-27T10:59:05.000Z</time>
      </trkpt>
      <trkpt lat="43.49896" lon="6.92534">
        <ele>229.80000305176</ele>
        <time>2013-12-27T10:59:08.000Z</time>
      </trkpt>
      <trkpt lat="43.49898" lon="6.92547">
        <ele>228.80000305176</ele>
        <time>2013-12-27T10:59:10.000Z</time>
      </trkpt>
      <trkpt lat="43.499" lon="6.92554">
        <ele>228.39999389648</ele>
        <time>2013-12-27T10:59:11.000Z</time>
      </trkpt>
      <trkpt lat="43.49906" lon="6.92581">
        <ele>227.60000610352</ele>
        <time>2013-12-27T10:59:15.000Z</time>
      </trkpt>
      <trkpt lat="43.49909" lon="6.92593">
        <ele>226.39999389648</ele>
        <time>2013-12-27T10:59:17.000Z</time>
      </trkpt>
      <trkpt lat="43.49913" lon="6.92611">
        <ele>224.80000305176</ele>
        <time>2013-12-27T10:59:20.000Z</time>
      </trkpt>
      <trkpt lat="43.49916" lon="6.92622">
        <ele>224</ele>
        <time>2013-12-27T10:59:22.000Z</time>
      </trkpt>
      <trkpt lat="43.49918" lon="6.92629">
        <ele>223.39999389648</ele>
        <time>2013-12-27T10:59:24.000Z</time>
      </trkpt>
      <trkpt lat="43.49924" lon="6.9264">
        <ele>223.80000305176</ele>
        <time>2013-12-27T10:59:28.000Z</time>
      </trkpt>
      <trkpt lat="43.49925" lon="6.92643">
        <ele>223.80000305176</ele>
        <time>2013-12-27T10:59:29.000Z</time>
      </trkpt>
      <trkpt lat="43.49927" lon="6.92658">
        <ele>221.39999389648</ele>
        <time>2013-12-27T10:59:34.000Z</time>
      </trkpt>
      <trkpt lat="43.49929" lon="6.92661">
        <ele>221.60000610352</ele>
        <time>2013-12-27T10:59:38.000Z</time>
      </trkpt>
      <trkpt lat="43.49931" lon="6.92667">
        <ele>221.60000610352</ele>
        <time>2013-12-27T10:59:54.000Z</time>
      </trkpt>
      <trkpt lat="43.49932" lon="6.9267">
        <ele>221.39999389648</ele>
        <time>2013-12-27T10:59:55.000Z</time>
      </trkpt>
      <trkpt lat="43.49936" lon="6.9268">
        <ele>220.39999389648</ele>
        <time>2013-12-27T10:59:58.000Z</time>
      </trkpt>
      <trkpt lat="43.49939" lon="6.92689">
        <ele>218.80000305176</ele>
        <time>2013-12-27T11:00:00.000Z</time>
      </trkpt>
      <trkpt lat="43.49955" lon="6.92703">
        <ele>222.60000610352</ele>
        <time>2013-12-27T11:00:04.000Z</time>
      </trkpt>
      <trkpt lat="43.49963" lon="6.9271">
        <ele>224</ele>
        <time>2013-12-27T11:00:08.000Z</time>
      </trkpt>
      <trkpt lat="43.49976" lon="6.92726">
        <ele>224.80000305176</ele>
        <time>2013-12-27T11:00:13.000Z</time>
      </trkpt>
      <trkpt lat="43.49984" lon="6.92741">
        <ele>223.39999389648</ele>
        <time>2013-12-27T11:00:18.000Z</time>
      </trkpt>
      <trkpt lat="43.49987" lon="6.92756">
        <ele>220.39999389648</ele>
        <time>2013-12-27T11:00:22.000Z</time>
      </trkpt>
      <trkpt lat="43.49993" lon="6.9278">
        <ele>216.60000610352</ele>
        <time>2013-12-27T11:00:27.000Z</time>
      </trkpt>
      <trkpt lat="43.49998" lon="6.92807">
        <ele>212</ele>
        <time>2013-12-27T11:00:31.000Z</time>
      </trkpt>
      <trkpt lat="43.49999" lon="6.92817">
        <ele>210</ele>
        <time>2013-12-27T11:00:33.000Z</time>
      </trkpt>
      <trkpt lat="43.5" lon="6.92824">
        <ele>208.19999694824</ele>
        <time>2013-12-27T11:00:35.000Z</time>
      </trkpt>
      <trkpt lat="43.5" lon="6.92831">
        <ele>206.60000610352</ele>
        <time>2013-12-27T11:00:39.000Z</time>
      </trkpt>
      <trkpt lat="43.50005" lon="6.92847">
        <ele>206.39999389648</ele>
        <time>2013-12-27T11:00:43.000Z</time>
      </trkpt>
      <trkpt lat="43.50006" lon="6.9285">
        <ele>206.39999389648</ele>
        <time>2013-12-27T11:00:44.000Z</time>
      </trkpt>
      <trkpt lat="43.50005" lon="6.9286">
        <ele>204.80000305176</ele>
        <time>2013-12-27T11:00:46.000Z</time>
      </trkpt>
      <trkpt lat="43.50006" lon="6.92876">
        <ele>203</ele>
        <time>2013-12-27T11:00:50.000Z</time>
      </trkpt>
      <trkpt lat="43.50006" lon="6.92897">
        <ele>200.60000610352</ele>
        <time>2013-12-27T11:00:54.000Z</time>
      </trkpt>
      <trkpt lat="43.50006" lon="6.92916">
        <ele>198.19999694824</ele>
        <time>2013-12-27T11:00:58.000Z</time>
      </trkpt>
      <trkpt lat="43.50004" lon="6.92938">
        <ele>195.39999389648</ele>
        <time>2013-12-27T11:01:02.000Z</time>
      </trkpt>
      <trkpt lat="43.50003" lon="6.9296">
        <ele>192.80000305176</ele>
        <time>2013-12-27T11:01:05.000Z</time>
      </trkpt>
      <trkpt lat="43.50004" lon="6.92973">
        <ele>192.19999694824</ele>
        <time>2013-12-27T11:01:07.000Z</time>
      </trkpt>
      <trkpt lat="43.50004" lon="6.92985">
        <ele>191.39999389648</ele>
        <time>2013-12-27T11:01:09.000Z</time>
      </trkpt>
      <trkpt lat="43.50005" lon="6.93003">
        <ele>190.39999389648</ele>
        <time>2013-12-27T11:01:12.000Z</time>
      </trkpt>
      <trkpt lat="43.50006" lon="6.93008">
        <ele>190.19999694824</ele>
        <time>2013-12-27T11:01:13.000Z</time>
      </trkpt>
      <trkpt lat="43.5001" lon="6.93024">
        <ele>190.19999694824</ele>
        <time>2013-12-27T11:01:16.000Z</time>
      </trkpt>
      <trkpt lat="43.50012" lon="6.93034">
        <ele>190</ele>
        <time>2013-12-27T11:01:18.000Z</time>
      </trkpt>
      <trkpt lat="43.50013" lon="6.93039">
        <ele>189.60000610352</ele>
        <time>2013-12-27T11:01:19.000Z</time>
      </trkpt>
      <trkpt lat="43.50015" lon="6.9305">
        <ele>189.19999694824</ele>
        <time>2013-12-27T11:01:21.000Z</time>
      </trkpt>
      <trkpt lat="43.50018" lon="6.93072">
        <ele>187.39999389648</ele>
        <time>2013-12-27T11:01:25.000Z</time>
      </trkpt>
      <trkpt lat="43.50024" lon="6.93093">
        <ele>186.80000305176</ele>
        <time>2013-12-27T11:01:29.000Z</time>
      </trkpt>
      <trkpt lat="43.50033" lon="6.9311">
        <ele>187</ele>
        <time>2013-12-27T11:01:33.000Z</time>
      </trkpt>
      <trkpt lat="43.50035" lon="6.93114">
        <ele>186.80000305176</ele>
        <time>2013-12-27T11:01:34.000Z</time>
      </trkpt>
      <trkpt lat="43.50041" lon="6.93134">
        <ele>184.80000305176</ele>
        <time>2013-12-27T11:01:38.000Z</time>
      </trkpt>
      <trkpt lat="43.50049" lon="6.93154">
        <ele>183.39999389648</ele>
        <time>2013-12-27T11:01:42.000Z</time>
      </trkpt>
      <trkpt lat="43.50054" lon="6.93159">
        <ele>183.80000305176</ele>
        <time>2013-12-27T11:01:43.000Z</time>
      </trkpt>
      <trkpt lat="43.50063" lon="6.93165">
        <ele>185.60000610352</ele>
        <time>2013-12-27T11:01:45.000Z</time>
      </trkpt>
      <trkpt lat="43.50082" lon="6.93166">
        <ele>191.60000610352</ele>
        <time>2013-12-27T11:01:49.000Z</time>
      </trkpt>
      <trkpt lat="43.50091" lon="6.93165">
        <ele>192</ele>
        <time>2013-12-27T11:01:53.000Z</time>
      </trkpt>
      <trkpt lat="43.50097" lon="6.93164">
        <ele>192</ele>
        <time>2013-12-27T11:01:56.000Z</time>
      </trkpt>
      <trkpt lat="43.50102" lon="6.93164">
        <ele>191.60000610352</ele>
        <time>2013-12-27T11:01:58.000Z</time>
      </trkpt>
      <trkpt lat="43.50116" lon="6.93168">
        <ele>190</ele>
        <time>2013-12-27T11:02:02.000Z</time>
      </trkpt>
      <trkpt lat="43.50122" lon="6.93169">
        <ele>189.60000610352</ele>
        <time>2013-12-27T11:02:06.000Z</time>
      </trkpt>
      <trkpt lat="43.50127" lon="6.93168">
        <ele>189.60000610352</ele>
        <time>2013-12-27T11:02:20.000Z</time>
      </trkpt>
      <trkpt lat="43.50127" lon="6.93169">
        <ele>189.39999389648</ele>
        <time>2013-12-27T11:02:26.000Z</time>
      </trkpt>
      <trkpt lat="43.50131" lon="6.93177">
        <ele>187.80000305176</ele>
        <time>2013-12-27T11:02:57.000Z</time>
      </trkpt>
      <trkpt lat="43.50133" lon="6.93185">
        <ele>186.39999389648</ele>
        <time>2013-12-27T11:03:02.000Z</time>
      </trkpt>
      <trkpt lat="43.50138" lon="6.93194">
        <ele>184.60000610352</ele>
        <time>2013-12-27T11:03:06.000Z</time>
      </trkpt>
      <trkpt lat="43.50141" lon="6.93196">
        <ele>184.19999694824</ele>
        <time>2013-12-27T11:03:08.000Z</time>
      </trkpt>
      <trkpt lat="43.50145" lon="6.93199">
        <ele>183.80000305176</ele>
        <time>2013-12-27T11:03:10.000Z</time>
      </trkpt>
      <trkpt lat="43.50145" lon="6.93201">
        <ele>183.39999389648</ele>
        <time>2013-12-27T11:03:11.000Z</time>
      </trkpt>
      <trkpt lat="43.50146" lon="6.93209">
        <ele>182</ele>
        <time>2013-12-27T11:03:14.000Z</time>
      </trkpt>
      <trkpt lat="43.50153" lon="6.93218">
        <ele>180.80000305176</ele>
        <time>2013-12-27T11:03:17.000Z</time>
      </trkpt>
      <trkpt lat="43.50157" lon="6.93228">
        <ele>179.39999389648</ele>
        <time>2013-12-27T11:03:20.000Z</time>
      </trkpt>
      <trkpt lat="43.50162" lon="6.93238">
        <ele>178.39999389648</ele>
        <time>2013-12-27T11:03:22.000Z</time>
      </trkpt>
      <trkpt lat="43.50165" lon="6.93243">
        <ele>177.80000305176</ele>
        <time>2013-12-27T11:03:23.000Z</time>
      </trkpt>
      <trkpt lat="43.50175" lon="6.93255">
        <ele>173</ele>
        <time>2013-12-27T11:03:27.000Z</time>
      </trkpt>
      <trkpt lat="43.50178" lon="6.9326">
        <ele>171</ele>
        <time>2013-12-27T11:03:30.000Z</time>
      </trkpt>
      <trkpt lat="43.50178" lon="6.93262">
        <ele>170.39999389648</ele>
        <time>2013-12-27T11:03:31.000Z</time>
      </trkpt>
      <trkpt lat="43.50184" lon="6.93269">
        <ele>167.19999694824</ele>
        <time>2013-12-27T11:03:36.000Z</time>
      </trkpt>
      <trkpt lat="43.5019" lon="6.93279">
        <ele>164</ele>
        <time>2013-12-27T11:03:40.000Z</time>
      </trkpt>
      <trkpt lat="43.50197" lon="6.93292">
        <ele>160.19999694824</ele>
        <time>2013-12-27T11:03:45.000Z</time>
      </trkpt>
      <trkpt lat="43.50205" lon="6.93295">
        <ele>158</ele>
        <time>2013-12-27T11:03:49.000Z</time>
      </trkpt>
      <trkpt lat="43.5021" lon="6.933">
        <ele>156.39999389648</ele>
        <time>2013-12-27T11:03:53.000Z</time>
      </trkpt>
      <trkpt lat="43.50214" lon="6.93301">
        <ele>155.80000305176</ele>
        <time>2013-12-27T11:03:56.000Z</time>
      </trkpt>
      <trkpt lat="43.50215" lon="6.93301">
        <ele>155.60000610352</ele>
        <time>2013-12-27T11:03:57.000Z</time>
      </trkpt>
      <trkpt lat="43.50216" lon="6.93306">
        <ele>154.80000305176</ele>
        <time>2013-12-27T11:04:02.000Z</time>
      </trkpt>
      <trkpt lat="43.5022" lon="6.93308">
        <ele>154</ele>
        <time>2013-12-27T11:04:06.000Z</time>
      </trkpt>
      <trkpt lat="43.50228" lon="6.93305">
        <ele>153</ele>
        <time>2013-12-27T11:04:11.000Z</time>
      </trkpt>
      <trkpt lat="43.50227" lon="6.93314">
        <ele>152.60000610352</ele>
        <time>2013-12-27T11:04:14.000Z</time>
      </trkpt>
      <trkpt lat="43.50224" lon="6.93327">
        <ele>152.39999389648</ele>
        <time>2013-12-27T11:04:19.000Z</time>
      </trkpt>
      <trkpt lat="43.50228" lon="6.93331">
        <ele>151.60000610352</ele>
        <time>2013-12-27T11:04:22.000Z</time>
      </trkpt>
      <trkpt lat="43.5024" lon="6.93336">
        <ele>150</ele>
        <time>2013-12-27T11:04:26.000Z</time>
      </trkpt>
      <trkpt lat="43.50242" lon="6.93336">
        <ele>149.80000305176</ele>
        <time>2013-12-27T11:04:27.000Z</time>
      </trkpt>
      <trkpt lat="43.50244" lon="6.93336">
        <ele>149.80000305176</ele>
        <time>2013-12-27T11:04:28.000Z</time>
      </trkpt>
      <trkpt lat="43.50249" lon="6.93333">
        <ele>150</ele>
        <time>2013-12-27T11:04:31.000Z</time>
      </trkpt>
      <trkpt lat="43.50253" lon="6.9334">
        <ele>147</ele>
        <time>2013-12-27T11:04:35.000Z</time>
      </trkpt>
      <trkpt lat="43.50251" lon="6.9335">
        <ele>145.19999694824</ele>
        <time>2013-12-27T11:04:40.000Z</time>
      </trkpt>
      <trkpt lat="43.50251" lon="6.93354">
        <ele>144.60000610352</ele>
        <time>2013-12-27T11:04:42.000Z</time>
      </trkpt>
      <trkpt lat="43.50253" lon="6.93355">
        <ele>143.39999389648</ele>
        <time>2013-12-27T11:04:44.000Z</time>
      </trkpt>
      <trkpt lat="43.50262" lon="6.93349">
        <ele>141.39999389648</ele>
        <time>2013-12-27T11:04:48.000Z</time>
      </trkpt>
      <trkpt lat="43.50271" lon="6.93347">
        <ele>138.60000610352</ele>
        <time>2013-12-27T11:04:52.000Z</time>
      </trkpt>
      <trkpt lat="43.50273" lon="6.93345">
        <ele>138.19999694824</ele>
        <time>2013-12-27T11:04:53.000Z</time>
      </trkpt>
      <trkpt lat="43.50275" lon="6.93344">
        <ele>137.39999389648</ele>
        <time>2013-12-27T11:04:54.000Z</time>
      </trkpt>
      <trkpt lat="43.50277" lon="6.93345">
        <ele>136.19999694824</ele>
        <time>2013-12-27T11:04:56.000Z</time>
      </trkpt>
      <trkpt lat="43.50279" lon="6.93348">
        <ele>135</ele>
        <time>2013-12-27T11:04:59.000Z</time>
      </trkpt>
      <trkpt lat="43.50284" lon="6.93344">
        <ele>134</ele>
        <time>2013-12-27T11:05:03.000Z</time>
      </trkpt>
      <trkpt lat="43.50285" lon="6.93342">
        <ele>133.60000610352</ele>
        <time>2013-12-27T11:05:04.000Z</time>
      </trkpt>
      <trkpt lat="43.50288" lon="6.9334">
        <ele>132.80000305176</ele>
        <time>2013-12-27T11:05:06.000Z</time>
      </trkpt>
      <trkpt lat="43.50289" lon="6.93343">
        <ele>132</ele>
        <time>2013-12-27T11:05:08.000Z</time>
      </trkpt>
      <trkpt lat="43.5029" lon="6.93351">
        <ele>130.39999389648</ele>
        <time>2013-12-27T11:05:10.000Z</time>
      </trkpt>
      <trkpt lat="43.50291" lon="6.93354">
        <ele>129.80000305176</ele>
        <time>2013-12-27T11:05:11.000Z</time>
      </trkpt>
      <trkpt lat="43.50294" lon="6.93359">
        <ele>128.39999389648</ele>
        <time>2013-12-27T11:05:13.000Z</time>
      </trkpt>
      <trkpt lat="43.50301" lon="6.93365">
        <ele>125.40000152588</ele>
        <time>2013-12-27T11:05:16.000Z</time>
      </trkpt>
      <trkpt lat="43.50306" lon="6.93373">
        <ele>123.19999694824</ele>
        <time>2013-12-27T11:05:20.000Z</time>
      </trkpt>
      <trkpt lat="43.5031" lon="6.93386">
        <ele>121.19999694824</ele>
        <time>2013-12-27T11:05:25.000Z</time>
      </trkpt>
      <trkpt lat="43.50323" lon="6.934">
        <ele>117.80000305176</ele>
        <time>2013-12-27T11:05:31.000Z</time>
      </trkpt>
      <trkpt lat="43.50334" lon="6.93417">
        <ele>115.59999847412</ele>
        <time>2013-12-27T11:05:36.000Z</time>
      </trkpt>
      <trkpt lat="43.50342" lon="6.93432">
        <ele>110</ele>
        <time>2013-12-27T11:05:41.000Z</time>
      </trkpt>
      <trkpt lat="43.50357" lon="6.93447">
        <ele>104.19999694824</ele>
        <time>2013-12-27T11:05:46.000Z</time>
      </trkpt>
      <trkpt lat="43.50368" lon="6.93459">
        <ele>100.59999847412</ele>
        <time>2013-12-27T11:05:50.000Z</time>
      </trkpt>
      <trkpt lat="43.50375" lon="6.9348">
        <ele>97.800003051758</ele>
        <time>2013-12-27T11:05:54.000Z</time>
      </trkpt>
      <trkpt lat="43.5038" lon="6.93488">
        <ele>97</ele>
        <time>2013-12-27T11:05:57.000Z</time>
      </trkpt>
      <trkpt lat="43.50382" lon="6.93491">
        <ele>96.800003051758</ele>
        <time>2013-12-27T11:06:08.000Z</time>
      </trkpt>
      <trkpt lat="43.50383" lon="6.93489">
        <ele>97</ele>
        <time>2013-12-27T11:06:17.000Z</time>
      </trkpt>
      <trkpt lat="43.50381" lon="6.93485">
        <ele>97.199996948242</ele>
        <time>2013-12-27T11:06:24.000Z</time>
      </trkpt>
      <trkpt lat="43.5038" lon="6.93485">
        <ele>97.199996948242</ele>
        <time>2013-12-27T11:06:25.000Z</time>
      </trkpt>
      <trkpt lat="43.5038" lon="6.93486">
        <ele>97.199996948242</ele>
        <time>2013-12-27T11:06:29.000Z</time>
      </trkpt>
      <trkpt lat="43.50378" lon="6.93481">
        <ele>97.599998474121</ele>
        <time>2013-12-27T11:08:19.000Z</time>
      </trkpt>
      <trkpt lat="43.50376" lon="6.93479">
        <ele>97.800003051758</ele>
        <time>2013-12-27T11:09:11.000Z</time>
      </trkpt>
      <trkpt lat="43.50374" lon="6.93483">
        <ele>97.800003051758</ele>
        <time>2013-12-27T11:09:17.000Z</time>
      </trkpt>
      <trkpt lat="43.50375" lon="6.93479">
        <ele>98</ele>
        <time>2013-12-27T11:09:29.000Z</time>
      </trkpt>
      <trkpt lat="43.50377" lon="6.93478">
        <ele>98</ele>
        <time>2013-12-27T11:10:15.000Z</time>
      </trkpt>
      <trkpt lat="43.50376" lon="6.93477">
        <ele>98</ele>
        <time>2013-12-27T11:10:16.000Z</time>
      </trkpt>
      <trkpt lat="43.50371" lon="6.93473">
        <ele>98.800003051758</ele>
        <time>2013-12-27T11:10:21.000Z</time>
      </trkpt>
      <trkpt lat="43.5037" lon="6.93472">
        <ele>99</ele>
        <time>2013-12-27T11:10:22.000Z</time>
      </trkpt>
      <trkpt lat="43.50363" lon="6.93465">
        <ele>100.80000305176</ele>
        <time>2013-12-27T11:10:28.000Z</time>
      </trkpt>
      <trkpt lat="43.50352" lon="6.93457">
        <ele>103.59999847412</ele>
        <time>2013-12-27T11:10:35.000Z</time>
      </trkpt>
      <trkpt lat="43.5034" lon="6.93448">
        <ele>107.40000152588</ele>
        <time>2013-12-27T11:10:41.000Z</time>
      </trkpt>
      <trkpt lat="43.50331" lon="6.93439">
        <ele>111</ele>
        <time>2013-12-27T11:10:47.000Z</time>
      </trkpt>
      <trkpt lat="43.50322" lon="6.93433">
        <ele>114</ele>
        <time>2013-12-27T11:10:53.000Z</time>
      </trkpt>
      <trkpt lat="43.50313" lon="6.93426">
        <ele>116.80000305176</ele>
        <time>2013-12-27T11:10:59.000Z</time>
      </trkpt>
      <trkpt lat="43.50307" lon="6.93421">
        <ele>119</ele>
        <time>2013-12-27T11:11:03.000Z</time>
      </trkpt>
      <trkpt lat="43.50306" lon="6.9342">
        <ele>119.40000152588</ele>
        <time>2013-12-27T11:11:04.000Z</time>
      </trkpt>
      <trkpt lat="43.50302" lon="6.93418">
        <ele>120.59999847412</ele>
        <time>2013-12-27T11:11:07.000Z</time>
      </trkpt>
      <trkpt lat="43.50298" lon="6.93416">
        <ele>121.59999847412</ele>
        <time>2013-12-27T11:11:10.000Z</time>
      </trkpt>
      <trkpt lat="43.50288" lon="6.93413">
        <ele>123.40000152588</ele>
        <time>2013-12-27T11:11:16.000Z</time>
      </trkpt>
      <trkpt lat="43.50281" lon="6.93414">
        <ele>124.59999847412</ele>
        <time>2013-12-27T11:11:21.000Z</time>
      </trkpt>
      <trkpt lat="43.50268" lon="6.93416">
        <ele>126.19999694824</ele>
        <time>2013-12-27T11:11:28.000Z</time>
      </trkpt>
      <trkpt lat="43.50255" lon="6.93417">
        <ele>128</ele>
        <time>2013-12-27T11:11:36.000Z</time>
      </trkpt>
      <trkpt lat="43.50247" lon="6.93416">
        <ele>129.19999694824</ele>
        <time>2013-12-27T11:11:41.000Z</time>
      </trkpt>
      <trkpt lat="43.50245" lon="6.93415">
        <ele>129.60000610352</ele>
        <time>2013-12-27T11:11:43.000Z</time>
      </trkpt>
      <trkpt lat="43.50241" lon="6.93413">
        <ele>130.19999694824</ele>
        <time>2013-12-27T11:11:45.000Z</time>
      </trkpt>
      <trkpt lat="43.50237" lon="6.93413">
        <ele>130.39999389648</ele>
        <time>2013-12-27T11:11:47.000Z</time>
      </trkpt>
      <trkpt lat="43.50235" lon="6.93412">
        <ele>130.80000305176</ele>
        <time>2013-12-27T11:11:49.000Z</time>
      </trkpt>
      <trkpt lat="43.50233" lon="6.93411">
        <ele>131.19999694824</ele>
        <time>2013-12-27T11:11:51.000Z</time>
      </trkpt>
      <trkpt lat="43.50228" lon="6.93409">
        <ele>131.80000305176</ele>
        <time>2013-12-27T11:11:54.000Z</time>
      </trkpt>
      <trkpt lat="43.50227" lon="6.93408">
        <ele>132</ele>
        <time>2013-12-27T11:11:55.000Z</time>
      </trkpt>
      <trkpt lat="43.50225" lon="6.93408">
        <ele>132.39999389648</ele>
        <time>2013-12-27T11:11:57.000Z</time>
      </trkpt>
      <trkpt lat="43.5022" lon="6.93405">
        <ele>133.19999694824</ele>
        <time>2013-12-27T11:12:00.000Z</time>
      </trkpt>
      <trkpt lat="43.50214" lon="6.93402">
        <ele>134.19999694824</ele>
        <time>2013-12-27T11:12:03.000Z</time>
      </trkpt>
      <trkpt lat="43.50211" lon="6.93403">
        <ele>134.19999694824</ele>
        <time>2013-12-27T11:12:05.000Z</time>
      </trkpt>
      <trkpt lat="43.50209" lon="6.93402">
        <ele>134.39999389648</ele>
        <time>2013-12-27T11:12:07.000Z</time>
      </trkpt>
      <trkpt lat="43.50202" lon="6.93399">
        <ele>135.39999389648</ele>
        <time>2013-12-27T11:12:12.000Z</time>
      </trkpt>
      <trkpt lat="43.502" lon="6.93399">
        <ele>135.60000610352</ele>
        <time>2013-12-27T11:12:13.000Z</time>
      </trkpt>
      <trkpt lat="43.50193" lon="6.93397">
        <ele>136.60000610352</ele>
        <time>2013-12-27T11:12:18.000Z</time>
      </trkpt>
      <trkpt lat="43.50192" lon="6.93396">
        <ele>136.80000305176</ele>
        <time>2013-12-27T11:12:19.000Z</time>
      </trkpt>
      <trkpt lat="43.50185" lon="6.93394">
        <ele>137.80000305176</ele>
        <time>2013-12-27T11:12:23.000Z</time>
      </trkpt>
      <trkpt lat="43.50182" lon="6.93394">
        <ele>137.80000305176</ele>
        <time>2013-12-27T11:12:26.000Z</time>
      </trkpt>
      <trkpt lat="43.50178" lon="6.93393">
        <ele>138.39999389648</ele>
        <time>2013-12-27T11:12:30.000Z</time>
      </trkpt>
      <trkpt lat="43.50176" lon="6.93391">
        <ele>138.80000305176</ele>
        <time>2013-12-27T11:12:33.000Z</time>
      </trkpt>
      <trkpt lat="43.50175" lon="6.93391">
        <ele>139</ele>
        <time>2013-12-27T11:12:34.000Z</time>
      </trkpt>
      <trkpt lat="43.5017" lon="6.93389">
        <ele>139.80000305176</ele>
        <time>2013-12-27T11:12:39.000Z</time>
      </trkpt>
      <trkpt lat="43.50168" lon="6.93386">
        <ele>140.60000610352</ele>
        <time>2013-12-27T11:12:42.000Z</time>
      </trkpt>
      <trkpt lat="43.50164" lon="6.93384">
        <ele>140.80000305176</ele>
        <time>2013-12-27T11:12:46.000Z</time>
      </trkpt>
      <trkpt lat="43.50164" lon="6.93381">
        <ele>141.60000610352</ele>
        <time>2013-12-27T11:12:54.000Z</time>
      </trkpt>
      <trkpt lat="43.50156" lon="6.93374">
        <ele>142</ele>
        <time>2013-12-27T11:14:31.000Z</time>
      </trkpt>
      <trkpt lat="43.50151" lon="6.93368">
        <ele>142.60000610352</ele>
        <time>2013-12-27T11:15:07.000Z</time>
      </trkpt>
      <trkpt lat="43.50142" lon="6.93356">
        <ele>144.39999389648</ele>
        <time>2013-12-27T11:15:14.000Z</time>
      </trkpt>
      <trkpt lat="43.50131" lon="6.93343">
        <ele>146.60000610352</ele>
        <time>2013-12-27T11:15:19.000Z</time>
      </trkpt>
      <trkpt lat="43.50118" lon="6.9332">
        <ele>151.39999389648</ele>
        <time>2013-12-27T11:15:24.000Z</time>
      </trkpt>
      <trkpt lat="43.50107" lon="6.9331">
        <ele>152.80000305176</ele>
        <time>2013-12-27T11:15:28.000Z</time>
      </trkpt>
      <trkpt lat="43.50092" lon="6.93311">
        <ele>150</ele>
        <time>2013-12-27T11:15:33.000Z</time>
      </trkpt>
      <trkpt lat="43.50073" lon="6.93308">
        <ele>148.60000610352</ele>
        <time>2013-12-27T11:15:38.000Z</time>
      </trkpt>
      <trkpt lat="43.50053" lon="6.9331">
        <ele>145.60000610352</ele>
        <time>2013-12-27T11:15:44.000Z</time>
      </trkpt>
      <trkpt lat="43.50037" lon="6.933">
        <ele>146.60000610352</ele>
        <time>2013-12-27T11:15:48.000Z</time>
      </trkpt>
      <trkpt lat="43.5002" lon="6.93295">
        <ele>145.60000610352</ele>
        <time>2013-12-27T11:15:52.000Z</time>
      </trkpt>
      <trkpt lat="43.50008" lon="6.93289">
        <ele>145.39999389648</ele>
        <time>2013-12-27T11:15:55.000Z</time>
      </trkpt>
      <trkpt lat="43.50002" lon="6.93288">
        <ele>144.60000610352</ele>
        <time>2013-12-27T11:15:57.000Z</time>
      </trkpt>
      <trkpt lat="43.49997" lon="6.93286">
        <ele>144.19999694824</ele>
        <time>2013-12-27T11:15:59.000Z</time>
      </trkpt>
      <trkpt lat="43.4999" lon="6.93284">
        <ele>143.60000610352</ele>
        <time>2013-12-27T11:16:02.000Z</time>
      </trkpt>
      <trkpt lat="43.49982" lon="6.93277">
        <ele>143.39999389648</ele>
        <time>2013-12-27T11:16:06.000Z</time>
      </trkpt>
      <trkpt lat="43.4998" lon="6.93272">
        <ele>144</ele>
        <time>2013-12-27T11:16:08.000Z</time>
      </trkpt>
      <trkpt lat="43.49974" lon="6.93261">
        <ele>145.19999694824</ele>
        <time>2013-12-27T11:16:13.000Z</time>
      </trkpt>
      <trkpt lat="43.49972" lon="6.93253">
        <ele>146.19999694824</ele>
        <time>2013-12-27T11:16:17.000Z</time>
      </trkpt>
      <trkpt lat="43.49973" lon="6.93251">
        <ele>146.80000305176</ele>
        <time>2013-12-27T11:16:18.000Z</time>
      </trkpt>
      <trkpt lat="43.49976" lon="6.93242">
        <ele>148.39999389648</ele>
        <time>2013-12-27T11:16:23.000Z</time>
      </trkpt>
      <trkpt lat="43.49974" lon="6.93221">
        <ele>149.39999389648</ele>
        <time>2013-12-27T11:16:29.000Z</time>
      </trkpt>
      <trkpt lat="43.49972" lon="6.93194">
        <ele>150.60000610352</ele>
        <time>2013-12-27T11:16:35.000Z</time>
      </trkpt>
      <trkpt lat="43.49966" lon="6.93178">
        <ele>149.60000610352</ele>
        <time>2013-12-27T11:16:40.000Z</time>
      </trkpt>
      <trkpt lat="43.49962" lon="6.9317">
        <ele>148.39999389648</ele>
        <time>2013-12-27T11:16:44.000Z</time>
      </trkpt>
      <trkpt lat="43.49959" lon="6.93162">
        <ele>148</ele>
        <time>2013-12-27T11:16:49.000Z</time>
      </trkpt>
      <trkpt lat="43.49956" lon="6.93148">
        <ele>148.19999694824</ele>
        <time>2013-12-27T11:16:55.000Z</time>
      </trkpt>
      <trkpt lat="43.49949" lon="6.93137">
        <ele>146.19999694824</ele>
        <time>2013-12-27T11:16:59.000Z</time>
      </trkpt>
      <trkpt lat="43.49936" lon="6.93115">
        <ele>142</ele>
        <time>2013-12-27T11:17:04.000Z</time>
      </trkpt>
      <trkpt lat="43.49927" lon="6.93087">
        <ele>140</ele>
        <time>2013-12-27T11:17:09.000Z</time>
      </trkpt>
      <trkpt lat="43.49926" lon="6.93083">
        <ele>139.60000610352</ele>
        <time>2013-12-27T11:17:10.000Z</time>
      </trkpt>
      <trkpt lat="43.49921" lon="6.93072">
        <ele>138.19999694824</ele>
        <time>2013-12-27T11:17:13.000Z</time>
      </trkpt>
      <trkpt lat="43.49915" lon="6.93043">
        <ele>137.60000610352</ele>
        <time>2013-12-27T11:17:18.000Z</time>
      </trkpt>
      <trkpt lat="43.49909" lon="6.93022">
        <ele>137.19999694824</ele>
        <time>2013-12-27T11:17:21.000Z</time>
      </trkpt>
      <trkpt lat="43.49906" lon="6.93006">
        <ele>137.39999389648</ele>
        <time>2013-12-27T11:17:23.000Z</time>
      </trkpt>
      <trkpt lat="43.49897" lon="6.92956">
        <ele>140.19999694824</ele>
        <time>2013-12-27T11:17:30.000Z</time>
      </trkpt>
      <trkpt lat="43.49896" lon="6.92952">
        <ele>140.60000610352</ele>
        <time>2013-12-27T11:17:31.000Z</time>
      </trkpt>
      <trkpt lat="43.4989" lon="6.92942">
        <ele>140</ele>
        <time>2013-12-27T11:17:34.000Z</time>
      </trkpt>
      <trkpt lat="43.49881" lon="6.92928">
        <ele>138.60000610352</ele>
        <time>2013-12-27T11:17:37.000Z</time>
      </trkpt>
      <trkpt lat="43.49877" lon="6.92924">
        <ele>137.60000610352</ele>
        <time>2013-12-27T11:17:38.000Z</time>
      </trkpt>
      <trkpt lat="43.49865" lon="6.92909">
        <ele>136</ele>
        <time>2013-12-27T11:17:42.000Z</time>
      </trkpt>
      <trkpt lat="43.49859" lon="6.92901">
        <ele>135.19999694824</ele>
        <time>2013-12-27T11:17:44.000Z</time>
      </trkpt>
      <trkpt lat="43.49852" lon="6.92888">
        <ele>135.19999694824</ele>
        <time>2013-12-27T11:17:47.000Z</time>
      </trkpt>
      <trkpt lat="43.49844" lon="6.92873">
        <ele>134.80000305176</ele>
        <time>2013-12-27T11:17:51.000Z</time>
      </trkpt>
      <trkpt lat="43.49843" lon="6.92865">
        <ele>135.60000610352</ele>
        <time>2013-12-27T11:17:53.000Z</time>
      </trkpt>
      <trkpt lat="43.49841" lon="6.92851">
        <ele>137</ele>
        <time>2013-12-27T11:17:56.000Z</time>
      </trkpt>
      <trkpt lat="43.49836" lon="6.92836">
        <ele>137.60000610352</ele>
        <time>2013-12-27T11:18:01.000Z</time>
      </trkpt>
      <trkpt lat="43.49829" lon="6.92818">
        <ele>138.80000305176</ele>
        <time>2013-12-27T11:18:05.000Z</time>
      </trkpt>
      <trkpt lat="43.4982" lon="6.92801">
        <ele>140</ele>
        <time>2013-12-27T11:18:09.000Z</time>
      </trkpt>
      <trkpt lat="43.4981" lon="6.92786">
        <ele>140.19999694824</ele>
        <time>2013-12-27T11:18:13.000Z</time>
      </trkpt>
      <trkpt lat="43.498" lon="6.92768">
        <ele>140.60000610352</ele>
        <time>2013-12-27T11:18:17.000Z</time>
      </trkpt>
      <trkpt lat="43.49787" lon="6.92756">
        <ele>139</ele>
        <time>2013-12-27T11:18:21.000Z</time>
      </trkpt>
      <trkpt lat="43.49775" lon="6.92736">
        <ele>139</ele>
        <time>2013-12-27T11:18:27.000Z</time>
      </trkpt>
      <trkpt lat="43.49769" lon="6.92715">
        <ele>141</ele>
        <time>2013-12-27T11:18:33.000Z</time>
      </trkpt>
      <trkpt lat="43.49768" lon="6.92691">
        <ele>144.80000305176</ele>
        <time>2013-12-27T11:18:41.000Z</time>
      </trkpt>
      <trkpt lat="43.49766" lon="6.92686">
        <ele>145</ele>
        <time>2013-12-27T11:18:46.000Z</time>
      </trkpt>
      <trkpt lat="43.49758" lon="6.92678">
        <ele>143.80000305176</ele>
        <time>2013-12-27T11:21:06.000Z</time>
      </trkpt>
      <trkpt lat="43.4975" lon="6.92658">
        <ele>144.39999389648</ele>
        <time>2013-12-27T11:21:11.000Z</time>
      </trkpt>
      <trkpt lat="43.49747" lon="6.92638">
        <ele>146.60000610352</ele>
        <time>2013-12-27T11:21:15.000Z</time>
      </trkpt>
      <trkpt lat="43.49742" lon="6.92627">
        <ele>147.19999694824</ele>
        <time>2013-12-27T11:21:18.000Z</time>
      </trkpt>
      <trkpt lat="43.49739" lon="6.92626">
        <ele>146.80000305176</ele>
        <time>2013-12-27T11:21:19.000Z</time>
      </trkpt>
      <trkpt lat="43.49729" lon="6.92632">
        <ele>144.39999389648</ele>
        <time>2013-12-27T11:21:22.000Z</time>
      </trkpt>
      <trkpt lat="43.49726" lon="6.92635">
        <ele>143.39999389648</ele>
        <time>2013-12-27T11:21:23.000Z</time>
      </trkpt>
      <trkpt lat="43.49711" lon="6.92636">
        <ele>140.60000610352</ele>
        <time>2013-12-27T11:21:27.000Z</time>
      </trkpt>
      <trkpt lat="43.497" lon="6.9262">
        <ele>140.19999694824</ele>
        <time>2013-12-27T11:21:31.000Z</time>
      </trkpt>
      <trkpt lat="43.49698" lon="6.92616">
        <ele>140.19999694824</ele>
        <time>2013-12-27T11:21:32.000Z</time>
      </trkpt>
      <trkpt lat="43.49689" lon="6.92605">
        <ele>139.39999389648</ele>
        <time>2013-12-27T11:21:36.000Z</time>
      </trkpt>
      <trkpt lat="43.49674" lon="6.92596">
        <ele>136.80000305176</ele>
        <time>2013-12-27T11:21:41.000Z</time>
      </trkpt>
      <trkpt lat="43.49664" lon="6.92582">
        <ele>135.80000305176</ele>
        <time>2013-12-27T11:21:45.000Z</time>
      </trkpt>
      <trkpt lat="43.49649" lon="6.92552">
        <ele>136.80000305176</ele>
        <time>2013-12-27T11:21:52.000Z</time>
      </trkpt>
      <trkpt lat="43.4964" lon="6.92531">
        <ele>137.80000305176</ele>
        <time>2013-12-27T11:21:57.000Z</time>
      </trkpt>
      <trkpt lat="43.4963" lon="6.92504">
        <ele>139.39999389648</ele>
        <time>2013-12-27T11:22:02.000Z</time>
      </trkpt>
      <trkpt lat="43.49622" lon="6.92475">
        <ele>140.60000610352</ele>
        <time>2013-12-27T11:22:07.000Z</time>
      </trkpt>
      <trkpt lat="43.49621" lon="6.92471">
        <ele>141</ele>
        <time>2013-12-27T11:22:08.000Z</time>
      </trkpt>
      <trkpt lat="43.4962" lon="6.9246">
        <ele>141.80000305176</ele>
        <time>2013-12-27T11:22:11.000Z</time>
      </trkpt>
      <trkpt lat="43.49621" lon="6.92454">
        <ele>142.19999694824</ele>
        <time>2013-12-27T11:22:13.000Z</time>
      </trkpt>
      <trkpt lat="43.49621" lon="6.92451">
        <ele>142.60000610352</ele>
        <time>2013-12-27T11:22:15.000Z</time>
      </trkpt>
      <trkpt lat="43.49617" lon="6.92444">
        <ele>142.80000305176</ele>
        <time>2013-12-27T11:22:20.000Z</time>
      </trkpt>
      <trkpt lat="43.49609" lon="6.92443">
        <ele>142.39999389648</ele>
        <time>2013-12-27T11:22:24.000Z</time>
      </trkpt>
      <trkpt lat="43.49605" lon="6.92444">
        <ele>142.19999694824</ele>
        <time>2013-12-27T11:22:27.000Z</time>
      </trkpt>
      <trkpt lat="43.49604" lon="6.92443">
        <ele>142.19999694824</ele>
        <time>2013-12-27T11:22:29.000Z</time>
      </trkpt>
      <trkpt lat="43.49604" lon="6.92442">
        <ele>142.19999694824</ele>
        <time>2013-12-27T11:22:38.000Z</time>
      </trkpt>
      <trkpt lat="43.49604" lon="6.92442">
        <ele>142.19999694824</ele>
        <time>2013-12-27T11:22:44.000Z</time>
      </trkpt>
      <trkpt lat="43.49601" lon="6.92442">
        <ele>142</ele>
        <time>2013-12-27T11:22:50.000Z</time>
      </trkpt>
      <trkpt lat="43.49594" lon="6.92446">
        <ele>141.19999694824</ele>
        <time>2013-12-27T11:23:19.000Z</time>
      </trkpt>
      <trkpt lat="43.49589" lon="6.92446">
        <ele>140.80000305176</ele>
        <time>2013-12-27T11:23:24.000Z</time>
      </trkpt>
      <trkpt lat="43.49588" lon="6.92447">
        <ele>140.60000610352</ele>
        <time>2013-12-27T11:23:26.000Z</time>
      </trkpt>
      <trkpt lat="43.49588" lon="6.92448">
        <ele>140.60000610352</ele>
        <time>2013-12-27T11:23:27.000Z</time>
      </trkpt>
      <trkpt lat="43.49586" lon="6.92458">
        <ele>139.19999694824</ele>
        <time>2013-12-27T11:23:32.000Z</time>
      </trkpt>
      <trkpt lat="43.49584" lon="6.92476">
        <ele>137</ele>
        <time>2013-12-27T11:23:38.000Z</time>
      </trkpt>
      <trkpt lat="43.4958" lon="6.925">
        <ele>135</ele>
        <time>2013-12-27T11:23:43.000Z</time>
      </trkpt>
      <trkpt lat="43.49574" lon="6.92526">
        <ele>133.80000305176</ele>
        <time>2013-12-27T11:23:49.000Z</time>
      </trkpt>
      <trkpt lat="43.49569" lon="6.92544">
        <ele>133.19999694824</ele>
        <time>2013-12-27T11:23:55.000Z</time>
      </trkpt>
      <trkpt lat="43.49564" lon="6.92559">
        <ele>132.60000610352</ele>
        <time>2013-12-27T11:24:01.000Z</time>
      </trkpt>
      <trkpt lat="43.4956" lon="6.92579">
        <ele>131.19999694824</ele>
        <time>2013-12-27T11:24:07.000Z</time>
      </trkpt>
      <trkpt lat="43.49551" lon="6.92596">
        <ele>131</ele>
        <time>2013-12-27T11:24:12.000Z</time>
      </trkpt>
      <trkpt lat="43.49538" lon="6.9261">
        <ele>131.39999389648</ele>
        <time>2013-12-27T11:24:17.000Z</time>
      </trkpt>
      <trkpt lat="43.49522" lon="6.92626">
        <ele>131.60000610352</ele>
        <time>2013-12-27T11:24:22.000Z</time>
      </trkpt>
      <trkpt lat="43.49513" lon="6.92641">
        <ele>130.80000305176</ele>
        <time>2013-12-27T11:24:26.000Z</time>
      </trkpt>
      <trkpt lat="43.495" lon="6.92657">
        <ele>129.80000305176</ele>
        <time>2013-12-27T11:24:31.000Z</time>
      </trkpt>
      <trkpt lat="43.49496" lon="6.92661">
        <ele>128</ele>
        <time>2013-12-27T11:24:33.000Z</time>
      </trkpt>
      <trkpt lat="43.49496" lon="6.92663">
        <ele>127.80000305176</ele>
        <time>2013-12-27T11:24:34.000Z</time>
      </trkpt>
      <trkpt lat="43.49497" lon="6.9267">
        <ele>127</ele>
        <time>2013-12-27T11:24:37.000Z</time>
      </trkpt>
      <trkpt lat="43.49498" lon="6.92672">
        <ele>127</ele>
        <time>2013-12-27T11:24:38.000Z</time>
      </trkpt>
      <trkpt lat="43.49495" lon="6.92685">
        <ele>125.19999694824</ele>
        <time>2013-12-27T11:24:42.000Z</time>
      </trkpt>
      <trkpt lat="43.49494" lon="6.92705">
        <ele>123.19999694824</ele>
        <time>2013-12-27T11:24:45.000Z</time>
      </trkpt>
      <trkpt lat="43.49494" lon="6.92714">
        <ele>122.19999694824</ele>
        <time>2013-12-27T11:24:46.000Z</time>
      </trkpt>
      <trkpt lat="43.4949" lon="6.9275">
        <ele>118.19999694824</ele>
        <time>2013-12-27T11:24:50.000Z</time>
      </trkpt>
      <trkpt lat="43.49489" lon="6.92758">
        <ele>118.59999847412</ele>
        <time>2013-12-27T11:24:52.000Z</time>
      </trkpt>
      <trkpt lat="43.49489" lon="6.92765">
        <ele>119</ele>
        <time>2013-12-27T11:24:54.000Z</time>
      </trkpt>
      <trkpt lat="43.49493" lon="6.9277">
        <ele>119.80000305176</ele>
        <time>2013-12-27T11:24:59.000Z</time>
      </trkpt>
      <trkpt lat="43.49492" lon="6.92775">
        <ele>120</ele>
        <time>2013-12-27T11:30:48.000Z</time>
      </trkpt>
      <trkpt lat="43.49499" lon="6.92786">
        <ele>121.19999694824</ele>
        <time>2013-12-27T11:30:52.000Z</time>
      </trkpt>
      <trkpt lat="43.49506" lon="6.92805">
        <ele>120.80000305176</ele>
        <time>2013-12-27T11:30:56.000Z</time>
      </trkpt>
      <trkpt lat="43.49509" lon="6.92822">
        <ele>120.40000152588</ele>
        <time>2013-12-27T11:30:59.000Z</time>
      </trkpt>
      <trkpt lat="43.49523" lon="6.92835">
        <ele>117.40000152588</ele>
        <time>2013-12-27T11:31:03.000Z</time>
      </trkpt>
      <trkpt lat="43.49539" lon="6.92846">
        <ele>114.40000152588</ele>
        <time>2013-12-27T11:31:07.000Z</time>
      </trkpt>
      <trkpt lat="43.49543" lon="6.92854">
        <ele>114.40000152588</ele>
        <time>2013-12-27T11:31:09.000Z</time>
      </trkpt>
      <trkpt lat="43.49545" lon="6.92857">
        <ele>114.19999694824</ele>
        <time>2013-12-27T11:31:10.000Z</time>
      </trkpt>
      <trkpt lat="43.49547" lon="6.92861">
        <ele>113.80000305176</ele>
        <time>2013-12-27T11:31:11.000Z</time>
      </trkpt>
      <trkpt lat="43.4955" lon="6.92864">
        <ele>113.40000152588</ele>
        <time>2013-12-27T11:31:12.000Z</time>
      </trkpt>
      <trkpt lat="43.49564" lon="6.92873">
        <ele>110.19999694824</ele>
        <time>2013-12-27T11:31:16.000Z</time>
      </trkpt>
      <trkpt lat="43.49579" lon="6.92885">
        <ele>106.40000152588</ele>
        <time>2013-12-27T11:31:20.000Z</time>
      </trkpt>
      <trkpt lat="43.49585" lon="6.92898">
        <ele>105.59999847412</ele>
        <time>2013-12-27T11:31:23.000Z</time>
      </trkpt>
      <trkpt lat="43.496" lon="6.92923">
        <ele>104.40000152588</ele>
        <time>2013-12-27T11:31:30.000Z</time>
      </trkpt>
      <trkpt lat="43.49612" lon="6.92938">
        <ele>103.19999694824</ele>
        <time>2013-12-27T11:31:35.000Z</time>
      </trkpt>
      <trkpt lat="43.4963" lon="6.92949">
        <ele>100.19999694824</ele>
        <time>2013-12-27T11:31:40.000Z</time>
      </trkpt>
      <trkpt lat="43.49648" lon="6.92952">
        <ele>96.800003051758</ele>
        <time>2013-12-27T11:31:44.000Z</time>
      </trkpt>
      <trkpt lat="43.49659" lon="6.92961">
        <ele>94.599998474121</ele>
        <time>2013-12-27T11:31:48.000Z</time>
      </trkpt>
      <trkpt lat="43.49672" lon="6.92972">
        <ele>93.199996948242</ele>
        <time>2013-12-27T11:31:52.000Z</time>
      </trkpt>
      <trkpt lat="43.49681" lon="6.92986">
        <ele>93</ele>
        <time>2013-12-27T11:31:56.000Z</time>
      </trkpt>
      <trkpt lat="43.49693" lon="6.93001">
        <ele>92.400001525879</ele>
        <time>2013-12-27T11:32:02.000Z</time>
      </trkpt>
      <trkpt lat="43.49698" lon="6.93001">
        <ele>92.199996948242</ele>
        <time>2013-12-27T11:32:06.000Z</time>
      </trkpt>
      <trkpt lat="43.49701" lon="6.93013">
        <ele>91.400001525879</ele>
        <time>2013-12-27T11:33:20.000Z</time>
      </trkpt>
      <trkpt lat="43.49706" lon="6.93025">
        <ele>90.400001525879</ele>
        <time>2013-12-27T11:33:24.000Z</time>
      </trkpt>
      <trkpt lat="43.49706" lon="6.93027">
        <ele>90.199996948242</ele>
        <time>2013-12-27T11:33:25.000Z</time>
      </trkpt>
      <trkpt lat="43.4971" lon="6.93042">
        <ele>88.800003051758</ele>
        <time>2013-12-27T11:33:29.000Z</time>
      </trkpt>
      <trkpt lat="43.4971" lon="6.93048">
        <ele>88.400001525879</ele>
        <time>2013-12-27T11:33:30.000Z</time>
      </trkpt>
      <trkpt lat="43.49706" lon="6.93075">
        <ele>86.800003051758</ele>
        <time>2013-12-27T11:33:34.000Z</time>
      </trkpt>
      <trkpt lat="43.49701" lon="6.93096">
        <ele>85.800003051758</ele>
        <time>2013-12-27T11:33:37.000Z</time>
      </trkpt>
      <trkpt lat="43.49699" lon="6.93105">
        <ele>85.400001525879</ele>
        <time>2013-12-27T11:33:38.000Z</time>
      </trkpt>
      <trkpt lat="43.49696" lon="6.93114">
        <ele>84.800003051758</ele>
        <time>2013-12-27T11:33:39.000Z</time>
      </trkpt>
      <trkpt lat="43.49688" lon="6.93133">
        <ele>83.599998474121</ele>
        <time>2013-12-27T11:33:41.000Z</time>
      </trkpt>
      <trkpt lat="43.49685" lon="6.93143">
        <ele>82.599998474121</ele>
        <time>2013-12-27T11:33:42.000Z</time>
      </trkpt>
      <trkpt lat="43.49676" lon="6.93168">
        <ele>80</ele>
        <time>2013-12-27T11:33:45.000Z</time>
      </trkpt>
      <trkpt lat="43.49663" lon="6.93185">
        <ele>80.400001525879</ele>
        <time>2013-12-27T11:33:49.000Z</time>
      </trkpt>
      <trkpt lat="43.49664" lon="6.93192">
        <ele>79.800003051758</ele>
        <time>2013-12-27T11:33:52.000Z</time>
      </trkpt>
      <trkpt lat="43.49665" lon="6.93195">
        <ele>79.199996948242</ele>
        <time>2013-12-27T11:33:56.000Z</time>
      </trkpt>
      <trkpt lat="43.49666" lon="6.93202">
        <ele>78.400001525879</ele>
        <time>2013-12-27T11:34:01.000Z</time>
      </trkpt>
      <trkpt lat="43.49667" lon="6.93206">
        <ele>78.199996948242</ele>
        <time>2013-12-27T11:34:03.000Z</time>
      </trkpt>
      <trkpt lat="43.49668" lon="6.93209">
        <ele>78</ele>
        <time>2013-12-27T11:34:06.000Z</time>
      </trkpt>
      <trkpt lat="43.49668" lon="6.93215">
        <ele>77.800003051758</ele>
        <time>2013-12-27T11:34:10.000Z</time>
      </trkpt>
      <trkpt lat="43.49669" lon="6.93216">
        <ele>77.800003051758</ele>
        <time>2013-12-27T11:34:11.000Z</time>
      </trkpt>
      <trkpt lat="43.49669" lon="6.93223">
        <ele>77.400001525879</ele>
        <time>2013-12-27T11:34:14.000Z</time>
      </trkpt>
      <trkpt lat="43.49669" lon="6.93227">
        <ele>77.400001525879</ele>
        <time>2013-12-27T11:34:16.000Z</time>
      </trkpt>
      <trkpt lat="43.49669" lon="6.93234">
        <ele>77</ele>
        <time>2013-12-27T11:34:20.000Z</time>
      </trkpt>
      <trkpt lat="43.49669" lon="6.93234">
        <ele>77</ele>
        <time>2013-12-27T11:34:21.000Z</time>
      </trkpt>
      <trkpt lat="43.49669" lon="6.93236">
        <ele>77</ele>
        <time>2013-12-27T11:34:22.000Z</time>
      </trkpt>
      <trkpt lat="43.4967" lon="6.93243">
        <ele>76.800003051758</ele>
        <time>2013-12-27T11:34:27.000Z</time>
      </trkpt>
      <trkpt lat="43.4967" lon="6.93252">
        <ele>76.400001525879</ele>
        <time>2013-12-27T11:34:34.000Z</time>
      </trkpt>
      <trkpt lat="43.4967" lon="6.93267">
        <ele>75</ele>
        <time>2013-12-27T11:34:39.000Z</time>
      </trkpt>
      <trkpt lat="43.49664" lon="6.93285">
        <ele>74</ele>
        <time>2013-12-27T11:34:43.000Z</time>
      </trkpt>
      <trkpt lat="43.49657" lon="6.93314">
        <ele>73.599998474121</ele>
        <time>2013-12-27T11:34:48.000Z</time>
      </trkpt>
      <trkpt lat="43.49656" lon="6.93327">
        <ele>73</ele>
        <time>2013-12-27T11:34:50.000Z</time>
      </trkpt>
      <trkpt lat="43.49655" lon="6.93337">
        <ele>73</ele>
        <time>2013-12-27T11:34:52.000Z</time>
      </trkpt>
      <trkpt lat="43.49662" lon="6.93351">
        <ele>70.599998474121</ele>
        <time>2013-12-27T11:34:56.000Z</time>
      </trkpt>
      <trkpt lat="43.4967" lon="6.93364">
        <ele>69</ele>
        <time>2013-12-27T11:35:00.000Z</time>
      </trkpt>
      <trkpt lat="43.49672" lon="6.93369">
        <ele>69.199996948242</ele>
        <time>2013-12-27T11:35:01.000Z</time>
      </trkpt>
      <trkpt lat="43.49676" lon="6.93388">
        <ele>69.199996948242</ele>
        <time>2013-12-27T11:35:05.000Z</time>
      </trkpt>
      <trkpt lat="43.49688" lon="6.93411">
        <ele>69.599998474121</ele>
        <time>2013-12-27T11:35:10.000Z</time>
      </trkpt>
      <trkpt lat="43.49692" lon="6.93422">
        <ele>69.400001525879</ele>
        <time>2013-12-27T11:35:12.000Z</time>
      </trkpt>
      <trkpt lat="43.49695" lon="6.93434">
        <ele>69</ele>
        <time>2013-12-27T11:35:14.000Z</time>
      </trkpt>
      <trkpt lat="43.49698" lon="6.93452">
        <ele>68</ele>
        <time>2013-12-27T11:35:17.000Z</time>
      </trkpt>
      <trkpt lat="43.497" lon="6.93469">
        <ele>67</ele>
        <time>2013-12-27T11:35:20.000Z</time>
      </trkpt>
      <trkpt lat="43.49702" lon="6.93475">
        <ele>66.599998474121</ele>
        <time>2013-12-27T11:35:21.000Z</time>
      </trkpt>
      <trkpt lat="43.49705" lon="6.93494">
        <ele>65.199996948242</ele>
        <time>2013-12-27T11:35:24.000Z</time>
      </trkpt>
      <trkpt lat="43.49704" lon="6.93503">
        <ele>64.800003051758</ele>
        <time>2013-12-27T11:35:26.000Z</time>
      </trkpt>
      <trkpt lat="43.49693" lon="6.93516">
        <ele>65.800003051758</ele>
        <time>2013-12-27T11:35:30.000Z</time>
      </trkpt>
      <trkpt lat="43.49689" lon="6.93519">
        <ele>66</ele>
        <time>2013-12-27T11:35:31.000Z</time>
      </trkpt>
      <trkpt lat="43.4968" lon="6.93528">
        <ele>66.599998474121</ele>
        <time>2013-12-27T11:35:35.000Z</time>
      </trkpt>
      <trkpt lat="43.4967" lon="6.93545">
        <ele>67</ele>
        <time>2013-12-27T11:35:39.000Z</time>
      </trkpt>
      <trkpt lat="43.49666" lon="6.93558">
        <ele>67</ele>
        <time>2013-12-27T11:35:43.000Z</time>
      </trkpt>
      <trkpt lat="43.49674" lon="6.9356">
        <ele>66.199996948242</ele>
        <time>2013-12-27T11:35:47.000Z</time>
      </trkpt>
      <trkpt lat="43.49677" lon="6.93555">
        <ele>66</ele>
        <time>2013-12-27T11:35:49.000Z</time>
      </trkpt>
      <trkpt lat="43.49683" lon="6.9355">
        <ele>65.599998474121</ele>
        <time>2013-12-27T11:35:51.000Z</time>
      </trkpt>
      <trkpt lat="43.49694" lon="6.93535">
        <ele>65.199996948242</ele>
        <time>2013-12-27T11:35:56.000Z</time>
      </trkpt>
      <trkpt lat="43.49707" lon="6.93535">
        <ele>63.799999237061</ele>
        <time>2013-12-27T11:36:00.000Z</time>
      </trkpt>
      <trkpt lat="43.4972" lon="6.93543">
        <ele>62.400001525879</ele>
        <time>2013-12-27T11:36:04.000Z</time>
      </trkpt>
      <trkpt lat="43.49737" lon="6.9355">
        <ele>60.599998474121</ele>
        <time>2013-12-27T11:36:09.000Z</time>
      </trkpt>
      <trkpt lat="43.49756" lon="6.9356">
        <ele>58.799999237061</ele>
        <time>2013-12-27T11:36:14.000Z</time>
      </trkpt>
      <trkpt lat="43.49776" lon="6.9357">
        <ele>56.599998474121</ele>
        <time>2013-12-27T11:36:19.000Z</time>
      </trkpt>
      <trkpt lat="43.49799" lon="6.9358">
        <ele>52.400001525879</ele>
        <time>2013-12-27T11:36:23.000Z</time>
      </trkpt>
      <trkpt lat="43.49807" lon="6.93585">
        <ele>51</ele>
        <time>2013-12-27T11:36:25.000Z</time>
      </trkpt>
      <trkpt lat="43.4981" lon="6.93587">
        <ele>51</ele>
        <time>2013-12-27T11:36:26.000Z</time>
      </trkpt>
      <trkpt lat="43.49813" lon="6.93592">
        <ele>51.200000762939</ele>
        <time>2013-12-27T11:36:28.000Z</time>
      </trkpt>
      <trkpt lat="43.49822" lon="6.936">
        <ele>50.799999237061</ele>
        <time>2013-12-27T11:36:31.000Z</time>
      </trkpt>
      <trkpt lat="43.4983" lon="6.93614">
        <ele>51</ele>
        <time>2013-12-27T11:36:35.000Z</time>
      </trkpt>
      <trkpt lat="43.49842" lon="6.93626">
        <ele>51.200000762939</ele>
        <time>2013-12-27T11:36:39.000Z</time>
      </trkpt>
      <trkpt lat="43.49856" lon="6.93629">
        <ele>50.599998474121</ele>
        <time>2013-12-27T11:36:43.000Z</time>
      </trkpt>
      <trkpt lat="43.49879" lon="6.93626">
        <ele>49.400001525879</ele>
        <time>2013-12-27T11:36:49.000Z</time>
      </trkpt>
      <trkpt lat="43.4989" lon="6.93633">
        <ele>48.799999237061</ele>
        <time>2013-12-27T11:36:53.000Z</time>
      </trkpt>
      <trkpt lat="43.49893" lon="6.93634">
        <ele>48.799999237061</ele>
        <time>2013-12-27T11:36:54.000Z</time>
      </trkpt>
      <trkpt lat="43.49898" lon="6.93634">
        <ele>48.400001525879</ele>
        <time>2013-12-27T11:36:57.000Z</time>
      </trkpt>
      <trkpt lat="43.49895" lon="6.93634">
        <ele>48.599998474121</ele>
        <time>2013-12-27T11:37:05.000Z</time>
      </trkpt>
      <trkpt lat="43.49896" lon="6.93634">
        <ele>48.599998474121</ele>
        <time>2013-12-27T11:37:16.000Z</time>
      </trkpt>
      <trkpt lat="43.49893" lon="6.93634">
        <ele>48.599998474121</ele>
        <time>2013-12-27T11:37:21.000Z</time>
      </trkpt>
      <trkpt lat="43.49901" lon="6.93635">
        <ele>48.200000762939</ele>
        <time>2013-12-27T11:37:29.000Z</time>
      </trkpt>
      <trkpt lat="43.49912" lon="6.93629">
        <ele>47.599998474121</ele>
        <time>2013-12-27T11:37:34.000Z</time>
      </trkpt>
      <trkpt lat="43.49913" lon="6.93631">
        <ele>47.400001525879</ele>
        <time>2013-12-27T11:37:37.000Z</time>
      </trkpt>
      <trkpt lat="43.49915" lon="6.93631">
        <ele>47.400001525879</ele>
        <time>2013-12-27T11:37:50.000Z</time>
      </trkpt>
      <trkpt lat="43.49917" lon="6.93641">
        <ele>47</ele>
        <time>2013-12-27T11:38:56.000Z</time>
      </trkpt>
      <trkpt lat="43.49926" lon="6.93648">
        <ele>46.200000762939</ele>
        <time>2013-12-27T11:39:00.000Z</time>
      </trkpt>
      <trkpt lat="43.49929" lon="6.9365">
        <ele>46</ele>
        <time>2013-12-27T11:39:01.000Z</time>
      </trkpt>
      <trkpt lat="43.49944" lon="6.93657">
        <ele>44.599998474121</ele>
        <time>2013-12-27T11:39:05.000Z</time>
      </trkpt>
      <trkpt lat="43.49964" lon="6.93665">
        <ele>42.400001525879</ele>
        <time>2013-12-27T11:39:10.000Z</time>
      </trkpt>
      <trkpt lat="43.49984" lon="6.93677">
        <ele>42.400001525879</ele>
        <time>2013-12-27T11:39:15.000Z</time>
      </trkpt>
      <trkpt lat="43.50002" lon="6.9369">
        <ele>43.599998474121</ele>
        <time>2013-12-27T11:39:19.000Z</time>
      </trkpt>
      <trkpt lat="43.50007" lon="6.93697">
        <ele>45</ele>
        <time>2013-12-27T11:39:22.000Z</time>
      </trkpt>
      <trkpt lat="43.50008" lon="6.93699">
        <ele>45.200000762939</ele>
        <time>2013-12-27T11:39:23.000Z</time>
      </trkpt>
      <trkpt lat="43.5001" lon="6.93699">
        <ele>45.400001525879</ele>
        <time>2013-12-27T11:39:24.000Z</time>
      </trkpt>
      <trkpt lat="43.50015" lon="6.93701">
        <ele>45.599998474121</ele>
        <time>2013-12-27T11:39:27.000Z</time>
      </trkpt>
      <trkpt lat="43.50026" lon="6.93701">
        <ele>45.799999237061</ele>
        <time>2013-12-27T11:39:33.000Z</time>
      </trkpt>
      <trkpt lat="43.50039" lon="6.93697">
        <ele>45.400001525879</ele>
        <time>2013-12-27T11:39:38.000Z</time>
      </trkpt>
      <trkpt lat="43.50055" lon="6.93692">
        <ele>45.200000762939</ele>
        <time>2013-12-27T11:39:43.000Z</time>
      </trkpt>
      <trkpt lat="43.50075" lon="6.93694">
        <ele>45.799999237061</ele>
        <time>2013-12-27T11:39:47.000Z</time>
      </trkpt>
      <trkpt lat="43.50098" lon="6.93706">
        <ele>47.200000762939</ele>
        <time>2013-12-27T11:39:52.000Z</time>
      </trkpt>
      <trkpt lat="43.50104" lon="6.93706">
        <ele>47.599998474121</ele>
        <time>2013-12-27T11:39:53.000Z</time>
      </trkpt>
      <trkpt lat="43.50132" lon="6.93712">
        <ele>49</ele>
        <time>2013-12-27T11:39:59.000Z</time>
      </trkpt>
      <trkpt lat="43.50143" lon="6.93712">
        <ele>49.599998474121</ele>
        <time>2013-12-27T11:40:01.000Z</time>
      </trkpt>
      <trkpt lat="43.50164" lon="6.93707">
        <ele>51</ele>
        <time>2013-12-27T11:40:05.000Z</time>
      </trkpt>
      <trkpt lat="43.5018" lon="6.93706">
        <ele>50.599998474121</ele>
        <time>2013-12-27T11:40:09.000Z</time>
      </trkpt>
      <trkpt lat="43.50189" lon="6.93708">
        <ele>50.200000762939</ele>
        <time>2013-12-27T11:40:11.000Z</time>
      </trkpt>
      <trkpt lat="43.50196" lon="6.93712">
        <ele>49.799999237061</ele>
        <time>2013-12-27T11:40:13.000Z</time>
      </trkpt>
      <trkpt lat="43.502" lon="6.93713">
        <ele>49.599998474121</ele>
        <time>2013-12-27T11:40:14.000Z</time>
      </trkpt>
      <trkpt lat="43.50209" lon="6.9371">
        <ele>49.400001525879</ele>
        <time>2013-12-27T11:40:16.000Z</time>
      </trkpt>
      <trkpt lat="43.5024" lon="6.937">
        <ele>48.599998474121</ele>
        <time>2013-12-27T11:40:23.000Z</time>
      </trkpt>
      <trkpt lat="43.50249" lon="6.93696">
        <ele>48.400001525879</ele>
        <time>2013-12-27T11:40:25.000Z</time>
      </trkpt>
      <trkpt lat="43.50264" lon="6.93686">
        <ele>46.799999237061</ele>
        <time>2013-12-27T11:40:29.000Z</time>
      </trkpt>
      <trkpt lat="43.50271" lon="6.93683">
        <ele>46</ele>
        <time>2013-12-27T11:40:31.000Z</time>
      </trkpt>
      <trkpt lat="43.50281" lon="6.93683">
        <ele>44.599998474121</ele>
        <time>2013-12-27T11:40:34.000Z</time>
      </trkpt>
      <trkpt lat="43.50292" lon="6.93693">
        <ele>43.200000762939</ele>
        <time>2013-12-27T11:40:38.000Z</time>
      </trkpt>
      <trkpt lat="43.50309" lon="6.93704">
        <ele>41</ele>
        <time>2013-12-27T11:40:42.000Z</time>
      </trkpt>
      <trkpt lat="43.50313" lon="6.93714">
        <ele>40.400001525879</ele>
        <time>2013-12-27T11:40:45.000Z</time>
      </trkpt>
      <trkpt lat="43.50325" lon="6.9372">
        <ele>39</ele>
        <time>2013-12-27T11:40:50.000Z</time>
      </trkpt>
      <trkpt lat="43.50332" lon="6.93726">
        <ele>38.200000762939</ele>
        <time>2013-12-27T11:40:55.000Z</time>
      </trkpt>
      <trkpt lat="43.50335" lon="6.93736">
        <ele>38</ele>
        <time>2013-12-27T11:41:02.000Z</time>
      </trkpt>
      <trkpt lat="43.50335" lon="6.93737">
        <ele>37.799999237061</ele>
        <time>2013-12-27T11:41:03.000Z</time>
      </trkpt>
      <trkpt lat="43.50337" lon="6.93735">
        <ele>37.799999237061</ele>
        <time>2013-12-27T11:41:07.000Z</time>
      </trkpt>
      <trkpt lat="43.50337" lon="6.93729">
        <ele>37.799999237061</ele>
        <time>2013-12-27T11:41:12.000Z</time>
      </trkpt>
      <trkpt lat="43.50338" lon="6.93729">
        <ele>37.799999237061</ele>
        <time>2013-12-27T11:41:14.000Z</time>
      </trkpt>
      <trkpt lat="43.50338" lon="6.93729">
        <ele>37.799999237061</ele>
        <time>2013-12-27T11:41:16.000Z</time>
      </trkpt>
      <trkpt lat="43.50338" lon="6.93731">
        <ele>37.799999237061</ele>
        <time>2013-12-27T11:41:25.000Z</time>
      </trkpt>
      <trkpt lat="43.50332" lon="6.93743">
        <ele>38.200000762939</ele>
        <time>2013-12-27T11:44:03.000Z</time>
      </trkpt>
      <trkpt lat="43.5034" lon="6.93746">
        <ele>37.400001525879</ele>
        <time>2013-12-27T11:44:07.000Z</time>
      </trkpt>
      <trkpt lat="43.50356" lon="6.93753">
        <ele>36.200000762939</ele>
        <time>2013-12-27T11:44:13.000Z</time>
      </trkpt>
      <trkpt lat="43.50379" lon="6.93768">
        <ele>35</ele>
        <time>2013-12-27T11:44:19.000Z</time>
      </trkpt>
      <trkpt lat="43.50402" lon="6.93797">
        <ele>32</ele>
        <time>2013-12-27T11:44:26.000Z</time>
      </trkpt>
      <trkpt lat="43.50409" lon="6.93806">
        <ele>30</ele>
        <time>2013-12-27T11:44:28.000Z</time>
      </trkpt>
      <trkpt lat="43.50423" lon="6.93828">
        <ele>26.60000038147</ele>
        <time>2013-12-27T11:44:32.000Z</time>
      </trkpt>
      <trkpt lat="43.50427" lon="6.93832">
        <ele>26</ele>
        <time>2013-12-27T11:44:33.000Z</time>
      </trkpt>
      <trkpt lat="43.50444" lon="6.93842">
        <ele>25.200000762939</ele>
        <time>2013-12-27T11:44:36.000Z</time>
      </trkpt>
      <trkpt lat="43.50473" lon="6.9386">
        <ele>22.60000038147</ele>
        <time>2013-12-27T11:44:42.000Z</time>
      </trkpt>
      <trkpt lat="43.505" lon="6.9388">
        <ele>18</ele>
        <time>2013-12-27T11:44:48.000Z</time>
      </trkpt>
      <trkpt lat="43.50527" lon="6.93898">
        <ele>16.60000038147</ele>
        <time>2013-12-27T11:44:55.000Z</time>
      </trkpt>
      <trkpt lat="43.5055" lon="6.93913">
        <ele>14</ele>
        <time>2013-12-27T11:45:02.000Z</time>
      </trkpt>
      <trkpt lat="43.50567" lon="6.93937">
        <ele>13</ele>
        <time>2013-12-27T11:45:09.000Z</time>
      </trkpt>
      <trkpt lat="43.50584" lon="6.93962">
        <ele>11</ele>
        <time>2013-12-27T11:45:15.000Z</time>
      </trkpt>
      <trkpt lat="43.50601" lon="6.93973">
        <ele>11.39999961853</ele>
        <time>2013-12-27T11:45:20.000Z</time>
      </trkpt>
      <trkpt lat="43.50613" lon="6.93984">
        <ele>11.39999961853</ele>
        <time>2013-12-27T11:45:24.000Z</time>
      </trkpt>
      <trkpt lat="43.50613" lon="6.93988">
        <ele>11.199999809265</ele>
        <time>2013-12-27T11:45:25.000Z</time>
      </trkpt>
      <trkpt lat="43.50621" lon="6.94011">
        <ele>11.60000038147</ele>
        <time>2013-12-27T11:45:30.000Z</time>
      </trkpt>
      <trkpt lat="43.50635" lon="6.94035">
        <ele>12.39999961853</ele>
        <time>2013-12-27T11:45:36.000Z</time>
      </trkpt>
      <trkpt lat="43.50663" lon="6.94074">
        <ele>9</ele>
        <time>2013-12-27T11:45:46.000Z</time>
      </trkpt>
      <trkpt lat="43.50688" lon="6.94111">
        <ele>8.8000001907349</ele>
        <time>2013-12-27T11:45:55.000Z</time>
      </trkpt>
      <trkpt lat="43.50714" lon="6.94152">
        <ele>7.5999999046326</ele>
        <time>2013-12-27T11:46:05.000Z</time>
      </trkpt>
      <trkpt lat="43.50732" lon="6.94171">
        <ele>6</ele>
        <time>2013-12-27T11:46:11.000Z</time>
      </trkpt>
      <trkpt lat="43.5074" lon="6.94166">
        <ele>5.5999999046326</ele>
        <time>2013-12-27T11:46:14.000Z</time>
      </trkpt>
      <trkpt lat="43.5075" lon="6.94141">
        <ele>6.8000001907349</ele>
        <time>2013-12-27T11:46:20.000Z</time>
      </trkpt>
      <trkpt lat="43.50758" lon="6.94111">
        <ele>9</ele>
        <time>2013-12-27T11:46:27.000Z</time>
      </trkpt>
      <trkpt lat="43.50766" lon="6.94077">
        <ele>11</ele>
        <time>2013-12-27T11:46:35.000Z</time>
      </trkpt>
      <trkpt lat="43.50771" lon="6.94045">
        <ele>11.60000038147</ele>
        <time>2013-12-27T11:46:42.000Z</time>
      </trkpt>
      <trkpt lat="43.50774" lon="6.94013">
        <ele>12.199999809265</ele>
        <time>2013-12-27T11:46:48.000Z</time>
      </trkpt>
      <trkpt lat="43.50777" lon="6.9399">
        <ele>13.199999809265</ele>
        <time>2013-12-27T11:46:53.000Z</time>
      </trkpt>
      <trkpt lat="43.50779" lon="6.93951">
        <ele>16.799999237061</ele>
        <time>2013-12-27T11:47:01.000Z</time>
      </trkpt>
      <trkpt lat="43.50785" lon="6.93906">
        <ele>19</ele>
        <time>2013-12-27T11:47:10.000Z</time>
      </trkpt>
      <trkpt lat="43.50793" lon="6.93879">
        <ele>17.799999237061</ele>
        <time>2013-12-27T11:47:15.000Z</time>
      </trkpt>
      <trkpt lat="43.50805" lon="6.93847">
        <ele>16</ele>
        <time>2013-12-27T11:47:20.000Z</time>
      </trkpt>
      <trkpt lat="43.50817" lon="6.93795">
        <ele>15.39999961853</ele>
        <time>2013-12-27T11:47:27.000Z</time>
      </trkpt>
      <trkpt lat="43.5082" lon="6.93789">
        <ele>15</ele>
        <time>2013-12-27T11:47:28.000Z</time>
      </trkpt>
      <trkpt lat="43.50839" lon="6.93772">
        <ele>13.199999809265</ele>
        <time>2013-12-27T11:47:32.000Z</time>
      </trkpt>
      <trkpt lat="43.50845" lon="6.93769">
        <ele>13.199999809265</ele>
        <time>2013-12-27T11:47:33.000Z</time>
      </trkpt>
      <trkpt lat="43.50877" lon="6.93747">
        <ele>13.199999809265</ele>
        <time>2013-12-27T11:47:40.000Z</time>
      </trkpt>
      <trkpt lat="43.5091" lon="6.93727">
        <ele>16.200000762939</ele>
        <time>2013-12-27T11:47:48.000Z</time>
      </trkpt>
      <trkpt lat="43.50932" lon="6.93724">
        <ele>15.60000038147</ele>
        <time>2013-12-27T11:47:53.000Z</time>
      </trkpt>
      <trkpt lat="43.50937" lon="6.93724">
        <ele>15.199999809265</ele>
        <time>2013-12-27T11:47:54.000Z</time>
      </trkpt>
      <trkpt lat="43.50958" lon="6.93722">
        <ele>13.800000190735</ele>
        <time>2013-12-27T11:47:59.000Z</time>
      </trkpt>
      <trkpt lat="43.50962" lon="6.93721">
        <ele>13.800000190735</ele>
        <time>2013-12-27T11:48:00.000Z</time>
      </trkpt>
      <trkpt lat="43.50974" lon="6.93716">
        <ele>14</ele>
        <time>2013-12-27T11:48:03.000Z</time>
      </trkpt>
      <trkpt lat="43.50985" lon="6.93708">
        <ele>14.800000190735</ele>
        <time>2013-12-27T11:48:06.000Z</time>
      </trkpt>
      <trkpt lat="43.51016" lon="6.93692">
        <ele>17.60000038147</ele>
        <time>2013-12-27T11:48:14.000Z</time>
      </trkpt>
      <trkpt lat="43.51048" lon="6.9368">
        <ele>21</ele>
        <time>2013-12-27T11:48:22.000Z</time>
      </trkpt>
      <trkpt lat="43.51052" lon="6.9368">
        <ele>21.200000762939</ele>
        <time>2013-12-27T11:48:23.000Z</time>
      </trkpt>
      <trkpt lat="43.51067" lon="6.93691">
        <ele>19.39999961853</ele>
        <time>2013-12-27T11:48:27.000Z</time>
      </trkpt>
      <trkpt lat="43.51071" lon="6.93696">
        <ele>18.799999237061</ele>
        <time>2013-12-27T11:48:28.000Z</time>
      </trkpt>
      <trkpt lat="43.51097" lon="6.93721">
        <ele>16.200000762939</ele>
        <time>2013-12-27T11:48:36.000Z</time>
      </trkpt>
      <trkpt lat="43.51129" lon="6.93737">
        <ele>16.200000762939</ele>
        <time>2013-12-27T11:48:45.000Z</time>
      </trkpt>
      <trkpt lat="43.51158" lon="6.93742">
        <ele>17.200000762939</ele>
        <time>2013-12-27T11:48:53.000Z</time>
      </trkpt>
      <trkpt lat="43.51191" lon="6.93742">
        <ele>17.200000762939</ele>
        <time>2013-12-27T11:49:02.000Z</time>
      </trkpt>
      <trkpt lat="43.51208" lon="6.93736">
        <ele>18.200000762939</ele>
        <time>2013-12-27T11:49:07.000Z</time>
      </trkpt>
      <trkpt lat="43.51224" lon="6.93714">
        <ele>23</ele>
        <time>2013-12-27T11:49:13.000Z</time>
      </trkpt>
      <trkpt lat="43.5124" lon="6.937">
        <ele>26</ele>
        <time>2013-12-27T11:49:18.000Z</time>
      </trkpt>
      <trkpt lat="43.5126" lon="6.93701">
        <ele>25.200000762939</ele>
        <time>2013-12-27T11:49:23.000Z</time>
      </trkpt>
      <trkpt lat="43.5129" lon="6.93706">
        <ele>23.799999237061</ele>
        <time>2013-12-27T11:49:30.000Z</time>
      </trkpt>
      <trkpt lat="43.51324" lon="6.93712">
        <ele>22</ele>
        <time>2013-12-27T11:49:37.000Z</time>
      </trkpt>
      <trkpt lat="43.51342" lon="6.9371">
        <ele>22</ele>
        <time>2013-12-27T11:49:41.000Z</time>
      </trkpt>
      <trkpt lat="43.5135" lon="6.93707">
        <ele>22.39999961853</ele>
        <time>2013-12-27T11:49:43.000Z</time>
      </trkpt>
      <trkpt lat="43.51386" lon="6.93689">
        <ele>23.799999237061</ele>
        <time>2013-12-27T11:49:51.000Z</time>
      </trkpt>
      <trkpt lat="43.514" lon="6.93688">
        <ele>23</ele>
        <time>2013-12-27T11:49:55.000Z</time>
      </trkpt>
      <trkpt lat="43.51403" lon="6.93689">
        <ele>22.60000038147</ele>
        <time>2013-12-27T11:49:56.000Z</time>
      </trkpt>
      <trkpt lat="43.51429" lon="6.93693">
        <ele>21.39999961853</ele>
        <time>2013-12-27T11:50:02.000Z</time>
      </trkpt>
      <trkpt lat="43.51472" lon="6.937">
        <ele>22.200000762939</ele>
        <time>2013-12-27T11:50:12.000Z</time>
      </trkpt>
      <trkpt lat="43.51489" lon="6.93705">
        <ele>22.200000762939</ele>
        <time>2013-12-27T11:50:16.000Z</time>
      </trkpt>
      <trkpt lat="43.51497" lon="6.93711">
        <ele>21.39999961853</ele>
        <time>2013-12-27T11:50:18.000Z</time>
      </trkpt>
      <trkpt lat="43.51503" lon="6.93719">
        <ele>20.60000038147</ele>
        <time>2013-12-27T11:50:20.000Z</time>
      </trkpt>
      <trkpt lat="43.51516" lon="6.93735">
        <ele>19.799999237061</ele>
        <time>2013-12-27T11:50:24.000Z</time>
      </trkpt>
      <trkpt lat="43.51541" lon="6.93754">
        <ele>19.39999961853</ele>
        <time>2013-12-27T11:50:31.000Z</time>
      </trkpt>
      <trkpt lat="43.51571" lon="6.93773">
        <ele>19.60000038147</ele>
        <time>2013-12-27T11:50:39.000Z</time>
      </trkpt>
      <trkpt lat="43.51591" lon="6.93781">
        <ele>18.60000038147</ele>
        <time>2013-12-27T11:50:44.000Z</time>
      </trkpt>
      <trkpt lat="43.51598" lon="6.93781">
        <ele>17.799999237061</ele>
        <time>2013-12-27T11:50:46.000Z</time>
      </trkpt>
      <trkpt lat="43.51613" lon="6.93773">
        <ele>17.39999961853</ele>
        <time>2013-12-27T11:50:50.000Z</time>
      </trkpt>
      <trkpt lat="43.51621" lon="6.93763">
        <ele>18</ele>
        <time>2013-12-27T11:50:53.000Z</time>
      </trkpt>
      <trkpt lat="43.51626" lon="6.93754">
        <ele>18.799999237061</ele>
        <time>2013-12-27T11:50:55.000Z</time>
      </trkpt>
      <trkpt lat="43.51646" lon="6.93717">
        <ele>22</ele>
        <time>2013-12-27T11:51:03.000Z</time>
      </trkpt>
      <trkpt lat="43.51657" lon="6.93699">
        <ele>22.39999961853</ele>
        <time>2013-12-27T11:51:06.000Z</time>
      </trkpt>
      <trkpt lat="43.51662" lon="6.93685">
        <ele>23</ele>
        <time>2013-12-27T11:51:08.000Z</time>
      </trkpt>
      <trkpt lat="43.51676" lon="6.93636">
        <ele>26.799999237061</ele>
        <time>2013-12-27T11:51:14.000Z</time>
      </trkpt>
      <trkpt lat="43.51696" lon="6.93593">
        <ele>27</ele>
        <time>2013-12-27T11:51:19.000Z</time>
      </trkpt>
      <trkpt lat="43.51723" lon="6.93544">
        <ele>24.200000762939</ele>
        <time>2013-12-27T11:51:25.000Z</time>
      </trkpt>
      <trkpt lat="43.51744" lon="6.93531">
        <ele>17.39999961853</ele>
        <time>2013-12-27T11:51:28.000Z</time>
      </trkpt>
      <trkpt lat="43.51766" lon="6.93537">
        <ele>21</ele>
        <time>2013-12-27T11:51:31.000Z</time>
      </trkpt>
      <trkpt lat="43.51779" lon="6.93558">
        <ele>24.799999237061</ele>
        <time>2013-12-27T11:51:34.000Z</time>
      </trkpt>
      <trkpt lat="43.5178" lon="6.93591">
        <ele>24.39999961853</ele>
        <time>2013-12-27T11:51:38.000Z</time>
      </trkpt>
      <trkpt lat="43.5178" lon="6.93599">
        <ele>24.200000762939</ele>
        <time>2013-12-27T11:51:39.000Z</time>
      </trkpt>
      <trkpt lat="43.51777" lon="6.93633">
        <ele>22.799999237061</ele>
        <time>2013-12-27T11:51:44.000Z</time>
      </trkpt>
      <trkpt lat="43.51774" lon="6.93681">
        <ele>20.60000038147</ele>
        <time>2013-12-27T11:51:52.000Z</time>
      </trkpt>
      <trkpt lat="43.51777" lon="6.93705">
        <ele>21.39999961853</ele>
        <time>2013-12-27T11:51:58.000Z</time>
      </trkpt>
      <trkpt lat="43.51784" lon="6.93729">
        <ele>23.799999237061</ele>
        <time>2013-12-27T11:52:04.000Z</time>
      </trkpt>
      <trkpt lat="43.51787" lon="6.93756">
        <ele>24.39999961853</ele>
        <time>2013-12-27T11:52:10.000Z</time>
      </trkpt>
      <trkpt lat="43.51788" lon="6.93785">
        <ele>23.60000038147</ele>
        <time>2013-12-27T11:52:17.000Z</time>
      </trkpt>
      <trkpt lat="43.51792" lon="6.93813">
        <ele>24</ele>
        <time>2013-12-27T11:52:24.000Z</time>
      </trkpt>
      <trkpt lat="43.51799" lon="6.93848">
        <ele>25.200000762939</ele>
        <time>2013-12-27T11:52:33.000Z</time>
      </trkpt>
      <trkpt lat="43.51809" lon="6.9387">
        <ele>27.200000762939</ele>
        <time>2013-12-27T11:52:40.000Z</time>
      </trkpt>
      <trkpt lat="43.51822" lon="6.93885">
        <ele>30.200000762939</ele>
        <time>2013-12-27T11:52:47.000Z</time>
      </trkpt>
      <trkpt lat="43.51837" lon="6.93908">
        <ele>32</ele>
        <time>2013-12-27T11:52:55.000Z</time>
      </trkpt>
      <trkpt lat="43.51851" lon="6.93938">
        <ele>30.200000762939</ele>
        <time>2013-12-27T11:53:04.000Z</time>
      </trkpt>
      <trkpt lat="43.51866" lon="6.93958">
        <ele>30</ele>
        <time>2013-12-27T11:53:12.000Z</time>
      </trkpt>
      <trkpt lat="43.51884" lon="6.93968">
        <ele>32.799999237061</ele>
        <time>2013-12-27T11:53:19.000Z</time>
      </trkpt>
      <trkpt lat="43.51902" lon="6.93976">
        <ele>35.599998474121</ele>
        <time>2013-12-27T11:53:26.000Z</time>
      </trkpt>
      <trkpt lat="43.51921" lon="6.93989">
        <ele>36.799999237061</ele>
        <time>2013-12-27T11:53:33.000Z</time>
      </trkpt>
      <trkpt lat="43.51952" lon="6.94009">
        <ele>33.400001525879</ele>
        <time>2013-12-27T11:53:41.000Z</time>
      </trkpt>
      <trkpt lat="43.5199" lon="6.94029">
        <ele>30.799999237061</ele>
        <time>2013-12-27T11:53:48.000Z</time>
      </trkpt>
      <trkpt lat="43.52038" lon="6.94044">
        <ele>27</ele>
        <time>2013-12-27T11:53:55.000Z</time>
      </trkpt>
      <trkpt lat="43.52062" lon="6.94048">
        <ele>25.39999961853</ele>
        <time>2013-12-27T11:53:58.000Z</time>
      </trkpt>
      <trkpt lat="43.52078" lon="6.94043">
        <ele>26.39999961853</ele>
        <time>2013-12-27T11:54:00.000Z</time>
      </trkpt>
      <trkpt lat="43.52101" lon="6.94027">
        <ele>27.39999961853</ele>
        <time>2013-12-27T11:54:03.000Z</time>
      </trkpt>
      <trkpt lat="43.52109" lon="6.94021">
        <ele>27.39999961853</ele>
        <time>2013-12-27T11:54:04.000Z</time>
      </trkpt>
      <trkpt lat="43.52131" lon="6.94007">
        <ele>26</ele>
        <time>2013-12-27T11:54:07.000Z</time>
      </trkpt>
      <trkpt lat="43.52147" lon="6.94005">
        <ele>23.39999961853</ele>
        <time>2013-12-27T11:54:09.000Z</time>
      </trkpt>
      <trkpt lat="43.52166" lon="6.94005">
        <ele>19.60000038147</ele>
        <time>2013-12-27T11:54:11.000Z</time>
      </trkpt>
      <trkpt lat="43.52184" lon="6.94012">
        <ele>20</ele>
        <time>2013-12-27T11:54:13.000Z</time>
      </trkpt>
      <trkpt lat="43.52203" lon="6.94023">
        <ele>20.200000762939</ele>
        <time>2013-12-27T11:54:15.000Z</time>
      </trkpt>
      <trkpt lat="43.52221" lon="6.94034">
        <ele>20.200000762939</ele>
        <time>2013-12-27T11:54:17.000Z</time>
      </trkpt>
      <trkpt lat="43.5227" lon="6.9407">
        <ele>18.39999961853</ele>
        <time>2013-12-27T11:54:23.000Z</time>
      </trkpt>
      <trkpt lat="43.52276" lon="6.94078">
        <ele>17.60000038147</ele>
        <time>2013-12-27T11:54:24.000Z</time>
      </trkpt>
      <trkpt lat="43.52288" lon="6.94097">
        <ele>16</ele>
        <time>2013-12-27T11:54:26.000Z</time>
      </trkpt>
      <trkpt lat="43.52294" lon="6.94116">
        <ele>14.60000038147</ele>
        <time>2013-12-27T11:54:28.000Z</time>
      </trkpt>
      <trkpt lat="43.52297" lon="6.94124">
        <ele>14.199999809265</ele>
        <time>2013-12-27T11:54:29.000Z</time>
      </trkpt>
      <trkpt lat="43.52305" lon="6.94137">
        <ele>13.60000038147</ele>
        <time>2013-12-27T11:54:31.000Z</time>
      </trkpt>
      <trkpt lat="43.52315" lon="6.94144">
        <ele>13.39999961853</ele>
        <time>2013-12-27T11:54:33.000Z</time>
      </trkpt>
      <trkpt lat="43.52327" lon="6.94146">
        <ele>13.800000190735</ele>
        <time>2013-12-27T11:54:35.000Z</time>
      </trkpt>
      <trkpt lat="43.52341" lon="6.94149">
        <ele>13.800000190735</ele>
        <time>2013-12-27T11:54:37.000Z</time>
      </trkpt>
      <trkpt lat="43.52355" lon="6.94154">
        <ele>13.39999961853</ele>
        <time>2013-12-27T11:54:39.000Z</time>
      </trkpt>
      <trkpt lat="43.52368" lon="6.94165">
        <ele>12.60000038147</ele>
        <time>2013-12-27T11:54:41.000Z</time>
      </trkpt>
      <trkpt lat="43.5238" lon="6.94188">
        <ele>11.60000038147</ele>
        <time>2013-12-27T11:54:44.000Z</time>
      </trkpt>
      <trkpt lat="43.52385" lon="6.94197">
        <ele>11.199999809265</ele>
        <time>2013-12-27T11:54:45.000Z</time>
      </trkpt>
      <trkpt lat="43.52409" lon="6.94243">
        <ele>9.1999998092651</ele>
        <time>2013-12-27T11:54:50.000Z</time>
      </trkpt>
      <trkpt lat="43.52437" lon="6.94302">
        <ele>6.5999999046326</ele>
        <time>2013-12-27T11:54:56.000Z</time>
      </trkpt>
      <trkpt lat="43.52444" lon="6.94321">
        <ele>6</ele>
        <time>2013-12-27T11:54:58.000Z</time>
      </trkpt>
      <trkpt lat="43.5245" lon="6.94338">
        <ele>5.5999999046326</ele>
        <time>2013-12-27T11:55:00.000Z</time>
      </trkpt>
      <trkpt lat="43.52467" lon="6.94362">
        <ele>5.1999998092651</ele>
        <time>2013-12-27T11:55:04.000Z</time>
      </trkpt>
      <trkpt lat="43.5248" lon="6.94376">
        <ele>5.1999998092651</ele>
        <time>2013-12-27T11:55:07.000Z</time>
      </trkpt>
      <trkpt lat="43.52499" lon="6.94392">
        <ele>5.5999999046326</ele>
        <time>2013-12-27T11:55:11.000Z</time>
      </trkpt>
      <trkpt lat="43.52535" lon="6.94426">
        <ele>5</ele>
        <time>2013-12-27T11:55:20.000Z</time>
      </trkpt>
      <trkpt lat="43.52567" lon="6.94455">
        <ele>4.1999998092651</ele>
        <time>2013-12-27T11:55:29.000Z</time>
      </trkpt>
      <trkpt lat="43.52593" lon="6.94478">
        <ele>3.7999999523163</ele>
        <time>2013-12-27T11:55:37.000Z</time>
      </trkpt>
      <trkpt lat="43.52603" lon="6.94489">
        <ele>3.5999999046326</ele>
        <time>2013-12-27T11:55:40.000Z</time>
      </trkpt>
      <trkpt lat="43.52616" lon="6.94502">
        <ele>3.4000000953674</ele>
        <time>2013-12-27T11:55:44.000Z</time>
      </trkpt>
      <trkpt lat="43.52645" lon="6.94522">
        <ele>3.4000000953674</ele>
        <time>2013-12-27T11:55:52.000Z</time>
      </trkpt>
      <trkpt lat="43.52669" lon="6.94529">
        <ele>3.5999999046326</ele>
        <time>2013-12-27T11:55:58.000Z</time>
      </trkpt>
      <trkpt lat="43.52681" lon="6.94535">
        <ele>3.5999999046326</ele>
        <time>2013-12-27T11:56:01.000Z</time>
      </trkpt>
      <trkpt lat="43.52688" lon="6.94541">
        <ele>3.5999999046326</ele>
        <time>2013-12-27T11:56:03.000Z</time>
      </trkpt>
      <trkpt lat="43.52722" lon="6.94567">
        <ele>3.2000000476837</ele>
        <time>2013-12-27T11:56:11.000Z</time>
      </trkpt>
      <trkpt lat="43.52729" lon="6.94575">
        <ele>3.2000000476837</ele>
        <time>2013-12-27T11:56:13.000Z</time>
      </trkpt>
      <trkpt lat="43.52743" lon="6.94594">
        <ele>3</ele>
        <time>2013-12-27T11:56:17.000Z</time>
      </trkpt>
      <trkpt lat="43.52759" lon="6.94613">
        <ele>3.2000000476837</ele>
        <time>2013-12-27T11:56:22.000Z</time>
      </trkpt>
      <trkpt lat="43.52763" lon="6.94616">
        <ele>3.2000000476837</ele>
        <time>2013-12-27T11:56:23.000Z</time>
      </trkpt>
      <trkpt lat="43.52776" lon="6.94624">
        <ele>3.5999999046326</ele>
        <time>2013-12-27T11:56:27.000Z</time>
      </trkpt>
      <trkpt lat="43.52795" lon="6.94636">
        <ele>4.1999998092651</ele>
        <time>2013-12-27T11:56:34.000Z</time>
      </trkpt>
      <trkpt lat="43.5281" lon="6.94648">
        <ele>4.8000001907349</ele>
        <time>2013-12-27T11:56:40.000Z</time>
      </trkpt>
      <trkpt lat="43.52824" lon="6.9466">
        <ele>5.5999999046326</ele>
        <time>2013-12-27T11:56:46.000Z</time>
      </trkpt>
      <trkpt lat="43.52837" lon="6.9467">
        <ele>6</ele>
        <time>2013-12-27T11:56:50.000Z</time>
      </trkpt>
      <trkpt lat="43.52862" lon="6.94683">
        <ele>6.4000000953674</ele>
        <time>2013-12-27T11:56:56.000Z</time>
      </trkpt>
      <trkpt lat="43.52879" lon="6.94692">
        <ele>6.4000000953674</ele>
        <time>2013-12-27T11:57:00.000Z</time>
      </trkpt>
      <trkpt lat="43.52887" lon="6.94696">
        <ele>6.4000000953674</ele>
        <time>2013-12-27T11:57:02.000Z</time>
      </trkpt>
      <trkpt lat="43.52916" lon="6.94713">
        <ele>6.5999999046326</ele>
        <time>2013-12-27T11:57:09.000Z</time>
      </trkpt>
      <trkpt lat="43.52952" lon="6.94726">
        <ele>6.5999999046326</ele>
        <time>2013-12-27T11:57:17.000Z</time>
      </trkpt>
      <trkpt lat="43.52984" lon="6.9473">
        <ele>6.5999999046326</ele>
        <time>2013-12-27T11:57:24.000Z</time>
      </trkpt>
      <trkpt lat="43.53013" lon="6.94737">
        <ele>6.1999998092651</ele>
        <time>2013-12-27T11:57:30.000Z</time>
      </trkpt>
      <trkpt lat="43.5305" lon="6.94753">
        <ele>4.5999999046326</ele>
        <time>2013-12-27T11:57:38.000Z</time>
      </trkpt>
      <trkpt lat="43.53103" lon="6.94775">
        <ele>3.4000000953674</ele>
        <time>2013-12-27T11:57:49.000Z</time>
      </trkpt>
      <trkpt lat="43.53149" lon="6.948">
        <ele>4</ele>
        <time>2013-12-27T11:57:59.000Z</time>
      </trkpt>
      <trkpt lat="43.53156" lon="6.94808">
        <ele>4.4000000953674</ele>
        <time>2013-12-27T11:58:01.000Z</time>
      </trkpt>
      <trkpt lat="43.53163" lon="6.94822">
        <ele>4.5999999046326</ele>
        <time>2013-12-27T11:58:04.000Z</time>
      </trkpt>
      <trkpt lat="43.53165" lon="6.94841">
        <ele>4.8000001907349</ele>
        <time>2013-12-27T11:58:09.000Z</time>
      </trkpt>
      <trkpt lat="43.53165" lon="6.94842">
        <ele>4.8000001907349</ele>
        <time>2013-12-27T11:58:11.000Z</time>
      </trkpt>
      <trkpt lat="43.53165" lon="6.94842">
        <ele>4.8000001907349</ele>
        <time>2013-12-27T11:58:13.000Z</time>
      </trkpt>
      <trkpt lat="43.53171" lon="6.94852">
        <ele>4.8000001907349</ele>
        <time>2013-12-27T12:04:25.000Z</time>
      </trkpt>
      <trkpt lat="43.53173" lon="6.94853">
        <ele>4.8000001907349</ele>
        <time>2013-12-27T12:04:26.000Z</time>
      </trkpt>
      <trkpt lat="43.53185" lon="6.94861">
        <ele>5</ele>
        <time>2013-12-27T12:04:30.000Z</time>
      </trkpt>
      <trkpt lat="43.53195" lon="6.94875">
        <ele>4.8000001907349</ele>
        <time>2013-12-27T12:04:33.000Z</time>
      </trkpt>
      <trkpt lat="43.53199" lon="6.9488">
        <ele>4.8000001907349</ele>
        <time>2013-12-27T12:04:34.000Z</time>
      </trkpt>
      <trkpt lat="43.53225" lon="6.94905">
        <ele>4.8000001907349</ele>
        <time>2013-12-27T12:04:39.000Z</time>
      </trkpt>
      <trkpt lat="43.53261" lon="6.94936">
        <ele>4.5999999046326</ele>
        <time>2013-12-27T12:04:45.000Z</time>
      </trkpt>
      <trkpt lat="43.53302" lon="6.94975">
        <ele>3.7999999523163</ele>
        <time>2013-12-27T12:04:52.000Z</time>
      </trkpt>
      <trkpt lat="43.53349" lon="6.95019">
        <ele>3.4000000953674</ele>
        <time>2013-12-27T12:05:00.000Z</time>
      </trkpt>
      <trkpt lat="43.53378" lon="6.95049">
        <ele>3.5999999046326</ele>
        <time>2013-12-27T12:05:06.000Z</time>
      </trkpt>
      <trkpt lat="43.53393" lon="6.95064">
        <ele>3.4000000953674</ele>
        <time>2013-12-27T12:05:10.000Z</time>
      </trkpt>
      <trkpt lat="43.53403" lon="6.95072">
        <ele>3.4000000953674</ele>
        <time>2013-12-27T12:05:12.000Z</time>
      </trkpt>
      <trkpt lat="43.5343" lon="6.95101">
        <ele>2.5999999046326</ele>
        <time>2013-12-27T12:05:17.000Z</time>
      </trkpt>
      <trkpt lat="43.53476" lon="6.95152">
        <ele>2.4000000953674</ele>
        <time>2013-12-27T12:05:25.000Z</time>
      </trkpt>
      <trkpt lat="43.53522" lon="6.95201">
        <ele>4.1999998092651</ele>
        <time>2013-12-27T12:05:33.000Z</time>
      </trkpt>
      <trkpt lat="43.53528" lon="6.95208">
        <ele>4.4000000953674</ele>
        <time>2013-12-27T12:05:34.000Z</time>
      </trkpt>
      <trkpt lat="43.53571" lon="6.95261">
        <ele>3.7999999523163</ele>
        <time>2013-12-27T12:05:42.000Z</time>
      </trkpt>
      <trkpt lat="43.53582" lon="6.95273">
        <ele>3.4000000953674</ele>
        <time>2013-12-27T12:05:44.000Z</time>
      </trkpt>
      <trkpt lat="43.53625" lon="6.95325">
        <ele>2.5999999046326</ele>
        <time>2013-12-27T12:05:52.000Z</time>
      </trkpt>
      <trkpt lat="43.5363" lon="6.95332">
        <ele>2.5999999046326</ele>
        <time>2013-12-27T12:05:53.000Z</time>
      </trkpt>
      <trkpt lat="43.53675" lon="6.95386">
        <ele>3.7999999523163</ele>
        <time>2013-12-27T12:06:01.000Z</time>
      </trkpt>
      <trkpt lat="43.5368" lon="6.95393">
        <ele>4</ele>
        <time>2013-12-27T12:06:02.000Z</time>
      </trkpt>
      <trkpt lat="43.53725" lon="6.95447">
        <ele>6.8000001907349</ele>
        <time>2013-12-27T12:06:10.000Z</time>
      </trkpt>
      <trkpt lat="43.53742" lon="6.95468">
        <ele>7.8000001907349</ele>
        <time>2013-12-27T12:06:13.000Z</time>
      </trkpt>
      <trkpt lat="43.53784" lon="6.95526">
        <ele>11.60000038147</ele>
        <time>2013-12-27T12:06:21.000Z</time>
      </trkpt>
      <trkpt lat="43.53824" lon="6.95585">
        <ele>13.39999961853</ele>
        <time>2013-12-27T12:06:29.000Z</time>
      </trkpt>
      <trkpt lat="43.53834" lon="6.95599">
        <ele>13.199999809265</ele>
        <time>2013-12-27T12:06:31.000Z</time>
      </trkpt>
      <trkpt lat="43.53874" lon="6.9566">
        <ele>11</ele>
        <time>2013-12-27T12:06:39.000Z</time>
      </trkpt>
      <trkpt lat="43.53912" lon="6.9572">
        <ele>9.6000003814697</ele>
        <time>2013-12-27T12:06:47.000Z</time>
      </trkpt>
      <trkpt lat="43.5395" lon="6.9578">
        <ele>7.5999999046326</ele>
        <time>2013-12-27T12:06:55.000Z</time>
      </trkpt>
      <trkpt lat="43.53963" lon="6.95803">
        <ele>7.1999998092651</ele>
        <time>2013-12-27T12:06:58.000Z</time>
      </trkpt>
      <trkpt lat="43.53989" lon="6.95851">
        <ele>8</ele>
        <time>2013-12-27T12:07:04.000Z</time>
      </trkpt>
      <trkpt lat="43.54024" lon="6.95913">
        <ele>11</ele>
        <time>2013-12-27T12:07:12.000Z</time>
      </trkpt>
      <trkpt lat="43.54037" lon="6.95935">
        <ele>11.39999961853</ele>
        <time>2013-12-27T12:07:15.000Z</time>
      </trkpt>
      <trkpt lat="43.54072" lon="6.95997">
        <ele>9.6000003814697</ele>
        <time>2013-12-27T12:07:23.000Z</time>
      </trkpt>
      <trkpt lat="43.5408" lon="6.96012">
        <ele>8.8000001907349</ele>
        <time>2013-12-27T12:07:25.000Z</time>
      </trkpt>
      <trkpt lat="43.54116" lon="6.9607">
        <ele>6.1999998092651</ele>
        <time>2013-12-27T12:07:33.000Z</time>
      </trkpt>
      <trkpt lat="43.54141" lon="6.96105">
        <ele>5.1999998092651</ele>
        <time>2013-12-27T12:07:38.000Z</time>
      </trkpt>
      <trkpt lat="43.54145" lon="6.96113">
        <ele>5.4000000953674</ele>
        <time>2013-12-27T12:07:39.000Z</time>
      </trkpt>
      <trkpt lat="43.54153" lon="6.96129">
        <ele>5.5999999046326</ele>
        <time>2013-12-27T12:07:41.000Z</time>
      </trkpt>
      <trkpt lat="43.54163" lon="6.96143">
        <ele>6.1999998092651</ele>
        <time>2013-12-27T12:07:43.000Z</time>
      </trkpt>
      <trkpt lat="43.54177" lon="6.96176">
        <ele>7</ele>
        <time>2013-12-27T12:07:47.000Z</time>
      </trkpt>
      <trkpt lat="43.54198" lon="6.96226">
        <ele>6.8000001907349</ele>
        <time>2013-12-27T12:07:53.000Z</time>
      </trkpt>
      <trkpt lat="43.54226" lon="6.96281">
        <ele>7.5999999046326</ele>
        <time>2013-12-27T12:08:00.000Z</time>
      </trkpt>
      <trkpt lat="43.54257" lon="6.96344">
        <ele>7.4000000953674</ele>
        <time>2013-12-27T12:08:08.000Z</time>
      </trkpt>
      <trkpt lat="43.5426" lon="6.96352">
        <ele>7</ele>
        <time>2013-12-27T12:08:09.000Z</time>
      </trkpt>
      <trkpt lat="43.54286" lon="6.96409">
        <ele>5.8000001907349</ele>
        <time>2013-12-27T12:08:16.000Z</time>
      </trkpt>
      <trkpt lat="43.54314" lon="6.96476">
        <ele>6.8000001907349</ele>
        <time>2013-12-27T12:08:24.000Z</time>
      </trkpt>
      <trkpt lat="43.54325" lon="6.96502">
        <ele>7.5999999046326</ele>
        <time>2013-12-27T12:08:27.000Z</time>
      </trkpt>
      <trkpt lat="43.54352" lon="6.96571">
        <ele>2.2000000476837</ele>
        <time>2013-12-27T12:08:35.000Z</time>
      </trkpt>
      <trkpt lat="43.54359" lon="6.96589">
        <ele>1.3999999761581</ele>
        <time>2013-12-27T12:08:37.000Z</time>
      </trkpt>
      <trkpt lat="43.54385" lon="6.96658">
        <ele>1.7999999523163</ele>
        <time>2013-12-27T12:08:45.000Z</time>
      </trkpt>
      <trkpt lat="43.54388" lon="6.96667">
        <ele>2</ele>
        <time>2013-12-27T12:08:46.000Z</time>
      </trkpt>
      <trkpt lat="43.54416" lon="6.96737">
        <ele>4</ele>
        <time>2013-12-27T12:08:54.000Z</time>
      </trkpt>
      <trkpt lat="43.54423" lon="6.96754">
        <ele>3.7999999523163</ele>
        <time>2013-12-27T12:08:56.000Z</time>
      </trkpt>
      <trkpt lat="43.54449" lon="6.96823">
        <ele>2.4000000953674</ele>
        <time>2013-12-27T12:09:04.000Z</time>
      </trkpt>
      <trkpt lat="43.54477" lon="6.96892">
        <ele>1.2000000476837</ele>
        <time>2013-12-27T12:09:12.000Z</time>
      </trkpt>
      <trkpt lat="43.54481" lon="6.96901">
        <ele>1.2000000476837</ele>
        <time>2013-12-27T12:09:13.000Z</time>
      </trkpt>
      <trkpt lat="43.54505" lon="6.96971">
        <ele>0.40000000596046</ele>
        <time>2013-12-27T12:09:21.000Z</time>
      </trkpt>
      <trkpt lat="43.54529" lon="6.97043">
        <ele>2.5</ele>
        <time>2013-12-27T12:09:29.000Z</time>
      </trkpt>
      <trkpt lat="43.54531" lon="6.97052">
        <ele>2.4</ele>
        <time>2013-12-27T12:09:30.000Z</time>
      </trkpt>
      <trkpt lat="43.54552" lon="6.97128">
        <ele>2.4</ele>
        <time>2013-12-27T12:09:38.000Z</time>
      </trkpt>
      <trkpt lat="43.5456" lon="6.97156">
        <ele>1.8</ele>
        <time>2013-12-27T12:09:41.000Z</time>
      </trkpt>
      <trkpt lat="43.54581" lon="6.97228">
        <ele>-0.60000002384186</ele>
        <time>2013-12-27T12:09:49.000Z</time>
      </trkpt>
      <trkpt lat="43.54592" lon="6.97265">
        <ele>-1</ele>
        <time>2013-12-27T12:09:53.000Z</time>
      </trkpt>
      <trkpt lat="43.54611" lon="6.9734">
        <ele>-1.2000000476837</ele>
        <time>2013-12-27T12:10:01.000Z</time>
      </trkpt>
      <trkpt lat="43.54616" lon="6.97358">
        <ele>-0.80000001192093</ele>
        <time>2013-12-27T12:10:03.000Z</time>
      </trkpt>
      <trkpt lat="43.54637" lon="6.97434">
        <ele>3</ele>
        <time>2013-12-27T12:10:11.000Z</time>
      </trkpt>
      <trkpt lat="43.54657" lon="6.9751">
        <ele>-0.20000000298023</ele>
        <time>2013-12-27T12:10:19.000Z</time>
      </trkpt>
      <trkpt lat="43.54675" lon="6.97586">
        <ele>-0.60000002384186</ele>
        <time>2013-12-27T12:10:27.000Z</time>
      </trkpt>
      <trkpt lat="43.54679" lon="6.97605">
        <ele>-0.40000000596046</ele>
        <time>2013-12-27T12:10:29.000Z</time>
      </trkpt>
      <trkpt lat="43.54695" lon="6.9768">
        <ele>0.60000002384186</ele>
        <time>2013-12-27T12:10:37.000Z</time>
      </trkpt>
      <trkpt lat="43.54699" lon="6.97699">
        <ele>1.2000000476837</ele>
        <time>2013-12-27T12:10:39.000Z</time>
      </trkpt>
      <trkpt lat="43.54712" lon="6.97774">
        <ele>2.7999999523163</ele>
        <time>2013-12-27T12:10:47.000Z</time>
      </trkpt>
      <trkpt lat="43.54723" lon="6.97848">
        <ele>3.7999999523163</ele>
        <time>2013-12-27T12:10:55.000Z</time>
      </trkpt>
      <trkpt lat="43.54725" lon="6.97857">
        <ele>4</ele>
        <time>2013-12-27T12:10:56.000Z</time>
      </trkpt>
      <trkpt lat="43.54736" lon="6.97939">
        <ele>5</ele>
        <time>2013-12-27T12:11:05.000Z</time>
      </trkpt>
      <trkpt lat="43.54737" lon="6.97949">
        <ele>5</ele>
        <time>2013-12-27T12:11:06.000Z</time>
      </trkpt>
      <trkpt lat="43.54747" lon="6.98022">
        <ele>5</ele>
        <time>2013-12-27T12:11:14.000Z</time>
      </trkpt>
      <trkpt lat="43.54754" lon="6.98067">
        <ele>5.1999998092651</ele>
        <time>2013-12-27T12:11:19.000Z</time>
      </trkpt>
      <trkpt lat="43.54759" lon="6.98094">
        <ele>5.4000000953674</ele>
        <time>2013-12-27T12:11:22.000Z</time>
      </trkpt>
      <trkpt lat="43.54761" lon="6.98111">
        <ele>5.4000000953674</ele>
        <time>2013-12-27T12:11:24.000Z</time>
      </trkpt>
      <trkpt lat="43.54768" lon="6.98173">
        <ele>6.1999998092651</ele>
        <time>2013-12-27T12:11:31.000Z</time>
      </trkpt>
      <trkpt lat="43.54768" lon="6.98182">
        <ele>6.1999998092651</ele>
        <time>2013-12-27T12:11:32.000Z</time>
      </trkpt>
      <trkpt lat="43.54777" lon="6.98246">
        <ele>7</ele>
        <time>2013-12-27T12:11:39.000Z</time>
      </trkpt>
      <trkpt lat="43.54788" lon="6.98321">
        <ele>6.1999998092651</ele>
        <time>2013-12-27T12:11:47.000Z</time>
      </trkpt>
      <trkpt lat="43.5479" lon="6.9834">
        <ele>6</ele>
        <time>2013-12-27T12:11:49.000Z</time>
      </trkpt>
      <trkpt lat="43.54804" lon="6.98413">
        <ele>6.8000001907349</ele>
        <time>2013-12-27T12:11:57.000Z</time>
      </trkpt>
      <trkpt lat="43.54808" lon="6.98432">
        <ele>7.1999998092651</ele>
        <time>2013-12-27T12:11:59.000Z</time>
      </trkpt>
      <trkpt lat="43.54822" lon="6.98506">
        <ele>8.8000001907349</ele>
        <time>2013-12-27T12:12:07.000Z</time>
      </trkpt>
      <trkpt lat="43.54825" lon="6.98525">
        <ele>8.6000003814697</ele>
        <time>2013-12-27T12:12:09.000Z</time>
      </trkpt>
      <trkpt lat="43.54838" lon="6.986">
        <ele>6</ele>
        <time>2013-12-27T12:12:17.000Z</time>
      </trkpt>
      <trkpt lat="43.54843" lon="6.98628">
        <ele>4.5999999046326</ele>
        <time>2013-12-27T12:12:20.000Z</time>
      </trkpt>
      <trkpt lat="43.54858" lon="6.98702">
        <ele>4.4000000953674</ele>
        <time>2013-12-27T12:12:28.000Z</time>
      </trkpt>
      <trkpt lat="43.54871" lon="6.9878">
        <ele>5.1999998092651</ele>
        <time>2013-12-27T12:12:36.000Z</time>
      </trkpt>
      <trkpt lat="43.54883" lon="6.98859">
        <ele>3.7999999523163</ele>
        <time>2013-12-27T12:12:44.000Z</time>
      </trkpt>
      <trkpt lat="43.54886" lon="6.98889">
        <ele>3.7999999523163</ele>
        <time>2013-12-27T12:12:47.000Z</time>
      </trkpt>
      <trkpt lat="43.54893" lon="6.98967">
        <ele>2.7999999523163</ele>
        <time>2013-12-27T12:12:55.000Z</time>
      </trkpt>
      <trkpt lat="43.54899" lon="6.99044">
        <ele>3</ele>
        <time>2013-12-27T12:13:03.000Z</time>
      </trkpt>
      <trkpt lat="43.549" lon="6.99064">
        <ele>3.4000000953674</ele>
        <time>2013-12-27T12:13:05.000Z</time>
      </trkpt>
      <trkpt lat="43.54905" lon="6.99144">
        <ele>5.1999998092651</ele>
        <time>2013-12-27T12:13:13.000Z</time>
      </trkpt>
      <trkpt lat="43.54906" lon="6.99154">
        <ele>5.4000000953674</ele>
        <time>2013-12-27T12:13:14.000Z</time>
      </trkpt>
      <trkpt lat="43.5491" lon="6.99237">
        <ele>7.5999999046326</ele>
        <time>2013-12-27T12:13:22.000Z</time>
      </trkpt>
      <trkpt lat="43.54914" lon="6.99316">
        <ele>5.5999999046326</ele>
        <time>2013-12-27T12:13:30.000Z</time>
      </trkpt>
      <trkpt lat="43.54915" lon="6.99345">
        <ele>5.4000000953674</ele>
        <time>2013-12-27T12:13:33.000Z</time>
      </trkpt>
      <trkpt lat="43.54919" lon="6.99427">
        <ele>7.8000001907349</ele>
        <time>2013-12-27T12:13:41.000Z</time>
      </trkpt>
      <trkpt lat="43.54919" lon="6.99438">
        <ele>7.4000000953674</ele>
        <time>2013-12-27T12:13:42.000Z</time>
      </trkpt>
      <trkpt lat="43.54922" lon="6.9951">
        <ele>5.1999998092651</ele>
        <time>2013-12-27T12:13:49.000Z</time>
      </trkpt>
      <trkpt lat="43.54923" lon="6.99588">
        <ele>4.5999999046326</ele>
        <time>2013-12-27T12:13:57.000Z</time>
      </trkpt>
      <trkpt lat="43.54923" lon="6.99618">
        <ele>5.4000000953674</ele>
        <time>2013-12-27T12:14:00.000Z</time>
      </trkpt>
      <trkpt lat="43.54919" lon="6.99677">
        <ele>6</ele>
        <time>2013-12-27T12:14:06.000Z</time>
      </trkpt>
      <trkpt lat="43.54917" lon="6.99752">
        <ele>5</ele>
        <time>2013-12-27T12:14:14.000Z</time>
      </trkpt>
      <trkpt lat="43.54915" lon="6.99781">
        <ele>5</ele>
        <time>2013-12-27T12:14:17.000Z</time>
      </trkpt>
      <trkpt lat="43.54913" lon="6.99855">
        <ele>5.4000000953674</ele>
        <time>2013-12-27T12:14:25.000Z</time>
      </trkpt>
      <trkpt lat="43.54912" lon="6.99884">
        <ele>6.4000000953674</ele>
        <time>2013-12-27T12:14:28.000Z</time>
      </trkpt>
      <trkpt lat="43.54909" lon="6.99962">
        <ele>8.6000003814697</ele>
        <time>2013-12-27T12:14:36.000Z</time>
      </trkpt>
      <trkpt lat="43.54907" lon="6.9999">
        <ele>9</ele>
        <time>2013-12-27T12:14:39.000Z</time>
      </trkpt>
      <trkpt lat="43.54904" lon="7.00066">
        <ele>5.5999999046326</ele>
        <time>2013-12-27T12:14:47.000Z</time>
      </trkpt>
      <trkpt lat="43.54903" lon="7.00076">
        <ele>5</ele>
        <time>2013-12-27T12:14:48.000Z</time>
      </trkpt>
      <trkpt lat="43.549" lon="7.00152">
        <ele>2.5999999046326</ele>
        <time>2013-12-27T12:14:56.000Z</time>
      </trkpt>
      <trkpt lat="43.54899" lon="7.00181">
        <ele>2</ele>
        <time>2013-12-27T12:14:59.000Z</time>
      </trkpt>
      <trkpt lat="43.54897" lon="7.00228">
        <ele>2</ele>
        <time>2013-12-27T12:15:04.000Z</time>
      </trkpt>
      <trkpt lat="43.54899" lon="7.00303">
        <ele>2.7999999523163</ele>
        <time>2013-12-27T12:15:12.000Z</time>
      </trkpt>
      <trkpt lat="43.54899" lon="7.00312">
        <ele>3</ele>
        <time>2013-12-27T12:15:13.000Z</time>
      </trkpt>
      <trkpt lat="43.54898" lon="7.0039">
        <ele>2.7999999523163</ele>
        <time>2013-12-27T12:15:21.000Z</time>
      </trkpt>
      <trkpt lat="43.54898" lon="7.00399">
        <ele>2.7999999523163</ele>
        <time>2013-12-27T12:15:22.000Z</time>
      </trkpt>
      <trkpt lat="43.54892" lon="7.00475">
        <ele>5.1999998092651</ele>
        <time>2013-12-27T12:15:30.000Z</time>
      </trkpt>
      <trkpt lat="43.54891" lon="7.00484">
        <ele>5.5999999046326</ele>
        <time>2013-12-27T12:15:31.000Z</time>
      </trkpt>
      <trkpt lat="43.54886" lon="7.00557">
        <ele>8.3999996185303</ele>
        <time>2013-12-27T12:15:39.000Z</time>
      </trkpt>
      <trkpt lat="43.54886" lon="7.00589">
        <ele>9.6000003814697</ele>
        <time>2013-12-27T12:15:44.000Z</time>
      </trkpt>
      <trkpt lat="43.54885" lon="7.0064">
        <ele>7.4000000953674</ele>
        <time>2013-12-27T12:15:51.000Z</time>
      </trkpt>
      <trkpt lat="43.5488" lon="7.00696">
        <ele>7.1999998092651</ele>
        <time>2013-12-27T12:15:58.000Z</time>
      </trkpt>
      <trkpt lat="43.54874" lon="7.00755">
        <ele>8.6000003814697</ele>
        <time>2013-12-27T12:16:06.000Z</time>
      </trkpt>
      <trkpt lat="43.54862" lon="7.00818">
        <ele>10.199999809265</ele>
        <time>2013-12-27T12:16:14.000Z</time>
      </trkpt>
      <trkpt lat="43.54847" lon="7.00898">
        <ele>10.39999961853</ele>
        <time>2013-12-27T12:16:23.000Z</time>
      </trkpt>
      <trkpt lat="43.5483" lon="7.00977">
        <ele>10.800000190735</ele>
        <time>2013-12-27T12:16:32.000Z</time>
      </trkpt>
      <trkpt lat="43.54828" lon="7.00986">
        <ele>10.800000190735</ele>
        <time>2013-12-27T12:16:33.000Z</time>
      </trkpt>
      <trkpt lat="43.54815" lon="7.0104">
        <ele>9.8000001907349</ele>
        <time>2013-12-27T12:16:39.000Z</time>
      </trkpt>
      <trkpt lat="43.54798" lon="7.0111">
        <ele>7.4000000953674</ele>
        <time>2013-12-27T12:16:47.000Z</time>
      </trkpt>
      <trkpt lat="43.54781" lon="7.01181">
        <ele>6.4000000953674</ele>
        <time>2013-12-27T12:16:55.000Z</time>
      </trkpt>
      <trkpt lat="43.54778" lon="7.01199">
        <ele>5.5999999046326</ele>
        <time>2013-12-27T12:16:57.000Z</time>
      </trkpt>
      <trkpt lat="43.54778" lon="7.01209">
        <ele>5.4000000953674</ele>
        <time>2013-12-27T12:16:58.000Z</time>
      </trkpt>
      <trkpt lat="43.5478" lon="7.01227">
        <ele>4.8000001907349</ele>
        <time>2013-12-27T12:17:00.000Z</time>
      </trkpt>
      <trkpt lat="43.54795" lon="7.01245">
        <ele>4.1999998092651</ele>
        <time>2013-12-27T12:17:03.000Z</time>
      </trkpt>
      <trkpt lat="43.54816" lon="7.01249">
        <ele>4</ele>
        <time>2013-12-27T12:17:06.000Z</time>
      </trkpt>
      <trkpt lat="43.5483" lon="7.01254">
        <ele>3.7999999523163</ele>
        <time>2013-12-27T12:17:08.000Z</time>
      </trkpt>
      <trkpt lat="43.54846" lon="7.01253">
        <ele>3.7999999523163</ele>
        <time>2013-12-27T12:17:10.000Z</time>
      </trkpt>
      <trkpt lat="43.54854" lon="7.01251">
        <ele>3.7999999523163</ele>
        <time>2013-12-27T12:17:11.000Z</time>
      </trkpt>
      <trkpt lat="43.54911" lon="7.0124">
        <ele>4.4000000953674</ele>
        <time>2013-12-27T12:17:18.000Z</time>
      </trkpt>
      <trkpt lat="43.54919" lon="7.01239">
        <ele>4.5999999046326</ele>
        <time>2013-12-27T12:17:19.000Z</time>
      </trkpt>
      <trkpt lat="43.54979" lon="7.01226">
        <ele>6.8000001907349</ele>
        <time>2013-12-27T12:17:27.000Z</time>
      </trkpt>
      <trkpt lat="43.55029" lon="7.01214">
        <ele>8</ele>
        <time>2013-12-27T12:17:34.000Z</time>
      </trkpt>
      <trkpt lat="43.55065" lon="7.01207">
        <ele>8</ele>
        <time>2013-12-27T12:17:40.000Z</time>
      </trkpt>
      <trkpt lat="43.55074" lon="7.01205">
        <ele>8</ele>
        <time>2013-12-27T12:17:42.000Z</time>
      </trkpt>
      <trkpt lat="43.55082" lon="7.01199">
        <ele>8.3999996185303</ele>
        <time>2013-12-27T12:17:44.000Z</time>
      </trkpt>
      <trkpt lat="43.55085" lon="7.01197">
        <ele>8.6000003814697</ele>
        <time>2013-12-27T12:17:45.000Z</time>
      </trkpt>
      <trkpt lat="43.55099" lon="7.01195">
        <ele>9.1999998092651</ele>
        <time>2013-12-27T12:17:49.000Z</time>
      </trkpt>
      <trkpt lat="43.55101" lon="7.01195">
        <ele>9.3999996185303</ele>
        <time>2013-12-27T12:17:50.000Z</time>
      </trkpt>
      <trkpt lat="43.55106" lon="7.01192">
        <ele>9.8000001907349</ele>
        <time>2013-12-27T12:17:52.000Z</time>
      </trkpt>
      <trkpt lat="43.5512" lon="7.0119">
        <ele>10.39999961853</ele>
        <time>2013-12-27T12:17:56.000Z</time>
      </trkpt>
      <trkpt lat="43.55131" lon="7.01189">
        <ele>10.800000190735</ele>
        <time>2013-12-27T12:17:59.000Z</time>
      </trkpt>
      <trkpt lat="43.55138" lon="7.01182">
        <ele>11.60000038147</ele>
        <time>2013-12-27T12:18:01.000Z</time>
      </trkpt>
      <trkpt lat="43.55151" lon="7.01165">
        <ele>12.800000190735</ele>
        <time>2013-12-27T12:18:06.000Z</time>
      </trkpt>
      <trkpt lat="43.55149" lon="7.01163">
        <ele>13</ele>
        <time>2013-12-27T12:18:07.000Z</time>
      </trkpt>
      <trkpt lat="43.55142" lon="7.0116">
        <ele>13.199999809265</ele>
        <time>2013-12-27T12:18:10.000Z</time>
      </trkpt>
      <trkpt lat="43.55138" lon="7.01155">
        <ele>13.60000038147</ele>
        <time>2013-12-27T12:18:12.000Z</time>
      </trkpt>
      <trkpt lat="43.55136" lon="7.0115">
        <ele>14.199999809265</ele>
        <time>2013-12-27T12:18:14.000Z</time>
      </trkpt>
      <trkpt lat="43.55137" lon="7.01141">
        <ele>15</ele>
        <time>2013-12-27T12:18:16.000Z</time>
      </trkpt>
      <trkpt lat="43.55143" lon="7.01128">
        <ele>16.39999961853</ele>
        <time>2013-12-27T12:18:21.000Z</time>
      </trkpt>
      <trkpt lat="43.55148" lon="7.01121">
        <ele>16.799999237061</ele>
        <time>2013-12-27T12:18:25.000Z</time>
      </trkpt>
      <trkpt lat="43.5515" lon="7.01118">
        <ele>17</ele>
        <time>2013-12-27T12:18:28.000Z</time>
      </trkpt>
    </trkseg>
  </trk>
</gpx>